<?xml version="1.0" encoding="UTF-8" standalone="no" ?><gpx xmlns="http://www.topografix.com/GPX/1/1" xmlns:gpxx="http://www.garmin.com/xmlschemas/GpxExtensions/v3" xmlns:wptx1="http://www.garmin.com/xmlschemas/WaypointExtension/v1" xmlns:gpxtpx="http://www.garmin.com/xmlschemas/TrackPointExtension/v1" creator="GuideVTT.com" version="1.1" xmlns:xsi="http://www.w3.org/2001/XMLSchema-instance" xsi:schemaLocation="http://www.topografix.com/GPX/1/1 http://www.topografix.com/GPX/1/1/gpx.xsd http://www.garmin.com/xmlschemas/GpxExtensions/v3 http://www8.garmin.com/xmlschemas/GpxExtensionsv3.xsd http://www.garmin.com/xmlschemas/WaypointExtension/v1 http://www8.garmin.com/xmlschemas/WaypointExtensionv1.xsd http://www.garmin.com/xmlschemas/TrackPointExtension/v1 http://www.garmin.com/xmlschemas/TrackPointExtensionv1.xsd">
<metadata><link href="http://www.garmin.com"><text>Garmin International</text></link><time>2013-06-22T15:13:50Z</time></metadata>
<trk><name>st-mos_math.gpx</name><extensions><gpxx:TrackExtension><gpxx:DisplayColor>Cyan</gpxx:DisplayColor></gpxx:TrackExtension></extensions><trkseg>
<trkpt lat="46.24630300" lon="7.01250900"><ele>442.7919921384</ele><time>2008-11-01T11:41:49Z</time></trkpt>
<trkpt lat="46.24631100" lon="7.01252400"><ele>442.8619995168</ele><time>2008-11-01T11:41:50Z</time></trkpt>
<trkpt lat="46.24629000" lon="7.01252000"><ele>441.7000123056</ele><time>2008-11-01T11:41:53Z</time></trkpt>
<trkpt lat="46.24627800" lon="7.01251800"><ele>441.4500122976</ele><time>2008-11-01T11:41:54Z</time></trkpt>
<trkpt lat="46.24626600" lon="7.01252100"><ele>441.3710023464</ele><time>2008-11-01T11:41:55Z</time></trkpt>
<trkpt lat="46.24625100" lon="7.01252600"><ele>441.2919920904</ele><time>2008-11-01T11:41:56Z</time></trkpt>
<trkpt lat="46.24624000" lon="7.01253500"><ele>441.3519898368</ele><time>2008-11-01T11:41:57Z</time></trkpt>
<trkpt lat="46.24622900" lon="7.01254500"><ele>442.092010404</ele><time>2008-11-01T11:41:58Z</time></trkpt>
<trkpt lat="46.24622400" lon="7.01255000"><ele>441.878997876</ele><time>2008-11-01T11:41:59Z</time></trkpt>
<trkpt lat="46.24621600" lon="7.01254700"><ele>442.0899962856</ele><time>2008-11-01T11:42:00Z</time></trkpt>
<trkpt lat="46.24621500" lon="7.01253300"><ele>441.6690062208</ele><time>2008-11-01T11:42:01Z</time></trkpt>
<trkpt lat="46.24622000" lon="7.01251000"><ele>441.9190062288</ele><time>2008-11-01T11:42:02Z</time></trkpt>
<trkpt lat="46.24623400" lon="7.01248000"><ele>441.6589965888</ele><time>2008-11-01T11:42:03Z</time></trkpt>
<trkpt lat="46.24624900" lon="7.01244300"><ele>441.269012304</ele><time>2008-11-01T11:42:04Z</time></trkpt>
<trkpt lat="46.24625400" lon="7.01239100"><ele>442.1690062368</ele><time>2008-11-01T11:42:05Z</time></trkpt>
<trkpt lat="46.24626300" lon="7.01233900"><ele>443.0899963176</ele><time>2008-11-01T11:42:06Z</time></trkpt>
<trkpt lat="46.24628000" lon="7.01228900"><ele>443.5580139744</ele><time>2008-11-01T11:42:07Z</time></trkpt>
<trkpt lat="46.24630500" lon="7.01224500"><ele>443.3190001776</ele><time>2008-11-01T11:42:08Z</time></trkpt>
<trkpt lat="46.24633200" lon="7.01219800"><ele>442.9079895696</ele><time>2008-11-01T11:42:09Z</time></trkpt>
<trkpt lat="46.24636400" lon="7.01215100"><ele>442.5480040056</ele><time>2008-11-01T11:42:10Z</time></trkpt>
<trkpt lat="46.24640000" lon="7.01210800"><ele>442.1170043088</ele><time>2008-11-01T11:42:11Z</time></trkpt>
<trkpt lat="46.24643700" lon="7.01206700"><ele>441.5759888808</ele><time>2008-11-01T11:42:12Z</time></trkpt>
<trkpt lat="46.24647300" lon="7.01203000"><ele>441.186004596</ele><time>2008-11-01T11:42:13Z</time></trkpt>
<trkpt lat="46.24650500" lon="7.01200100"><ele>440.7359923896</ele><time>2008-11-01T11:42:14Z</time></trkpt>
<trkpt lat="46.24653400" lon="7.01197600"><ele>440.3559875616</ele><time>2008-11-01T11:42:15Z</time></trkpt>
<trkpt lat="46.24656300" lon="7.01195300"><ele>440.1279907608</ele><time>2008-11-01T11:42:16Z</time></trkpt>
<trkpt lat="46.24659000" lon="7.01192700"><ele>439.9179994104</ele><time>2008-11-01T11:42:17Z</time></trkpt>
<trkpt lat="46.24660900" lon="7.01189300"><ele>440.5280151576</ele><time>2008-11-01T11:42:18Z</time></trkpt>
<trkpt lat="46.24662600" lon="7.01185400"><ele>440.8169859792</ele><time>2008-11-01T11:42:19Z</time></trkpt>
<trkpt lat="46.24663600" lon="7.01180800"><ele>441.2579956128</ele><time>2008-11-01T11:42:20Z</time></trkpt>
<trkpt lat="46.24664000" lon="7.01176300"><ele>440.946991104</ele><time>2008-11-01T11:42:21Z</time></trkpt>
<trkpt lat="46.24663900" lon="7.01171800"><ele>440.6059875696</ele><time>2008-11-01T11:42:22Z</time></trkpt>
<trkpt lat="46.24663500" lon="7.01167400"><ele>440.3670042528</ele><time>2008-11-01T11:42:23Z</time></trkpt>
<trkpt lat="46.24663000" lon="7.01163000"><ele>440.1570129024</ele><time>2008-11-01T11:42:24Z</time></trkpt>
<trkpt lat="46.24662700" lon="7.01158600"><ele>439.8670045416</ele><time>2008-11-01T11:42:25Z</time></trkpt>
<trkpt lat="46.24662200" lon="7.01154000"><ele>439.7780151336</ele><time>2008-11-01T11:42:26Z</time></trkpt>
<trkpt lat="46.24661900" lon="7.01149500"><ele>439.4869994088</ele><time>2008-11-01T11:42:27Z</time></trkpt>
<trkpt lat="46.24661500" lon="7.01144900"><ele>439.316986236</ele><time>2008-11-01T11:42:28Z</time></trkpt>
<trkpt lat="46.24661100" lon="7.01140500"><ele>439.2470093376</ele><time>2008-11-01T11:42:29Z</time></trkpt>
<trkpt lat="46.24660700" lon="7.01136400"><ele>439.066986228</ele><time>2008-11-01T11:42:30Z</time></trkpt>
<trkpt lat="46.24660400" lon="7.01132500"><ele>438.7980041904</ele><time>2008-11-01T11:42:31Z</time></trkpt>
<trkpt lat="46.24660000" lon="7.01128300"><ele>438.566986212</ele><time>2008-11-01T11:42:32Z</time></trkpt>
<trkpt lat="46.24659400" lon="7.01123600"><ele>438.3569945568</ele><time>2008-11-01T11:42:33Z</time></trkpt>
<trkpt lat="46.24658700" lon="7.01118700"><ele>438.1570128384</ele><time>2008-11-01T11:42:34Z</time></trkpt>
<trkpt lat="46.24657800" lon="7.01113800"><ele>438.108001608</ele><time>2008-11-01T11:42:35Z</time></trkpt>
<trkpt lat="46.24657100" lon="7.01108900"><ele>437.9379881304</ele><time>2008-11-01T11:42:36Z</time></trkpt>
<trkpt lat="46.24656200" lon="7.01103700"><ele>437.5870057488</ele><time>2008-11-01T11:42:37Z</time></trkpt>
<trkpt lat="46.24655400" lon="7.01098400"><ele>437.286010872</ele><time>2008-11-01T11:42:38Z</time></trkpt>
<trkpt lat="46.24654500" lon="7.01093300"><ele>437.036010864</ele><time>2008-11-01T11:42:39Z</time></trkpt>
<trkpt lat="46.24653400" lon="7.01088100"><ele>436.8760070184</ele><time>2008-11-01T11:42:40Z</time></trkpt>
<trkpt lat="46.24651900" lon="7.01082600"><ele>437.3770140936</ele><time>2008-11-01T11:42:41Z</time></trkpt>
<trkpt lat="46.24650300" lon="7.01077100"><ele>437.6860047888</ele><time>2008-11-01T11:42:42Z</time></trkpt>
<trkpt lat="46.24648700" lon="7.01071400"><ele>438.066986196</ele><time>2008-11-01T11:42:43Z</time></trkpt>
<trkpt lat="46.24647300" lon="7.01065500"><ele>438.9179993784</ele><time>2008-11-01T11:42:44Z</time></trkpt>
<trkpt lat="46.24645700" lon="7.01059700"><ele>439.6489868928</ele><time>2008-11-01T11:42:45Z</time></trkpt>
<trkpt lat="46.24644300" lon="7.01053800"><ele>439.8089904336</ele><time>2008-11-01T11:42:46Z</time></trkpt>
<trkpt lat="46.24643200" lon="7.01048100"><ele>439.5280151256</ele><time>2008-11-01T11:42:47Z</time></trkpt>
<trkpt lat="46.24642800" lon="7.01042400"><ele>439.7260132056</ele><time>2008-11-01T11:42:48Z</time></trkpt>
<trkpt lat="46.24642300" lon="7.01036600"><ele>439.3240051704</ele><time>2008-11-01T11:42:49Z</time></trkpt>
<trkpt lat="46.24641400" lon="7.01030700"><ele>438.9670106088</ele><time>2008-11-01T11:42:50Z</time></trkpt>
<trkpt lat="46.24640600" lon="7.01024900"><ele>438.415985244</ele><time>2008-11-01T11:42:51Z</time></trkpt>
<trkpt lat="46.24639400" lon="7.01018600"><ele>437.8959961392</ele><time>2008-11-01T11:42:52Z</time></trkpt>
<trkpt lat="46.24638100" lon="7.01012500"><ele>437.4760131336</ele><time>2008-11-01T11:42:53Z</time></trkpt>
<trkpt lat="46.24636700" lon="7.01006400"><ele>437.2269897048</ele><time>2008-11-01T11:42:54Z</time></trkpt>
<trkpt lat="46.24635400" lon="7.00999900"><ele>436.4960021904</ele><time>2008-11-01T11:42:55Z</time></trkpt>
<trkpt lat="46.24633900" lon="7.00993400"><ele>435.8559874176</ele><time>2008-11-01T11:42:56Z</time></trkpt>
<trkpt lat="46.24632100" lon="7.00986800"><ele>435.4689941352</ele><time>2008-11-01T11:42:57Z</time></trkpt>
<trkpt lat="46.24629400" lon="7.00979900"><ele>435.675994788</ele><time>2008-11-01T11:42:58Z</time></trkpt>
<trkpt lat="46.24627200" lon="7.00973000"><ele>435.2449950912</ele><time>2008-11-01T11:42:59Z</time></trkpt>
<trkpt lat="46.24624700" lon="7.00966000"><ele>434.8550111112</ele><time>2008-11-01T11:43:00Z</time></trkpt>
<trkpt lat="46.24622400" lon="7.00958700"><ele>434.4949950672</ele><time>2008-11-01T11:43:01Z</time></trkpt>
<trkpt lat="46.24620000" lon="7.00951400"><ele>434.1249998712</ele><time>2008-11-01T11:43:02Z</time></trkpt>
<trkpt lat="46.24617600" lon="7.00944100"><ele>433.7250059544</ele><time>2008-11-01T11:43:03Z</time></trkpt>
<trkpt lat="46.24615400" lon="7.00936800"><ele>433.375000152</ele><time>2008-11-01T11:43:04Z</time></trkpt>
<trkpt lat="46.24613100" lon="7.00930000"><ele>433.0450133088</ele><time>2008-11-01T11:43:05Z</time></trkpt>
<trkpt lat="46.24611000" lon="7.00923400"><ele>432.79598988</ele><time>2008-11-01T11:43:06Z</time></trkpt>
<trkpt lat="46.24609300" lon="7.00916700"><ele>432.4960020624</ele><time>2008-11-01T11:43:07Z</time></trkpt>
<trkpt lat="46.24607900" lon="7.00909800"><ele>432.1749879216</ele><time>2008-11-01T11:43:08Z</time></trkpt>
<trkpt lat="46.24606900" lon="7.00902900"><ele>431.9859924144</ele><time>2008-11-01T11:43:09Z</time></trkpt>
<trkpt lat="46.24607000" lon="7.00896200"><ele>431.7879943344</ele><time>2008-11-01T11:43:10Z</time></trkpt>
<trkpt lat="46.24608800" lon="7.00890600"><ele>431.5280151744</ele><time>2008-11-01T11:43:11Z</time></trkpt>
<trkpt lat="46.24611300" lon="7.00885600"><ele>431.2479859656</ele><time>2008-11-01T11:43:12Z</time></trkpt>
<trkpt lat="46.24614100" lon="7.00881000"><ele>430.9469910888</ele><time>2008-11-01T11:43:13Z</time></trkpt>
<trkpt lat="46.24616800" lon="7.00876200"><ele>430.8469849896</ele><time>2008-11-01T11:43:14Z</time></trkpt>
<trkpt lat="46.24619100" lon="7.00870900"><ele>431.2170103608</ele><time>2008-11-01T11:43:15Z</time></trkpt>
<trkpt lat="46.24621900" lon="7.00865500"><ele>430.2349852992</ele><time>2008-11-01T11:43:16Z</time></trkpt>
<trkpt lat="46.24624200" lon="7.00860100"><ele>429.8550109512</ele><time>2008-11-01T11:43:17Z</time></trkpt>
<trkpt lat="46.24626100" lon="7.00854600"><ele>429.484008696</ele><time>2008-11-01T11:43:18Z</time></trkpt>
<trkpt lat="46.24628200" lon="7.00849300"><ele>429.2149964832</ele><time>2008-11-01T11:43:19Z</time></trkpt>
<trkpt lat="46.24630700" lon="7.00843700"><ele>428.6340025728</ele><time>2008-11-01T11:43:20Z</time></trkpt>
<trkpt lat="46.24633200" lon="7.00837200"><ele>428.1919861848</ele><time>2008-11-01T11:43:21Z</time></trkpt>
<trkpt lat="46.24636000" lon="7.00829800"><ele>427.67199708</ele><time>2008-11-01T11:43:22Z</time></trkpt>
<trkpt lat="46.24639300" lon="7.00821800"><ele>427.0799864784</ele><time>2008-11-01T11:43:23Z</time></trkpt>
<trkpt lat="46.24643400" lon="7.00813300"><ele>426.1180114656</ele><time>2008-11-01T11:43:24Z</time></trkpt>
<trkpt lat="46.24648000" lon="7.00804300"><ele>425.3479918728</ele><time>2008-11-01T11:43:25Z</time></trkpt>
<trkpt lat="46.24652900" lon="7.00795300"><ele>424.7380066056</ele><time>2008-11-01T11:43:26Z</time></trkpt>
<trkpt lat="46.24658200" lon="7.00786400"><ele>424.2879943992</ele><time>2008-11-01T11:43:27Z</time></trkpt>
<trkpt lat="46.24663800" lon="7.00777800"><ele>424.2489928008</ele><time>2008-11-01T11:43:28Z</time></trkpt>
<trkpt lat="46.24669100" lon="7.00770000"><ele>424.3609924752</ele><time>2008-11-01T11:43:29Z</time></trkpt>
<trkpt lat="46.24674100" lon="7.00763800"><ele>424.55300916</ele><time>2008-11-01T11:43:30Z</time></trkpt>
<trkpt lat="46.24679100" lon="7.00758900"><ele>424.4729918448</ele><time>2008-11-01T11:43:31Z</time></trkpt>
<trkpt lat="46.24683900" lon="7.00754600"><ele>424.6040040288</ele><time>2008-11-01T11:43:32Z</time></trkpt>
<trkpt lat="46.24688700" lon="7.00750500"><ele>424.624999872</ele><time>2008-11-01T11:43:33Z</time></trkpt>
<trkpt lat="46.24693300" lon="7.00746400"><ele>424.5549927984</ele><time>2008-11-01T11:43:34Z</time></trkpt>
<trkpt lat="46.24698200" lon="7.00742600"><ele>424.9880066136</ele><time>2008-11-01T11:43:35Z</time></trkpt>
<trkpt lat="46.24703200" lon="7.00738600"><ele>424.916992176</ele><time>2008-11-01T11:43:36Z</time></trkpt>
<trkpt lat="46.24707900" lon="7.00735200"><ele>424.9769896176</ele><time>2008-11-01T11:43:37Z</time></trkpt>
<trkpt lat="46.24712400" lon="7.00731800"><ele>425.0780030808</ele><time>2008-11-01T11:43:38Z</time></trkpt>
<trkpt lat="46.24716400" lon="7.00728500"><ele>425.317993152</ele><time>2008-11-01T11:43:39Z</time></trkpt>
<trkpt lat="46.24720200" lon="7.00725500"><ele>425.6189880288</ele><time>2008-11-01T11:43:40Z</time></trkpt>
<trkpt lat="46.24723800" lon="7.00722200"><ele>425.7900085656</ele><time>2008-11-01T11:43:41Z</time></trkpt>
<trkpt lat="46.24727000" lon="7.00719000"><ele>425.6789854704</ele><time>2008-11-01T11:43:42Z</time></trkpt>
<trkpt lat="46.24730200" lon="7.00716000"><ele>425.6900024664</ele><time>2008-11-01T11:43:43Z</time></trkpt>
<trkpt lat="46.24732800" lon="7.00713000"><ele>425.5490111304</ele><time>2008-11-01T11:43:44Z</time></trkpt>
<trkpt lat="46.24735100" lon="7.00710100"><ele>425.7390136968</ele><time>2008-11-01T11:43:45Z</time></trkpt>
<trkpt lat="46.24738200" lon="7.00707200"><ele>426.0490111464</ele><time>2008-11-01T11:43:46Z</time></trkpt>
<trkpt lat="46.24742100" lon="7.00703700"><ele>426.4389954312</ele><time>2008-11-01T11:43:47Z</time></trkpt>
<trkpt lat="46.24746000" lon="7.00699900"><ele>426.5280150144</ele><time>2008-11-01T11:43:48Z</time></trkpt>
<trkpt lat="46.24749500" lon="7.00695900"><ele>426.5379944712</ele><time>2008-11-01T11:43:49Z</time></trkpt>
<trkpt lat="46.24752800" lon="7.00691600"><ele>426.578002824</ele><time>2008-11-01T11:43:50Z</time></trkpt>
<trkpt lat="46.24756000" lon="7.00687000"><ele>426.5480041032</ele><time>2008-11-01T11:43:51Z</time></trkpt>
<trkpt lat="46.24758600" lon="7.00682900"><ele>426.7369996104</ele><time>2008-11-01T11:43:52Z</time></trkpt>
<trkpt lat="46.24760900" lon="7.00679200"><ele>426.666992232</ele><time>2008-11-01T11:43:53Z</time></trkpt>
<trkpt lat="46.24763200" lon="7.00675300"><ele>426.4869996024</ele><time>2008-11-01T11:43:54Z</time></trkpt>
<trkpt lat="46.24765500" lon="7.00671200"><ele>426.1849976664</ele><time>2008-11-01T11:43:55Z</time></trkpt>
<trkpt lat="46.24767900" lon="7.00667300"><ele>426.1350098568</ele><time>2008-11-01T11:43:56Z</time></trkpt>
<trkpt lat="46.24770600" lon="7.00663800"><ele>425.8450011912</ele><time>2008-11-01T11:43:57Z</time></trkpt>
<trkpt lat="46.24773100" lon="7.00661300"><ele>425.7369995784</ele><time>2008-11-01T11:43:58Z</time></trkpt>
<trkpt lat="46.24775300" lon="7.00659400"><ele>425.5669861008</ele><time>2008-11-01T11:43:59Z</time></trkpt>
<trkpt lat="46.24777300" lon="7.00657400"><ele>425.5079957184</ele><time>2008-11-01T11:44:00Z</time></trkpt>
<trkpt lat="46.24779300" lon="7.00654800"><ele>425.5180053504</ele><time>2008-11-01T11:44:01Z</time></trkpt>
<trkpt lat="46.24780600" lon="7.00651400"><ele>425.5190124096</ele><time>2008-11-01T11:44:02Z</time></trkpt>
<trkpt lat="46.24780900" lon="7.00647400"><ele>425.3689880208</ele><time>2008-11-01T11:44:03Z</time></trkpt>
<trkpt lat="46.24780600" lon="7.00643400"><ele>425.1380005224</ele><time>2008-11-01T11:44:04Z</time></trkpt>
<trkpt lat="46.24779900" lon="7.00639500"><ele>424.808013984</ele><time>2008-11-01T11:44:05Z</time></trkpt>
<trkpt lat="46.24779200" lon="7.00635000"><ele>424.7489928168</ele><time>2008-11-01T11:44:06Z</time></trkpt>
<trkpt lat="46.24778600" lon="7.00629700"><ele>424.4779969656</ele><time>2008-11-01T11:44:07Z</time></trkpt>
<trkpt lat="46.24778100" lon="7.00623400"><ele>424.4179992192</ele><time>2008-11-01T11:44:08Z</time></trkpt>
<trkpt lat="46.24777400" lon="7.00616300"><ele>424.4389953672</ele><time>2008-11-01T11:44:09Z</time></trkpt>
<trkpt lat="46.24776500" lon="7.00608700"><ele>424.1279908584</ele><time>2008-11-01T11:44:10Z</time></trkpt>
<trkpt lat="46.24775200" lon="7.00600400"><ele>423.8580017616</ele><time>2008-11-01T11:44:11Z</time></trkpt>
<trkpt lat="46.24773400" lon="7.00591400"><ele>423.9970091544</ele><time>2008-11-01T11:44:12Z</time></trkpt>
<trkpt lat="46.24772100" lon="7.00582400"><ele>423.7780152312</ele><time>2008-11-01T11:44:13Z</time></trkpt>
<trkpt lat="46.24770800" lon="7.00573100"><ele>423.5769959736</ele><time>2008-11-01T11:44:14Z</time></trkpt>
<trkpt lat="46.24769300" lon="7.00563800"><ele>423.286987308</ele><time>2008-11-01T11:44:15Z</time></trkpt>
<trkpt lat="46.24767600" lon="7.00554800"><ele>423.0169982112</ele><time>2008-11-01T11:44:16Z</time></trkpt>
<trkpt lat="46.24765500" lon="7.00546100"><ele>422.7669982032</ele><time>2008-11-01T11:44:17Z</time></trkpt>
<trkpt lat="46.24763300" lon="7.00537800"><ele>422.4869994744</ele><time>2008-11-01T11:44:18Z</time></trkpt>
<trkpt lat="46.24761200" lon="7.00529800"><ele>422.277008124</ele><time>2008-11-01T11:44:19Z</time></trkpt>
<trkpt lat="46.24759200" lon="7.00522300"><ele>422.0669859888</ele><time>2008-11-01T11:44:20Z</time></trkpt>
<trkpt lat="46.24757300" lon="7.00515100"><ele>421.5870055416</ele><time>2008-11-01T11:44:21Z</time></trkpt>
<trkpt lat="46.24755300" lon="7.00508100"><ele>421.2269898024</ele><time>2008-11-01T11:44:22Z</time></trkpt>
<trkpt lat="46.24753000" lon="7.00501300"><ele>421.2569885232</ele><time>2008-11-01T11:44:23Z</time></trkpt>
<trkpt lat="46.24751000" lon="7.00494600"><ele>420.9370116168</ele><time>2008-11-01T11:44:24Z</time></trkpt>
<trkpt lat="46.24748900" lon="7.00488000"><ele>420.66699204</ele><time>2008-11-01T11:44:25Z</time></trkpt>
<trkpt lat="46.24746900" lon="7.00481400"><ele>420.527008068</ele><time>2008-11-01T11:44:26Z</time></trkpt>
<trkpt lat="46.24745000" lon="7.00475000"><ele>420.27700806</ele><time>2008-11-01T11:44:27Z</time></trkpt>
<trkpt lat="46.24743000" lon="7.00468700"><ele>420.027008052</ele><time>2008-11-01T11:44:28Z</time></trkpt>
<trkpt lat="46.24741100" lon="7.00462500"><ele>419.7470093232</ele><time>2008-11-01T11:44:29Z</time></trkpt>
<trkpt lat="46.24739200" lon="7.00456500"><ele>419.5570067568</ele><time>2008-11-01T11:44:30Z</time></trkpt>
<trkpt lat="46.24737400" lon="7.00450500"><ele>419.266998396</ele><time>2008-11-01T11:44:31Z</time></trkpt>
<trkpt lat="46.24735500" lon="7.00444300"><ele>419.1480102672</ele><time>2008-11-01T11:44:32Z</time></trkpt>
<trkpt lat="46.24733400" lon="7.00438000"><ele>418.9779967896</ele><time>2008-11-01T11:44:33Z</time></trkpt>
<trkpt lat="46.24731000" lon="7.00431600"><ele>418.8580016016</ele><time>2008-11-01T11:44:34Z</time></trkpt>
<trkpt lat="46.24728200" lon="7.00425300"><ele>418.7279967816</ele><time>2008-11-01T11:44:35Z</time></trkpt>
<trkpt lat="46.24725300" lon="7.00419300"><ele>418.5979919616</ele><time>2008-11-01T11:44:36Z</time></trkpt>
<trkpt lat="46.24722300" lon="7.00413700"><ele>418.4679871416</ele><time>2008-11-01T11:44:37Z</time></trkpt>
<trkpt lat="46.24719200" lon="7.00408300"><ele>418.3880006112</ele><time>2008-11-01T11:44:38Z</time></trkpt>
<trkpt lat="46.24716300" lon="7.00403200"><ele>418.3479919536</ele><time>2008-11-01T11:44:39Z</time></trkpt>
<trkpt lat="46.24713700" lon="7.00398700"><ele>418.3179932328</ele><time>2008-11-01T11:44:40Z</time></trkpt>
<trkpt lat="46.24711400" lon="7.00394900"><ele>418.3779906744</ele><time>2008-11-01T11:44:41Z</time></trkpt>
<trkpt lat="46.24709400" lon="7.00391400"><ele>418.6879884288</ele><time>2008-11-01T11:44:42Z</time></trkpt>
<trkpt lat="46.24708000" lon="7.00388400"><ele>418.6279906824</ele><time>2008-11-01T11:44:43Z</time></trkpt>
<trkpt lat="46.24707000" lon="7.00385400"><ele>418.5979919616</ele><time>2008-11-01T11:44:44Z</time></trkpt>
<trkpt lat="46.24706300" lon="7.00382100"><ele>418.579009932</ele><time>2008-11-01T11:44:45Z</time></trkpt>
<trkpt lat="46.24705800" lon="7.00378500"><ele>418.5090025536</ele><time>2008-11-01T11:44:46Z</time></trkpt>
<trkpt lat="46.24705200" lon="7.00374300"><ele>418.4989929216</ele><time>2008-11-01T11:44:47Z</time></trkpt>
<trkpt lat="46.24703900" lon="7.00369500"><ele>418.8200073672</ele><time>2008-11-01T11:44:48Z</time></trkpt>
<trkpt lat="46.24702300" lon="7.00364800"><ele>418.8749999928</ele><time>2008-11-01T11:44:49Z</time></trkpt>
<trkpt lat="46.24700400" lon="7.00360900"><ele>418.7479858704</ele><time>2008-11-01T11:44:50Z</time></trkpt>
<trkpt lat="46.24698100" lon="7.00357300"><ele>418.6170044712</ele><time>2008-11-01T11:44:51Z</time></trkpt>
<trkpt lat="46.24695300" lon="7.00354100"><ele>418.76699838</ele><time>2008-11-01T11:44:52Z</time></trkpt>
<trkpt lat="46.24692300" lon="7.00351100"><ele>418.9570006416</ele><time>2008-11-01T11:44:53Z</time></trkpt>
<trkpt lat="46.24689400" lon="7.00347500"><ele>418.9970092992</ele><time>2008-11-01T11:44:54Z</time></trkpt>
<trkpt lat="46.24686900" lon="7.00343500"><ele>419.0559996816</ele><time>2008-11-01T11:44:55Z</time></trkpt>
<trkpt lat="46.24684900" lon="7.00339900"><ele>418.8169861896</ele><time>2008-11-01T11:44:56Z</time></trkpt>
<trkpt lat="46.24683400" lon="7.00336500"><ele>418.6759948536</ele><time>2008-11-01T11:44:57Z</time></trkpt>
<trkpt lat="46.24682100" lon="7.00332700"><ele>418.4360047824</ele><time>2008-11-01T11:44:58Z</time></trkpt>
<trkpt lat="46.24680700" lon="7.00328600"><ele>418.3359986832</ele><time>2008-11-01T11:44:59Z</time></trkpt>
<trkpt lat="46.24679200" lon="7.00324100"><ele>418.0759887384</ele><time>2008-11-01T11:45:00Z</time></trkpt>
<trkpt lat="46.24677700" lon="7.00318900"><ele>417.8349913032</ele><time>2008-11-01T11:45:01Z</time></trkpt>
<trkpt lat="46.24675900" lon="7.00313200"><ele>417.71499642</ele><time>2008-11-01T11:45:02Z</time></trkpt>
<trkpt lat="46.24674100" lon="7.00307300"><ele>417.0729980088</ele><time>2008-11-01T11:45:03Z</time></trkpt>
<trkpt lat="46.24672000" lon="7.00301300"><ele>416.6530150032</ele><time>2008-11-01T11:45:04Z</time></trkpt>
<trkpt lat="46.24669700" lon="7.00295100"><ele>416.4030149952</ele><time>2008-11-01T11:45:05Z</time></trkpt>
<trkpt lat="46.24667600" lon="7.00289700"><ele>416.0130005352</ele><time>2008-11-01T11:45:06Z</time></trkpt>
<trkpt lat="46.24666100" lon="7.00285100"><ele>415.7229918696</ele><time>2008-11-01T11:45:07Z</time></trkpt>
<trkpt lat="46.24664700" lon="7.00280200"><ele>415.4739989208</ele><time>2008-11-01T11:45:08Z</time></trkpt>
<trkpt lat="46.24663200" lon="7.00274700"><ele>415.3439941008</ele><time>2008-11-01T11:45:09Z</time></trkpt>
<trkpt lat="46.24661500" lon="7.00268800"><ele>415.0239867144</ele><time>2008-11-01T11:45:10Z</time></trkpt>
<trkpt lat="46.24659300" lon="7.00262700"><ele>415.2650146296</ele><time>2008-11-01T11:45:11Z</time></trkpt>
<trkpt lat="46.24657100" lon="7.00256400"><ele>415.2340088496</ele><time>2008-11-01T11:45:12Z</time></trkpt>
<trkpt lat="46.24654900" lon="7.00249800"><ele>414.8630065944</ele><time>2008-11-01T11:45:13Z</time></trkpt>
<trkpt lat="46.24652900" lon="7.00242900"><ele>414.4429931088</ele><time>2008-11-01T11:45:14Z</time></trkpt>
<trkpt lat="46.24650500" lon="7.00235800"><ele>414.1229857224</ele><time>2008-11-01T11:45:15Z</time></trkpt>
<trkpt lat="46.24648100" lon="7.00229000"><ele>413.9140014312</ele><time>2008-11-01T11:45:16Z</time></trkpt>
<trkpt lat="46.24646200" lon="7.00222400"><ele>413.683990512</ele><time>2008-11-01T11:45:17Z</time></trkpt>
<trkpt lat="46.24642200" lon="7.00205500"><ele>413.1449888976</ele><time>2008-11-01T11:45:19Z</time></trkpt>
<trkpt lat="46.24640700" lon="7.00197700"><ele>413.2059937032</ele><time>2008-11-01T11:45:20Z</time></trkpt>
<trkpt lat="46.24639200" lon="7.00190300"><ele>413.24700942</ele><time>2008-11-01T11:45:21Z</time></trkpt>
<trkpt lat="46.24637800" lon="7.00183500"><ele>413.136993384</ele><time>2008-11-01T11:45:22Z</time></trkpt>
<trkpt lat="46.24636400" lon="7.00176900"><ele>413.0469972216</ele><time>2008-11-01T11:45:23Z</time></trkpt>
<trkpt lat="46.24635000" lon="7.00170500"><ele>412.9580078136</ele><time>2008-11-01T11:45:24Z</time></trkpt>
<trkpt lat="46.24633600" lon="7.00164200"><ele>412.7680052472</ele><time>2008-11-01T11:45:25Z</time></trkpt>
<trkpt lat="46.24632400" lon="7.00157700"><ele>412.5369872688</ele><time>2008-11-01T11:45:26Z</time></trkpt>
<trkpt lat="46.24631000" lon="7.00151300"><ele>412.3569946392</ele><time>2008-11-01T11:45:27Z</time></trkpt>
<trkpt lat="46.24629300" lon="7.00145200"><ele>412.7170103784</ele><time>2008-11-01T11:45:28Z</time></trkpt>
<trkpt lat="46.24627900" lon="7.00139000"><ele>412.636993368</ele><time>2008-11-01T11:45:29Z</time></trkpt>
<trkpt lat="46.24626600" lon="7.00132900"><ele>412.51699818</ele><time>2008-11-01T11:45:30Z</time></trkpt>
<trkpt lat="46.24625400" lon="7.00126500"><ele>412.2959901384</ele><time>2008-11-01T11:45:31Z</time></trkpt>
<trkpt lat="46.24624300" lon="7.00120100"><ele>412.0859984832</ele><time>2008-11-01T11:45:32Z</time></trkpt>
<trkpt lat="46.24623100" lon="7.00113900"><ele>411.855987564</ele><time>2008-11-01T11:45:33Z</time></trkpt>
<trkpt lat="46.24621900" lon="7.00107600"><ele>411.4460144952</ele><time>2008-11-01T11:45:34Z</time></trkpt>
<trkpt lat="46.24620200" lon="7.00101300"><ele>412.0859984832</ele><time>2008-11-01T11:45:35Z</time></trkpt>
<trkpt lat="46.24618700" lon="7.00095000"><ele>411.7160032872</ele><time>2008-11-01T11:45:36Z</time></trkpt>
<trkpt lat="46.24616800" lon="7.00088400"><ele>412.2869872608</ele><time>2008-11-01T11:45:37Z</time></trkpt>
<trkpt lat="46.24615300" lon="7.00081400"><ele>412.5769959264</ele><time>2008-11-01T11:45:38Z</time></trkpt>
<trkpt lat="46.24613600" lon="7.00074000"><ele>413.1570129528</ele><time>2008-11-01T11:45:39Z</time></trkpt>
<trkpt lat="46.24611800" lon="7.00066300"><ele>413.4360046224</ele><time>2008-11-01T11:45:40Z</time></trkpt>
<trkpt lat="46.24610000" lon="7.00058400"><ele>413.6870116896</ele><time>2008-11-01T11:45:41Z</time></trkpt>
<trkpt lat="46.24608200" lon="7.00050200"><ele>413.9270020656</ele><time>2008-11-01T11:45:42Z</time></trkpt>
<trkpt lat="46.24606200" lon="7.00041800"><ele>414.147003048</ele><time>2008-11-01T11:45:43Z</time></trkpt>
<trkpt lat="46.24604300" lon="7.00033400"><ele>414.4159850856</ele><time>2008-11-01T11:45:44Z</time></trkpt>
<trkpt lat="46.24602400" lon="7.00025100"><ele>414.8469847824</ele><time>2008-11-01T11:45:45Z</time></trkpt>
<trkpt lat="46.24600500" lon="7.00016700"><ele>415.0769957016</ele><time>2008-11-01T11:45:46Z</time></trkpt>
<trkpt lat="46.24598900" lon="7.00008500"><ele>414.9670104504</ele><time>2008-11-01T11:45:47Z</time></trkpt>
<trkpt lat="46.24597200" lon="7.00000300"><ele>414.8370056304</ele><time>2008-11-01T11:45:48Z</time></trkpt>
<trkpt lat="46.24595400" lon="6.99992400"><ele>414.6619873368</ele><time>2008-11-01T11:45:49Z</time></trkpt>
<trkpt lat="46.24593800" lon="6.99984800"><ele>414.4159850856</ele><time>2008-11-01T11:45:50Z</time></trkpt>
<trkpt lat="46.24592200" lon="6.99977500"><ele>414.3059998344</ele><time>2008-11-01T11:45:51Z</time></trkpt>
<trkpt lat="46.24590600" lon="6.99970400"><ele>414.115997268</ele><time>2008-11-01T11:45:52Z</time></trkpt>
<trkpt lat="46.24589100" lon="6.99963300"><ele>413.9660033592</ele><time>2008-11-01T11:45:53Z</time></trkpt>
<trkpt lat="46.24587600" lon="6.99956400"><ele>413.8059998184</ele><time>2008-11-01T11:45:54Z</time></trkpt>
<trkpt lat="46.24586200" lon="6.99949600"><ele>413.5650023832</ele><time>2008-11-01T11:45:55Z</time></trkpt>
<trkpt lat="46.24584900" lon="6.99942900"><ele>413.174011344</ele><time>2008-11-01T11:45:56Z</time></trkpt>
<trkpt lat="46.24583700" lon="6.99936200"><ele>412.8330078096</ele><time>2008-11-01T11:45:57Z</time></trkpt>
<trkpt lat="46.24582400" lon="6.99929600"><ele>412.4330138928</ele><time>2008-11-01T11:45:58Z</time></trkpt>
<trkpt lat="46.24581000" lon="6.99923000"><ele>412.1830138848</ele><time>2008-11-01T11:45:59Z</time></trkpt>
<trkpt lat="46.24579400" lon="6.99916500"><ele>412.1350097136</ele><time>2008-11-01T11:46:00Z</time></trkpt>
<trkpt lat="46.24578000" lon="6.99909900"><ele>412.0150145256</ele><time>2008-11-01T11:46:01Z</time></trkpt>
<trkpt lat="46.24576600" lon="6.99903300"><ele>411.9049987944</ele><time>2008-11-01T11:46:02Z</time></trkpt>
<trkpt lat="46.24575200" lon="6.99896800"><ele>411.7250061648</ele><time>2008-11-01T11:46:03Z</time></trkpt>
<trkpt lat="46.24573700" lon="6.99890500"><ele>411.5150145096</ele><time>2008-11-01T11:46:04Z</time></trkpt>
<trkpt lat="46.24572300" lon="6.99884200"><ele>411.3850096896</ele><time>2008-11-01T11:46:05Z</time></trkpt>
<trkpt lat="46.24571000" lon="6.99878000"><ele>411.2449952376</ele><time>2008-11-01T11:46:06Z</time></trkpt>
<trkpt lat="46.24569700" lon="6.99871700"><ele>411.1759949184</ele><time>2008-11-01T11:46:07Z</time></trkpt>
<trkpt lat="46.24568400" lon="6.99865600"><ele>411.10598754</ele><time>2008-11-01T11:46:08Z</time></trkpt>
<trkpt lat="46.24567200" lon="6.99859700"><ele>411.0360106416</ele><time>2008-11-01T11:46:09Z</time></trkpt>
<trkpt lat="46.24566000" lon="6.99853900"><ele>410.9460144792</ele><time>2008-11-01T11:46:10Z</time></trkpt>
<trkpt lat="46.24564800" lon="6.99848200"><ele>410.8760071008</ele><time>2008-11-01T11:46:11Z</time></trkpt>
<trkpt lat="46.24563800" lon="6.99842800"><ele>410.1820067616</ele><time>2008-11-01T11:46:12Z</time></trkpt>
<trkpt lat="46.24562900" lon="6.99837300"><ele>409.7510070648</ele><time>2008-11-01T11:46:13Z</time></trkpt>
<trkpt lat="46.24561900" lon="6.99831600"><ele>409.3210144272</ele><time>2008-11-01T11:46:14Z</time></trkpt>
<trkpt lat="46.24560700" lon="6.99825900"><ele>409.1520080088</ele><time>2008-11-01T11:46:15Z</time></trkpt>
<trkpt lat="46.24559600" lon="6.99820100"><ele>409.1340025584</ele><time>2008-11-01T11:46:16Z</time></trkpt>
<trkpt lat="46.24558800" lon="6.99814400"><ele>409.0239868272</ele><time>2008-11-01T11:46:17Z</time></trkpt>
<trkpt lat="46.24557800" lon="6.99808600"><ele>408.794006388</ele><time>2008-11-01T11:46:18Z</time></trkpt>
<trkpt lat="46.24556400" lon="6.99803000"><ele>408.7239990096</ele><time>2008-11-01T11:46:19Z</time></trkpt>
<trkpt lat="46.24555000" lon="6.99797400"><ele>408.716003496</ele><time>2008-11-01T11:46:20Z</time></trkpt>
<trkpt lat="46.24553600" lon="6.99791900"><ele>409.0859983872</ele><time>2008-11-01T11:46:21Z</time></trkpt>
<trkpt lat="46.24552400" lon="6.99786600"><ele>409.4769897312</ele><time>2008-11-01T11:46:22Z</time></trkpt>
<trkpt lat="46.24551200" lon="6.99781400"><ele>409.8169862064</ele><time>2008-11-01T11:46:23Z</time></trkpt>
<trkpt lat="46.24550100" lon="6.99776300"><ele>410.2080077256</ele><time>2008-11-01T11:46:24Z</time></trkpt>
<trkpt lat="46.24548900" lon="6.99771000"><ele>410.6969910504</ele><time>2008-11-01T11:46:25Z</time></trkpt>
<trkpt lat="46.24548100" lon="6.99765700"><ele>410.9370116016</ele><time>2008-11-01T11:46:26Z</time></trkpt>
<trkpt lat="46.24547600" lon="6.99760300"><ele>411.1470032568</ele><time>2008-11-01T11:46:27Z</time></trkpt>
<trkpt lat="46.24547300" lon="6.99754900"><ele>411.4179994128</ele><time>2008-11-01T11:46:28Z</time></trkpt>
<trkpt lat="46.24546800" lon="6.99749700"><ele>411.6180116112</ele><time>2008-11-01T11:46:29Z</time></trkpt>
<trkpt lat="46.24546300" lon="6.99744800"><ele>411.778015152</ele><time>2008-11-01T11:46:30Z</time></trkpt>
<trkpt lat="46.24546000" lon="6.99739900"><ele>411.7170103464</ele><time>2008-11-01T11:46:31Z</time></trkpt>
<trkpt lat="46.24545900" lon="6.99735100"><ele>411.7369994352</ele><time>2008-11-01T11:46:32Z</time></trkpt>
<trkpt lat="46.24545600" lon="6.99730200"><ele>411.9270020016</ele><time>2008-11-01T11:46:33Z</time></trkpt>
<trkpt lat="46.24545200" lon="6.99725200"><ele>412.1770020096</ele><time>2008-11-01T11:46:34Z</time></trkpt>
<trkpt lat="46.24544600" lon="6.99720200"><ele>412.3569946392</ele><time>2008-11-01T11:46:35Z</time></trkpt>
<trkpt lat="46.24543600" lon="6.99715600"><ele>412.5270081168</ele><time>2008-11-01T11:46:36Z</time></trkpt>
<trkpt lat="46.24542300" lon="6.99711700"><ele>412.6870116576</ele><time>2008-11-01T11:46:37Z</time></trkpt>
<trkpt lat="46.24540800" lon="6.99708500"><ele>412.7369994672</ele><time>2008-11-01T11:46:38Z</time></trkpt>
<trkpt lat="46.24539100" lon="6.99705800"><ele>412.8469847184</ele><time>2008-11-01T11:46:39Z</time></trkpt>
<trkpt lat="46.24536900" lon="6.99703300"><ele>412.886993376</ele><time>2008-11-01T11:46:40Z</time></trkpt>
<trkpt lat="46.24534500" lon="6.99700600"><ele>412.9370116656</ele><time>2008-11-01T11:46:41Z</time></trkpt>
<trkpt lat="46.24532000" lon="6.99697800"><ele>413.006988564</ele><time>2008-11-01T11:46:42Z</time></trkpt>
<trkpt lat="46.24529500" lon="6.99695300"><ele>413.0270081328</ele><time>2008-11-01T11:46:43Z</time></trkpt>
<trkpt lat="46.24527300" lon="6.99692600"><ele>413.0469972216</ele><time>2008-11-01T11:46:44Z</time></trkpt>
<trkpt lat="46.24525500" lon="6.99689700"><ele>412.886993376</ele><time>2008-11-01T11:46:45Z</time></trkpt>
<trkpt lat="46.24523900" lon="6.99686500"><ele>412.9169920968</ele><time>2008-11-01T11:46:46Z</time></trkpt>
<trkpt lat="46.24523000" lon="6.99682700"><ele>412.855987596</ele><time>2008-11-01T11:46:47Z</time></trkpt>
<trkpt lat="46.24522900" lon="6.99678600"><ele>412.8959959488</ele><time>2008-11-01T11:46:48Z</time></trkpt>
<trkpt lat="46.24523000" lon="6.99674200"><ele>412.8550110168</ele><time>2008-11-01T11:46:49Z</time></trkpt>
<trkpt lat="46.24522900" lon="6.99669500"><ele>412.8359985072</ele><time>2008-11-01T11:46:50Z</time></trkpt>
<trkpt lat="46.24522500" lon="6.99664700"><ele>412.8059997864</ele><time>2008-11-01T11:46:51Z</time></trkpt>
<trkpt lat="46.24522200" lon="6.99659600"><ele>412.6749879072</ele><time>2008-11-01T11:46:52Z</time></trkpt>
<trkpt lat="46.24521800" lon="6.99654000"><ele>412.6459962456</ele><time>2008-11-01T11:46:53Z</time></trkpt>
<trkpt lat="46.24521500" lon="6.99648000"><ele>412.6170042792</ele><time>2008-11-01T11:46:54Z</time></trkpt>
<trkpt lat="46.24521200" lon="6.99641900"><ele>412.5459898416</ele><time>2008-11-01T11:46:55Z</time></trkpt>
<trkpt lat="46.24520100" lon="6.99636000"><ele>412.4960023368</ele><time>2008-11-01T11:46:56Z</time></trkpt>
<trkpt lat="46.24518200" lon="6.99630700"><ele>412.4869994592</ele><time>2008-11-01T11:46:57Z</time></trkpt>
<trkpt lat="46.24515900" lon="6.99625900"><ele>412.4469911064</ele><time>2008-11-01T11:46:58Z</time></trkpt>
<trkpt lat="46.24513800" lon="6.99621300"><ele>412.4270020176</ele><time>2008-11-01T11:46:59Z</time></trkpt>
<trkpt lat="46.24511800" lon="6.99616800"><ele>412.38699336</ele><time>2008-11-01T11:47:00Z</time></trkpt>
<trkpt lat="46.24510100" lon="6.99612200"><ele>412.3469850072</ele><time>2008-11-01T11:47:01Z</time></trkpt>
<trkpt lat="46.24508900" lon="6.99607700"><ele>412.38699336</ele><time>2008-11-01T11:47:02Z</time></trkpt>
<trkpt lat="46.24507700" lon="6.99603100"><ele>412.377014208</ele><time>2008-11-01T11:47:03Z</time></trkpt>
<trkpt lat="46.24506500" lon="6.99598700"><ele>412.2770081088</ele><time>2008-11-01T11:47:04Z</time></trkpt>
<trkpt lat="46.24505300" lon="6.99594300"><ele>412.2369994512</ele><time>2008-11-01T11:47:05Z</time></trkpt>
<trkpt lat="46.24504100" lon="6.99589500"><ele>412.266998172</ele><time>2008-11-01T11:47:06Z</time></trkpt>
<trkpt lat="46.24502900" lon="6.99584400"><ele>412.2170103624</ele><time>2008-11-01T11:47:07Z</time></trkpt>
<trkpt lat="46.24501800" lon="6.99578900"><ele>412.1969910984</ele><time>2008-11-01T11:47:08Z</time></trkpt>
<trkpt lat="46.24500500" lon="6.99573000"><ele>412.1669920728</ele><time>2008-11-01T11:47:09Z</time></trkpt>
<trkpt lat="46.24498900" lon="6.99566700"><ele>412.1570129208</ele><time>2008-11-01T11:47:10Z</time></trkpt>
<trkpt lat="46.24497500" lon="6.99560200"><ele>412.0369872528</ele><time>2008-11-01T11:47:11Z</time></trkpt>
<trkpt lat="46.24496100" lon="6.99553600"><ele>411.9270020016</ele><time>2008-11-01T11:47:12Z</time></trkpt>
<trkpt lat="46.24494700" lon="6.99547200"><ele>411.7959901224</ele><time>2008-11-01T11:47:13Z</time></trkpt>
<trkpt lat="46.24493200" lon="6.99540600"><ele>411.6759949344</ele><time>2008-11-01T11:47:14Z</time></trkpt>
<trkpt lat="46.24491800" lon="6.99534100"><ele>411.7070007144</ele><time>2008-11-01T11:47:15Z</time></trkpt>
<trkpt lat="46.24490300" lon="6.99527600"><ele>411.6770019936</ele><time>2008-11-01T11:47:16Z</time></trkpt>
<trkpt lat="46.24489000" lon="6.99521000"><ele>411.6669920568</ele><time>2008-11-01T11:47:17Z</time></trkpt>
<trkpt lat="46.24487600" lon="6.99514500"><ele>411.5360106576</ele><time>2008-11-01T11:47:18Z</time></trkpt>
<trkpt lat="46.24486200" lon="6.99507800"><ele>411.4849853088</ele><time>2008-11-01T11:47:19Z</time></trkpt>
<trkpt lat="46.24484600" lon="6.99500800"><ele>411.3340148208</ele><time>2008-11-01T11:47:20Z</time></trkpt>
<trkpt lat="46.24483000" lon="6.99493700"><ele>411.2349853008</ele><time>2008-11-01T11:47:21Z</time></trkpt>
<trkpt lat="46.24481500" lon="6.99486400"><ele>411.2349853008</ele><time>2008-11-01T11:47:22Z</time></trkpt>
<trkpt lat="46.24480000" lon="6.99478900"><ele>411.2160032712</ele><time>2008-11-01T11:47:23Z</time></trkpt>
<trkpt lat="46.24478200" lon="6.99471500"><ele>411.3160093704</ele><time>2008-11-01T11:47:24Z</time></trkpt>
<trkpt lat="46.24476400" lon="6.99464700"><ele>411.3959962056</ele><time>2008-11-01T11:47:25Z</time></trkpt>
<trkpt lat="46.24474400" lon="6.99458600"><ele>411.5669859576</ele><time>2008-11-01T11:47:26Z</time></trkpt>
<trkpt lat="46.24472200" lon="6.99452300"><ele>411.1069945992</ele><time>2008-11-01T11:47:27Z</time></trkpt>
<trkpt lat="46.24469900" lon="6.99445900"><ele>410.9869994112</ele><time>2008-11-01T11:47:28Z</time></trkpt>
<trkpt lat="46.24467200" lon="6.99438900"><ele>411.13699332</ele><time>2008-11-01T11:47:29Z</time></trkpt>
<trkpt lat="46.24464500" lon="6.99430900"><ele>410.6759949024</ele><time>2008-11-01T11:47:30Z</time></trkpt>
<trkpt lat="46.24461800" lon="6.99422700"><ele>410.367004512</ele><time>2008-11-01T11:47:31Z</time></trkpt>
<trkpt lat="46.24459200" lon="6.99414600"><ele>409.8959961576</ele><time>2008-11-01T11:47:32Z</time></trkpt>
<trkpt lat="46.24456400" lon="6.99406800"><ele>409.4249878032</ele><time>2008-11-01T11:47:33Z</time></trkpt>
<trkpt lat="46.24454200" lon="6.99398700"><ele>409.065002544</ele><time>2008-11-01T11:47:34Z</time></trkpt>
<trkpt lat="46.24452200" lon="6.99390500"><ele>410.0419923096</ele><time>2008-11-01T11:47:35Z</time></trkpt>
<trkpt lat="46.24449800" lon="6.99383400"><ele>409.9689942336</ele><time>2008-11-01T11:47:36Z</time></trkpt>
<trkpt lat="46.24447200" lon="6.99376900"><ele>409.9880067432</ele><time>2008-11-01T11:47:37Z</time></trkpt>
<trkpt lat="46.24445100" lon="6.99370200"><ele>410.0480041848</ele><time>2008-11-01T11:47:38Z</time></trkpt>
<trkpt lat="46.24443100" lon="6.99363700"><ele>410.1380003472</ele><time>2008-11-01T11:47:39Z</time></trkpt>
<trkpt lat="46.24441300" lon="6.99357100"><ele>410.006988468</ele><time>2008-11-01T11:47:40Z</time></trkpt>
<trkpt lat="46.24439600" lon="6.99350700"><ele>410.0679932736</ele><time>2008-11-01T11:47:41Z</time></trkpt>
<trkpt lat="46.24437900" lon="6.99344400"><ele>409.9570006584</ele><time>2008-11-01T11:47:42Z</time></trkpt>
<trkpt lat="46.24436400" lon="6.99337800"><ele>409.8169862064</ele><time>2008-11-01T11:47:43Z</time></trkpt>
<trkpt lat="46.24434700" lon="6.99330900"><ele>409.7170105872</ele><time>2008-11-01T11:47:44Z</time></trkpt>
<trkpt lat="46.24433100" lon="6.99324000"><ele>409.6470032088</ele><time>2008-11-01T11:47:45Z</time></trkpt>
<trkpt lat="46.24431800" lon="6.99317100"><ele>409.4349974352</ele><time>2008-11-01T11:47:46Z</time></trkpt>
<trkpt lat="46.24430600" lon="6.99310300"><ele>409.204986516</ele><time>2008-11-01T11:47:47Z</time></trkpt>
<trkpt lat="46.24429400" lon="6.99303900"><ele>409.0549926072</ele><time>2008-11-01T11:47:48Z</time></trkpt>
<trkpt lat="46.24428100" lon="6.99297800"><ele>408.8439941976</ele><time>2008-11-01T11:47:49Z</time></trkpt>
<trkpt lat="46.24427100" lon="6.99291900"><ele>408.7349852208</ele><time>2008-11-01T11:47:50Z</time></trkpt>
<trkpt lat="46.24425800" lon="6.99286100"><ele>408.7250060688</ele><time>2008-11-01T11:47:51Z</time></trkpt>
<trkpt lat="46.24424400" lon="6.99280600"><ele>408.6759948384</ele><time>2008-11-01T11:47:52Z</time></trkpt>
<trkpt lat="46.24423000" lon="6.99275100"><ele>408.3940124712</ele><time>2008-11-01T11:47:53Z</time></trkpt>
<trkpt lat="46.24421400" lon="6.99269500"><ele>408.334991304</ele><time>2008-11-01T11:47:54Z</time></trkpt>
<trkpt lat="46.24419800" lon="6.99263700"><ele>408.3450012408</ele><time>2008-11-01T11:47:55Z</time></trkpt>
<trkpt lat="46.24418300" lon="6.99258000"><ele>408.1149903216</ele><time>2008-11-01T11:47:56Z</time></trkpt>
<trkpt lat="46.24416700" lon="6.99252300"><ele>407.954986476</ele><time>2008-11-01T11:47:57Z</time></trkpt>
<trkpt lat="46.24414900" lon="6.99246600"><ele>407.8049925672</ele><time>2008-11-01T11:47:58Z</time></trkpt>
<trkpt lat="46.24412900" lon="6.99241000"><ele>407.5539855</ele><time>2008-11-01T11:47:59Z</time></trkpt>
<trkpt lat="46.24410600" lon="6.99235500"><ele>407.5840150056</ele><time>2008-11-01T11:48:00Z</time></trkpt>
<trkpt lat="46.24408100" lon="6.99230000"><ele>407.5939941576</ele><time>2008-11-01T11:48:01Z</time></trkpt>
<trkpt lat="46.24405700" lon="6.99224400"><ele>407.7650146944</ele><time>2008-11-01T11:48:02Z</time></trkpt>
<trkpt lat="46.24403200" lon="6.99219000"><ele>407.5740050688</ele><time>2008-11-01T11:48:03Z</time></trkpt>
<trkpt lat="46.24400500" lon="6.99213700"><ele>407.7250060368</ele><time>2008-11-01T11:48:04Z</time></trkpt>
<trkpt lat="46.24397700" lon="6.99208600"><ele>407.8659973728</ele><time>2008-11-01T11:48:05Z</time></trkpt>
<trkpt lat="46.24394700" lon="6.99203600"><ele>408.1570127928</ele><time>2008-11-01T11:48:06Z</time></trkpt>
<trkpt lat="46.24391900" lon="6.99198600"><ele>407.9460143832</ele><time>2008-11-01T11:48:07Z</time></trkpt>
<trkpt lat="46.24389100" lon="6.99193700"><ele>407.7860108424</ele><time>2008-11-01T11:48:08Z</time></trkpt>
<trkpt lat="46.24386400" lon="6.99188800"><ele>407.7059935272</ele><time>2008-11-01T11:48:09Z</time></trkpt>
<trkpt lat="46.24383500" lon="6.99183900"><ele>407.7560118168</ele><time>2008-11-01T11:48:10Z</time></trkpt>
<trkpt lat="46.24380700" lon="6.99179100"><ele>407.716003464</ele><time>2008-11-01T11:48:11Z</time></trkpt>
<trkpt lat="46.24378000" lon="6.99174200"><ele>407.6659851744</ele><time>2008-11-01T11:48:12Z</time></trkpt>
<trkpt lat="46.24375300" lon="6.99169500"><ele>407.6969909544</ele><time>2008-11-01T11:48:13Z</time></trkpt>
<trkpt lat="46.24373000" lon="6.99165300"><ele>407.5570069824</ele><time>2008-11-01T11:48:14Z</time></trkpt>
<trkpt lat="46.24370800" lon="6.99161500"><ele>407.6780089248</ele><time>2008-11-01T11:48:15Z</time></trkpt>
<trkpt lat="46.24368800" lon="6.99158300"><ele>407.768005392</ele><time>2008-11-01T11:48:16Z</time></trkpt>
<trkpt lat="46.24366900" lon="6.99155300"><ele>407.8280028336</ele><time>2008-11-01T11:48:17Z</time></trkpt>
<trkpt lat="46.24365200" lon="6.99152200"><ele>407.8469848632</ele><time>2008-11-01T11:48:18Z</time></trkpt>
<trkpt lat="46.24363500" lon="6.99149000"><ele>407.8779906432</ele><time>2008-11-01T11:48:19Z</time></trkpt>
<trkpt lat="46.24361700" lon="6.99145900"><ele>407.898010212</ele><time>2008-11-01T11:48:20Z</time></trkpt>
<trkpt lat="46.24359900" lon="6.99142600"><ele>407.907989364</ele><time>2008-11-01T11:48:21Z</time></trkpt>
<trkpt lat="46.24358500" lon="6.99139300"><ele>407.9469909624</ele><time>2008-11-01T11:48:22Z</time></trkpt>
<trkpt lat="46.24357300" lon="6.99136600"><ele>408.0169983408</ele><time>2008-11-01T11:48:23Z</time></trkpt>
<trkpt lat="46.24356500" lon="6.99135100"><ele>408.1369935288</ele><time>2008-11-01T11:48:24Z</time></trkpt>
<trkpt lat="46.24356300" lon="6.99134900"><ele>408.2070006024</ele><time>2008-11-01T11:48:25Z</time></trkpt>
<trkpt lat="46.24356400" lon="6.99135000"><ele>408.256988412</ele><time>2008-11-01T11:48:26Z</time></trkpt>
<trkpt lat="46.24355000" lon="6.99131900"><ele>407.367004416</ele><time>2008-11-01T11:48:43Z</time></trkpt>
<trkpt lat="46.24353700" lon="6.99129900"><ele>407.25698838</ele><time>2008-11-01T11:48:44Z</time></trkpt>
<trkpt lat="46.24352100" lon="6.99127100"><ele>407.1870117864</ele><time>2008-11-01T11:48:45Z</time></trkpt>
<trkpt lat="46.24350000" lon="6.99123900"><ele>407.0969848392</ele><time>2008-11-01T11:48:46Z</time></trkpt>
<trkpt lat="46.24347600" lon="6.99120400"><ele>406.986999588</ele><time>2008-11-01T11:48:47Z</time></trkpt>
<trkpt lat="46.24344900" lon="6.99116300"><ele>407.0870056872</ele><time>2008-11-01T11:48:48Z</time></trkpt>
<trkpt lat="46.24342300" lon="6.99111600"><ele>407.1879883656</ele><time>2008-11-01T11:48:49Z</time></trkpt>
<trkpt lat="46.24339600" lon="6.99106900"><ele>407.1870117864</ele><time>2008-11-01T11:48:50Z</time></trkpt>
<trkpt lat="46.24336700" lon="6.99102100"><ele>407.3590089024</ele><time>2008-11-01T11:48:51Z</time></trkpt>
<trkpt lat="46.24333800" lon="6.99097300"><ele>407.4989928744</ele><time>2008-11-01T11:48:52Z</time></trkpt>
<trkpt lat="46.24331000" lon="6.99092500"><ele>407.6180114832</ele><time>2008-11-01T11:48:53Z</time></trkpt>
<trkpt lat="46.24328400" lon="6.99087700"><ele>407.5469970456</ele><time>2008-11-01T11:48:54Z</time></trkpt>
<trkpt lat="46.24325900" lon="6.99083300"><ele>407.5679931936</ele><time>2008-11-01T11:48:55Z</time></trkpt>
<trkpt lat="46.24323400" lon="6.99079100"><ele>407.5469970456</ele><time>2008-11-01T11:48:56Z</time></trkpt>
<trkpt lat="46.24320700" lon="6.99075100"><ele>407.7980041128</ele><time>2008-11-01T11:48:57Z</time></trkpt>
<trkpt lat="46.24318100" lon="6.99071300"><ele>408.0780028416</ele><time>2008-11-01T11:48:58Z</time></trkpt>
<trkpt lat="46.24315700" lon="6.99067500"><ele>408.3280028496</ele><time>2008-11-01T11:48:59Z</time></trkpt>
<trkpt lat="46.24313500" lon="6.99063800"><ele>408.5780028576</ele><time>2008-11-01T11:49:00Z</time></trkpt>
<trkpt lat="46.24311400" lon="6.99060300"><ele>408.9200134512</ele><time>2008-11-01T11:49:01Z</time></trkpt>
<trkpt lat="46.24309500" lon="6.99057200"><ele>409.0889893896</ele><time>2008-11-01T11:49:02Z</time></trkpt>
<trkpt lat="46.24308200" lon="6.99055000"><ele>409.2479858712</ele><time>2008-11-01T11:49:03Z</time></trkpt>
<trkpt lat="46.24307600" lon="6.99054400"><ele>409.3290099408</ele><time>2008-11-01T11:49:04Z</time></trkpt>
<trkpt lat="46.24307600" lon="6.99054600"><ele>409.3259887632</ele><time>2008-11-01T11:49:05Z</time></trkpt>
<trkpt lat="46.24305700" lon="6.99051900"><ele>408.627014088</ele><time>2008-11-01T11:49:38Z</time></trkpt>
<trkpt lat="46.24304700" lon="6.99050100"><ele>408.5369874456</ele><time>2008-11-01T11:49:39Z</time></trkpt>
<trkpt lat="46.24303800" lon="6.99048300"><ele>408.4469909784</ele><time>2008-11-01T11:49:40Z</time></trkpt>
<trkpt lat="46.24302800" lon="6.99046700"><ele>408.4259948304</ele><time>2008-11-01T11:49:41Z</time></trkpt>
<trkpt lat="46.24301700" lon="6.99044800"><ele>408.3259887312</ele><time>2008-11-01T11:49:42Z</time></trkpt>
<trkpt lat="46.24300300" lon="6.99042500"><ele>408.3059996424</ele><time>2008-11-01T11:49:43Z</time></trkpt>
<trkpt lat="46.24299000" lon="6.99040100"><ele>408.2460022008</ele><time>2008-11-01T11:49:44Z</time></trkpt>
<trkpt lat="46.24297600" lon="6.99037600"><ele>408.2460022008</ele><time>2008-11-01T11:49:45Z</time></trkpt>
<trkpt lat="46.24295900" lon="6.99034900"><ele>408.3370057272</ele><time>2008-11-01T11:49:46Z</time></trkpt>
<trkpt lat="46.24294100" lon="6.99031900"><ele>408.3469848792</ele><time>2008-11-01T11:49:47Z</time></trkpt>
<trkpt lat="46.24292500" lon="6.99028700"><ele>408.3259887312</ele><time>2008-11-01T11:49:48Z</time></trkpt>
<trkpt lat="46.24290800" lon="6.99026000"><ele>408.1449890424</ele><time>2008-11-01T11:49:49Z</time></trkpt>
<trkpt lat="46.24289100" lon="6.99022900"><ele>408.1050108648</ele><time>2008-11-01T11:49:50Z</time></trkpt>
<trkpt lat="46.24287400" lon="6.99019300"><ele>408.0450134232</ele><time>2008-11-01T11:49:51Z</time></trkpt>
<trkpt lat="46.24285300" lon="6.99016100"><ele>407.9249877552</ele><time>2008-11-01T11:49:52Z</time></trkpt>
<trkpt lat="46.24282600" lon="6.99015200"><ele>407.7340089144</ele><time>2008-11-01T11:49:53Z</time></trkpt>
<trkpt lat="46.24280700" lon="6.99017500"><ele>407.7550047576</ele><time>2008-11-01T11:49:54Z</time></trkpt>
<trkpt lat="46.24279000" lon="6.99020900"><ele>407.7460021848</ele><time>2008-11-01T11:49:55Z</time></trkpt>
<trkpt lat="46.24277100" lon="6.99024500"><ele>407.716003464</ele><time>2008-11-01T11:49:56Z</time></trkpt>
<trkpt lat="46.24274900" lon="6.99028200"><ele>407.5950012168</ele><time>2008-11-01T11:49:57Z</time></trkpt>
<trkpt lat="46.24272400" lon="6.99031600"><ele>407.6159973648</ele><time>2008-11-01T11:49:58Z</time></trkpt>
<trkpt lat="46.24269800" lon="6.99034900"><ele>407.5559996184</ele><time>2008-11-01T11:49:59Z</time></trkpt>
<trkpt lat="46.24267000" lon="6.99038000"><ele>407.4150085872</ele><time>2008-11-01T11:50:00Z</time></trkpt>
<trkpt lat="46.24264300" lon="6.99041000"><ele>407.1239928624</ele><time>2008-11-01T11:50:01Z</time></trkpt>
<trkpt lat="46.24261500" lon="6.99043900"><ele>406.9429931736</ele><time>2008-11-01T11:50:02Z</time></trkpt>
<trkpt lat="46.24258800" lon="6.99046900"><ele>406.8139954128</ele><time>2008-11-01T11:50:03Z</time></trkpt>
<trkpt lat="46.24255900" lon="6.99049700"><ele>406.3919982888</ele><time>2008-11-01T11:50:04Z</time></trkpt>
<trkpt lat="46.24253100" lon="6.99052400"><ele>406.0109864016</ele><time>2008-11-01T11:50:05Z</time></trkpt>
<trkpt lat="46.24250300" lon="6.99055600"><ele>405.8630066112</ele><time>2008-11-01T11:50:06Z</time></trkpt>
<trkpt lat="46.24247300" lon="6.99059100"><ele>405.8340149496</ele><time>2008-11-01T11:50:07Z</time></trkpt>
<trkpt lat="46.24244200" lon="6.99062500"><ele>405.7739867232</ele><time>2008-11-01T11:50:08Z</time></trkpt>
<trkpt lat="46.24241400" lon="6.99066300"><ele>405.9049989072</ele><time>2008-11-01T11:50:09Z</time></trkpt>
<trkpt lat="46.24238500" lon="6.99070100"><ele>406.0450133592</ele><time>2008-11-01T11:50:10Z</time></trkpt>
<trkpt lat="46.24235400" lon="6.99074000"><ele>406.205993784</ele><time>2008-11-01T11:50:11Z</time></trkpt>
<trkpt lat="46.24232300" lon="6.99077900"><ele>406.356994752</ele><time>2008-11-01T11:50:12Z</time></trkpt>
<trkpt lat="46.24229100" lon="6.99081700"><ele>406.5669861024</ele><time>2008-11-01T11:50:13Z</time></trkpt>
<trkpt lat="46.24225900" lon="6.99085600"><ele>406.7879944488</ele><time>2008-11-01T11:50:14Z</time></trkpt>
<trkpt lat="46.24222800" lon="6.99089600"><ele>407.1090088944</ele><time>2008-11-01T11:50:15Z</time></trkpt>
<trkpt lat="46.24219600" lon="6.99093600"><ele>407.1780089088</ele><time>2008-11-01T11:50:16Z</time></trkpt>
<trkpt lat="46.24216400" lon="6.99097500"><ele>407.236999596</ele><time>2008-11-01T11:50:17Z</time></trkpt>
<trkpt lat="46.24213300" lon="6.99101400"><ele>407.4769896672</ele><time>2008-11-01T11:50:18Z</time></trkpt>
<trkpt lat="46.24210300" lon="6.99105400"><ele>407.4460143672</ele><time>2008-11-01T11:50:19Z</time></trkpt>
<trkpt lat="46.24207100" lon="6.99109200"><ele>407.5060121136</ele><time>2008-11-01T11:50:20Z</time></trkpt>
<trkpt lat="46.24203900" lon="6.99113000"><ele>407.4649963968</ele><time>2008-11-01T11:50:21Z</time></trkpt>
<trkpt lat="46.24200600" lon="6.99117000"><ele>407.5260008976</ele><time>2008-11-01T11:50:22Z</time></trkpt>
<trkpt lat="46.24197400" lon="6.99121000"><ele>407.5360108344</ele><time>2008-11-01T11:50:23Z</time></trkpt>
<trkpt lat="46.24194400" lon="6.99125000"><ele>407.434997676</ele><time>2008-11-01T11:50:24Z</time></trkpt>
<trkpt lat="46.24191400" lon="6.99128700"><ele>407.466003456</ele><time>2008-11-01T11:50:25Z</time></trkpt>
<trkpt lat="46.24188300" lon="6.99132100"><ele>407.476013088</ele><time>2008-11-01T11:50:26Z</time></trkpt>
<trkpt lat="46.24185300" lon="6.99135300"><ele>407.5159912656</ele><time>2008-11-01T11:50:27Z</time></trkpt>
<trkpt lat="46.24182200" lon="6.99138300"><ele>407.5759887072</ele><time>2008-11-01T11:50:28Z</time></trkpt>
<trkpt lat="46.24179200" lon="6.99141000"><ele>407.7279967344</ele><time>2008-11-01T11:50:29Z</time></trkpt>
<trkpt lat="46.24176100" lon="6.99143600"><ele>407.4649963968</ele><time>2008-11-01T11:50:30Z</time></trkpt>
<trkpt lat="46.24172900" lon="6.99146100"><ele>407.2539976824</ele><time>2008-11-01T11:50:31Z</time></trkpt>
<trkpt lat="46.24169400" lon="6.99148300"><ele>407.0639954208</ele><time>2008-11-01T11:50:32Z</time></trkpt>
<trkpt lat="46.24165900" lon="6.99150700"><ele>407.1549986424</ele><time>2008-11-01T11:50:33Z</time></trkpt>
<trkpt lat="46.24162300" lon="6.99153200"><ele>407.3059996104</ele><time>2008-11-01T11:50:34Z</time></trkpt>
<trkpt lat="46.24158700" lon="6.99155900"><ele>407.4110108304</ele><time>2008-11-01T11:50:35Z</time></trkpt>
<trkpt lat="46.24155100" lon="6.99158700"><ele>407.4259947984</ele><time>2008-11-01T11:50:36Z</time></trkpt>
<trkpt lat="46.24151600" lon="6.99161600"><ele>407.45498646</ele><time>2008-11-01T11:50:37Z</time></trkpt>
<trkpt lat="46.24148300" lon="6.99164600"><ele>407.5060121136</ele><time>2008-11-01T11:50:38Z</time></trkpt>
<trkpt lat="46.24144800" lon="6.99167600"><ele>407.3450012088</ele><time>2008-11-01T11:50:39Z</time></trkpt>
<trkpt lat="46.24141500" lon="6.99170600"><ele>407.0429992728</ele><time>2008-11-01T11:50:40Z</time></trkpt>
<trkpt lat="46.24138100" lon="6.99174000"><ele>406.9939880424</ele><time>2008-11-01T11:50:41Z</time></trkpt>
<trkpt lat="46.24134800" lon="6.99177400"><ele>407.06500248</ele><time>2008-11-01T11:50:42Z</time></trkpt>
<trkpt lat="46.24131400" lon="6.99180800"><ele>407.105987412</ele><time>2008-11-01T11:50:43Z</time></trkpt>
<trkpt lat="46.24128000" lon="6.99184400"><ele>407.3160095472</ele><time>2008-11-01T11:50:44Z</time></trkpt>
<trkpt lat="46.24124600" lon="6.99188000"><ele>407.4360047352</ele><time>2008-11-01T11:50:45Z</time></trkpt>
<trkpt lat="46.24121300" lon="6.99191500"><ele>407.585998644</ele><time>2008-11-01T11:50:46Z</time></trkpt>
<trkpt lat="46.24117900" lon="6.99194900"><ele>407.6960143752</ele><time>2008-11-01T11:50:47Z</time></trkpt>
<trkpt lat="46.24114500" lon="6.99198400"><ele>407.8269957744</ele><time>2008-11-01T11:50:48Z</time></trkpt>
<trkpt lat="46.24111100" lon="6.99202000"><ele>407.9370118104</ele><time>2008-11-01T11:50:49Z</time></trkpt>
<trkpt lat="46.24107600" lon="6.99205500"><ele>407.9570005944</ele><time>2008-11-01T11:50:50Z</time></trkpt>
<trkpt lat="46.24104200" lon="6.99208900"><ele>408.1090089264</ele><time>2008-11-01T11:50:51Z</time></trkpt>
<trkpt lat="46.24100900" lon="6.99212400"><ele>408.268005408</ele><time>2008-11-01T11:50:52Z</time></trkpt>
<trkpt lat="46.24097600" lon="6.99215900"><ele>408.4479980376</ele><time>2008-11-01T11:50:53Z</time></trkpt>
<trkpt lat="46.24094300" lon="6.99219300"><ele>408.5469970776</ele><time>2008-11-01T11:50:54Z</time></trkpt>
<trkpt lat="46.24090900" lon="6.99222800"><ele>408.5260009296</ele><time>2008-11-01T11:50:55Z</time></trkpt>
<trkpt lat="46.24087500" lon="6.99226300"><ele>408.596008308</ele><time>2008-11-01T11:50:56Z</time></trkpt>
<trkpt lat="46.24084100" lon="6.99229700"><ele>408.584991312</ele><time>2008-11-01T11:50:57Z</time></trkpt>
<trkpt lat="46.24080900" lon="6.99233400"><ele>408.5759887392</ele><time>2008-11-01T11:50:58Z</time></trkpt>
<trkpt lat="46.24077600" lon="6.99237100"><ele>408.6549986904</ele><time>2008-11-01T11:50:59Z</time></trkpt>
<trkpt lat="46.24074200" lon="6.99240500"><ele>408.6650086272</ele><time>2008-11-01T11:51:00Z</time></trkpt>
<trkpt lat="46.24071000" lon="6.99244100"><ele>408.7250060688</ele><time>2008-11-01T11:51:01Z</time></trkpt>
<trkpt lat="46.24067700" lon="6.99247700"><ele>408.7460022168</ele><time>2008-11-01T11:51:02Z</time></trkpt>
<trkpt lat="46.24064400" lon="6.99251300"><ele>408.695007348</ele><time>2008-11-01T11:51:03Z</time></trkpt>
<trkpt lat="46.24061100" lon="6.99255000"><ele>408.8059996584</ele><time>2008-11-01T11:51:04Z</time></trkpt>
<trkpt lat="46.24057800" lon="6.99258500"><ele>408.8550108888</ele><time>2008-11-01T11:51:05Z</time></trkpt>
<trkpt lat="46.24054500" lon="6.99262100"><ele>409.0169983728</ele><time>2008-11-01T11:51:06Z</time></trkpt>
<trkpt lat="46.24051300" lon="6.99265800"><ele>409.0669861824</ele><time>2008-11-01T11:51:07Z</time></trkpt>
<trkpt lat="46.24048300" lon="6.99269600"><ele>409.1470031928</ele><time>2008-11-01T11:51:08Z</time></trkpt>
<trkpt lat="46.24045200" lon="6.99273400"><ele>409.2170105712</ele><time>2008-11-01T11:51:09Z</time></trkpt>
<trkpt lat="46.24042100" lon="6.99277000"><ele>409.2669983808</ele><time>2008-11-01T11:51:10Z</time></trkpt>
<trkpt lat="46.24038900" lon="6.99280600"><ele>409.2760009536</ele><time>2008-11-01T11:51:11Z</time></trkpt>
<trkpt lat="46.24035800" lon="6.99283900"><ele>409.2659913216</ele><time>2008-11-01T11:51:12Z</time></trkpt>
<trkpt lat="46.24032500" lon="6.99287300"><ele>409.386993264</ele><time>2008-11-01T11:51:13Z</time></trkpt>
<trkpt lat="46.24029200" lon="6.99290700"><ele>409.355987484</ele><time>2008-11-01T11:51:14Z</time></trkpt>
<trkpt lat="46.24026000" lon="6.99294200"><ele>409.4259948624</ele><time>2008-11-01T11:51:15Z</time></trkpt>
<trkpt lat="46.24022700" lon="6.99297600"><ele>409.4960022408</ele><time>2008-11-01T11:51:16Z</time></trkpt>
<trkpt lat="46.24019400" lon="6.99301000"><ele>409.5459900504</ele><time>2008-11-01T11:51:17Z</time></trkpt>
<trkpt lat="46.24016200" lon="6.99304600"><ele>409.5759887712</ele><time>2008-11-01T11:51:18Z</time></trkpt>
<trkpt lat="46.24013000" lon="6.99308100"><ele>409.575012192</ele><time>2008-11-01T11:51:19Z</time></trkpt>
<trkpt lat="46.24009800" lon="6.99311600"><ele>409.5350035344</ele><time>2008-11-01T11:51:20Z</time></trkpt>
<trkpt lat="46.24006600" lon="6.99315400"><ele>409.5450134712</ele><time>2008-11-01T11:51:21Z</time></trkpt>
<trkpt lat="46.24003400" lon="6.99319100"><ele>409.6359862128</ele><time>2008-11-01T11:51:22Z</time></trkpt>
<trkpt lat="46.24000200" lon="6.99323000"><ele>409.6759948704</ele><time>2008-11-01T11:51:23Z</time></trkpt>
<trkpt lat="46.23997000" lon="6.99326700"><ele>409.8269958384</ele><time>2008-11-01T11:51:24Z</time></trkpt>
<trkpt lat="46.23993600" lon="6.99330500"><ele>409.9670105952</ele><time>2008-11-01T11:51:25Z</time></trkpt>
<trkpt lat="46.23990100" lon="6.99334200"><ele>410.1380003472</ele><time>2008-11-01T11:51:26Z</time></trkpt>
<trkpt lat="46.23986600" lon="6.99337800"><ele>410.2980041928</ele><time>2008-11-01T11:51:27Z</time></trkpt>
<trkpt lat="46.23983100" lon="6.99341500"><ele>410.4779968224</ele><time>2008-11-01T11:51:28Z</time></trkpt>
<trkpt lat="46.23979600" lon="6.99345100"><ele>410.5969849512</ele><time>2008-11-01T11:51:29Z</time></trkpt>
<trkpt lat="46.23976100" lon="6.99348700"><ele>410.5559997144</ele><time>2008-11-01T11:51:30Z</time></trkpt>
<trkpt lat="46.23972500" lon="6.99352000"><ele>410.464996188</ele><time>2008-11-01T11:51:31Z</time></trkpt>
<trkpt lat="46.23968800" lon="6.99355200"><ele>410.334991368</ele><time>2008-11-01T11:51:32Z</time></trkpt>
<trkpt lat="46.23965000" lon="6.99358200"><ele>410.0339964912</ele><time>2008-11-01T11:51:33Z</time></trkpt>
<trkpt lat="46.23961300" lon="6.99361200"><ele>409.7739868512</ele><time>2008-11-01T11:51:34Z</time></trkpt>
<trkpt lat="46.23957500" lon="6.99364300"><ele>409.7239990416</ele><time>2008-11-01T11:51:35Z</time></trkpt>
<trkpt lat="46.23953600" lon="6.99367100"><ele>409.6749878112</ele><time>2008-11-01T11:51:36Z</time></trkpt>
<trkpt lat="46.23949900" lon="6.99369900"><ele>409.4939881224</ele><time>2008-11-01T11:51:37Z</time></trkpt>
<trkpt lat="46.23946100" lon="6.99372600"><ele>409.6459961496</ele><time>2008-11-01T11:51:38Z</time></trkpt>
<trkpt lat="46.23942200" lon="6.99375300"><ele>409.9370115696</ele><time>2008-11-01T11:51:39Z</time></trkpt>
<trkpt lat="46.23938400" lon="6.99378100"><ele>410.0369871888</ele><time>2008-11-01T11:51:40Z</time></trkpt>
<trkpt lat="46.23934400" lon="6.99381000"><ele>410.0369871888</ele><time>2008-11-01T11:51:41Z</time></trkpt>
<trkpt lat="46.23930500" lon="6.99384000"><ele>409.966003536</ele><time>2008-11-01T11:51:42Z</time></trkpt>
<trkpt lat="46.23926700" lon="6.99386900"><ele>409.98599232</ele><time>2008-11-01T11:51:43Z</time></trkpt>
<trkpt lat="46.23922900" lon="6.99389700"><ele>410.1069945672</ele><time>2008-11-01T11:51:44Z</time></trkpt>
<trkpt lat="46.23919100" lon="6.99392400"><ele>410.1669923136</ele><time>2008-11-01T11:51:45Z</time></trkpt>
<trkpt lat="46.23915300" lon="6.99395200"><ele>410.1069945672</ele><time>2008-11-01T11:51:46Z</time></trkpt>
<trkpt lat="46.23911400" lon="6.99398100"><ele>410.3880003552</ele><time>2008-11-01T11:51:47Z</time></trkpt>
<trkpt lat="46.23907500" lon="6.99401000"><ele>410.5769958624</ele><time>2008-11-01T11:51:48Z</time></trkpt>
<trkpt lat="46.23903600" lon="6.99403800"><ele>410.7479859192</ele><time>2008-11-01T11:51:49Z</time></trkpt>
<trkpt lat="46.23899700" lon="6.99406600"><ele>410.9179993968</ele><time>2008-11-01T11:51:50Z</time></trkpt>
<trkpt lat="46.23895900" lon="6.99409400"><ele>411.1489868952</ele><time>2008-11-01T11:51:51Z</time></trkpt>
<trkpt lat="46.23892000" lon="6.99412300"><ele>411.3580016664</ele><time>2008-11-01T11:51:52Z</time></trkpt>
<trkpt lat="46.23888200" lon="6.99414900"><ele>411.549011292</ele><time>2008-11-01T11:51:53Z</time></trkpt>
<trkpt lat="46.23884300" lon="6.99417300"><ele>411.8099975112</ele><time>2008-11-01T11:51:54Z</time></trkpt>
<trkpt lat="46.23880600" lon="6.99419500"><ele>411.8489991096</ele><time>2008-11-01T11:51:55Z</time></trkpt>
<trkpt lat="46.23876700" lon="6.99421700"><ele>411.9689939928</ele><time>2008-11-01T11:51:56Z</time></trkpt>
<trkpt lat="46.23872800" lon="6.99423900"><ele>412.2500000856</ele><time>2008-11-01T11:51:57Z</time></trkpt>
<trkpt lat="46.23869000" lon="6.99426200"><ele>412.4400023472</ele><time>2008-11-01T11:51:58Z</time></trkpt>
<trkpt lat="46.23865200" lon="6.99428500"><ele>412.5090026664</ele><time>2008-11-01T11:51:59Z</time></trkpt>
<trkpt lat="46.23861500" lon="6.99430700"><ele>412.4880065184</ele><time>2008-11-01T11:52:00Z</time></trkpt>
<trkpt lat="46.23857900" lon="6.99432800"><ele>412.3059997704</ele><time>2008-11-01T11:52:01Z</time></trkpt>
<trkpt lat="46.23854100" lon="6.99435000"><ele>412.2059936712</ele><time>2008-11-01T11:52:02Z</time></trkpt>
<trkpt lat="46.23850300" lon="6.99437100"><ele>412.1560058616</ele><time>2008-11-01T11:52:03Z</time></trkpt>
<trkpt lat="46.23846400" lon="6.99439300"><ele>412.0459901304</ele><time>2008-11-01T11:52:04Z</time></trkpt>
<trkpt lat="46.23842600" lon="6.99441500"><ele>412.0159911048</ele><time>2008-11-01T11:52:05Z</time></trkpt>
<trkpt lat="46.23838800" lon="6.99443600"><ele>411.9559936632</ele><time>2008-11-01T11:52:06Z</time></trkpt>
<trkpt lat="46.23835000" lon="6.99445600"><ele>411.9259949424</ele><time>2008-11-01T11:52:07Z</time></trkpt>
<trkpt lat="46.23831300" lon="6.99447700"><ele>411.846008412</ele><time>2008-11-01T11:52:08Z</time></trkpt>
<trkpt lat="46.23827500" lon="6.99449700"><ele>411.7860106656</ele><time>2008-11-01T11:52:09Z</time></trkpt>
<trkpt lat="46.23823600" lon="6.99451300"><ele>411.735992376</ele><time>2008-11-01T11:52:10Z</time></trkpt>
<trkpt lat="46.23819700" lon="6.99452700"><ele>411.6960145032</ele><time>2008-11-01T11:52:11Z</time></trkpt>
<trkpt lat="46.23815800" lon="6.99454300"><ele>411.6969910824</ele><time>2008-11-01T11:52:12Z</time></trkpt>
<trkpt lat="46.23811900" lon="6.99455900"><ele>411.6459962136</ele><time>2008-11-01T11:52:13Z</time></trkpt>
<trkpt lat="46.23808000" lon="6.99457500"><ele>411.4660032792</ele><time>2008-11-01T11:52:14Z</time></trkpt>
<trkpt lat="46.23804000" lon="6.99459000"><ele>411.5559997464</ele><time>2008-11-01T11:52:15Z</time></trkpt>
<trkpt lat="46.23800000" lon="6.99460500"><ele>411.605987556</ele><time>2008-11-01T11:52:16Z</time></trkpt>
<trkpt lat="46.23796000" lon="6.99461900"><ele>411.627014184</ele><time>2008-11-01T11:52:17Z</time></trkpt>
<trkpt lat="46.23792000" lon="6.99463300"><ele>411.6359862768</ele><time>2008-11-01T11:52:18Z</time></trkpt>
<trkpt lat="46.23788100" lon="6.99464800"><ele>411.6570129048</ele><time>2008-11-01T11:52:19Z</time></trkpt>
<trkpt lat="46.23784200" lon="6.99466300"><ele>411.6359862768</ele><time>2008-11-01T11:52:20Z</time></trkpt>
<trkpt lat="46.23780300" lon="6.99467400"><ele>411.5969849832</ele><time>2008-11-01T11:52:21Z</time></trkpt>
<trkpt lat="46.23776300" lon="6.99468700"><ele>411.6069946152</ele><time>2008-11-01T11:52:22Z</time></trkpt>
<trkpt lat="46.23772500" lon="6.99470000"><ele>411.5050048776</ele><time>2008-11-01T11:52:23Z</time></trkpt>
<trkpt lat="46.23768600" lon="6.99471300"><ele>411.4660032792</ele><time>2008-11-01T11:52:24Z</time></trkpt>
<trkpt lat="46.23764800" lon="6.99472400"><ele>411.3859862688</ele><time>2008-11-01T11:52:25Z</time></trkpt>
<trkpt lat="46.23760900" lon="6.99473600"><ele>411.36599718</ele><time>2008-11-01T11:52:26Z</time></trkpt>
<trkpt lat="46.23757100" lon="6.99474700"><ele>411.3259888272</ele><time>2008-11-01T11:52:27Z</time></trkpt>
<trkpt lat="46.23753200" lon="6.99475700"><ele>411.2760010176</ele><time>2008-11-01T11:52:28Z</time></trkpt>
<trkpt lat="46.23749500" lon="6.99476800"><ele>411.226013208</ele><time>2008-11-01T11:52:29Z</time></trkpt>
<trkpt lat="46.23745700" lon="6.99478000"><ele>411.1759949184</ele><time>2008-11-01T11:52:30Z</time></trkpt>
<trkpt lat="46.23741900" lon="6.99479200"><ele>411.1860045504</ele><time>2008-11-01T11:52:31Z</time></trkpt>
<trkpt lat="46.23738300" lon="6.99480500"><ele>411.2269897872</ele><time>2008-11-01T11:52:32Z</time></trkpt>
<trkpt lat="46.23734700" lon="6.99481800"><ele>411.256988508</ele><time>2008-11-01T11:52:33Z</time></trkpt>
<trkpt lat="46.23731200" lon="6.99483100"><ele>411.2659910808</ele><time>2008-11-01T11:52:34Z</time></trkpt>
<trkpt lat="46.23727800" lon="6.99484500"><ele>411.30398562</ele><time>2008-11-01T11:52:35Z</time></trkpt>
<trkpt lat="46.23724400" lon="6.99486100"><ele>411.3370055184</ele><time>2008-11-01T11:52:36Z</time></trkpt>
<trkpt lat="46.23721100" lon="6.99487700"><ele>411.3259888272</ele><time>2008-11-01T11:52:37Z</time></trkpt>
<trkpt lat="46.23717700" lon="6.99489100"><ele>411.3970032648</ele><time>2008-11-01T11:52:38Z</time></trkpt>
<trkpt lat="46.23714300" lon="6.99490500"><ele>411.3859862688</ele><time>2008-11-01T11:52:39Z</time></trkpt>
<trkpt lat="46.23710800" lon="6.99491900"><ele>411.3859862688</ele><time>2008-11-01T11:52:40Z</time></trkpt>
<trkpt lat="46.23707300" lon="6.99493400"><ele>411.3959962056</ele><time>2008-11-01T11:52:41Z</time></trkpt>
<trkpt lat="46.23703800" lon="6.99495000"><ele>411.4060058376</ele><time>2008-11-01T11:52:42Z</time></trkpt>
<trkpt lat="46.23700400" lon="6.99496900"><ele>411.3059997384</ele><time>2008-11-01T11:52:43Z</time></trkpt>
<trkpt lat="46.23697000" lon="6.99498800"><ele>411.23599236</ele><time>2008-11-01T11:52:44Z</time></trkpt>
<trkpt lat="46.23693600" lon="6.99500800"><ele>411.2059936392</ele><time>2008-11-01T11:52:45Z</time></trkpt>
<trkpt lat="46.23690200" lon="6.99502900"><ele>411.1759949184</ele><time>2008-11-01T11:52:46Z</time></trkpt>
<trkpt lat="46.23686900" lon="6.99504700"><ele>410.9639891448</ele><time>2008-11-01T11:52:47Z</time></trkpt>
<trkpt lat="46.23683700" lon="6.99506500"><ele>410.8540038936</ele><time>2008-11-01T11:52:48Z</time></trkpt>
<trkpt lat="46.23680400" lon="6.99508500"><ele>410.8150022952</ele><time>2008-11-01T11:52:49Z</time></trkpt>
<trkpt lat="46.23677100" lon="6.99510500"><ele>410.7950135112</ele><time>2008-11-01T11:52:50Z</time></trkpt>
<trkpt lat="46.23673800" lon="6.99512600"><ele>410.7659910648</ele><time>2008-11-01T11:52:51Z</time></trkpt>
<trkpt lat="46.23670400" lon="6.99514600"><ele>410.7659910648</ele><time>2008-11-01T11:52:52Z</time></trkpt>
<trkpt lat="46.23667200" lon="6.99516700"><ele>410.7760010016</ele><time>2008-11-01T11:52:53Z</time></trkpt>
<trkpt lat="46.23664000" lon="6.99518700"><ele>410.726013192</ele><time>2008-11-01T11:52:54Z</time></trkpt>
<trkpt lat="46.23660700" lon="6.99520500"><ele>410.6960144712</ele><time>2008-11-01T11:52:55Z</time></trkpt>
<trkpt lat="46.23657400" lon="6.99522100"><ele>410.6260070928</ele><time>2008-11-01T11:52:56Z</time></trkpt>
<trkpt lat="46.23653900" lon="6.99523900"><ele>410.6560058136</ele><time>2008-11-01T11:52:57Z</time></trkpt>
<trkpt lat="46.23650500" lon="6.99525700"><ele>410.6359862448</ele><time>2008-11-01T11:52:58Z</time></trkpt>
<trkpt lat="46.23646900" lon="6.99527400"><ele>410.6359862448</ele><time>2008-11-01T11:52:59Z</time></trkpt>
<trkpt lat="46.23643300" lon="6.99529100"><ele>410.6659849656</ele><time>2008-11-01T11:53:00Z</time></trkpt>
<trkpt lat="46.23639800" lon="6.99530700"><ele>410.6960144712</ele><time>2008-11-01T11:53:01Z</time></trkpt>
<trkpt lat="46.23636300" lon="6.99532400"><ele>410.735992344</ele><time>2008-11-01T11:53:02Z</time></trkpt>
<trkpt lat="46.23632800" lon="6.99534000"><ele>410.7760010016</ele><time>2008-11-01T11:53:03Z</time></trkpt>
<trkpt lat="46.23629300" lon="6.99535800"><ele>410.8269958704</ele><time>2008-11-01T11:53:04Z</time></trkpt>
<trkpt lat="46.23626100" lon="6.99537900"><ele>410.8970032488</ele><time>2008-11-01T11:53:05Z</time></trkpt>
<trkpt lat="46.23623000" lon="6.99540200"><ele>410.8970032488</ele><time>2008-11-01T11:53:06Z</time></trkpt>
<trkpt lat="46.23619900" lon="6.99542500"><ele>410.8970032488</ele><time>2008-11-01T11:53:07Z</time></trkpt>
<trkpt lat="46.23616900" lon="6.99545000"><ele>410.84600838</ele><time>2008-11-01T11:53:08Z</time></trkpt>
<trkpt lat="46.23614000" lon="6.99547900"><ele>410.7460022808</ele><time>2008-11-01T11:53:09Z</time></trkpt>
<trkpt lat="46.23611400" lon="6.99551300"><ele>410.5950013128</ele><time>2008-11-01T11:53:10Z</time></trkpt>
<trkpt lat="46.23609000" lon="6.99554900"><ele>410.5450135032</ele><time>2008-11-01T11:53:11Z</time></trkpt>
<trkpt lat="46.23606500" lon="6.99558500"><ele>410.5260009936</ele><time>2008-11-01T11:53:12Z</time></trkpt>
<trkpt lat="46.23603900" lon="6.99561900"><ele>410.485992336</ele><time>2008-11-01T11:53:13Z</time></trkpt>
<trkpt lat="46.23601400" lon="6.99565100"><ele>410.485992336</ele><time>2008-11-01T11:53:14Z</time></trkpt>
<trkpt lat="46.23591900" lon="6.99579300"><ele>410.5350035664</ele><time>2008-11-01T11:53:18Z</time></trkpt>
<trkpt lat="46.23589800" lon="6.99583000"><ele>410.464996188</ele><time>2008-11-01T11:53:19Z</time></trkpt>
<trkpt lat="46.23587700" lon="6.99586800"><ele>410.4849852768</ele><time>2008-11-01T11:53:20Z</time></trkpt>
<trkpt lat="46.23585700" lon="6.99590500"><ele>410.466003552</ele><time>2008-11-01T11:53:21Z</time></trkpt>
<trkpt lat="46.23583700" lon="6.99594000"><ele>410.6069945832</ele><time>2008-11-01T11:53:22Z</time></trkpt>
<trkpt lat="46.23581700" lon="6.99597200"><ele>410.7269897712</ele><time>2008-11-01T11:53:23Z</time></trkpt>
<trkpt lat="46.23579700" lon="6.99600100"><ele>410.8070067816</ele><time>2008-11-01T11:53:24Z</time></trkpt>
<trkpt lat="46.23577700" lon="6.99603100"><ele>410.865997164</ele><time>2008-11-01T11:53:25Z</time></trkpt>
<trkpt lat="46.23575700" lon="6.99606300"><ele>410.9469910584</ele><time>2008-11-01T11:53:26Z</time></trkpt>
<trkpt lat="46.23573500" lon="6.99609700"><ele>411.1180115952</ele><time>2008-11-01T11:53:27Z</time></trkpt>
<trkpt lat="46.23571500" lon="6.99613000"><ele>411.0769958784</ele><time>2008-11-01T11:53:28Z</time></trkpt>
<trkpt lat="46.23569000" lon="6.99615900"><ele>411.0159910728</ele><time>2008-11-01T11:53:29Z</time></trkpt>
<trkpt lat="46.23566000" lon="6.99617600"><ele>410.954986572</ele><time>2008-11-01T11:53:30Z</time></trkpt>
<trkpt lat="46.23562800" lon="6.99617400"><ele>411.0050048616</ele><time>2008-11-01T11:53:31Z</time></trkpt>
<trkpt lat="46.23559900" lon="6.99615400"><ele>410.9960022888</ele><time>2008-11-01T11:53:32Z</time></trkpt>
<trkpt lat="46.23557400" lon="6.99612500"><ele>410.9559936312</ele><time>2008-11-01T11:53:33Z</time></trkpt>
<trkpt lat="46.23555100" lon="6.99609600"><ele>410.9360045424</ele><time>2008-11-01T11:53:34Z</time></trkpt>
<trkpt lat="46.23552700" lon="6.99607100"><ele>410.9760132</ele><time>2008-11-01T11:53:35Z</time></trkpt>
<trkpt lat="46.23550000" lon="6.99604700"><ele>411.0559997304</ele><time>2008-11-01T11:53:36Z</time></trkpt>
<trkpt lat="46.23547400" lon="6.99602300"><ele>411.1149901128</ele><time>2008-11-01T11:53:37Z</time></trkpt>
<trkpt lat="46.23544800" lon="6.99599800"><ele>411.13699332</ele><time>2008-11-01T11:53:38Z</time></trkpt>
<trkpt lat="46.23542400" lon="6.99597300"><ele>411.0769958784</ele><time>2008-11-01T11:53:39Z</time></trkpt>
<trkpt lat="46.23540000" lon="6.99594900"><ele>411.0669859416</ele><time>2008-11-01T11:53:40Z</time></trkpt>
<trkpt lat="46.23537600" lon="6.99592500"><ele>411.0870055104</ele><time>2008-11-01T11:53:41Z</time></trkpt>
<trkpt lat="46.23535300" lon="6.99590100"><ele>411.0969849672</ele><time>2008-11-01T11:53:42Z</time></trkpt>
<trkpt lat="46.23533000" lon="6.99587900"><ele>411.157989468</ele><time>2008-11-01T11:53:43Z</time></trkpt>
<trkpt lat="46.23530600" lon="6.99585800"><ele>411.256988508</ele><time>2008-11-01T11:53:44Z</time></trkpt>
<trkpt lat="46.23528400" lon="6.99583700"><ele>411.3779907552</ele><time>2008-11-01T11:53:45Z</time></trkpt>
<trkpt lat="46.23526200" lon="6.99581600"><ele>411.5480042328</ele><time>2008-11-01T11:53:46Z</time></trkpt>
<trkpt lat="46.23524200" lon="6.99579400"><ele>411.5780029536</ele><time>2008-11-01T11:53:47Z</time></trkpt>
<trkpt lat="46.23522100" lon="6.99577400"><ele>411.667999116</ele><time>2008-11-01T11:53:48Z</time></trkpt>
<trkpt lat="46.23519900" lon="6.99575300"><ele>411.6879882048</ele><time>2008-11-01T11:53:49Z</time></trkpt>
<trkpt lat="46.23517700" lon="6.99573300"><ele>411.6870116256</ele><time>2008-11-01T11:53:50Z</time></trkpt>
<trkpt lat="46.23515600" lon="6.99571400"><ele>411.7179869256</ele><time>2008-11-01T11:53:51Z</time></trkpt>
<trkpt lat="46.23513500" lon="6.99569300"><ele>411.8179930248</ele><time>2008-11-01T11:53:52Z</time></trkpt>
<trkpt lat="46.23511500" lon="6.99567300"><ele>411.907989492</ele><time>2008-11-01T11:53:53Z</time></trkpt>
<trkpt lat="46.23509500" lon="6.99565500"><ele>412.0180052232</ele><time>2008-11-01T11:53:54Z</time></trkpt>
<trkpt lat="46.23507500" lon="6.99563700"><ele>412.0969849992</ele><time>2008-11-01T11:53:55Z</time></trkpt>
<trkpt lat="46.23505600" lon="6.99561800"><ele>412.1669920728</ele><time>2008-11-01T11:53:56Z</time></trkpt>
<trkpt lat="46.23503500" lon="6.99559900"><ele>412.2269898192</ele><time>2008-11-01T11:53:57Z</time></trkpt>
<trkpt lat="46.23501500" lon="6.99557900"><ele>412.3269959184</ele><time>2008-11-01T11:53:58Z</time></trkpt>
<trkpt lat="46.23499600" lon="6.99556100"><ele>412.4070129288</ele><time>2008-11-01T11:53:59Z</time></trkpt>
<trkpt lat="46.23497700" lon="6.99554200"><ele>412.4869994592</ele><time>2008-11-01T11:54:00Z</time></trkpt>
<trkpt lat="46.23495900" lon="6.99552100"><ele>412.4469911064</ele><time>2008-11-01T11:54:01Z</time></trkpt>
<trkpt lat="46.23494100" lon="6.99550300"><ele>412.346008428</ele><time>2008-11-01T11:54:02Z</time></trkpt>
<trkpt lat="46.23492100" lon="6.99548500"><ele>412.3760071488</ele><time>2008-11-01T11:54:03Z</time></trkpt>
<trkpt lat="46.23490200" lon="6.99546500"><ele>412.4460145272</ele><time>2008-11-01T11:54:04Z</time></trkpt>
<trkpt lat="46.23488400" lon="6.99544600"><ele>412.5270081168</ele><time>2008-11-01T11:54:05Z</time></trkpt>
<trkpt lat="46.23486500" lon="6.99542700"><ele>412.5969850152</ele><time>2008-11-01T11:54:06Z</time></trkpt>
<trkpt lat="46.23484700" lon="6.99540700"><ele>412.5969850152</ele><time>2008-11-01T11:54:07Z</time></trkpt>
<trkpt lat="46.23482800" lon="6.99538900"><ele>412.627014216</ele><time>2008-11-01T11:54:08Z</time></trkpt>
<trkpt lat="46.23481000" lon="6.99537200"><ele>412.6470033048</ele><time>2008-11-01T11:54:09Z</time></trkpt>
<trkpt lat="46.23479200" lon="6.99535600"><ele>412.7170103784</ele><time>2008-11-01T11:54:10Z</time></trkpt>
<trkpt lat="46.23477600" lon="6.99534000"><ele>412.7269898352</ele><time>2008-11-01T11:54:11Z</time></trkpt>
<trkpt lat="46.23476200" lon="6.99532800"><ele>412.7770081248</ele><time>2008-11-01T11:54:12Z</time></trkpt>
<trkpt lat="46.23475000" lon="6.99531900"><ele>412.8070068456</ele><time>2008-11-01T11:54:13Z</time></trkpt>
<trkpt lat="46.23474100" lon="6.99531200"><ele>412.8959959488</ele><time>2008-11-01T11:54:14Z</time></trkpt>
<trkpt lat="46.23473800" lon="6.99531000"><ele>412.9460145432</ele><time>2008-11-01T11:54:15Z</time></trkpt>
<trkpt lat="46.23473700" lon="6.99530900"><ele>412.9849853568</ele><time>2008-11-01T11:54:16Z</time></trkpt>
<trkpt lat="46.23472300" lon="6.99527200"><ele>413.0459898576</ele><time>2008-11-01T11:54:21Z</time></trkpt>
<trkpt lat="46.23471800" lon="6.99525400"><ele>413.0159911368</ele><time>2008-11-01T11:54:22Z</time></trkpt>
<trkpt lat="46.23471100" lon="6.99523600"><ele>413.0459898576</ele><time>2008-11-01T11:54:23Z</time></trkpt>
<trkpt lat="46.23470500" lon="6.99521800"><ele>412.9460145432</ele><time>2008-11-01T11:54:24Z</time></trkpt>
<trkpt lat="46.23470000" lon="6.99520000"><ele>412.8359985072</ele><time>2008-11-01T11:54:25Z</time></trkpt>
<trkpt lat="46.23469200" lon="6.99518500"><ele>412.855987596</ele><time>2008-11-01T11:54:26Z</time></trkpt>
<trkpt lat="46.23468400" lon="6.99517100"><ele>412.846008444</ele><time>2008-11-01T11:54:27Z</time></trkpt>
<trkpt lat="46.23467800" lon="6.99515700"><ele>412.7760010656</ele><time>2008-11-01T11:54:28Z</time></trkpt>
<trkpt lat="46.23467000" lon="6.99514400"><ele>412.6659850296</ele><time>2008-11-01T11:54:29Z</time></trkpt>
<trkpt lat="46.23465800" lon="6.99513700"><ele>412.756988556</ele><time>2008-11-01T11:54:30Z</time></trkpt>
<trkpt lat="46.23464500" lon="6.99513900"><ele>412.8070068456</ele><time>2008-11-01T11:54:31Z</time></trkpt>
<trkpt lat="46.23463100" lon="6.99514500"><ele>412.8569946552</ele><time>2008-11-01T11:54:32Z</time></trkpt>
<trkpt lat="46.23461500" lon="6.99515700"><ele>412.865997228</ele><time>2008-11-01T11:54:33Z</time></trkpt>
<trkpt lat="46.23459600" lon="6.99516900"><ele>412.8959959488</ele><time>2008-11-01T11:54:34Z</time></trkpt>
<trkpt lat="46.23457500" lon="6.99517700"><ele>412.9259949744</ele><time>2008-11-01T11:54:35Z</time></trkpt>
<trkpt lat="46.23455300" lon="6.99517900"><ele>412.9660033272</ele><time>2008-11-01T11:54:36Z</time></trkpt>
<trkpt lat="46.23452900" lon="6.99517700"><ele>412.954986636</ele><time>2008-11-01T11:54:37Z</time></trkpt>
<trkpt lat="46.23450400" lon="6.99517300"><ele>412.964996268</ele><time>2008-11-01T11:54:38Z</time></trkpt>
<trkpt lat="46.23447800" lon="6.99516800"><ele>412.976013264</ele><time>2008-11-01T11:54:39Z</time></trkpt>
<trkpt lat="46.23445200" lon="6.99516600"><ele>413.0509949784</ele><time>2008-11-01T11:54:40Z</time></trkpt>
<trkpt lat="46.23442700" lon="6.99517100"><ele>413.1669921048</ele><time>2008-11-01T11:54:41Z</time></trkpt>
<trkpt lat="46.23440200" lon="6.99517700"><ele>413.24700942</ele><time>2008-11-01T11:54:42Z</time></trkpt>
<trkpt lat="46.23437700" lon="6.99517800"><ele>413.3269959504</ele><time>2008-11-01T11:54:43Z</time></trkpt>
<trkpt lat="46.23435300" lon="6.99518000"><ele>413.397003024</ele><time>2008-11-01T11:54:44Z</time></trkpt>
<trkpt lat="46.23433000" lon="6.99518600"><ele>413.50698858</ele><time>2008-11-01T11:54:45Z</time></trkpt>
<trkpt lat="46.23430800" lon="6.99519000"><ele>413.5769959584</ele><time>2008-11-01T11:54:46Z</time></trkpt>
<trkpt lat="46.23428700" lon="6.99519000"><ele>413.60598762</ele><time>2008-11-01T11:54:47Z</time></trkpt>
<trkpt lat="46.23426800" lon="6.99518000"><ele>413.6260071888</ele><time>2008-11-01T11:54:48Z</time></trkpt>
<trkpt lat="46.23425100" lon="6.99516100"><ele>413.60598762</ele><time>2008-11-01T11:54:49Z</time></trkpt>
<trkpt lat="46.23423600" lon="6.99513600"><ele>413.4949950048</ele><time>2008-11-01T11:54:50Z</time></trkpt>
<trkpt lat="46.23422400" lon="6.99511000"><ele>413.47601328</ele><time>2008-11-01T11:54:51Z</time></trkpt>
<trkpt lat="46.23421000" lon="6.99508700"><ele>413.47601328</ele><time>2008-11-01T11:54:52Z</time></trkpt>
<trkpt lat="46.23419500" lon="6.99506900"><ele>413.50698858</ele><time>2008-11-01T11:54:53Z</time></trkpt>
<trkpt lat="46.23417900" lon="6.99505500"><ele>413.5360107216</ele><time>2008-11-01T11:54:54Z</time></trkpt>
<trkpt lat="46.23416300" lon="6.99504500"><ele>413.5859985312</ele><time>2008-11-01T11:54:55Z</time></trkpt>
<trkpt lat="46.23414600" lon="6.99504400"><ele>413.5960081632</ele><time>2008-11-01T11:54:56Z</time></trkpt>
<trkpt lat="46.23413300" lon="6.99505200"><ele>413.615997252</ele><time>2008-11-01T11:54:57Z</time></trkpt>
<trkpt lat="46.23412000" lon="6.99506100"><ele>413.6960142624</ele><time>2008-11-01T11:54:58Z</time></trkpt>
<trkpt lat="46.23410600" lon="6.99506800"><ele>413.7869873088</ele><time>2008-11-01T11:54:59Z</time></trkpt>
<trkpt lat="46.23409100" lon="6.99508000"><ele>413.8160094504</ele><time>2008-11-01T11:55:00Z</time></trkpt>
<trkpt lat="46.23407600" lon="6.99509700"><ele>413.7950133024</ele><time>2008-11-01T11:55:01Z</time></trkpt>
<trkpt lat="46.23405900" lon="6.99511600"><ele>413.7850036704</ele><time>2008-11-01T11:55:02Z</time></trkpt>
<trkpt lat="46.23404300" lon="6.99513800"><ele>413.7659911608</ele><time>2008-11-01T11:55:03Z</time></trkpt>
<trkpt lat="46.23402600" lon="6.99516100"><ele>413.73599244</ele><time>2008-11-01T11:55:04Z</time></trkpt>
<trkpt lat="46.23400800" lon="6.99518200"><ele>413.6960142624</ele><time>2008-11-01T11:55:05Z</time></trkpt>
<trkpt lat="46.23399000" lon="6.99520200"><ele>413.6759949984</ele><time>2008-11-01T11:55:06Z</time></trkpt>
<trkpt lat="46.23397000" lon="6.99522200"><ele>413.6459959728</ele><time>2008-11-01T11:55:07Z</time></trkpt>
<trkpt lat="46.23395100" lon="6.99524300"><ele>413.5960081632</ele><time>2008-11-01T11:55:08Z</time></trkpt>
<trkpt lat="46.23393300" lon="6.99526600"><ele>413.6459959728</ele><time>2008-11-01T11:55:09Z</time></trkpt>
<trkpt lat="46.23391300" lon="6.99529100"><ele>413.6860046304</ele><time>2008-11-01T11:55:10Z</time></trkpt>
<trkpt lat="46.23389300" lon="6.99531700"><ele>413.7160033512</ele><time>2008-11-01T11:55:11Z</time></trkpt>
<trkpt lat="46.23387200" lon="6.99534400"><ele>413.726013288</ele><time>2008-11-01T11:55:12Z</time></trkpt>
<trkpt lat="46.23385000" lon="6.99537000"><ele>413.7659911608</ele><time>2008-11-01T11:55:13Z</time></trkpt>
<trkpt lat="46.23382800" lon="6.99539700"><ele>413.7860107296</ele><time>2008-11-01T11:55:14Z</time></trkpt>
<trkpt lat="46.23380600" lon="6.99542600"><ele>413.8259889072</ele><time>2008-11-01T11:55:15Z</time></trkpt>
<trkpt lat="46.23378500" lon="6.99545500"><ele>413.855987628</ele><time>2008-11-01T11:55:16Z</time></trkpt>
<trkpt lat="46.23376100" lon="6.99548200"><ele>413.8259889072</ele><time>2008-11-01T11:55:17Z</time></trkpt>
<trkpt lat="46.23373600" lon="6.99550900"><ele>413.8460081712</ele><time>2008-11-01T11:55:18Z</time></trkpt>
<trkpt lat="46.23371100" lon="6.99553700"><ele>413.8760071968</ele><time>2008-11-01T11:55:19Z</time></trkpt>
<trkpt lat="46.23368500" lon="6.99556600"><ele>413.9060059176</ele><time>2008-11-01T11:55:20Z</time></trkpt>
<trkpt lat="46.23366000" lon="6.99559600"><ele>413.9460142704</ele><time>2008-11-01T11:55:21Z</time></trkpt>
<trkpt lat="46.23363500" lon="6.99562700"><ele>413.985992448</ele><time>2008-11-01T11:55:22Z</time></trkpt>
<trkpt lat="46.23361000" lon="6.99565800"><ele>414.0360107376</ele><time>2008-11-01T11:55:23Z</time></trkpt>
<trkpt lat="46.23358600" lon="6.99568900"><ele>414.0759889152</ele><time>2008-11-01T11:55:24Z</time></trkpt>
<trkpt lat="46.23356200" lon="6.99572000"><ele>414.0859985472</ele><time>2008-11-01T11:55:25Z</time></trkpt>
<trkpt lat="46.23353800" lon="6.99575000"><ele>414.105987636</ele><time>2008-11-01T11:55:26Z</time></trkpt>
<trkpt lat="46.23351300" lon="6.99577800"><ele>414.105987636</ele><time>2008-11-01T11:55:27Z</time></trkpt>
<trkpt lat="46.23348900" lon="6.99580800"><ele>414.0960081792</ele><time>2008-11-01T11:55:28Z</time></trkpt>
<trkpt lat="46.23346500" lon="6.99583900"><ele>414.0759889152</ele><time>2008-11-01T11:55:29Z</time></trkpt>
<trkpt lat="46.23344100" lon="6.99586800"><ele>414.0660094584</ele><time>2008-11-01T11:55:30Z</time></trkpt>
<trkpt lat="46.23341600" lon="6.99589700"><ele>414.0660094584</ele><time>2008-11-01T11:55:31Z</time></trkpt>
<trkpt lat="46.23339100" lon="6.99592700"><ele>414.0759889152</ele><time>2008-11-01T11:55:32Z</time></trkpt>
<trkpt lat="46.23336500" lon="6.99595500"><ele>414.0660094584</ele><time>2008-11-01T11:55:33Z</time></trkpt>
<trkpt lat="46.23333900" lon="6.99598400"><ele>414.0859985472</ele><time>2008-11-01T11:55:34Z</time></trkpt>
<trkpt lat="46.23331400" lon="6.99601400"><ele>414.105987636</ele><time>2008-11-01T11:55:35Z</time></trkpt>
<trkpt lat="46.23328900" lon="6.99604400"><ele>414.1359863568</ele><time>2008-11-01T11:55:36Z</time></trkpt>
<trkpt lat="46.23326400" lon="6.99607500"><ele>414.1759950144</ele><time>2008-11-01T11:55:37Z</time></trkpt>
<trkpt lat="46.23323800" lon="6.99610300"><ele>414.2059937352</ele><time>2008-11-01T11:55:38Z</time></trkpt>
<trkpt lat="46.23321300" lon="6.99613200"><ele>414.2160033672</ele><time>2008-11-01T11:55:39Z</time></trkpt>
<trkpt lat="46.23318900" lon="6.99616200"><ele>414.23098764</ele><time>2008-11-01T11:55:40Z</time></trkpt>
<trkpt lat="46.23316500" lon="6.99619200"><ele>414.235992456</ele><time>2008-11-01T11:55:41Z</time></trkpt>
<trkpt lat="46.23314100" lon="6.99622200"><ele>414.246002088</ele><time>2008-11-01T11:55:42Z</time></trkpt>
<trkpt lat="46.23311600" lon="6.99625000"><ele>414.3160094664</ele><time>2008-11-01T11:55:43Z</time></trkpt>
<trkpt lat="46.23308900" lon="6.99627300"><ele>414.3859863648</ele><time>2008-11-01T11:55:44Z</time></trkpt>
<trkpt lat="46.23306000" lon="6.99628700"><ele>414.4670104344</ele><time>2008-11-01T11:55:45Z</time></trkpt>
<trkpt lat="46.23303100" lon="6.99629100"><ele>414.5469969648</ele><time>2008-11-01T11:55:46Z</time></trkpt>
<trkpt lat="46.23300200" lon="6.99629200"><ele>414.5969847744</ele><time>2008-11-01T11:55:47Z</time></trkpt>
<trkpt lat="46.23297400" lon="6.99629500"><ele>414.6770020896</ele><time>2008-11-01T11:55:48Z</time></trkpt>
<trkpt lat="46.23294900" lon="6.99630800"><ele>414.7059937512</ele><time>2008-11-01T11:55:49Z</time></trkpt>
<trkpt lat="46.23292500" lon="6.99632700"><ele>414.72601332</ele><time>2008-11-01T11:55:50Z</time></trkpt>
<trkpt lat="46.23290200" lon="6.99635000"><ele>414.735992472</ele><time>2008-11-01T11:55:51Z</time></trkpt>
<trkpt lat="46.23287800" lon="6.99637400"><ele>414.7550049816</ele><time>2008-11-01T11:55:52Z</time></trkpt>
<trkpt lat="46.23285500" lon="6.99639900"><ele>414.7659911928</ele><time>2008-11-01T11:55:53Z</time></trkpt>
<trkpt lat="46.23283300" lon="6.99642700"><ele>414.725005956</ele><time>2008-11-01T11:55:54Z</time></trkpt>
<trkpt lat="46.23281300" lon="6.99645900"><ele>414.6950072352</ele><time>2008-11-01T11:55:55Z</time></trkpt>
<trkpt lat="46.23279400" lon="6.99649500"><ele>414.6650085144</ele><time>2008-11-01T11:55:56Z</time></trkpt>
<trkpt lat="46.23277700" lon="6.99653200"><ele>414.6249998568</ele><time>2008-11-01T11:55:57Z</time></trkpt>
<trkpt lat="46.23275900" lon="6.99657000"><ele>414.5650024152</ele><time>2008-11-01T11:55:58Z</time></trkpt>
<trkpt lat="46.23274100" lon="6.99660800"><ele>414.4949950368</ele><time>2008-11-01T11:55:59Z</time></trkpt>
<trkpt lat="46.23272200" lon="6.99664600"><ele>414.464996316</ele><time>2008-11-01T11:56:00Z</time></trkpt>
<trkpt lat="46.23270200" lon="6.99668500"><ele>414.4249876584</ele><time>2008-11-01T11:56:01Z</time></trkpt>
<trkpt lat="46.23268300" lon="6.99672400"><ele>414.4049988744</ele><time>2008-11-01T11:56:02Z</time></trkpt>
<trkpt lat="46.23266300" lon="6.99676300"><ele>414.334991496</ele><time>2008-11-01T11:56:03Z</time></trkpt>
<trkpt lat="46.23264200" lon="6.99680100"><ele>414.325012344</ele><time>2008-11-01T11:56:04Z</time></trkpt>
<trkpt lat="46.23262000" lon="6.99683600"><ele>414.3049927752</ele><time>2008-11-01T11:56:05Z</time></trkpt>
<trkpt lat="46.23259500" lon="6.99686900"><ele>414.2550049656</ele><time>2008-11-01T11:56:06Z</time></trkpt>
<trkpt lat="46.23256800" lon="6.99690300"><ele>414.2239988808</ele><time>2008-11-01T11:56:07Z</time></trkpt>
<trkpt lat="46.23253900" lon="6.99693500"><ele>414.0939940608</ele><time>2008-11-01T11:56:08Z</time></trkpt>
<trkpt lat="46.23250900" lon="6.99696900"><ele>414.0339966192</ele><time>2008-11-01T11:56:09Z</time></trkpt>
<trkpt lat="46.23247800" lon="6.99700400"><ele>414.0039978984</ele><time>2008-11-01T11:56:10Z</time></trkpt>
<trkpt lat="46.23244600" lon="6.99703800"><ele>414.0239866824</ele><time>2008-11-01T11:56:11Z</time></trkpt>
<trkpt lat="46.23241600" lon="6.99707400"><ele>413.8739927736</ele><time>2008-11-01T11:56:12Z</time></trkpt>
<trkpt lat="46.23238600" lon="6.99711000"><ele>413.7739866744</ele><time>2008-11-01T11:56:13Z</time></trkpt>
<trkpt lat="46.23235400" lon="6.99714300"><ele>413.7539978904</ele><time>2008-11-01T11:56:14Z</time></trkpt>
<trkpt lat="46.23232300" lon="6.99717700"><ele>413.7749940384</ele><time>2008-11-01T11:56:15Z</time></trkpt>
<trkpt lat="46.23229200" lon="6.99721400"><ele>413.7950133024</ele><time>2008-11-01T11:56:16Z</time></trkpt>
<trkpt lat="46.23226000" lon="6.99725000"><ele>413.8049927592</ele><time>2008-11-01T11:56:17Z</time></trkpt>
<trkpt lat="46.23222800" lon="6.99728700"><ele>413.8049927592</ele><time>2008-11-01T11:56:18Z</time></trkpt>
<trkpt lat="46.23219400" lon="6.99732200"><ele>413.7749940384</ele><time>2008-11-01T11:56:19Z</time></trkpt>
<trkpt lat="46.23216000" lon="6.99735800"><ele>413.8160094504</ele><time>2008-11-01T11:56:20Z</time></trkpt>
<trkpt lat="46.23212600" lon="6.99739600"><ele>413.9460142704</ele><time>2008-11-01T11:56:21Z</time></trkpt>
<trkpt lat="46.23209200" lon="6.99743400"><ele>414.0060120168</ele><time>2008-11-01T11:56:22Z</time></trkpt>
<trkpt lat="46.23205900" lon="6.99747200"><ele>414.1050110568</ele><time>2008-11-01T11:56:23Z</time></trkpt>
<trkpt lat="46.23202600" lon="6.99751100"><ele>414.1250001456</ele><time>2008-11-01T11:56:24Z</time></trkpt>
<trkpt lat="46.23199200" lon="6.99755100"><ele>414.0650023992</ele><time>2008-11-01T11:56:25Z</time></trkpt>
<trkpt lat="46.23195700" lon="6.99758900"><ele>413.9639892408</ele><time>2008-11-01T11:56:26Z</time></trkpt>
<trkpt lat="46.23192100" lon="6.99762700"><ele>413.9540100888</ele><time>2008-11-01T11:56:27Z</time></trkpt>
<trkpt lat="46.23188500" lon="6.99766600"><ele>414.0050049576</ele><time>2008-11-01T11:56:28Z</time></trkpt>
<trkpt lat="46.23185000" lon="6.99770400"><ele>414.0050049576</ele><time>2008-11-01T11:56:29Z</time></trkpt>
<trkpt lat="46.23181600" lon="6.99774200"><ele>413.9949950208</ele><time>2008-11-01T11:56:30Z</time></trkpt>
<trkpt lat="46.23178200" lon="6.99778000"><ele>414.0150145896</ele><time>2008-11-01T11:56:31Z</time></trkpt>
<trkpt lat="46.23174800" lon="6.99781900"><ele>414.256988604</ele><time>2008-11-01T11:56:32Z</time></trkpt>
<trkpt lat="46.23171400" lon="6.99785800"><ele>414.6199950408</ele><time>2008-11-01T11:56:33Z</time></trkpt>
<trkpt lat="46.23168100" lon="6.99789800"><ele>414.9100037064</ele><time>2008-11-01T11:56:34Z</time></trkpt>
<trkpt lat="46.23165100" lon="6.99793800"><ele>415.037994408</ele><time>2008-11-01T11:56:35Z</time></trkpt>
<trkpt lat="46.23162200" lon="6.99797900"><ele>415.0669860696</ele><time>2008-11-01T11:56:36Z</time></trkpt>
<trkpt lat="46.23159400" lon="6.99801900"><ele>415.0260008328</ele><time>2008-11-01T11:56:37Z</time></trkpt>
<trkpt lat="46.23156600" lon="6.99805600"><ele>414.8850098016</ele><time>2008-11-01T11:56:38Z</time></trkpt>
<trkpt lat="46.23153700" lon="6.99809100"><ele>414.7539979224</ele><time>2008-11-01T11:56:39Z</time></trkpt>
<trkpt lat="46.23150700" lon="6.99812400"><ele>414.6340027344</ele><time>2008-11-01T11:56:40Z</time></trkpt>
<trkpt lat="46.23147800" lon="6.99815600"><ele>414.5239866984</ele><time>2008-11-01T11:56:41Z</time></trkpt>
<trkpt lat="46.23144900" lon="6.99818900"><ele>414.4039918152</ele><time>2008-11-01T11:56:42Z</time></trkpt>
<trkpt lat="46.23142000" lon="6.99822400"><ele>414.325012344</ele><time>2008-11-01T11:56:43Z</time></trkpt>
<trkpt lat="46.23139100" lon="6.99825900"><ele>414.2349853968</ele><time>2008-11-01T11:56:44Z</time></trkpt>
<trkpt lat="46.23136200" lon="6.99829200"><ele>414.1350097776</ele><time>2008-11-01T11:56:45Z</time></trkpt>
<trkpt lat="46.23133400" lon="6.99832500"><ele>414.0450133104</ele><time>2008-11-01T11:56:46Z</time></trkpt>
<trkpt lat="46.23130800" lon="6.99835600"><ele>413.9450072112</ele><time>2008-11-01T11:56:47Z</time></trkpt>
<trkpt lat="46.23128100" lon="6.99838700"><ele>413.83499148</ele><time>2008-11-01T11:56:48Z</time></trkpt>
<trkpt lat="46.23125500" lon="6.99841700"><ele>413.7250062288</ele><time>2008-11-01T11:56:49Z</time></trkpt>
<trkpt lat="46.23122900" lon="6.99844700"><ele>413.5939940448</ele><time>2008-11-01T11:56:50Z</time></trkpt>
<trkpt lat="46.23120200" lon="6.99847700"><ele>413.5249940304</ele><time>2008-11-01T11:56:51Z</time></trkpt>
<trkpt lat="46.23117600" lon="6.99850600"><ele>413.4349975632</ele><time>2008-11-01T11:56:52Z</time></trkpt>
<trkpt lat="46.23115100" lon="6.99853500"><ele>413.3649901848</ele><time>2008-11-01T11:56:53Z</time></trkpt>
<trkpt lat="46.23112600" lon="6.99856600"><ele>413.3049927432</ele><time>2008-11-01T11:56:54Z</time></trkpt>
<trkpt lat="46.23110100" lon="6.99859500"><ele>413.2449949968</ele><time>2008-11-01T11:56:55Z</time></trkpt>
<trkpt lat="46.23107600" lon="6.99862400"><ele>413.1749879232</ele><time>2008-11-01T11:56:56Z</time></trkpt>
<trkpt lat="46.23105200" lon="6.99865300"><ele>413.1250001136</ele><time>2008-11-01T11:56:57Z</time></trkpt>
<trkpt lat="46.23102700" lon="6.99868100"><ele>413.095001088</ele><time>2008-11-01T11:56:58Z</time></trkpt>
<trkpt lat="46.23100200" lon="6.99870900"><ele>413.0350036464</ele><time>2008-11-01T11:56:59Z</time></trkpt>
<trkpt lat="46.23097800" lon="6.99873800"><ele>413.0759888832</ele><time>2008-11-01T11:57:00Z</time></trkpt>
<trkpt lat="46.23095300" lon="6.99876700"><ele>413.096008452</ele><time>2008-11-01T11:57:01Z</time></trkpt>
<trkpt lat="46.23092800" lon="6.99879300"><ele>413.1560058936</ele><time>2008-11-01T11:57:02Z</time></trkpt>
<trkpt lat="46.23090400" lon="6.99881900"><ele>413.0859985152</ele><time>2008-11-01T11:57:03Z</time></trkpt>
<trkpt lat="46.23088200" lon="6.99884600"><ele>413.0350036464</ele><time>2008-11-01T11:57:04Z</time></trkpt>
<trkpt lat="46.23085900" lon="6.99887500"><ele>413.0660094264</ele><time>2008-11-01T11:57:05Z</time></trkpt>
<trkpt lat="46.23083500" lon="6.99890200"><ele>413.0050049256</ele><time>2008-11-01T11:57:06Z</time></trkpt>
<trkpt lat="46.23081100" lon="6.99892700"><ele>412.9450071792</ele><time>2008-11-01T11:57:07Z</time></trkpt>
<trkpt lat="46.23078600" lon="6.99895200"><ele>412.9150084584</ele><time>2008-11-01T11:57:08Z</time></trkpt>
<trkpt lat="46.23076100" lon="6.99897700"><ele>412.8649901688</ele><time>2008-11-01T11:57:09Z</time></trkpt>
<trkpt lat="46.23073800" lon="6.99900400"><ele>412.834991448</ele><time>2008-11-01T11:57:10Z</time></trkpt>
<trkpt lat="46.23071500" lon="6.99903000"><ele>412.8049927272</ele><time>2008-11-01T11:57:11Z</time></trkpt>
<trkpt lat="46.23069300" lon="6.99905600"><ele>412.7650145496</ele><time>2008-11-01T11:57:12Z</time></trkpt>
<trkpt lat="46.23067100" lon="6.99908100"><ele>412.7560119768</ele><time>2008-11-01T11:57:13Z</time></trkpt>
<trkpt lat="46.23064900" lon="6.99910300"><ele>412.6849975392</ele><time>2008-11-01T11:57:14Z</time></trkpt>
<trkpt lat="46.23062700" lon="6.99912400"><ele>412.6149901608</ele><time>2008-11-01T11:57:15Z</time></trkpt>
<trkpt lat="46.23060400" lon="6.99914500"><ele>412.5450135672</ele><time>2008-11-01T11:57:16Z</time></trkpt>
<trkpt lat="46.23058000" lon="6.99916800"><ele>412.5050049096</ele><time>2008-11-01T11:57:17Z</time></trkpt>
<trkpt lat="46.23055600" lon="6.99919100"><ele>412.45498662</ele><time>2008-11-01T11:57:18Z</time></trkpt>
<trkpt lat="46.23053100" lon="6.99921700"><ele>412.5660094104</ele><time>2008-11-01T11:57:19Z</time></trkpt>
<trkpt lat="46.23050800" lon="6.99924200"><ele>412.5459898416</ele><time>2008-11-01T11:57:20Z</time></trkpt>
<trkpt lat="46.23048500" lon="6.99926800"><ele>412.5159911208</ele><time>2008-11-01T11:57:21Z</time></trkpt>
<trkpt lat="46.23046200" lon="6.99929100"><ele>412.5260010576</ele><time>2008-11-01T11:57:22Z</time></trkpt>
<trkpt lat="46.23043900" lon="6.99931100"><ele>412.5260010576</ele><time>2008-11-01T11:57:23Z</time></trkpt>
<trkpt lat="46.23041600" lon="6.99933300"><ele>412.5559997784</ele><time>2008-11-01T11:57:24Z</time></trkpt>
<trkpt lat="46.23039000" lon="6.99935700"><ele>412.5559997784</ele><time>2008-11-01T11:57:25Z</time></trkpt>
<trkpt lat="46.23036400" lon="6.99938300"><ele>412.5459898416</ele><time>2008-11-01T11:57:26Z</time></trkpt>
<trkpt lat="46.23033700" lon="6.99940800"><ele>412.5350036304</ele><time>2008-11-01T11:57:27Z</time></trkpt>
<trkpt lat="46.23031200" lon="6.99943200"><ele>412.5559997784</ele><time>2008-11-01T11:57:28Z</time></trkpt>
<trkpt lat="46.23028800" lon="6.99945300"><ele>412.5660094104</ele><time>2008-11-01T11:57:29Z</time></trkpt>
<trkpt lat="46.23026600" lon="6.99947600"><ele>412.5249939984</ele><time>2008-11-01T11:57:30Z</time></trkpt>
<trkpt lat="46.23024600" lon="6.99950000"><ele>412.5050049096</ele><time>2008-11-01T11:57:31Z</time></trkpt>
<trkpt lat="46.23022700" lon="6.99952400"><ele>412.5159911208</ele><time>2008-11-01T11:57:32Z</time></trkpt>
<trkpt lat="46.23020500" lon="6.99954800"><ele>412.5459898416</ele><time>2008-11-01T11:57:33Z</time></trkpt>
<trkpt lat="46.23018000" lon="6.99957300"><ele>412.61599722</ele><time>2008-11-01T11:57:34Z</time></trkpt>
<trkpt lat="46.23015200" lon="6.99959900"><ele>412.6459962456</ele><time>2008-11-01T11:57:35Z</time></trkpt>
<trkpt lat="46.23012100" lon="6.99962500"><ele>412.6659850296</ele><time>2008-11-01T11:57:36Z</time></trkpt>
<trkpt lat="46.23008900" lon="6.99965200"><ele>412.6560058776</ele><time>2008-11-01T11:57:37Z</time></trkpt>
<trkpt lat="46.23005700" lon="6.99968200"><ele>412.6459962456</ele><time>2008-11-01T11:57:38Z</time></trkpt>
<trkpt lat="46.23002300" lon="6.99971300"><ele>412.6860045984</ele><time>2008-11-01T11:57:39Z</time></trkpt>
<trkpt lat="46.22998700" lon="6.99974300"><ele>412.7940062112</ele><time>2008-11-01T11:57:40Z</time></trkpt>
<trkpt lat="46.22995100" lon="6.99977200"><ele>412.8970033128</ele><time>2008-11-01T11:57:41Z</time></trkpt>
<trkpt lat="46.22991600" lon="6.99980200"><ele>412.997009412</ele><time>2008-11-01T11:57:42Z</time></trkpt>
<trkpt lat="46.22988200" lon="6.99983100"><ele>413.1170042952</ele><time>2008-11-01T11:57:43Z</time></trkpt>
<trkpt lat="46.22985000" lon="6.99986000"><ele>413.24700942</ele><time>2008-11-01T11:57:44Z</time></trkpt>
<trkpt lat="46.22981600" lon="6.99989100"><ele>413.4280091088</ele><time>2008-11-01T11:57:45Z</time></trkpt>
<trkpt lat="46.22977600" lon="6.99992600"><ele>413.8479918096</ele><time>2008-11-01T11:57:46Z</time></trkpt>
<trkpt lat="46.22973400" lon="6.99996200"><ele>414.2789918112</ele><time>2008-11-01T11:57:47Z</time></trkpt>
<trkpt lat="46.22969300" lon="6.99999500"><ele>414.4479979248</ele><time>2008-11-01T11:57:48Z</time></trkpt>
<trkpt lat="46.22965300" lon="7.00002700"><ele>414.6080017704</ele><time>2008-11-01T11:57:49Z</time></trkpt>
<trkpt lat="46.22961300" lon="7.00005800"><ele>414.7579956792</ele><time>2008-11-01T11:57:50Z</time></trkpt>
<trkpt lat="46.22957200" lon="7.00009000"><ele>414.9979857504</ele><time>2008-11-01T11:57:51Z</time></trkpt>
<trkpt lat="46.22953000" lon="7.00011900"><ele>415.2380066064</ele><time>2008-11-01T11:57:52Z</time></trkpt>
<trkpt lat="46.22948900" lon="7.00014700"><ele>415.298004048</ele><time>2008-11-01T11:57:53Z</time></trkpt>
<trkpt lat="46.22944700" lon="7.00017400"><ele>415.4070130248</ele><time>2008-11-01T11:57:54Z</time></trkpt>
<trkpt lat="46.22940400" lon="7.00020000"><ele>415.527007908</ele><time>2008-11-01T11:57:55Z</time></trkpt>
<trkpt lat="46.22936300" lon="7.00022700"><ele>415.6979979648</ele><time>2008-11-01T11:57:56Z</time></trkpt>
<trkpt lat="46.22932500" lon="7.00025600"><ele>415.8380127216</ele><time>2008-11-01T11:57:57Z</time></trkpt>
<trkpt lat="46.22928700" lon="7.00028200"><ele>415.9679870616</ele><time>2008-11-01T11:57:58Z</time></trkpt>
<trkpt lat="46.22924700" lon="7.00030800"><ele>416.027007924</ele><time>2008-11-01T11:57:59Z</time></trkpt>
<trkpt lat="46.22920800" lon="7.00033400"><ele>416.0260008648</ele><time>2008-11-01T11:58:00Z</time></trkpt>
<trkpt lat="46.22916800" lon="7.00036000"><ele>416.147003112</ele><time>2008-11-01T11:58:01Z</time></trkpt>
<trkpt lat="46.22912700" lon="7.00038600"><ele>416.3179931688</ele><time>2008-11-01T11:58:02Z</time></trkpt>
<trkpt lat="46.22908800" lon="7.00041200"><ele>416.5299986376</ele><time>2008-11-01T11:58:03Z</time></trkpt>
<trkpt lat="46.22905000" lon="7.00043600"><ele>416.6749877304</ele><time>2008-11-01T11:58:04Z</time></trkpt>
<trkpt lat="46.22901300" lon="7.00045900"><ele>416.7170105064</ele><time>2008-11-01T11:58:05Z</time></trkpt>
<trkpt lat="46.22897900" lon="7.00048300"><ele>416.8469848464</ele><time>2008-11-01T11:58:06Z</time></trkpt>
<trkpt lat="46.22894500" lon="7.00050500"><ele>416.9169922248</ele><time>2008-11-01T11:58:07Z</time></trkpt>
<trkpt lat="46.22891100" lon="7.00052500"><ele>416.9479980048</ele><time>2008-11-01T11:58:08Z</time></trkpt>
<trkpt lat="46.22887800" lon="7.00054500"><ele>416.9089967112</ele><time>2008-11-01T11:58:09Z</time></trkpt>
<trkpt lat="46.22884500" lon="7.00056600"><ele>416.845001208</ele><time>2008-11-01T11:58:10Z</time></trkpt>
<trkpt lat="46.22881300" lon="7.00058800"><ele>416.7850037664</ele><time>2008-11-01T11:58:11Z</time></trkpt>
<trkpt lat="46.22877900" lon="7.00060500"><ele>416.6149902888</ele><time>2008-11-01T11:58:12Z</time></trkpt>
<trkpt lat="46.22874500" lon="7.00062500"><ele>416.6359864368</ele><time>2008-11-01T11:58:13Z</time></trkpt>
<trkpt lat="46.22871100" lon="7.00064400"><ele>416.6249999208</ele><time>2008-11-01T11:58:14Z</time></trkpt>
<trkpt lat="46.22867500" lon="7.00066100"><ele>416.5950012</ele><time>2008-11-01T11:58:15Z</time></trkpt>
<trkpt lat="46.22863900" lon="7.00067500"><ele>416.5050047328</ele><time>2008-11-01T11:58:16Z</time></trkpt>
<trkpt lat="46.22860400" lon="7.00069400"><ele>416.6449890096</ele><time>2008-11-01T11:58:17Z</time></trkpt>
<trkpt lat="46.22856900" lon="7.00071700"><ele>416.7449951088</ele><time>2008-11-01T11:58:18Z</time></trkpt>
<trkpt lat="46.22853500" lon="7.00074100"><ele>416.985992544</ele><time>2008-11-01T11:58:19Z</time></trkpt>
<trkpt lat="46.22850200" lon="7.00076500"><ele>417.3460082832</ele><time>2008-11-01T11:58:20Z</time></trkpt>
<trkpt lat="46.22847000" lon="7.00078500"><ele>417.7080076608</ele><time>2008-11-01T11:58:21Z</time></trkpt>
<trkpt lat="46.22844000" lon="7.00080400"><ele>417.8770140792</ele><time>2008-11-01T11:58:22Z</time></trkpt>
<trkpt lat="46.22840900" lon="7.00082200"><ele>417.9760131192</ele><time>2008-11-01T11:58:23Z</time></trkpt>
<trkpt lat="46.22837700" lon="7.00083100"><ele>417.9150086184</ele><time>2008-11-01T11:58:24Z</time></trkpt>
<trkpt lat="46.22834500" lon="7.00084200"><ele>417.9049986816</ele><time>2008-11-01T11:58:25Z</time></trkpt>
<trkpt lat="46.22831200" lon="7.00085100"><ele>417.8949890496</ele><time>2008-11-01T11:58:26Z</time></trkpt>
<trkpt lat="46.22828000" lon="7.00086000"><ele>417.8949890496</ele><time>2008-11-01T11:58:27Z</time></trkpt>
<trkpt lat="46.22824800" lon="7.00086900"><ele>417.9159851976</ele><time>2008-11-01T11:58:28Z</time></trkpt>
<trkpt lat="46.22821700" lon="7.00087800"><ele>417.9249877704</ele><time>2008-11-01T11:58:29Z</time></trkpt>
<trkpt lat="46.22818700" lon="7.00088900"><ele>417.985992576</ele><time>2008-11-01T11:58:30Z</time></trkpt>
<trkpt lat="46.22815600" lon="7.00090000"><ele>418.0660095864</ele><time>2008-11-01T11:58:31Z</time></trkpt>
<trkpt lat="46.22812500" lon="7.00091000"><ele>418.126007028</ele><time>2008-11-01T11:58:32Z</time></trkpt>
<trkpt lat="46.22809500" lon="7.00092100"><ele>418.2059935584</ele><time>2008-11-01T11:58:33Z</time></trkpt>
<trkpt lat="46.22806400" lon="7.00093200"><ele>418.3269958056</ele><time>2008-11-01T11:58:34Z</time></trkpt>
<trkpt lat="46.22803400" lon="7.00094400"><ele>418.385986188</ele><time>2008-11-01T11:58:35Z</time></trkpt>
<trkpt lat="46.22800400" lon="7.00095700"><ele>418.496002224</ele><time>2008-11-01T11:58:36Z</time></trkpt>
<trkpt lat="46.22797400" lon="7.00096800"><ele>418.5559996656</ele><time>2008-11-01T11:58:37Z</time></trkpt>
<trkpt lat="46.22794400" lon="7.00097500"><ele>418.5559996656</ele><time>2008-11-01T11:58:38Z</time></trkpt>
<trkpt lat="46.22791400" lon="7.00098100"><ele>418.5249938856</ele><time>2008-11-01T11:58:39Z</time></trkpt>
<trkpt lat="46.22788200" lon="7.00098900"><ele>418.4869996512</ele><time>2008-11-01T11:58:40Z</time></trkpt>
<trkpt lat="46.22784900" lon="7.00100000"><ele>418.4339903592</ele><time>2008-11-01T11:58:41Z</time></trkpt>
<trkpt lat="46.22781300" lon="7.00101000"><ele>418.3640137656</ele><time>2008-11-01T11:58:42Z</time></trkpt>
<trkpt lat="46.22777700" lon="7.00102400"><ele>418.3649903448</ele><time>2008-11-01T11:58:43Z</time></trkpt>
<trkpt lat="46.22774000" lon="7.00103500"><ele>418.3150025352</ele><time>2008-11-01T11:58:44Z</time></trkpt>
<trkpt lat="46.22770200" lon="7.00104500"><ele>418.2850038144</ele><time>2008-11-01T11:58:45Z</time></trkpt>
<trkpt lat="46.22766400" lon="7.00105200"><ele>418.2850038144</ele><time>2008-11-01T11:58:46Z</time></trkpt>
<trkpt lat="46.22762600" lon="7.00106000"><ele>418.2850038144</ele><time>2008-11-01T11:58:47Z</time></trkpt>
<trkpt lat="46.22758700" lon="7.00106900"><ele>418.2950134464</ele><time>2008-11-01T11:58:48Z</time></trkpt>
<trkpt lat="46.22754900" lon="7.00107800"><ele>418.3160095944</ele><time>2008-11-01T11:58:49Z</time></trkpt>
<trkpt lat="46.22751100" lon="7.00108600"><ele>418.3460083152</ele><time>2008-11-01T11:58:50Z</time></trkpt>
<trkpt lat="46.22747400" lon="7.00109500"><ele>418.365997404</ele><time>2008-11-01T11:58:51Z</time></trkpt>
<trkpt lat="46.22743700" lon="7.00110300"><ele>418.355010888</ele><time>2008-11-01T11:58:52Z</time></trkpt>
<trkpt lat="46.22740100" lon="7.00111200"><ele>418.365997404</ele><time>2008-11-01T11:58:53Z</time></trkpt>
<trkpt lat="46.22736500" lon="7.00111900"><ele>418.385986188</ele><time>2008-11-01T11:58:54Z</time></trkpt>
<trkpt lat="46.22733000" lon="7.00112700"><ele>418.3959961248</ele><time>2008-11-01T11:58:55Z</time></trkpt>
<trkpt lat="46.22729500" lon="7.00113300"><ele>418.3949890656</ele><time>2008-11-01T11:58:56Z</time></trkpt>
<trkpt lat="46.22726000" lon="7.00113800"><ele>418.4159852136</ele><time>2008-11-01T11:58:57Z</time></trkpt>
<trkpt lat="46.22722500" lon="7.00114300"><ele>418.4460144144</ele><time>2008-11-01T11:58:58Z</time></trkpt>
<trkpt lat="46.22718900" lon="7.00114700"><ele>418.4859922872</ele><time>2008-11-01T11:58:59Z</time></trkpt>
<trkpt lat="46.22715400" lon="7.00115500"><ele>418.7860108896</ele><time>2008-11-01T11:59:00Z</time></trkpt>
<trkpt lat="46.22711900" lon="7.00116200"><ele>419.006011872</ele><time>2008-11-01T11:59:01Z</time></trkpt>
<trkpt lat="46.22708500" lon="7.00116900"><ele>419.2059935904</ele><time>2008-11-01T11:59:02Z</time></trkpt>
<trkpt lat="46.22705200" lon="7.00117800"><ele>419.38598622</ele><time>2008-11-01T11:59:03Z</time></trkpt>
<trkpt lat="46.22701900" lon="7.00118500"><ele>419.5660096344</ele><time>2008-11-01T11:59:04Z</time></trkpt>
<trkpt lat="46.22698800" lon="7.00119000"><ele>419.615997444</ele><time>2008-11-01T11:59:05Z</time></trkpt>
<trkpt lat="46.22695800" lon="7.00119400"><ele>419.6560057968</ele><time>2008-11-01T11:59:06Z</time></trkpt>
<trkpt lat="46.22692700" lon="7.00119800"><ele>419.6759948856</ele><time>2008-11-01T11:59:07Z</time></trkpt>
<trkpt lat="46.22689600" lon="7.00120200"><ele>419.6749878264</ele><time>2008-11-01T11:59:08Z</time></trkpt>
<trkpt lat="46.22686400" lon="7.00120800"><ele>419.714996484</ele><time>2008-11-01T11:59:09Z</time></trkpt>
<trkpt lat="46.22683200" lon="7.00121400"><ele>419.7049865472</ele><time>2008-11-01T11:59:10Z</time></trkpt>
<trkpt lat="46.22679900" lon="7.00122000"><ele>419.714996484</ele><time>2008-11-01T11:59:11Z</time></trkpt>
<trkpt lat="46.22676600" lon="7.00122600"><ele>419.734985268</ele><time>2008-11-01T11:59:12Z</time></trkpt>
<trkpt lat="46.22673300" lon="7.00123500"><ele>419.7449952048</ele><time>2008-11-01T11:59:13Z</time></trkpt>
<trkpt lat="46.22669900" lon="7.00124200"><ele>419.694000336</ele><time>2008-11-01T11:59:14Z</time></trkpt>
<trkpt lat="46.22666500" lon="7.00125000"><ele>419.6950073952</ele><time>2008-11-01T11:59:15Z</time></trkpt>
<trkpt lat="46.22663000" lon="7.00125600"><ele>419.6950073952</ele><time>2008-11-01T11:59:16Z</time></trkpt>
<trkpt lat="46.22659500" lon="7.00126200"><ele>419.6849974584</ele><time>2008-11-01T11:59:17Z</time></trkpt>
<trkpt lat="46.22655900" lon="7.00126500"><ele>419.6340025896</ele><time>2008-11-01T11:59:18Z</time></trkpt>
<trkpt lat="46.22652200" lon="7.00126900"><ele>419.574005148</ele><time>2008-11-01T11:59:19Z</time></trkpt>
<trkpt lat="46.22648400" lon="7.00127400"><ele>419.4930115584</ele><time>2008-11-01T11:59:20Z</time></trkpt>
<trkpt lat="46.22644400" lon="7.00127600"><ele>419.3729858904</ele><time>2008-11-01T11:59:21Z</time></trkpt>
<trkpt lat="46.22640200" lon="7.00128000"><ele>419.2319945544</ele><time>2008-11-01T11:59:22Z</time></trkpt>
<trkpt lat="46.22635600" lon="7.00128600"><ele>419.022003204</ele><time>2008-11-01T11:59:23Z</time></trkpt>
<trkpt lat="46.22630800" lon="7.00129300"><ele>418.7709961368</ele><time>2008-11-01T11:59:24Z</time></trkpt>
<trkpt lat="46.22625600" lon="7.00129800"><ele>418.50100704</ele><time>2008-11-01T11:59:25Z</time></trkpt>
<trkpt lat="46.22620400" lon="7.00130200"><ele>418.251007032</ele><time>2008-11-01T11:59:26Z</time></trkpt>
<trkpt lat="46.22615200" lon="7.00130200"><ele>417.9710083032</ele><time>2008-11-01T11:59:27Z</time></trkpt>
<trkpt lat="46.22609700" lon="7.00130400"><ele>417.7709961048</ele><time>2008-11-01T11:59:28Z</time></trkpt>
<trkpt lat="46.22604300" lon="7.00130600"><ele>417.652007976</ele><time>2008-11-01T11:59:29Z</time></trkpt>
<trkpt lat="46.22599200" lon="7.00130400"><ele>417.5230102152</ele><time>2008-11-01T11:59:30Z</time></trkpt>
<trkpt lat="46.22594400" lon="7.00129700"><ele>417.3930053952</ele><time>2008-11-01T11:59:31Z</time></trkpt>
<trkpt lat="46.22589800" lon="7.00128900"><ele>417.2030028288</ele><time>2008-11-01T11:59:32Z</time></trkpt>
<trkpt lat="46.22585200" lon="7.00128400"><ele>417.0929870976</ele><time>2008-11-01T11:59:33Z</time></trkpt>
<trkpt lat="46.22580600" lon="7.00127800"><ele>416.9729919096</ele><time>2008-11-01T11:59:34Z</time></trkpt>
<trkpt lat="46.22576200" lon="7.00127400"><ele>416.9039915904</ele><time>2008-11-01T11:59:35Z</time></trkpt>
<trkpt lat="46.22572000" lon="7.00127200"><ele>416.8439941488</ele><time>2008-11-01T11:59:36Z</time></trkpt>
<trkpt lat="46.22567900" lon="7.00127400"><ele>416.82400506</ele><time>2008-11-01T11:59:37Z</time></trkpt>
<trkpt lat="46.22564100" lon="7.00127900"><ele>416.834991576</ele><time>2008-11-01T11:59:38Z</time></trkpt>
<trkpt lat="46.22560600" lon="7.00129200"><ele>416.8949890176</ele><time>2008-11-01T11:59:39Z</time></trkpt>
<trkpt lat="46.22557500" lon="7.00131000"><ele>416.9299925544</ele><time>2008-11-01T11:59:40Z</time></trkpt>
<trkpt lat="46.22554600" lon="7.00133200"><ele>417.0360108336</ele><time>2008-11-01T11:59:41Z</time></trkpt>
<trkpt lat="46.22551900" lon="7.00135300"><ele>417.1059874272</ele><time>2008-11-01T11:59:42Z</time></trkpt>
<trkpt lat="46.22549300" lon="7.00137300"><ele>417.0960082752</ele><time>2008-11-01T11:59:43Z</time></trkpt>
<trkpt lat="46.22546700" lon="7.00139200"><ele>417.1459960848</ele><time>2008-11-01T11:59:44Z</time></trkpt>
<trkpt lat="46.22544100" lon="7.00141000"><ele>417.1860047424</ele><time>2008-11-01T11:59:45Z</time></trkpt>
<trkpt lat="46.22541700" lon="7.00143000"><ele>417.1759948056</ele><time>2008-11-01T11:59:46Z</time></trkpt>
<trkpt lat="46.22539400" lon="7.00145100"><ele>417.1759948056</ele><time>2008-11-01T11:59:47Z</time></trkpt>
<trkpt lat="46.22537300" lon="7.00147000"><ele>417.1350098736</ele><time>2008-11-01T11:59:48Z</time></trkpt>
<trkpt lat="46.22535300" lon="7.00148800"><ele>417.1149903048</ele><time>2008-11-01T11:59:49Z</time></trkpt>
<trkpt lat="46.22533300" lon="7.00150400"><ele>417.0249938376</ele><time>2008-11-01T11:59:50Z</time></trkpt>
<trkpt lat="46.22531500" lon="7.00152300"><ele>416.944000248</ele><time>2008-11-01T11:59:51Z</time></trkpt>
<trkpt lat="46.22530200" lon="7.00155100"><ele>417.2449951248</ele><time>2008-11-01T11:59:52Z</time></trkpt>
<trkpt lat="46.22529400" lon="7.00158500"><ele>417.8959961088</ele><time>2008-11-01T11:59:53Z</time></trkpt>
<trkpt lat="46.22529000" lon="7.00160700"><ele>418.1969909856</ele><time>2008-11-01T11:59:54Z</time></trkpt>
<trkpt lat="46.22529300" lon="7.00161300"><ele>417.735992568</ele><time>2008-11-01T11:59:55Z</time></trkpt>
<trkpt lat="46.22530200" lon="7.00162800"><ele>417.4949951328</ele><time>2008-11-01T11:59:56Z</time></trkpt>
<trkpt lat="46.22530800" lon="7.00165200"><ele>417.3649903128</ele><time>2008-11-01T11:59:57Z</time></trkpt>
<trkpt lat="46.22531200" lon="7.00168900"><ele>417.334991592</ele><time>2008-11-01T11:59:58Z</time></trkpt>
<trkpt lat="46.22531500" lon="7.00171400"><ele>417.0140076264</ele><time>2008-11-01T11:59:59Z</time></trkpt>
<trkpt lat="46.22531200" lon="7.00173800"><ele>417.4049986656</ele><time>2008-11-01T12:00:00Z</time></trkpt>
<trkpt lat="46.22530400" lon="7.00176200"><ele>417.313995444</ele><time>2008-11-01T12:00:01Z</time></trkpt>
<trkpt lat="46.22528900" lon="7.00178500"><ele>417.4349976912</ele><time>2008-11-01T12:00:02Z</time></trkpt>
<trkpt lat="46.22527100" lon="7.00180600"><ele>417.464996412</ele><time>2008-11-01T12:00:03Z</time></trkpt>
<trkpt lat="46.22524900" lon="7.00182300"><ele>417.4849855008</ele><time>2008-11-01T12:00:04Z</time></trkpt>
<trkpt lat="46.22522700" lon="7.00183600"><ele>417.4450073232</ele><time>2008-11-01T12:00:05Z</time></trkpt>
<trkpt lat="46.22520500" lon="7.00184800"><ele>417.4249877544</ele><time>2008-11-01T12:00:06Z</time></trkpt>
<trkpt lat="46.22518100" lon="7.00186000"><ele>417.4150086024</ele><time>2008-11-01T12:00:07Z</time></trkpt>
<trkpt lat="46.22515600" lon="7.00187100"><ele>417.4249877544</ele><time>2008-11-01T12:00:08Z</time></trkpt>
<trkpt lat="46.22513000" lon="7.00188100"><ele>417.475006044</ele><time>2008-11-01T12:00:09Z</time></trkpt>
<trkpt lat="46.22510400" lon="7.00189300"><ele>417.5050047648</ele><time>2008-11-01T12:00:10Z</time></trkpt>
<trkpt lat="46.22507800" lon="7.00190400"><ele>417.5459900016</ele><time>2008-11-01T12:00:11Z</time></trkpt>
<trkpt lat="46.22505200" lon="7.00191600"><ele>417.5960082912</ele><time>2008-11-01T12:00:12Z</time></trkpt>
<trkpt lat="46.22502700" lon="7.00192900"><ele>417.5450134224</ele><time>2008-11-01T12:00:13Z</time></trkpt>
<trkpt lat="46.22500100" lon="7.00194200"><ele>417.5650025112</ele><time>2008-11-01T12:00:14Z</time></trkpt>
<trkpt lat="46.22497400" lon="7.00195500"><ele>417.6059874432</ele><time>2008-11-01T12:00:15Z</time></trkpt>
<trkpt lat="46.22494800" lon="7.00196900"><ele>417.6560057328</ele><time>2008-11-01T12:00:16Z</time></trkpt>
<trkpt lat="46.22492200" lon="7.00198000"><ele>417.8059996416</ele><time>2008-11-01T12:00:17Z</time></trkpt>
<trkpt lat="46.22489600" lon="7.00199100"><ele>417.9159851976</ele><time>2008-11-01T12:00:18Z</time></trkpt>
<trkpt lat="46.22486900" lon="7.00200300"><ele>418.00601184</ele><time>2008-11-01T12:00:19Z</time></trkpt>
<trkpt lat="46.22484300" lon="7.00201400"><ele>418.0750121592</ele><time>2008-11-01T12:00:20Z</time></trkpt>
<trkpt lat="46.22481700" lon="7.00202600"><ele>418.1560057488</ele><time>2008-11-01T12:00:21Z</time></trkpt>
<trkpt lat="46.22479200" lon="7.00203800"><ele>418.246002216</ele><time>2008-11-01T12:00:22Z</time></trkpt>
<trkpt lat="46.22477000" lon="7.00205000"><ele>418.4169922728</ele><time>2008-11-01T12:00:23Z</time></trkpt>
<trkpt lat="46.22474800" lon="7.00205900"><ele>418.5159913128</ele><time>2008-11-01T12:00:24Z</time></trkpt>
<trkpt lat="46.22472400" lon="7.00206900"><ele>418.5759887544</ele><time>2008-11-01T12:00:25Z</time></trkpt>
<trkpt lat="46.22470000" lon="7.00208100"><ele>418.6659852216</ele><time>2008-11-01T12:00:26Z</time></trkpt>
<trkpt lat="46.22467500" lon="7.00209300"><ele>418.7359922952</ele><time>2008-11-01T12:00:27Z</time></trkpt>
<trkpt lat="46.22465100" lon="7.00210400"><ele>418.8059996736</ele><time>2008-11-01T12:00:28Z</time></trkpt>
<trkpt lat="46.22462800" lon="7.00211600"><ele>418.876007052</ele><time>2008-11-01T12:00:29Z</time></trkpt>
<trkpt lat="46.22460400" lon="7.00212900"><ele>418.9360044936</ele><time>2008-11-01T12:00:30Z</time></trkpt>
<trkpt lat="46.22457900" lon="7.00214200"><ele>418.9859923032</ele><time>2008-11-01T12:00:31Z</time></trkpt>
<trkpt lat="46.22455300" lon="7.00215400"><ele>419.0559996816</ele><time>2008-11-01T12:00:32Z</time></trkpt>
<trkpt lat="46.22452400" lon="7.00216500"><ele>419.115997428</ele><time>2008-11-01T12:00:33Z</time></trkpt>
<trkpt lat="46.22449500" lon="7.00217700"><ele>419.2059935904</ele><time>2008-11-01T12:00:34Z</time></trkpt>
<trkpt lat="46.22446600" lon="7.00219000"><ele>419.2959900576</ele><time>2008-11-01T12:00:35Z</time></trkpt>
<trkpt lat="46.22443800" lon="7.00220400"><ele>419.365997436</ele><time>2008-11-01T12:00:36Z</time></trkpt>
<trkpt lat="46.22441100" lon="7.00221600"><ele>419.3959961568</ele><time>2008-11-01T12:00:37Z</time></trkpt>
<trkpt lat="46.22438500" lon="7.00222900"><ele>419.4159852456</ele><time>2008-11-01T12:00:38Z</time></trkpt>
<trkpt lat="46.22435800" lon="7.00224500"><ele>419.4559935984</ele><time>2008-11-01T12:00:39Z</time></trkpt>
<trkpt lat="46.22433000" lon="7.00225800"><ele>419.6170045032</ele><time>2008-11-01T12:00:40Z</time></trkpt>
<trkpt lat="46.22430200" lon="7.00227100"><ele>419.777008044</ele><time>2008-11-01T12:00:41Z</time></trkpt>
<trkpt lat="46.22427400" lon="7.00228600"><ele>419.7959900736</ele><time>2008-11-01T12:00:42Z</time></trkpt>
<trkpt lat="46.22424600" lon="7.00230100"><ele>419.8869932952</ele><time>2008-11-01T12:00:43Z</time></trkpt>
<trkpt lat="46.22421700" lon="7.00231800"><ele>420.1480102992</ele><time>2008-11-01T12:00:44Z</time></trkpt>
<trkpt lat="46.22418900" lon="7.00233600"><ele>420.1969910496</ele><time>2008-11-01T12:00:45Z</time></trkpt>
<trkpt lat="46.22416000" lon="7.00235600"><ele>420.428009028</ele><time>2008-11-01T12:00:46Z</time></trkpt>
<trkpt lat="46.22413100" lon="7.00237600"><ele>420.6579894672</ele><time>2008-11-01T12:00:47Z</time></trkpt>
<trkpt lat="46.22410200" lon="7.00239500"><ele>420.9880064856</ele><time>2008-11-01T12:00:48Z</time></trkpt>
<trkpt lat="46.22407300" lon="7.00241600"><ele>421.4190064872</ele><time>2008-11-01T12:00:49Z</time></trkpt>
<trkpt lat="46.22404600" lon="7.00243700"><ele>421.6380004104</ele><time>2008-11-01T12:00:50Z</time></trkpt>
<trkpt lat="46.22401900" lon="7.00245900"><ele>421.6969910976</ele><time>2008-11-01T12:00:51Z</time></trkpt>
<trkpt lat="46.22399300" lon="7.00248300"><ele>421.62600714</ele><time>2008-11-01T12:00:52Z</time></trkpt>
<trkpt lat="46.22396500" lon="7.00250800"><ele>421.78698726</ele><time>2008-11-01T12:00:53Z</time></trkpt>
<trkpt lat="46.22393800" lon="7.00253500"><ele>421.9670103696</ele><time>2008-11-01T12:00:54Z</time></trkpt>
<trkpt lat="46.22391000" lon="7.00256300"><ele>422.1969911136</ele><time>2008-11-01T12:00:55Z</time></trkpt>
<trkpt lat="46.22388200" lon="7.00259100"><ele>422.3569946544</ele><time>2008-11-01T12:00:56Z</time></trkpt>
<trkpt lat="46.22385300" lon="7.00262100"><ele>422.7080078208</ele><time>2008-11-01T12:00:57Z</time></trkpt>
<trkpt lat="46.22382600" lon="7.00265300"><ele>423.088989228</ele><time>2008-11-01T12:00:58Z</time></trkpt>
<trkpt lat="46.22380000" lon="7.00268600"><ele>423.2690123376</ele><time>2008-11-01T12:00:59Z</time></trkpt>
<trkpt lat="46.22377200" lon="7.00272100"><ele>423.7999876536</ele><time>2008-11-01T12:01:00Z</time></trkpt>
<trkpt lat="46.22374500" lon="7.00275300"><ele>423.9190062624</ele><time>2008-11-01T12:01:01Z</time></trkpt>
<trkpt lat="46.22371900" lon="7.00278600"><ele>423.9089966304</ele><time>2008-11-01T12:01:02Z</time></trkpt>
<trkpt lat="46.22369300" lon="7.00281900"><ele>423.8380126728</ele><time>2008-11-01T12:01:03Z</time></trkpt>
<trkpt lat="46.22366700" lon="7.00285300"><ele>423.7879943832</ele><time>2008-11-01T12:01:04Z</time></trkpt>
<trkpt lat="46.22364100" lon="7.00288500"><ele>423.7170104256</ele><time>2008-11-01T12:01:05Z</time></trkpt>
<trkpt lat="46.22361500" lon="7.00291600"><ele>423.6369934152</ele><time>2008-11-01T12:01:06Z</time></trkpt>
<trkpt lat="46.22359100" lon="7.00294600"><ele>423.385986348</ele><time>2008-11-01T12:01:07Z</time></trkpt>
<trkpt lat="46.22356800" lon="7.00297800"><ele>423.114990192</ele><time>2008-11-01T12:01:08Z</time></trkpt>
<trkpt lat="46.22354700" lon="7.00301500"><ele>423.0950011032</ele><time>2008-11-01T12:01:09Z</time></trkpt>
<trkpt lat="46.22352300" lon="7.00304500"><ele>422.8850097528</ele><time>2008-11-01T12:01:10Z</time></trkpt>
<trkpt lat="46.22350400" lon="7.00308600"><ele>422.9360046216</ele><time>2008-11-01T12:01:11Z</time></trkpt>
<trkpt lat="46.22347900" lon="7.00311600"><ele>422.5950010872</ele><time>2008-11-01T12:01:12Z</time></trkpt>
<trkpt lat="46.22345100" lon="7.00314400"><ele>422.5450132776</ele><time>2008-11-01T12:01:13Z</time></trkpt>
<trkpt lat="46.22342200" lon="7.00317000"><ele>422.4450071784</ele><time>2008-11-01T12:01:14Z</time></trkpt>
<trkpt lat="46.22339300" lon="7.00319800"><ele>422.4450071784</ele><time>2008-11-01T12:01:15Z</time></trkpt>
<trkpt lat="46.22336400" lon="7.00322400"><ele>422.204010048</ele><time>2008-11-01T12:01:16Z</time></trkpt>
<trkpt lat="46.22333500" lon="7.00324700"><ele>422.0039978496</ele><time>2008-11-01T12:01:17Z</time></trkpt>
<trkpt lat="46.22330400" lon="7.00326900"><ele>421.8039856512</ele><time>2008-11-01T12:01:18Z</time></trkpt>
<trkpt lat="46.22327300" lon="7.00329000"><ele>421.593993996</ele><time>2008-11-01T12:01:19Z</time></trkpt>
<trkpt lat="46.22324100" lon="7.00331100"><ele>421.3940125824</ele><time>2008-11-01T12:01:20Z</time></trkpt>
<trkpt lat="46.22321000" lon="7.00333200"><ele>421.19299302</ele><time>2008-11-01T12:01:21Z</time></trkpt>
<trkpt lat="46.22317800" lon="7.00335100"><ele>420.9729920376</ele><time>2008-11-01T12:01:22Z</time></trkpt>
<trkpt lat="46.22314600" lon="7.00337100"><ele>420.7229920296</ele><time>2008-11-01T12:01:23Z</time></trkpt>
<trkpt lat="46.22311400" lon="7.00339100"><ele>420.4519958736</ele><time>2008-11-01T12:01:24Z</time></trkpt>
<trkpt lat="46.22308200" lon="7.00340900"><ele>420.152008056</ele><time>2008-11-01T12:01:25Z</time></trkpt>
<trkpt lat="46.22305100" lon="7.00342900"><ele>419.8619993904</ele><time>2008-11-01T12:01:26Z</time></trkpt>
<trkpt lat="46.22301800" lon="7.00345000"><ele>419.5920105984</ele><time>2008-11-01T12:01:27Z</time></trkpt>
<trkpt lat="46.22298300" lon="7.00347000"><ele>419.2309874952</ele><time>2008-11-01T12:01:28Z</time></trkpt>
<trkpt lat="46.22294700" lon="7.00349400"><ele>418.9710083352</ele><time>2008-11-01T12:01:29Z</time></trkpt>
<trkpt lat="46.22290900" lon="7.00352100"><ele>418.6910096064</ele><time>2008-11-01T12:01:30Z</time></trkpt>
<trkpt lat="46.22287100" lon="7.00354600"><ele>418.4209900296</ele><time>2008-11-01T12:01:31Z</time></trkpt>
<trkpt lat="46.22283300" lon="7.00357000"><ele>418.1610108696</ele><time>2008-11-01T12:01:32Z</time></trkpt>
<trkpt lat="46.22279500" lon="7.00359400"><ele>417.871002204</ele><time>2008-11-01T12:01:33Z</time></trkpt>
<trkpt lat="46.22275500" lon="7.00362100"><ele>417.5809935384</ele><time>2008-11-01T12:01:34Z</time></trkpt>
<trkpt lat="46.22271400" lon="7.00364900"><ele>417.3110047464</ele><time>2008-11-01T12:01:35Z</time></trkpt>
<trkpt lat="46.22267300" lon="7.00367800"><ele>417.0310057128</ele><time>2008-11-01T12:01:36Z</time></trkpt>
<trkpt lat="46.22263300" lon="7.00370800"><ele>416.740997352</ele><time>2008-11-01T12:01:37Z</time></trkpt>
<trkpt lat="46.22259200" lon="7.00374000"><ele>416.5209960648</ele><time>2008-11-01T12:01:38Z</time></trkpt>
<trkpt lat="46.22255000" lon="7.00377300"><ele>416.2709960568</ele><time>2008-11-01T12:01:39Z</time></trkpt>
<trkpt lat="46.22250600" lon="7.00380700"><ele>415.9890136896</ele><time>2008-11-01T12:01:40Z</time></trkpt>
<trkpt lat="46.22245900" lon="7.00385100"><ele>416.0910034272</ele><time>2008-11-01T12:01:41Z</time></trkpt>
<trkpt lat="46.22241300" lon="7.00389300"><ele>416.0509947696</ele><time>2008-11-01T12:01:42Z</time></trkpt>
<trkpt lat="46.22236900" lon="7.00394200"><ele>416.0109864168</ele><time>2008-11-01T12:01:43Z</time></trkpt>
<trkpt lat="46.22232400" lon="7.00398700"><ele>416.0520018288</ele><time>2008-11-01T12:01:44Z</time></trkpt>
<trkpt lat="46.22228400" lon="7.00403300"><ele>416.1119995752</ele><time>2008-11-01T12:01:45Z</time></trkpt>
<trkpt lat="46.22224500" lon="7.00406400"><ele>415.9519957296</ele><time>2008-11-01T12:01:46Z</time></trkpt>
<trkpt lat="46.22220700" lon="7.00409200"><ele>415.8519896304</ele><time>2008-11-01T12:01:47Z</time></trkpt>
<trkpt lat="46.22217100" lon="7.00412300"><ele>415.7420043792</ele><time>2008-11-01T12:01:48Z</time></trkpt>
<trkpt lat="46.22213700" lon="7.00415100"><ele>415.631988648</ele><time>2008-11-01T12:01:49Z</time></trkpt>
<trkpt lat="46.22210500" lon="7.00417600"><ele>415.4729918616</ele><time>2008-11-01T12:01:50Z</time></trkpt>
<trkpt lat="46.22207500" lon="7.00419600"><ele>415.2520143</ele><time>2008-11-01T12:01:51Z</time></trkpt>
<trkpt lat="46.22204700" lon="7.00421600"><ele>415.0820008224</ele><time>2008-11-01T12:01:52Z</time></trkpt>
<trkpt lat="46.22202100" lon="7.00424500"><ele>415.1520082008</ele><time>2008-11-01T12:01:53Z</time></trkpt>
<trkpt lat="46.22199500" lon="7.00426700"><ele>415.0230101352</ele><time>2008-11-01T12:01:54Z</time></trkpt>
<trkpt lat="46.22196700" lon="7.00428800"><ele>414.9429931248</ele><time>2008-11-01T12:01:55Z</time></trkpt>
<trkpt lat="46.22194000" lon="7.00431000"><ele>414.8930053152</ele><time>2008-11-01T12:01:56Z</time></trkpt>
<trkpt lat="46.22184600" lon="7.00436800"><ele>414.3330078576</ele><time>2008-11-01T12:01:59Z</time></trkpt>
<trkpt lat="46.22181500" lon="7.00438000"><ele>414.0629882808</ele><time>2008-11-01T12:02:00Z</time></trkpt>
<trkpt lat="46.22178100" lon="7.00438500"><ele>413.7529908312</ele><time>2008-11-01T12:02:01Z</time></trkpt>
<trkpt lat="46.22174600" lon="7.00438900"><ele>413.4830017344</ele><time>2008-11-01T12:02:02Z</time></trkpt>
<trkpt lat="46.22170800" lon="7.00439500"><ele>413.2130126376</ele><time>2008-11-01T12:02:03Z</time></trkpt>
<trkpt lat="46.22166900" lon="7.00440400"><ele>412.9630126296</ele><time>2008-11-01T12:02:04Z</time></trkpt>
<trkpt lat="46.22163100" lon="7.00441500"><ele>412.7529907992</ele><time>2008-11-01T12:02:05Z</time></trkpt>
<trkpt lat="46.22159300" lon="7.00442600"><ele>412.532989512</ele><time>2008-11-01T12:02:06Z</time></trkpt>
<trkpt lat="46.22155400" lon="7.00443700"><ele>412.292999136</ele><time>2008-11-01T12:02:07Z</time></trkpt>
<trkpt lat="46.22151800" lon="7.00444700"><ele>412.042999128</ele><time>2008-11-01T12:02:08Z</time></trkpt>
<trkpt lat="46.22148200" lon="7.00445300"><ele>411.8829955872</ele><time>2008-11-01T12:02:09Z</time></trkpt>
<trkpt lat="46.22144700" lon="7.00445700"><ele>411.653015148</ele><time>2008-11-01T12:02:10Z</time></trkpt>
<trkpt lat="46.22141400" lon="7.00447000"><ele>411.3729859392</ele><time>2008-11-01T12:02:11Z</time></trkpt>
<trkpt lat="46.22138100" lon="7.00450700"><ele>410.9729920224</ele><time>2008-11-01T12:02:12Z</time></trkpt>
<trkpt lat="46.22135000" lon="7.00453000"><ele>410.5220032368</ele><time>2008-11-01T12:02:13Z</time></trkpt>
<trkpt lat="46.22132000" lon="7.00453400"><ele>410.2120054824</ele><time>2008-11-01T12:02:14Z</time></trkpt>
<trkpt lat="46.22129100" lon="7.00453800"><ele>409.8420105912</ele><time>2008-11-01T12:02:15Z</time></trkpt>
<trkpt lat="46.22126000" lon="7.00453900"><ele>409.622009304</ele><time>2008-11-01T12:02:16Z</time></trkpt>
<trkpt lat="46.22123000" lon="7.00454000"><ele>409.3729858752</ele><time>2008-11-01T12:02:17Z</time></trkpt>
<trkpt lat="46.22120100" lon="7.00454200"><ele>409.1229858672</ele><time>2008-11-01T12:02:18Z</time></trkpt>
<trkpt lat="46.22117400" lon="7.00454500"><ele>408.8630067072</ele><time>2008-11-01T12:02:19Z</time></trkpt>
<trkpt lat="46.22114800" lon="7.00454700"><ele>408.6830137728</ele><time>2008-11-01T12:02:20Z</time></trkpt>
<trkpt lat="46.22112200" lon="7.00454600"><ele>408.4230041328</ele><time>2008-11-01T12:02:21Z</time></trkpt>
<trkpt lat="46.22109700" lon="7.00454400"><ele>408.2130127824</ele><time>2008-11-01T12:02:22Z</time></trkpt>
<trkpt lat="46.22107600" lon="7.00454200"><ele>407.9939880744</ele><time>2008-11-01T12:02:23Z</time></trkpt>
<trkpt lat="46.22105700" lon="7.00454200"><ele>407.7340089144</ele><time>2008-11-01T12:02:24Z</time></trkpt>
<trkpt lat="46.22104200" lon="7.00454000"><ele>407.4739989696</ele><time>2008-11-01T12:02:25Z</time></trkpt>
<trkpt lat="46.22102800" lon="7.00453500"><ele>407.174011152</ele><time>2008-11-01T12:02:26Z</time></trkpt>
<trkpt lat="46.22101500" lon="7.00452700"><ele>406.9039915752</ele><time>2008-11-01T12:02:27Z</time></trkpt>
<trkpt lat="46.22100500" lon="7.00451900"><ele>406.5729979776</ele><time>2008-11-01T12:02:28Z</time></trkpt>
<trkpt lat="46.22099600" lon="7.00451100"><ele>406.2829896168</ele><time>2008-11-01T12:02:29Z</time></trkpt>
<trkpt lat="46.22098800" lon="7.00450400"><ele>405.9230040528</ele><time>2008-11-01T12:02:30Z</time></trkpt>
<trkpt lat="46.22097700" lon="7.00449900"><ele>405.6629944128</ele><time>2008-11-01T12:02:31Z</time></trkpt>
<trkpt lat="46.22096000" lon="7.00450100"><ele>405.4330139736</ele><time>2008-11-01T12:02:32Z</time></trkpt>
<trkpt lat="46.22094200" lon="7.00451600"><ele>405.1730040288</ele><time>2008-11-01T12:02:33Z</time></trkpt>
<trkpt lat="46.22092600" lon="7.00454200"><ele>404.882995668</ele><time>2008-11-01T12:02:34Z</time></trkpt>
<trkpt lat="46.22091100" lon="7.00457500"><ele>404.5429991928</ele><time>2008-11-01T12:02:35Z</time></trkpt>
<trkpt lat="46.22088400" lon="7.00460900"><ele>407.283996708</ele><time>2008-11-01T12:02:36Z</time></trkpt>
<trkpt lat="46.22084400" lon="7.00462800"><ele>413.365997244</ele><time>2008-11-01T12:02:37Z</time></trkpt>
<trkpt lat="46.22080800" lon="7.00463700"><ele>415.6969909056</ele><time>2008-11-01T12:02:38Z</time></trkpt>
<trkpt lat="46.22076200" lon="7.00463700"><ele>419.8280029128</ele><time>2008-11-01T12:02:39Z</time></trkpt>
<trkpt lat="46.22072600" lon="7.00463300"><ele>420.0000000288</ele><time>2008-11-01T12:02:40Z</time></trkpt>
<trkpt lat="46.22068700" lon="7.00463300"><ele>421.0169981472</ele><time>2008-11-01T12:02:41Z</time></trkpt>
<trkpt lat="46.22064800" lon="7.00463300"><ele>421.876007148</ele><time>2008-11-01T12:02:42Z</time></trkpt>
<trkpt lat="46.22061400" lon="7.00463200"><ele>421.0039978176</ele><time>2008-11-01T12:02:43Z</time></trkpt>
<trkpt lat="46.22057900" lon="7.00463100"><ele>421.0239869064</ele><time>2008-11-01T12:02:44Z</time></trkpt>
<trkpt lat="46.22054600" lon="7.00463300"><ele>420.83401482</ele><time>2008-11-01T12:02:45Z</time></trkpt>
<trkpt lat="46.22051200" lon="7.00463400"><ele>421.1040039168</ele><time>2008-11-01T12:02:46Z</time></trkpt>
<trkpt lat="46.22048300" lon="7.00462700"><ele>420.272003244</ele><time>2008-11-01T12:02:47Z</time></trkpt>
<trkpt lat="46.22045300" lon="7.00462700"><ele>419.5710144504</ele><time>2008-11-01T12:02:48Z</time></trkpt>
<trkpt lat="46.22042100" lon="7.00462300"><ele>419.3299865352</ele><time>2008-11-01T12:02:49Z</time></trkpt>
<trkpt lat="46.22038700" lon="7.00461700"><ele>420.3210144744</ele><time>2008-11-01T12:02:50Z</time></trkpt>
<trkpt lat="46.22035400" lon="7.00461600"><ele>421.1109923712</ele><time>2008-11-01T12:02:51Z</time></trkpt>
<trkpt lat="46.22031700" lon="7.00461400"><ele>422.7430113576</ele><time>2008-11-01T12:02:52Z</time></trkpt>
<trkpt lat="46.22028700" lon="7.00461300"><ele>422.4930113496</ele><time>2008-11-01T12:02:53Z</time></trkpt>
<trkpt lat="46.22026000" lon="7.00461200"><ele>421.9830017016</ele><time>2008-11-01T12:02:54Z</time></trkpt>
<trkpt lat="46.22023300" lon="7.00461200"><ele>421.4620055376</ele><time>2008-11-01T12:02:55Z</time></trkpt>
<trkpt lat="46.22020600" lon="7.00461400"><ele>421.3219910856</ele><time>2008-11-01T12:02:56Z</time></trkpt>
<trkpt lat="46.22017700" lon="7.00461700"><ele>421.2219849864</ele><time>2008-11-01T12:02:57Z</time></trkpt>
<trkpt lat="46.22014700" lon="7.00462400"><ele>421.1019897984</ele><time>2008-11-01T12:02:58Z</time></trkpt>
<trkpt lat="46.22011600" lon="7.00463000"><ele>421.183013868</ele><time>2008-11-01T12:02:59Z</time></trkpt>
<trkpt lat="46.22008500" lon="7.00462500"><ele>421.2030029568</ele><time>2008-11-01T12:03:00Z</time></trkpt>
<trkpt lat="46.22005400" lon="7.00461800"><ele>421.042999416</ele><time>2008-11-01T12:03:01Z</time></trkpt>
<trkpt lat="46.22002200" lon="7.00461500"><ele>420.8229981288</ele><time>2008-11-01T12:03:02Z</time></trkpt>
<trkpt lat="46.21999200" lon="7.00461400"><ele>420.6329955624</ele><time>2008-11-01T12:03:03Z</time></trkpt>
<trkpt lat="46.21996500" lon="7.00461200"><ele>420.1430054832</ele><time>2008-11-01T12:03:04Z</time></trkpt>
<trkpt lat="46.21994100" lon="7.00461000"><ele>419.8120115808</ele><time>2008-11-01T12:03:05Z</time></trkpt>
<trkpt lat="46.21991500" lon="7.00460600"><ele>421.042999416</ele><time>2008-11-01T12:03:06Z</time></trkpt>
<trkpt lat="46.21988900" lon="7.00460100"><ele>422.8039856832</ele><time>2008-11-01T12:03:07Z</time></trkpt>
<trkpt lat="46.21986400" lon="7.00459900"><ele>423.5639953392</ele><time>2008-11-01T12:03:08Z</time></trkpt>
<trkpt lat="46.21983800" lon="7.00460400"><ele>424.0639953552</ele><time>2008-11-01T12:03:09Z</time></trkpt>
<trkpt lat="46.21981400" lon="7.00461100"><ele>423.4530030288</ele><time>2008-11-01T12:03:10Z</time></trkpt>
<trkpt lat="46.21979300" lon="7.00461400"><ele>423.1730043</ele><time>2008-11-01T12:03:11Z</time></trkpt>
<trkpt lat="46.21977100" lon="7.00461600"><ele>422.7430113576</ele><time>2008-11-01T12:03:12Z</time></trkpt>
<trkpt lat="46.21974800" lon="7.00461700"><ele>422.272003308</ele><time>2008-11-01T12:03:13Z</time></trkpt>
<trkpt lat="46.21972300" lon="7.00461800"><ele>421.7520142032</ele><time>2008-11-01T12:03:14Z</time></trkpt>
<trkpt lat="46.21970000" lon="7.00461600"><ele>421.1319885192</ele><time>2008-11-01T12:03:15Z</time></trkpt>
<trkpt lat="46.21967500" lon="7.00461100"><ele>420.9620055216</ele><time>2008-11-01T12:03:16Z</time></trkpt>
<trkpt lat="46.21965000" lon="7.00461200"><ele>420.5719910616</ele><time>2008-11-01T12:03:17Z</time></trkpt>
<trkpt lat="46.21962500" lon="7.00461200"><ele>420.1510009968</ele><time>2008-11-01T12:03:18Z</time></trkpt>
<trkpt lat="46.21960300" lon="7.00461100"><ele>419.6010131712</ele><time>2008-11-01T12:03:19Z</time></trkpt>
<trkpt lat="46.21958300" lon="7.00460700"><ele>418.9209900456</ele><time>2008-11-01T12:03:20Z</time></trkpt>
<trkpt lat="46.21956100" lon="7.00460100"><ele>418.5809935704</ele><time>2008-11-01T12:03:21Z</time></trkpt>
<trkpt lat="46.21953800" lon="7.00460200"><ele>417.990997392</ele><time>2008-11-01T12:03:22Z</time></trkpt>
<trkpt lat="46.21951400" lon="7.00459900"><ele>417.8510131152</ele><time>2008-11-01T12:03:23Z</time></trkpt>
<trkpt lat="46.21949000" lon="7.00459900"><ele>417.6119996232</ele><time>2008-11-01T12:03:24Z</time></trkpt>
<trkpt lat="46.21946500" lon="7.00460000"><ele>416.740997352</ele><time>2008-11-01T12:03:25Z</time></trkpt>
<trkpt lat="46.21944000" lon="7.00459600"><ele>416.240997336</ele><time>2008-11-01T12:03:26Z</time></trkpt>
<trkpt lat="46.21941300" lon="7.00459400"><ele>415.74099732</ele><time>2008-11-01T12:03:27Z</time></trkpt>
<trkpt lat="46.21938300" lon="7.00459900"><ele>415.4710082232</ele><time>2008-11-01T12:03:28Z</time></trkpt>
<trkpt lat="46.21935300" lon="7.00460000"><ele>415.3410034032</ele><time>2008-11-01T12:03:29Z</time></trkpt>
<trkpt lat="46.21932200" lon="7.00460100"><ele>415.131988632</ele><time>2008-11-01T12:03:30Z</time></trkpt>
<trkpt lat="46.21929100" lon="7.00459800"><ele>415.1520082008</ele><time>2008-11-01T12:03:31Z</time></trkpt>
<trkpt lat="46.21926100" lon="7.00459800"><ele>414.881988624</ele><time>2008-11-01T12:03:32Z</time></trkpt>
<trkpt lat="46.21923100" lon="7.00459500"><ele>414.39199824</ele><time>2008-11-01T12:03:33Z</time></trkpt>
<trkpt lat="46.21920200" lon="7.00459600"><ele>413.502014244</ele><time>2008-11-01T12:03:34Z</time></trkpt>
<trkpt lat="46.21917300" lon="7.00459400"><ele>413.1709898616</ele><time>2008-11-01T12:03:35Z</time></trkpt>
<trkpt lat="46.21914500" lon="7.00459100"><ele>412.3909911168</ele><time>2008-11-01T12:03:36Z</time></trkpt>
<trkpt lat="46.21911600" lon="7.00459000"><ele>411.8210145072</ele><time>2008-11-01T12:03:37Z</time></trkpt>
<trkpt lat="46.21908500" lon="7.00459200"><ele>412.1809997664</ele><time>2008-11-01T12:03:38Z</time></trkpt>
<trkpt lat="46.21905700" lon="7.00458900"><ele>411.4609984632</ele><time>2008-11-01T12:03:39Z</time></trkpt>
<trkpt lat="46.21903100" lon="7.00458700"><ele>410.5989990696</ele><time>2008-11-01T12:03:40Z</time></trkpt>
<trkpt lat="46.21900300" lon="7.00458500"><ele>410.5209961776</ele><time>2008-11-01T12:03:41Z</time></trkpt>
<trkpt lat="46.21897600" lon="7.00458800"><ele>410.1610106136</ele><time>2008-11-01T12:03:42Z</time></trkpt>
<trkpt lat="46.21895000" lon="7.00459300"><ele>409.8800048256</ele><time>2008-11-01T12:03:43Z</time></trkpt>
<trkpt lat="46.21892400" lon="7.00459600"><ele>409.7709961536</ele><time>2008-11-01T12:03:44Z</time></trkpt>
<trkpt lat="46.21889900" lon="7.00459800"><ele>409.9110106056</ele><time>2008-11-01T12:03:45Z</time></trkpt>
<trkpt lat="46.21878900" lon="7.00469400"><ele>446.6619874464</ele><time>2008-11-01T13:05:15Z</time></trkpt>
<trkpt lat="46.21881900" lon="7.00464300"><ele>440.279998788</ele><time>2008-11-01T13:05:20Z</time></trkpt>
<trkpt lat="46.21883400" lon="7.00463600"><ele>438.6069945648</ele><time>2008-11-01T13:05:21Z</time></trkpt>
<trkpt lat="46.21884800" lon="7.00462300"><ele>437.1860047728</ele><time>2008-11-01T13:05:22Z</time></trkpt>
<trkpt lat="46.21886600" lon="7.00461100"><ele>435.7090149912</ele><time>2008-11-01T13:05:23Z</time></trkpt>
<trkpt lat="46.21889300" lon="7.00461100"><ele>435.3150024696</ele><time>2008-11-01T13:05:24Z</time></trkpt>
<trkpt lat="46.21891300" lon="7.00460400"><ele>433.993987992</ele><time>2008-11-01T13:05:25Z</time></trkpt>
<trkpt lat="46.21892800" lon="7.00460200"><ele>432.8420104128</ele><time>2008-11-01T13:05:26Z</time></trkpt>
<trkpt lat="46.21894800" lon="7.00459800"><ele>431.9129943384</ele><time>2008-11-01T13:05:27Z</time></trkpt>
<trkpt lat="46.21897300" lon="7.00459900"><ele>431.2430113248</ele><time>2008-11-01T13:05:28Z</time></trkpt>
<trkpt lat="46.21900200" lon="7.00459300"><ele>431.0239869216</ele><time>2008-11-01T13:05:29Z</time></trkpt>
<trkpt lat="46.21903000" lon="7.00458100"><ele>430.7749939728</ele><time>2008-11-01T13:05:30Z</time></trkpt>
<trkpt lat="46.21905800" lon="7.00457300"><ele>430.3550109672</ele><time>2008-11-01T13:05:31Z</time></trkpt>
<trkpt lat="46.21908300" lon="7.00457200"><ele>429.8039856024</ele><time>2008-11-01T13:05:32Z</time></trkpt>
<trkpt lat="46.21910600" lon="7.00457200"><ele>428.9630128368</ele><time>2008-11-01T13:05:33Z</time></trkpt>
<trkpt lat="46.21913100" lon="7.00458100"><ele>429.0629881512</ele><time>2008-11-01T13:05:34Z</time></trkpt>
<trkpt lat="46.21915700" lon="7.00459000"><ele>428.9530029</ele><time>2008-11-01T13:05:35Z</time></trkpt>
<trkpt lat="46.21918300" lon="7.00458800"><ele>429.4140013176</ele><time>2008-11-01T13:05:36Z</time></trkpt>
<trkpt lat="46.21920500" lon="7.00458800"><ele>429.3739929648</ele><time>2008-11-01T13:05:37Z</time></trkpt>
<trkpt lat="46.21922900" lon="7.00459400"><ele>430.6359862752</ele><time>2008-11-01T13:05:38Z</time></trkpt>
<trkpt lat="46.21924400" lon="7.00459400"><ele>429.9349974816</ele><time>2008-11-01T13:05:39Z</time></trkpt>
<trkpt lat="46.21926200" lon="7.00460100"><ele>428.7749939088</ele><time>2008-11-01T13:05:40Z</time></trkpt>
<trkpt lat="46.21928200" lon="7.00460600"><ele>427.3219909728</ele><time>2008-11-01T13:05:41Z</time></trkpt>
<trkpt lat="46.21930600" lon="7.00461200"><ele>425.916992208</ele><time>2008-11-01T13:05:42Z</time></trkpt>
<trkpt lat="46.21932300" lon="7.00460400"><ele>426.2929992792</ele><time>2008-11-01T13:05:43Z</time></trkpt>
<trkpt lat="46.21934200" lon="7.00460200"><ele>426.843994164</ele><time>2008-11-01T13:05:44Z</time></trkpt>
<trkpt lat="46.21936700" lon="7.00460900"><ele>427.8049925976</ele><time>2008-11-01T13:05:45Z</time></trkpt>
<trkpt lat="46.21939100" lon="7.00461100"><ele>429.208007724</ele><time>2008-11-01T13:05:46Z</time></trkpt>
<trkpt lat="46.21940900" lon="7.00461000"><ele>429.1879881552</ele><time>2008-11-01T13:05:47Z</time></trkpt>
<trkpt lat="46.21942800" lon="7.00460700"><ele>429.4479981</ele><time>2008-11-01T13:05:48Z</time></trkpt>
<trkpt lat="46.21944500" lon="7.00459900"><ele>429.8479920168</ele><time>2008-11-01T13:05:49Z</time></trkpt>
<trkpt lat="46.21946400" lon="7.00458900"><ele>429.8479920168</ele><time>2008-11-01T13:05:50Z</time></trkpt>
<trkpt lat="46.21948000" lon="7.00458200"><ele>429.4869993936</ele><time>2008-11-01T13:05:51Z</time></trkpt>
<trkpt lat="46.21950100" lon="7.00457700"><ele>430.1380003776</ele><time>2008-11-01T13:05:52Z</time></trkpt>
<trkpt lat="46.21951700" lon="7.00457800"><ele>430.458007764</ele><time>2008-11-01T13:05:53Z</time></trkpt>
<trkpt lat="46.21953200" lon="7.00457700"><ele>429.6380003616</ele><time>2008-11-01T13:05:54Z</time></trkpt>
<trkpt lat="46.21955200" lon="7.00457900"><ele>428.9570006568</ele><time>2008-11-01T13:05:55Z</time></trkpt>
<trkpt lat="46.21957100" lon="7.00458400"><ele>427.7959900248</ele><time>2008-11-01T13:05:56Z</time></trkpt>
<trkpt lat="46.21958900" lon="7.00458600"><ele>427.6659852048</ele><time>2008-11-01T13:05:57Z</time></trkpt>
<trkpt lat="46.21961000" lon="7.00458800"><ele>427.8859861872</ele><time>2008-11-01T13:05:58Z</time></trkpt>
<trkpt lat="46.21963000" lon="7.00458200"><ele>427.744995156</ele><time>2008-11-01T13:05:59Z</time></trkpt>
<trkpt lat="46.21964800" lon="7.00457600"><ele>426.973998984</ele><time>2008-11-01T13:06:00Z</time></trkpt>
<trkpt lat="46.21966600" lon="7.00457400"><ele>427.677001896</ele><time>2008-11-01T13:06:01Z</time></trkpt>
<trkpt lat="46.21968400" lon="7.00457600"><ele>428.1470031912</ele><time>2008-11-01T13:06:02Z</time></trkpt>
<trkpt lat="46.21970100" lon="7.00458200"><ele>429.770996184</ele><time>2008-11-01T13:06:03Z</time></trkpt>
<trkpt lat="46.21971700" lon="7.00458500"><ele>430.1900023056</ele><time>2008-11-01T13:06:04Z</time></trkpt>
<trkpt lat="46.21973800" lon="7.00458400"><ele>430.880004888</ele><time>2008-11-01T13:06:05Z</time></trkpt>
<trkpt lat="46.21976400" lon="7.00458400"><ele>431.890014552</ele><time>2008-11-01T13:06:06Z</time></trkpt>
<trkpt lat="46.21979000" lon="7.00458300"><ele>433.0010071992</ele><time>2008-11-01T13:06:07Z</time></trkpt>
<trkpt lat="46.21982200" lon="7.00457100"><ele>436.77499386</ele><time>2008-11-01T13:06:08Z</time></trkpt>
<trkpt lat="46.21984400" lon="7.00454600"><ele>438.9869993928</ele><time>2008-11-01T13:06:09Z</time></trkpt>
<trkpt lat="46.21987800" lon="7.00452900"><ele>442.9010011152</ele><time>2008-11-01T13:06:10Z</time></trkpt>
<trkpt lat="46.21991500" lon="7.00453300"><ele>444.5929870632</ele><time>2008-11-01T13:06:11Z</time></trkpt>
<trkpt lat="46.21994700" lon="7.00453200"><ele>446.4049986792</ele><time>2008-11-01T13:06:12Z</time></trkpt>
<trkpt lat="46.21998000" lon="7.00453000"><ele>448.236999384</ele><time>2008-11-01T13:06:13Z</time></trkpt>
<trkpt lat="46.22001500" lon="7.00452200"><ele>449.8689878904</ele><time>2008-11-01T13:06:14Z</time></trkpt>
<trkpt lat="46.22004300" lon="7.00450300"><ele>453.1839905568</ele><time>2008-11-01T13:06:15Z</time></trkpt>
<trkpt lat="46.22007700" lon="7.00450100"><ele>453.7609864056</ele><time>2008-11-01T13:06:16Z</time></trkpt>
<trkpt lat="46.22011200" lon="7.00450000"><ele>453.1700133432</ele><time>2008-11-01T13:06:17Z</time></trkpt>
<trkpt lat="46.22014800" lon="7.00449800"><ele>452.6679992088</ele><time>2008-11-01T13:06:18Z</time></trkpt>
<trkpt lat="46.22018400" lon="7.00449500"><ele>452.1250001424</ele><time>2008-11-01T13:06:19Z</time></trkpt>
<trkpt lat="46.22021600" lon="7.00448600"><ele>452.0539857048</ele><time>2008-11-01T13:06:20Z</time></trkpt>
<trkpt lat="46.22025000" lon="7.00447800"><ele>452.002990836</ele><time>2008-11-01T13:06:21Z</time></trkpt>
<trkpt lat="46.22028400" lon="7.00446700"><ele>452.2520142648</ele><time>2008-11-01T13:06:22Z</time></trkpt>
<trkpt lat="46.22031400" lon="7.00445400"><ele>452.5220030568</ele><time>2008-11-01T13:06:23Z</time></trkpt>
<trkpt lat="46.22034200" lon="7.00444000"><ele>453.4509886512</ele><time>2008-11-01T13:06:24Z</time></trkpt>
<trkpt lat="46.22037200" lon="7.00442900"><ele>454.1709899544</ele><time>2008-11-01T13:06:25Z</time></trkpt>
<trkpt lat="46.22040900" lon="7.00444000"><ele>451.4859924288</ele><time>2008-11-01T13:06:26Z</time></trkpt>
<trkpt lat="46.22044900" lon="7.00445500"><ele>448.231994568</ele><time>2008-11-01T13:06:27Z</time></trkpt>
<trkpt lat="46.22048700" lon="7.00446500"><ele>445.7200012176</ele><time>2008-11-01T13:06:28Z</time></trkpt>
<trkpt lat="46.22052400" lon="7.00447000"><ele>444.2999877</ele><time>2008-11-01T13:06:29Z</time></trkpt>
<trkpt lat="46.22056100" lon="7.00447700"><ele>442.2990113616</ele><time>2008-11-01T13:06:30Z</time></trkpt>
<trkpt lat="46.22059700" lon="7.00448500"><ele>440.6099853264</ele><time>2008-11-01T13:06:31Z</time></trkpt>
<trkpt lat="46.22063300" lon="7.00449200"><ele>438.8190003384</ele><time>2008-11-01T13:06:32Z</time></trkpt>
<trkpt lat="46.22067000" lon="7.00449600"><ele>437.1789855336</ele><time>2008-11-01T13:06:33Z</time></trkpt>
<trkpt lat="46.22070400" lon="7.00449900"><ele>435.618988044</ele><time>2008-11-01T13:06:34Z</time></trkpt>
<trkpt lat="46.22073800" lon="7.00450200"><ele>434.3389892832</ele><time>2008-11-01T13:06:35Z</time></trkpt>
<trkpt lat="46.22077200" lon="7.00450400"><ele>432.998992776</ele><time>2008-11-01T13:06:36Z</time></trkpt>
<trkpt lat="46.22080400" lon="7.00450600"><ele>430.8680116176</ele><time>2008-11-01T13:06:37Z</time></trkpt>
<trkpt lat="46.22083700" lon="7.00450300"><ele>429.4179993792</ele><time>2008-11-01T13:06:38Z</time></trkpt>
<trkpt lat="46.22086800" lon="7.00449800"><ele>428.1390076776</ele><time>2008-11-01T13:06:39Z</time></trkpt>
<trkpt lat="46.22090000" lon="7.00449000"><ele>427.348998996</ele><time>2008-11-01T13:06:40Z</time></trkpt>
<trkpt lat="46.22092900" lon="7.00447200"><ele>427.5289916256</ele><time>2008-11-01T13:06:41Z</time></trkpt>
<trkpt lat="46.22095600" lon="7.00445400"><ele>426.8190002592</ele><time>2008-11-01T13:06:42Z</time></trkpt>
<trkpt lat="46.22098300" lon="7.00443900"><ele>425.9179992672</ele><time>2008-11-01T13:06:43Z</time></trkpt>
<trkpt lat="46.22101400" lon="7.00443300"><ele>425.6969909208</ele><time>2008-11-01T13:06:44Z</time></trkpt>
<trkpt lat="46.22104800" lon="7.00443400"><ele>425.0069886432</ele><time>2008-11-01T13:06:45Z</time></trkpt>
<trkpt lat="46.22108200" lon="7.00443600"><ele>423.9259950216</ele><time>2008-11-01T13:06:46Z</time></trkpt>
<trkpt lat="46.22111800" lon="7.00443800"><ele>422.9060059008</ele><time>2008-11-01T13:06:47Z</time></trkpt>
<trkpt lat="46.22115400" lon="7.00444100"><ele>421.9370116488</ele><time>2008-11-01T13:06:48Z</time></trkpt>
<trkpt lat="46.22118800" lon="7.00445100"><ele>421.4890135608</ele><time>2008-11-01T13:06:49Z</time></trkpt>
<trkpt lat="46.22122200" lon="7.00445900"><ele>421.0599975024</ele><time>2008-11-01T13:06:50Z</time></trkpt>
<trkpt lat="46.22125700" lon="7.00446300"><ele>421.0310058408</ele><time>2008-11-01T13:06:51Z</time></trkpt>
<trkpt lat="46.22129300" lon="7.00447200"><ele>421.0920106464</ele><time>2008-11-01T13:06:52Z</time></trkpt>
<trkpt lat="46.22133100" lon="7.00447100"><ele>420.5199891336</ele><time>2008-11-01T13:06:53Z</time></trkpt>
<trkpt lat="46.22136900" lon="7.00445600"><ele>419.2479858864</ele><time>2008-11-01T13:06:54Z</time></trkpt>
<trkpt lat="46.22140800" lon="7.00444400"><ele>418.8370057584</ele><time>2008-11-01T13:06:55Z</time></trkpt>
<trkpt lat="46.22145100" lon="7.00443500"><ele>418.2269897064</ele><time>2008-11-01T13:06:56Z</time></trkpt>
<trkpt lat="46.22149400" lon="7.00442600"><ele>417.9549864912</ele><time>2008-11-01T13:06:57Z</time></trkpt>
<trkpt lat="46.22153600" lon="7.00441400"><ele>417.313995444</ele><time>2008-11-01T13:06:58Z</time></trkpt>
<trkpt lat="46.22157800" lon="7.00440200"><ele>416.2030027968</ele><time>2008-11-01T13:06:59Z</time></trkpt>
<trkpt lat="46.22161900" lon="7.00438800"><ele>415.7739867384</ele><time>2008-11-01T13:07:00Z</time></trkpt>
<trkpt lat="46.22166100" lon="7.00436900"><ele>415.3829956992</ele><time>2008-11-01T13:07:01Z</time></trkpt>
<trkpt lat="46.22170200" lon="7.00434800"><ele>415.1340027504</ele><time>2008-11-01T13:07:02Z</time></trkpt>
<trkpt lat="46.22174000" lon="7.00432500"><ele>414.0199889256</ele><time>2008-11-01T13:07:03Z</time></trkpt>
<trkpt lat="46.22177600" lon="7.00429900"><ele>413.2630004472</ele><time>2008-11-01T13:07:04Z</time></trkpt>
<trkpt lat="46.22181300" lon="7.00427400"><ele>412.8550110168</ele><time>2008-11-01T13:07:05Z</time></trkpt>
<trkpt lat="46.22184800" lon="7.00424900"><ele>412.3049927112</ele><time>2008-11-01T13:07:06Z</time></trkpt>
<trkpt lat="46.22188300" lon="7.00422500"><ele>412.235992392</ele><time>2008-11-01T13:07:07Z</time></trkpt>
<trkpt lat="46.22191600" lon="7.00420400"><ele>412.3569946392</ele><time>2008-11-01T13:07:08Z</time></trkpt>
<trkpt lat="46.22194800" lon="7.00418200"><ele>412.5190126032</ele><time>2008-11-01T13:07:09Z</time></trkpt>
<trkpt lat="46.22197900" lon="7.00416000"><ele>412.8309936912</ele><time>2008-11-01T13:07:10Z</time></trkpt>
<trkpt lat="46.22201000" lon="7.00413700"><ele>412.610992404</ele><time>2008-11-01T13:07:11Z</time></trkpt>
<trkpt lat="46.22203900" lon="7.00411200"><ele>412.6409911248</ele><time>2008-11-01T13:07:12Z</time></trkpt>
<trkpt lat="46.22207000" lon="7.00408900"><ele>412.9020081288</ele><time>2008-11-01T13:07:13Z</time></trkpt>
<trkpt lat="46.22210000" lon="7.00406600"><ele>413.0920103904</ele><time>2008-11-01T13:07:14Z</time></trkpt>
<trkpt lat="46.22213000" lon="7.00404200"><ele>413.334991464</ele><time>2008-11-01T13:07:15Z</time></trkpt>
<trkpt lat="46.22216000" lon="7.00401800"><ele>413.9219969448</ele><time>2008-11-01T13:07:16Z</time></trkpt>
<trkpt lat="46.22218900" lon="7.00399400"><ele>413.9219969448</ele><time>2008-11-01T13:07:17Z</time></trkpt>
<trkpt lat="46.22221900" lon="7.00397000"><ele>414.2929992</ele><time>2008-11-01T13:07:18Z</time></trkpt>
<trkpt lat="46.22225000" lon="7.00394600"><ele>414.3529969464</ele><time>2008-11-01T13:07:19Z</time></trkpt>
<trkpt lat="46.22228100" lon="7.00392300"><ele>414.252014268</ele><time>2008-11-01T13:07:20Z</time></trkpt>
<trkpt lat="46.22231200" lon="7.00390000"><ele>414.5419921488</ele><time>2008-11-01T13:07:21Z</time></trkpt>
<trkpt lat="46.22234600" lon="7.00387800"><ele>414.891998256</ele><time>2008-11-01T13:07:22Z</time></trkpt>
<trkpt lat="46.22237900" lon="7.00385500"><ele>414.8630065944</ele><time>2008-11-01T13:07:23Z</time></trkpt>
<trkpt lat="46.22241100" lon="7.00383200"><ele>414.6520081848</ele><time>2008-11-01T13:07:24Z</time></trkpt>
<trkpt lat="46.22244400" lon="7.00380800"><ele>414.7420043472</ele><time>2008-11-01T13:07:25Z</time></trkpt>
<trkpt lat="46.22247600" lon="7.00378200"><ele>414.9519956976</ele><time>2008-11-01T13:07:26Z</time></trkpt>
<trkpt lat="46.22250900" lon="7.00375800"><ele>415.6830139968</ele><time>2008-11-01T13:07:27Z</time></trkpt>
<trkpt lat="46.22254300" lon="7.00373400"><ele>416.3340149808</ele><time>2008-11-01T13:07:28Z</time></trkpt>
<trkpt lat="46.22257600" lon="7.00370900"><ele>416.0830079136</ele><time>2008-11-01T13:07:29Z</time></trkpt>
<trkpt lat="46.22260900" lon="7.00368500"><ele>416.1440124144</ele><time>2008-11-01T13:07:30Z</time></trkpt>
<trkpt lat="46.22264200" lon="7.00366100"><ele>416.2239989448</ele><time>2008-11-01T13:07:31Z</time></trkpt>
<trkpt lat="46.22267500" lon="7.00363900"><ele>416.2430114544</ele><time>2008-11-01T13:07:32Z</time></trkpt>
<trkpt lat="46.22270700" lon="7.00361600"><ele>416.6029967136</ele><time>2008-11-01T13:07:33Z</time></trkpt>
<trkpt lat="46.22274000" lon="7.00359300"><ele>416.6029967136</ele><time>2008-11-01T13:07:34Z</time></trkpt>
<trkpt lat="46.22277200" lon="7.00357100"><ele>416.4719848344</ele><time>2008-11-01T13:07:35Z</time></trkpt>
<trkpt lat="46.22280600" lon="7.00355100"><ele>417.0929870976</ele><time>2008-11-01T13:07:36Z</time></trkpt>
<trkpt lat="46.22283600" lon="7.00352700"><ele>417.0130005672</ele><time>2008-11-01T13:07:37Z</time></trkpt>
<trkpt lat="46.22286800" lon="7.00350500"><ele>417.3729858264</ele><time>2008-11-01T13:07:38Z</time></trkpt>
<trkpt lat="46.22290100" lon="7.00348600"><ele>418.2239990088</ele><time>2008-11-01T13:07:39Z</time></trkpt>
<trkpt lat="46.22293300" lon="7.00346700"><ele>418.2539977296</ele><time>2008-11-01T13:07:40Z</time></trkpt>
<trkpt lat="46.22296400" lon="7.00344800"><ele>417.9819945144</ele><time>2008-11-01T13:07:41Z</time></trkpt>
<trkpt lat="46.22299800" lon="7.00342900"><ele>418.9739990328</ele><time>2008-11-01T13:07:42Z</time></trkpt>
<trkpt lat="46.22303200" lon="7.00341200"><ele>419.6650086744</ele><time>2008-11-01T13:07:43Z</time></trkpt>
<trkpt lat="46.22306300" lon="7.00339300"><ele>419.1329955144</ele><time>2008-11-01T13:07:44Z</time></trkpt>
<trkpt lat="46.22309400" lon="7.00337400"><ele>419.042999352</ele><time>2008-11-01T13:07:45Z</time></trkpt>
<trkpt lat="46.22312600" lon="7.00335700"><ele>419.2239990408</ele><time>2008-11-01T13:07:46Z</time></trkpt>
<trkpt lat="46.22315700" lon="7.00333700"><ele>419.2940064192</ele><time>2008-11-01T13:07:47Z</time></trkpt>
<trkpt lat="46.22318700" lon="7.00331800"><ele>418.9429932528</ele><time>2008-11-01T13:07:48Z</time></trkpt>
<trkpt lat="46.22321600" lon="7.00330000"><ele>418.8529967856</ele><time>2008-11-01T13:07:49Z</time></trkpt>
<trkpt lat="46.22324400" lon="7.00328300"><ele>418.9530028848</ele><time>2008-11-01T13:07:50Z</time></trkpt>
<trkpt lat="46.22327100" lon="7.00326200"><ele>419.0539855632</ele><time>2008-11-01T13:07:51Z</time></trkpt>
<trkpt lat="46.22329700" lon="7.00323900"><ele>419.0329894152</ele><time>2008-11-01T13:07:52Z</time></trkpt>
<trkpt lat="46.22332500" lon="7.00321600"><ele>419.0029906944</ele><time>2008-11-01T13:07:53Z</time></trkpt>
<trkpt lat="46.22335100" lon="7.00319400"><ele>418.7430115344</ele><time>2008-11-01T13:07:54Z</time></trkpt>
<trkpt lat="46.22337800" lon="7.00317200"><ele>418.8930054432</ele><time>2008-11-01T13:07:55Z</time></trkpt>
<trkpt lat="46.22340300" lon="7.00314900"><ele>418.933013796</ele><time>2008-11-01T13:07:56Z</time></trkpt>
<trkpt lat="46.22342900" lon="7.00312700"><ele>419.0140076904</ele><time>2008-11-01T13:07:57Z</time></trkpt>
<trkpt lat="46.22345500" lon="7.00310300"><ele>418.5419922768</ele><time>2008-11-01T13:07:58Z</time></trkpt>
<trkpt lat="46.22347900" lon="7.00307400"><ele>418.0719909816</ele><time>2008-11-01T13:07:59Z</time></trkpt>
<trkpt lat="46.22350500" lon="7.00304300"><ele>417.6600037944</ele><time>2008-11-01T13:08:00Z</time></trkpt>
<trkpt lat="46.22353200" lon="7.00301200"><ele>417.339996408</ele><time>2008-11-01T13:08:01Z</time></trkpt>
<trkpt lat="46.22356100" lon="7.00297800"><ele>417.22000122</ele><time>2008-11-01T13:08:02Z</time></trkpt>
<trkpt lat="46.22358900" lon="7.00294200"><ele>416.579009868</ele><time>2008-11-01T13:08:03Z</time></trkpt>
<trkpt lat="46.22362100" lon="7.00290500"><ele>417.0889893408</ele><time>2008-11-01T13:08:04Z</time></trkpt>
<trkpt lat="46.22365300" lon="7.00286600"><ele>417.001006992</ele><time>2008-11-01T13:08:05Z</time></trkpt>
<trkpt lat="46.22368500" lon="7.00282600"><ele>416.5700072952</ele><time>2008-11-01T13:08:06Z</time></trkpt>
<trkpt lat="46.22371900" lon="7.00278600"><ele>416.3800050336</ele><time>2008-11-01T13:08:07Z</time></trkpt>
<trkpt lat="46.22375500" lon="7.00274400"><ele>416.3510130672</ele><time>2008-11-01T13:08:08Z</time></trkpt>
<trkpt lat="46.22379200" lon="7.00270200"><ele>416.2309873992</ele><time>2008-11-01T13:08:09Z</time></trkpt>
<trkpt lat="46.22383300" lon="7.00266200"><ele>416.1310120848</ele><time>2008-11-01T13:08:10Z</time></trkpt>
<trkpt lat="46.22387500" lon="7.00262100"><ele>416.3020018368</ele><time>2008-11-01T13:08:11Z</time></trkpt>
<trkpt lat="46.22391600" lon="7.00257800"><ele>416.1510008688</ele><time>2008-11-01T13:08:12Z</time></trkpt>
<trkpt lat="46.22395800" lon="7.00254000"><ele>416.4609986232</ele><time>2008-11-01T13:08:13Z</time></trkpt>
<trkpt lat="46.22400400" lon="7.00250400"><ele>417.5020140672</ele><time>2008-11-01T13:08:14Z</time></trkpt>
<trkpt lat="46.22405200" lon="7.00246900"><ele>418.7990112192</ele><time>2008-11-01T13:08:15Z</time></trkpt>
<trkpt lat="46.22410000" lon="7.00243600"><ele>419.9150086824</ele><time>2008-11-01T13:08:16Z</time></trkpt>
<trkpt lat="46.22414800" lon="7.00240400"><ele>420.0539855952</ele><time>2008-11-01T13:08:17Z</time></trkpt>
<trkpt lat="46.22419400" lon="7.00237400"><ele>420.3640135248</ele><time>2008-11-01T13:08:18Z</time></trkpt>
<trkpt lat="46.22424200" lon="7.00234800"><ele>420.5639952432</ele><time>2008-11-01T13:08:19Z</time></trkpt>
<trkpt lat="46.22429100" lon="7.00232600"><ele>421.1040039168</ele><time>2008-11-01T13:08:20Z</time></trkpt>
<trkpt lat="46.22434000" lon="7.00230500"><ele>421.1140135488</ele><time>2008-11-01T13:08:21Z</time></trkpt>
<trkpt lat="46.22438900" lon="7.00228600"><ele>421.0039978176</ele><time>2008-11-01T13:08:22Z</time></trkpt>
<trkpt lat="46.22443900" lon="7.00226500"><ele>421.6250000808</ele><time>2008-11-01T13:08:23Z</time></trkpt>
<trkpt lat="46.22448600" lon="7.00224400"><ele>421.3139952672</ele><time>2008-11-01T13:08:24Z</time></trkpt>
<trkpt lat="46.22452900" lon="7.00222500"><ele>420.6229859304</ele><time>2008-11-01T13:08:25Z</time></trkpt>
<trkpt lat="46.22457000" lon="7.00220900"><ele>420.3819884952</ele><time>2008-11-01T13:08:26Z</time></trkpt>
<trkpt lat="46.22461000" lon="7.00219100"><ele>420.402008064</ele><time>2008-11-01T13:08:27Z</time></trkpt>
<trkpt lat="46.22465000" lon="7.00217500"><ele>420.141998424</ele><time>2008-11-01T13:08:28Z</time></trkpt>
<trkpt lat="46.22469000" lon="7.00216000"><ele>420.0719910456</ele><time>2008-11-01T13:08:29Z</time></trkpt>
<trkpt lat="46.22473000" lon="7.00214500"><ele>420.2619933072</ele><time>2008-11-01T13:08:30Z</time></trkpt>
<trkpt lat="46.22476800" lon="7.00213000"><ele>420.3720093432</ele><time>2008-11-01T13:08:31Z</time></trkpt>
<trkpt lat="46.22480500" lon="7.00211500"><ele>420.2520141552</ele><time>2008-11-01T13:08:32Z</time></trkpt>
<trkpt lat="46.22484200" lon="7.00209900"><ele>420.1329955464</ele><time>2008-11-01T13:08:33Z</time></trkpt>
<trkpt lat="46.22487800" lon="7.00208200"><ele>419.8219910376</ele><time>2008-11-01T13:08:34Z</time></trkpt>
<trkpt lat="46.22491400" lon="7.00206500"><ele>419.5920105984</ele><time>2008-11-01T13:08:35Z</time></trkpt>
<trkpt lat="46.22494900" lon="7.00204700"><ele>419.3420105904</ele><time>2008-11-01T13:08:36Z</time></trkpt>
<trkpt lat="46.22498200" lon="7.00202700"><ele>419.1329955144</ele><time>2008-11-01T13:08:37Z</time></trkpt>
<trkpt lat="46.22501500" lon="7.00200600"><ele>418.9429932528</ele><time>2008-11-01T13:08:38Z</time></trkpt>
<trkpt lat="46.22504900" lon="7.00198800"><ele>418.7430115344</ele><time>2008-11-01T13:08:39Z</time></trkpt>
<trkpt lat="46.22508400" lon="7.00197100"><ele>418.511993556</ele><time>2008-11-01T13:08:40Z</time></trkpt>
<trkpt lat="46.22511900" lon="7.00195400"><ele>418.0419922608</ele><time>2008-11-01T13:08:41Z</time></trkpt>
<trkpt lat="46.22515400" lon="7.00193700"><ele>417.5409851856</ele><time>2008-11-01T13:08:42Z</time></trkpt>
<trkpt lat="46.22518800" lon="7.00192000"><ele>417.0299986536</ele><time>2008-11-01T13:08:43Z</time></trkpt>
<trkpt lat="46.22522100" lon="7.00189800"><ele>416.7109986312</ele><time>2008-11-01T13:08:44Z</time></trkpt>
<trkpt lat="46.22524600" lon="7.00186400"><ele>416.3699950968</ele><time>2008-11-01T13:08:45Z</time></trkpt>
<trkpt lat="46.22526300" lon="7.00181900"><ele>416.2900085664</ele><time>2008-11-01T13:08:46Z</time></trkpt>
<trkpt lat="46.22527000" lon="7.00176700"><ele>415.9800111168</ele><time>2008-11-01T13:08:47Z</time></trkpt>
<trkpt lat="46.22526800" lon="7.00171500"><ele>415.7300111088</ele><time>2008-11-01T13:08:48Z</time></trkpt>
<trkpt lat="46.22526000" lon="7.00166600"><ele>415.600005984</ele><time>2008-11-01T13:08:49Z</time></trkpt>
<trkpt lat="46.22523400" lon="7.00157700"><ele>415.6610107896</ele><time>2008-11-01T13:08:50Z</time></trkpt>
<trkpt lat="46.22524900" lon="7.00152300"><ele>415.319000196</ele><time>2008-11-01T13:08:51Z</time></trkpt>
<trkpt lat="46.22527700" lon="7.00148400"><ele>415.4200133544</ele><time>2008-11-01T13:08:52Z</time></trkpt>
<trkpt lat="46.22530900" lon="7.00145600"><ele>415.4509886544</ele><time>2008-11-01T13:08:53Z</time></trkpt>
<trkpt lat="46.22534000" lon="7.00142700"><ele>415.3320008304</ele><time>2008-11-01T13:08:54Z</time></trkpt>
<trkpt lat="46.22537400" lon="7.00139700"><ele>415.2630005112</ele><time>2008-11-01T13:08:55Z</time></trkpt>
<trkpt lat="46.22540800" lon="7.00136600"><ele>415.0520021016</ele><time>2008-11-01T13:08:56Z</time></trkpt>
<trkpt lat="46.22544300" lon="7.00133700"><ele>414.8619995352</ele><time>2008-11-01T13:08:57Z</time></trkpt>
<trkpt lat="46.22547800" lon="7.00130600"><ele>414.6919860576</ele><time>2008-11-01T13:08:58Z</time></trkpt>
<trkpt lat="46.22551500" lon="7.00127500"><ele>414.4819947072</ele><time>2008-11-01T13:08:59Z</time></trkpt>
<trkpt lat="46.22555700" lon="7.00125200"><ele>414.4020081768</ele><time>2008-11-01T13:09:00Z</time></trkpt>
<trkpt lat="46.22560400" lon="7.00124100"><ele>414.511993428</ele><time>2008-11-01T13:09:01Z</time></trkpt>
<trkpt lat="46.22565000" lon="7.00123700"><ele>414.502014276</ele><time>2008-11-01T13:09:02Z</time></trkpt>
<trkpt lat="46.22569800" lon="7.00123900"><ele>414.1719969528</ele><time>2008-11-01T13:09:03Z</time></trkpt>
<trkpt lat="46.22574600" lon="7.00124400"><ele>414.022003044</ele><time>2008-11-01T13:09:04Z</time></trkpt>
<trkpt lat="46.22579500" lon="7.00125000"><ele>413.8420104144</ele><time>2008-11-01T13:09:05Z</time></trkpt>
<trkpt lat="46.22584300" lon="7.00125800"><ele>413.9039917992</ele><time>2008-11-01T13:09:06Z</time></trkpt>
<trkpt lat="46.22589100" lon="7.00126400"><ele>413.7839966112</ele><time>2008-11-01T13:09:07Z</time></trkpt>
<trkpt lat="46.22593900" lon="7.00127000"><ele>413.8649902008</ele><time>2008-11-01T13:09:08Z</time></trkpt>
<trkpt lat="46.22598800" lon="7.00127300"><ele>413.67401136</ele><time>2008-11-01T13:09:09Z</time></trkpt>
<trkpt lat="46.22603900" lon="7.00127500"><ele>413.6350097616</ele><time>2008-11-01T13:09:10Z</time></trkpt>
<trkpt lat="46.22609100" lon="7.00127500"><ele>413.6650084824</ele><time>2008-11-01T13:09:11Z</time></trkpt>
<trkpt lat="46.22614100" lon="7.00127300"><ele>414.0159911688</ele><time>2008-11-01T13:09:12Z</time></trkpt>
<trkpt lat="46.22619400" lon="7.00127000"><ele>414.1659850776</ele><time>2008-11-01T13:09:13Z</time></trkpt>
<trkpt lat="46.22624800" lon="7.00126500"><ele>414.2160033672</ele><time>2008-11-01T13:09:14Z</time></trkpt>
<trkpt lat="46.22630000" lon="7.00125400"><ele>414.1119995112</ele><time>2008-11-01T13:09:15Z</time></trkpt>
<trkpt lat="46.22635200" lon="7.00124400"><ele>414.0350036784</ele><time>2008-11-01T13:09:16Z</time></trkpt>
<trkpt lat="46.22640400" lon="7.00123900"><ele>414.0549927672</ele><time>2008-11-01T13:09:17Z</time></trkpt>
<trkpt lat="46.22645400" lon="7.00123600"><ele>414.3160094664</ele><time>2008-11-01T13:09:18Z</time></trkpt>
<trkpt lat="46.22650100" lon="7.00123100"><ele>414.3959959968</ele><time>2008-11-01T13:09:19Z</time></trkpt>
<trkpt lat="46.22654400" lon="7.00122600"><ele>414.3359985552</ele><time>2008-11-01T13:09:20Z</time></trkpt>
<trkpt lat="46.22658500" lon="7.00122000"><ele>414.345001128</ele><time>2008-11-01T13:09:21Z</time></trkpt>
<trkpt lat="46.22662600" lon="7.00121700"><ele>414.2850036864</ele><time>2008-11-01T13:09:22Z</time></trkpt>
<trkpt lat="46.22666700" lon="7.00121400"><ele>414.1640014392</ele><time>2008-11-01T13:09:23Z</time></trkpt>
<trkpt lat="46.22670700" lon="7.00120800"><ele>414.1650084984</ele><time>2008-11-01T13:09:24Z</time></trkpt>
<trkpt lat="46.22674600" lon="7.00120000"><ele>414.1650084984</ele><time>2008-11-01T13:09:25Z</time></trkpt>
<trkpt lat="46.22678500" lon="7.00119300"><ele>414.1539918072</ele><time>2008-11-01T13:09:26Z</time></trkpt>
<trkpt lat="46.22682300" lon="7.00118600"><ele>414.053985708</ele><time>2008-11-01T13:09:27Z</time></trkpt>
<trkpt lat="46.22686000" lon="7.00118200"><ele>414.1340027184</ele><time>2008-11-01T13:09:28Z</time></trkpt>
<trkpt lat="46.22689600" lon="7.00117900"><ele>414.1140136296</ele><time>2008-11-01T13:09:29Z</time></trkpt>
<trkpt lat="46.22693300" lon="7.00117300"><ele>413.9630126616</ele><time>2008-11-01T13:09:30Z</time></trkpt>
<trkpt lat="46.22697000" lon="7.00116500"><ele>413.6919860256</ele><time>2008-11-01T13:09:31Z</time></trkpt>
<trkpt lat="46.22700800" lon="7.00115700"><ele>413.5620116856</ele><time>2008-11-01T13:09:32Z</time></trkpt>
<trkpt lat="46.22704800" lon="7.00115100"><ele>413.4309998064</ele><time>2008-11-01T13:09:33Z</time></trkpt>
<trkpt lat="46.22709000" lon="7.00114500"><ele>413.1310119888</ele><time>2008-11-01T13:09:34Z</time></trkpt>
<trkpt lat="46.22713100" lon="7.00113800"><ele>412.7999879112</ele><time>2008-11-01T13:09:35Z</time></trkpt>
<trkpt lat="46.22717200" lon="7.00113000"><ele>412.4200135632</ele><time>2008-11-01T13:09:36Z</time></trkpt>
<trkpt lat="46.22721200" lon="7.00112200"><ele>412.070007456</ele><time>2008-11-01T13:09:37Z</time></trkpt>
<trkpt lat="46.22725200" lon="7.00111500"><ele>411.820007448</ele><time>2008-11-01T13:09:38Z</time></trkpt>
<trkpt lat="46.22729100" lon="7.00110800"><ele>411.450012252</ele><time>2008-11-01T13:09:39Z</time></trkpt>
<trkpt lat="46.22733000" lon="7.00110100"><ele>411.320007432</ele><time>2008-11-01T13:09:40Z</time></trkpt>
<trkpt lat="46.22737000" lon="7.00109200"><ele>410.93899524</ele><time>2008-11-01T13:09:41Z</time></trkpt>
<trkpt lat="46.22741100" lon="7.00108400"><ele>410.6289977904</ele><time>2008-11-01T13:09:42Z</time></trkpt>
<trkpt lat="46.22745000" lon="7.00107800"><ele>410.2579955352</ele><time>2008-11-01T13:09:43Z</time></trkpt>
<trkpt lat="46.22748900" lon="7.00107500"><ele>410.0780029056</ele><time>2008-11-01T13:09:44Z</time></trkpt>
<trkpt lat="46.22752800" lon="7.00107000"><ele>409.8280028976</ele><time>2008-11-01T13:09:45Z</time></trkpt>
<trkpt lat="46.22756800" lon="7.00106300"><ele>409.2879945288</ele><time>2008-11-01T13:09:46Z</time></trkpt>
<trkpt lat="46.22761100" lon="7.00105500"><ele>409.0669861824</ele><time>2008-11-01T13:09:47Z</time></trkpt>
<trkpt lat="46.22765300" lon="7.00104800"><ele>409.3190003088</ele><time>2008-11-01T13:09:48Z</time></trkpt>
<trkpt lat="46.22769600" lon="7.00103700"><ele>409.0679932416</ele><time>2008-11-01T13:09:49Z</time></trkpt>
<trkpt lat="46.22773900" lon="7.00102400"><ele>408.8370057432</ele><time>2008-11-01T13:09:50Z</time></trkpt>
<trkpt lat="46.22777900" lon="7.00101100"><ele>408.4469909784</ele><time>2008-11-01T13:09:51Z</time></trkpt>
<trkpt lat="46.22782000" lon="7.00099900"><ele>408.5780028576</ele><time>2008-11-01T13:09:52Z</time></trkpt>
<trkpt lat="46.22785900" lon="7.00098900"><ele>408.617004456</ele><time>2008-11-01T13:09:53Z</time></trkpt>
<trkpt lat="46.22790000" lon="7.00097900"><ele>408.8800047936</ele><time>2008-11-01T13:09:54Z</time></trkpt>
<trkpt lat="46.22794000" lon="7.00096500"><ele>408.7690124832</ele><time>2008-11-01T13:09:55Z</time></trkpt>
<trkpt lat="46.22798300" lon="7.00095100"><ele>409.209991332</ele><time>2008-11-01T13:09:56Z</time></trkpt>
<trkpt lat="46.22802600" lon="7.00093600"><ele>409.440002556</ele><time>2008-11-01T13:09:57Z</time></trkpt>
<trkpt lat="46.22806800" lon="7.00092000"><ele>409.1390076792</ele><time>2008-11-01T13:09:58Z</time></trkpt>
<trkpt lat="46.22811300" lon="7.00090500"><ele>409.2499999896</ele><time>2008-11-01T13:09:59Z</time></trkpt>
<trkpt lat="46.22815700" lon="7.00089000"><ele>409.058990364</ele><time>2008-11-01T13:10:00Z</time></trkpt>
<trkpt lat="46.22820200" lon="7.00087300"><ele>409.0100096136</ele><time>2008-11-01T13:10:01Z</time></trkpt>
<trkpt lat="46.22824600" lon="7.00085600"><ele>408.9800108928</ele><time>2008-11-01T13:10:02Z</time></trkpt>
<trkpt lat="46.22829000" lon="7.00084100"><ele>409.221008328</ele><time>2008-11-01T13:10:03Z</time></trkpt>
<trkpt lat="46.22833100" lon="7.00082700"><ele>409.2919922856</ele><time>2008-11-01T13:10:04Z</time></trkpt>
<trkpt lat="46.22837000" lon="7.00081200"><ele>409.3309935792</ele><time>2008-11-01T13:10:05Z</time></trkpt>
<trkpt lat="46.22841000" lon="7.00080300"><ele>410.38198848</ele><time>2008-11-01T13:10:06Z</time></trkpt>
<trkpt lat="46.22844900" lon="7.00080100"><ele>411.9639891768</ele><time>2008-11-01T13:10:07Z</time></trkpt>
<trkpt lat="46.22848500" lon="7.00079400"><ele>412.6449888816</ele><time>2008-11-01T13:10:08Z</time></trkpt>
<trkpt lat="46.22852100" lon="7.00077900"><ele>413.235992424</ele><time>2008-11-01T13:10:09Z</time></trkpt>
<trkpt lat="46.22855900" lon="7.00076200"><ele>413.615997252</ele><time>2008-11-01T13:10:10Z</time></trkpt>
<trkpt lat="46.22859600" lon="7.00074500"><ele>413.6449889136</ele><time>2008-11-01T13:10:11Z</time></trkpt>
<trkpt lat="46.22863200" lon="7.00073200"><ele>413.5840148928</ele><time>2008-11-01T13:10:12Z</time></trkpt>
<trkpt lat="46.22866600" lon="7.00072600"><ele>414.214996308</ele><time>2008-11-01T13:10:13Z</time></trkpt>
<trkpt lat="46.22870300" lon="7.00070100"><ele>414.0440062512</ele><time>2008-11-01T13:10:14Z</time></trkpt>
<trkpt lat="46.22874200" lon="7.00067200"><ele>413.4609985272</ele><time>2008-11-01T13:10:15Z</time></trkpt>
<trkpt lat="46.22878200" lon="7.00064500"><ele>413.2109985192</ele><time>2008-11-01T13:10:16Z</time></trkpt>
<trkpt lat="46.22882200" lon="7.00061800"><ele>412.8309936912</ele><time>2008-11-01T13:10:17Z</time></trkpt>
<trkpt lat="46.22886000" lon="7.00058900"><ele>412.6409911248</ele><time>2008-11-01T13:10:18Z</time></trkpt>
<trkpt lat="46.22889800" lon="7.00055800"><ele>412.480987584</ele><time>2008-11-01T13:10:19Z</time></trkpt>
<trkpt lat="46.22893600" lon="7.00052800"><ele>412.0190125872</ele><time>2008-11-01T13:10:20Z</time></trkpt>
<trkpt lat="46.22897600" lon="7.00049900"><ele>411.428985624</ele><time>2008-11-01T13:10:21Z</time></trkpt>
<trkpt lat="46.22902100" lon="7.00047100"><ele>410.9379881808</ele><time>2008-11-01T13:10:22Z</time></trkpt>
<trkpt lat="46.22907100" lon="7.00043900"><ele>410.5780029216</ele><time>2008-11-01T13:10:23Z</time></trkpt>
<trkpt lat="46.22912300" lon="7.00040500"><ele>410.407989444</ele><time>2008-11-01T13:10:24Z</time></trkpt>
<trkpt lat="46.22917600" lon="7.00036600"><ele>410.0480041848</ele><time>2008-11-01T13:10:25Z</time></trkpt>
<trkpt lat="46.22923000" lon="7.00032600"><ele>409.78799424</ele><time>2008-11-01T13:10:26Z</time></trkpt>
<trkpt lat="46.22928500" lon="7.00028400"><ele>409.7189942256</ele><time>2008-11-01T13:10:27Z</time></trkpt>
<trkpt lat="46.22933900" lon="7.00024100"><ele>409.6589964792</ele><time>2008-11-01T13:10:28Z</time></trkpt>
<trkpt lat="46.22939200" lon="7.00019600"><ele>409.4200134672</ele><time>2008-11-01T13:10:29Z</time></trkpt>
<trkpt lat="46.22944400" lon="7.00015300"><ele>409.2009887592</ele><time>2008-11-01T13:10:30Z</time></trkpt>
<trkpt lat="46.22949700" lon="7.00011300"><ele>409.0809935712</ele><time>2008-11-01T13:10:31Z</time></trkpt>
<trkpt lat="46.22954900" lon="7.00007400"><ele>409.0209961296</ele><time>2008-11-01T13:10:32Z</time></trkpt>
<trkpt lat="46.22960200" lon="7.00003200"><ele>409.0010070408</ele><time>2008-11-01T13:10:33Z</time></trkpt>
<trkpt lat="46.22965300" lon="6.99999100"><ele>408.4899903336</ele><time>2008-11-01T13:10:34Z</time></trkpt>
<trkpt lat="46.22970600" lon="6.99994800"><ele>408.4490050968</ele><time>2008-11-01T13:10:35Z</time></trkpt>
<trkpt lat="46.22975800" lon="6.99990100"><ele>408.3999938664</ele><time>2008-11-01T13:10:36Z</time></trkpt>
<trkpt lat="46.22981200" lon="6.99985500"><ele>408.2099916048</ele><time>2008-11-01T13:10:37Z</time></trkpt>
<trkpt lat="46.22986600" lon="6.99980900"><ele>408.2810057376</ele><time>2008-11-01T13:10:38Z</time></trkpt>
<trkpt lat="46.22991900" lon="6.99976200"><ele>408.3919983528</ele><time>2008-11-01T13:10:39Z</time></trkpt>
<trkpt lat="46.22997100" lon="6.99971500"><ele>408.3909912936</ele><time>2008-11-01T13:10:40Z</time></trkpt>
<trkpt lat="46.23002200" lon="6.99966800"><ele>408.111999624</ele><time>2008-11-01T13:10:41Z</time></trkpt>
<trkpt lat="46.23007200" lon="6.99962100"><ele>408.1520079768</ele><time>2008-11-01T13:10:42Z</time></trkpt>
<trkpt lat="46.23012100" lon="6.99957500"><ele>408.0929871144</ele><time>2008-11-01T13:10:43Z</time></trkpt>
<trkpt lat="46.23017000" lon="6.99953000"><ele>408.1130066832</ele><time>2008-11-01T13:10:44Z</time></trkpt>
<trkpt lat="46.23021800" lon="6.99948900"><ele>408.0729980256</ele><time>2008-11-01T13:10:45Z</time></trkpt>
<trkpt lat="46.23026600" lon="6.99944700"><ele>408.044006364</ele><time>2008-11-01T13:10:46Z</time></trkpt>
<trkpt lat="46.23031400" lon="6.99940600"><ele>408.044006364</ele><time>2008-11-01T13:10:47Z</time></trkpt>
<trkpt lat="46.23036200" lon="6.99936500"><ele>408.0239867952</ele><time>2008-11-01T13:10:48Z</time></trkpt>
<trkpt lat="46.23040900" lon="6.99932200"><ele>408.0950012328</ele><time>2008-11-01T13:10:49Z</time></trkpt>
<trkpt lat="46.23045500" lon="6.99927600"><ele>408.044006364</ele><time>2008-11-01T13:10:50Z</time></trkpt>
<trkpt lat="46.23050000" lon="6.99922900"><ele>407.8640137344</ele><time>2008-11-01T13:10:51Z</time></trkpt>
<trkpt lat="46.23054400" lon="6.99918200"><ele>407.6940002568</ele><time>2008-11-01T13:10:52Z</time></trkpt>
<trkpt lat="46.23058800" lon="6.99913400"><ele>407.5939941576</ele><time>2008-11-01T13:10:53Z</time></trkpt>
<trkpt lat="46.23063100" lon="6.99908600"><ele>407.5140076272</ele><time>2008-11-01T13:10:54Z</time></trkpt>
<trkpt lat="46.23067300" lon="6.99904600"><ele>409.1350096176</ele><time>2008-11-01T13:10:55Z</time></trkpt>
<trkpt lat="46.23071500" lon="6.99900100"><ele>410.0249939184</ele><time>2008-11-01T13:10:56Z</time></trkpt>
<trkpt lat="46.23075700" lon="6.99895100"><ele>409.7739868512</ele><time>2008-11-01T13:10:57Z</time></trkpt>
<trkpt lat="46.23079900" lon="6.99890200"><ele>409.6140137904</ele><time>2008-11-01T13:10:58Z</time></trkpt>
<trkpt lat="46.23084100" lon="6.99885200"><ele>409.4440003128</ele><time>2008-11-01T13:10:59Z</time></trkpt>
<trkpt lat="46.23088300" lon="6.99880200"><ele>409.303985556</ele><time>2008-11-01T13:11:00Z</time></trkpt>
<trkpt lat="46.23092600" lon="6.99875200"><ele>409.1940003048</ele><time>2008-11-01T13:11:01Z</time></trkpt>
<trkpt lat="46.23097000" lon="6.99870200"><ele>409.0339964592</ele><time>2008-11-01T13:11:02Z</time></trkpt>
<trkpt lat="46.23101400" lon="6.99865400"><ele>408.8739929184</ele><time>2008-11-01T13:11:03Z</time></trkpt>
<trkpt lat="46.23105600" lon="6.99861000"><ele>410.0939942376</ele><time>2008-11-01T13:11:04Z</time></trkpt>
<trkpt lat="46.23109800" lon="6.99856300"><ele>411.0559997304</ele><time>2008-11-01T13:11:05Z</time></trkpt>
<trkpt lat="46.23114000" lon="6.99851600"><ele>412.0459901304</ele><time>2008-11-01T13:11:06Z</time></trkpt>
<trkpt lat="46.23118200" lon="6.99847000"><ele>412.9360046064</ele><time>2008-11-01T13:11:07Z</time></trkpt>
<trkpt lat="46.23122300" lon="6.99842400"><ele>413.7659911608</ele><time>2008-11-01T13:11:08Z</time></trkpt>
<trkpt lat="46.23126300" lon="6.99837800"><ele>414.5450133264</ele><time>2008-11-01T13:11:09Z</time></trkpt>
<trkpt lat="46.23130300" lon="6.99833300"><ele>415.225005972</ele><time>2008-11-01T13:11:10Z</time></trkpt>
<trkpt lat="46.23134400" lon="6.99828900"><ele>415.9450072752</ele><time>2008-11-01T13:11:11Z</time></trkpt>
<trkpt lat="46.23138500" lon="6.99824600"><ele>416.6950072992</ele><time>2008-11-01T13:11:12Z</time></trkpt>
<trkpt lat="46.23142400" lon="6.99820200"><ele>417.5459900016</ele><time>2008-11-01T13:11:13Z</time></trkpt>
<trkpt lat="46.23146100" lon="6.99815900"><ele>418.246002216</ele><time>2008-11-01T13:11:14Z</time></trkpt>
<trkpt lat="46.23149700" lon="6.99811700"><ele>418.8909913248</ele><time>2008-11-01T13:11:15Z</time></trkpt>
<trkpt lat="46.23153200" lon="6.99807800"><ele>419.4660035352</ele><time>2008-11-01T13:11:16Z</time></trkpt>
<trkpt lat="46.23156400" lon="6.99804000"><ele>419.9360045256</ele><time>2008-11-01T13:11:17Z</time></trkpt>
<trkpt lat="46.23159600" lon="6.99800300"><ele>420.4150083936</ele><time>2008-11-01T13:11:18Z</time></trkpt>
<trkpt lat="46.23162700" lon="6.99796700"><ele>420.9049987776</ele><time>2008-11-01T13:11:19Z</time></trkpt>
<trkpt lat="46.23165800" lon="6.99793000"><ele>421.2550048848</ele><time>2008-11-01T13:11:20Z</time></trkpt>
<trkpt lat="46.23169100" lon="6.99789300"><ele>421.7449952688</ele><time>2008-11-01T13:11:21Z</time></trkpt>
<trkpt lat="46.23172500" lon="6.99785800"><ele>421.9840087608</ele><time>2008-11-01T13:11:22Z</time></trkpt>
<trkpt lat="46.23175900" lon="6.99782100"><ele>422.2139892</ele><time>2008-11-01T13:11:23Z</time></trkpt>
<trkpt lat="46.23179400" lon="6.99778300"><ele>422.463989208</ele><time>2008-11-01T13:11:24Z</time></trkpt>
<trkpt lat="46.23182900" lon="6.99774400"><ele>422.734985364</ele><time>2008-11-01T13:11:25Z</time></trkpt>
<trkpt lat="46.23186300" lon="6.99770400"><ele>422.9649962832</ele><time>2008-11-01T13:11:26Z</time></trkpt>
<trkpt lat="46.23189700" lon="6.99766600"><ele>423.1749879384</ele><time>2008-11-01T13:11:27Z</time></trkpt>
<trkpt lat="46.23193000" lon="6.99763000"><ele>423.3250123272</ele><time>2008-11-01T13:11:28Z</time></trkpt>
<trkpt lat="46.23196200" lon="6.99759400"><ele>423.49499502</ele><time>2008-11-01T13:11:29Z</time></trkpt>
<trkpt lat="46.23199300" lon="6.99755700"><ele>423.5339966184</ele><time>2008-11-01T13:11:30Z</time></trkpt>
<trkpt lat="46.23202300" lon="6.99752000"><ele>423.6940001592</ele><time>2008-11-01T13:11:31Z</time></trkpt>
<trkpt lat="46.23205500" lon="6.99748400"><ele>423.8850097848</ele><time>2008-11-01T13:11:32Z</time></trkpt>
<trkpt lat="46.23208800" lon="6.99745000"><ele>424.0450133256</ele><time>2008-11-01T13:11:33Z</time></trkpt>
<trkpt lat="46.23212100" lon="6.99741700"><ele>424.2250059552</ele><time>2008-11-01T13:11:34Z</time></trkpt>
<trkpt lat="46.23215200" lon="6.99738100"><ele>424.5159912</ele><time>2008-11-01T13:11:35Z</time></trkpt>
<trkpt lat="46.23218200" lon="6.99734600"><ele>424.6849976184</ele><time>2008-11-01T13:11:36Z</time></trkpt>
<trkpt lat="46.23221100" lon="6.99731200"><ele>424.885986396</ele><time>2008-11-01T13:11:37Z</time></trkpt>
<trkpt lat="46.23224200" lon="6.99728100"><ele>425.0859985944</ele><time>2008-11-01T13:11:38Z</time></trkpt>
<trkpt lat="46.23227300" lon="6.99725200"><ele>425.2860107928</ele><time>2008-11-01T13:11:39Z</time></trkpt>
<trkpt lat="46.23230300" lon="6.99722000"><ele>425.4960021432</ele><time>2008-11-01T13:11:40Z</time></trkpt>
<trkpt lat="46.23233200" lon="6.99718700"><ele>425.6449889928</ele><time>2008-11-01T13:11:41Z</time></trkpt>
<trkpt lat="46.23236100" lon="6.99715300"><ele>425.8049925336</ele><time>2008-11-01T13:11:42Z</time></trkpt>
<trkpt lat="46.23239000" lon="6.99712100"><ele>425.9549864424</ele><time>2008-11-01T13:11:43Z</time></trkpt>
<trkpt lat="46.23241900" lon="6.99709000"><ele>426.1759947888</ele><time>2008-11-01T13:11:44Z</time></trkpt>
<trkpt lat="46.23244700" lon="6.99706000"><ele>426.3160095456</ele><time>2008-11-01T13:11:45Z</time></trkpt>
<trkpt lat="46.23247600" lon="6.99703100"><ele>426.4460143656</ele><time>2008-11-01T13:11:46Z</time></trkpt>
<trkpt lat="46.23250300" lon="6.99700200"><ele>426.6059874264</ele><time>2008-11-01T13:11:47Z</time></trkpt>
<trkpt lat="46.23252800" lon="6.99697000"><ele>426.776000904</ele><time>2008-11-01T13:11:48Z</time></trkpt>
<trkpt lat="46.23255100" lon="6.99693900"><ele>426.895996092</ele><time>2008-11-01T13:11:49Z</time></trkpt>
<trkpt lat="46.23257500" lon="6.99690700"><ele>427.0459900008</ele><time>2008-11-01T13:11:50Z</time></trkpt>
<trkpt lat="46.23259800" lon="6.99687200"><ele>427.0849915992</ele><time>2008-11-01T13:11:51Z</time></trkpt>
<trkpt lat="46.23261800" lon="6.99683400"><ele>427.1950073304</ele><time>2008-11-01T13:11:52Z</time></trkpt>
<trkpt lat="46.23263900" lon="6.99679400"><ele>427.364990328</ele><time>2008-11-01T13:11:53Z</time></trkpt>
<trkpt lat="46.23266000" lon="6.99675300"><ele>427.5150147168</ele><time>2008-11-01T13:11:54Z</time></trkpt>
<trkpt lat="46.23267800" lon="6.99671200"><ele>427.6650086256</ele><time>2008-11-01T13:11:55Z</time></trkpt>
<trkpt lat="46.23269600" lon="6.99667200"><ele>427.8150025344</ele><time>2008-11-01T13:11:56Z</time></trkpt>
<trkpt lat="46.23271700" lon="6.99663100"><ele>427.2749938608</ele><time>2008-11-01T13:11:57Z</time></trkpt>
<trkpt lat="46.23273900" lon="6.99659200"><ele>426.744995124</ele><time>2008-11-01T13:11:58Z</time></trkpt>
<trkpt lat="46.23276000" lon="6.99655400"><ele>426.1539915816</ele><time>2008-11-01T13:11:59Z</time></trkpt>
<trkpt lat="46.23278300" lon="6.99651900"><ele>425.584014972</ele><time>2008-11-01T13:12:00Z</time></trkpt>
<trkpt lat="46.23280900" lon="6.99648800"><ele>425.0639953872</ele><time>2008-11-01T13:12:01Z</time></trkpt>
<trkpt lat="46.23283600" lon="6.99646200"><ele>424.6040040288</ele><time>2008-11-01T13:12:02Z</time></trkpt>
<trkpt lat="46.23286600" lon="6.99644300"><ele>424.1640014544</ele><time>2008-11-01T13:12:03Z</time></trkpt>
<trkpt lat="46.23289800" lon="6.99643500"><ele>423.7340088168</ele><time>2008-11-01T13:12:04Z</time></trkpt>
<trkpt lat="46.23292900" lon="6.99643400"><ele>423.3640136208</ele><time>2008-11-01T13:12:05Z</time></trkpt>
<trkpt lat="46.23296200" lon="6.99642800"><ele>422.9339905032</ele><time>2008-11-01T13:12:06Z</time></trkpt>
<trkpt lat="46.23299500" lon="6.99641600"><ele>422.4830017176</ele><time>2008-11-01T13:12:07Z</time></trkpt>
<trkpt lat="46.23302700" lon="6.99639500"><ele>422.0729981688</ele><time>2008-11-01T13:12:08Z</time></trkpt>
<trkpt lat="46.23305800" lon="6.99636600"><ele>421.6530151632</ele><time>2008-11-01T13:12:09Z</time></trkpt>
<trkpt lat="46.23308700" lon="6.99633300"><ele>421.2829894872</ele><time>2008-11-01T13:12:10Z</time></trkpt>
<trkpt lat="46.23311600" lon="6.99629800"><ele>420.8829955704</ele><time>2008-11-01T13:12:11Z</time></trkpt>
<trkpt lat="46.23314500" lon="6.99626300"><ele>420.5130003744</ele><time>2008-11-01T13:12:12Z</time></trkpt>
<trkpt lat="46.23317500" lon="6.99623000"><ele>420.1430054832</ele><time>2008-11-01T13:12:13Z</time></trkpt>
<trkpt lat="46.23320500" lon="6.99619600"><ele>419.8439942448</ele><time>2008-11-01T13:12:14Z</time></trkpt>
<trkpt lat="46.23323600" lon="6.99616100"><ele>419.5280150952</ele><time>2008-11-01T13:12:15Z</time></trkpt>
<trkpt lat="46.23326600" lon="6.99612600"><ele>419.2430115504</ele><time>2008-11-01T13:12:16Z</time></trkpt>
<trkpt lat="46.23329700" lon="6.99608900"><ele>418.9939881216</ele><time>2008-11-01T13:12:17Z</time></trkpt>
<trkpt lat="46.23332700" lon="6.99605300"><ele>418.7130128136</ele><time>2008-11-01T13:12:18Z</time></trkpt>
<trkpt lat="46.23335800" lon="6.99601700"><ele>418.4530028688</ele><time>2008-11-01T13:12:19Z</time></trkpt>
<trkpt lat="46.23338700" lon="6.99598200"><ele>418.1430054192</ele><time>2008-11-01T13:12:20Z</time></trkpt>
<trkpt lat="46.23341700" lon="6.99594800"><ele>417.8540038128</ele><time>2008-11-01T13:12:21Z</time></trkpt>
<trkpt lat="46.23344600" lon="6.99591400"><ele>417.563995452</ele><time>2008-11-01T13:12:22Z</time></trkpt>
<trkpt lat="46.23347400" lon="6.99588000"><ele>417.2940063552</ele><time>2008-11-01T13:12:23Z</time></trkpt>
<trkpt lat="46.23350100" lon="6.99584500"><ele>417.0339967152</ele><time>2008-11-01T13:12:24Z</time></trkpt>
<trkpt lat="46.23352800" lon="6.99581100"><ele>416.7630005592</ele><time>2008-11-01T13:12:25Z</time></trkpt>
<trkpt lat="46.23355500" lon="6.99577800"><ele>416.5339966992</ele><time>2008-11-01T13:12:26Z</time></trkpt>
<trkpt lat="46.23358400" lon="6.99574500"><ele>416.3039854752</ele><time>2008-11-01T13:12:27Z</time></trkpt>
<trkpt lat="46.23361300" lon="6.99571100"><ele>416.0539854672</ele><time>2008-11-01T13:12:28Z</time></trkpt>
<trkpt lat="46.23364200" lon="6.99567800"><ele>415.813995396</ele><time>2008-11-01T13:12:29Z</time></trkpt>
<trkpt lat="46.23367200" lon="6.99564300"><ele>415.5629883288</ele><time>2008-11-01T13:12:30Z</time></trkpt>
<trkpt lat="46.23370200" lon="6.99560800"><ele>415.3540040376</ele><time>2008-11-01T13:12:31Z</time></trkpt>
<trkpt lat="46.23373200" lon="6.99557300"><ele>415.1539918392</ele><time>2008-11-01T13:12:32Z</time></trkpt>
<trkpt lat="46.23376100" lon="6.99553700"><ele>414.944000184</ele><time>2008-11-01T13:12:33Z</time></trkpt>
<trkpt lat="46.23379000" lon="6.99550200"><ele>414.7439879856</ele><time>2008-11-01T13:12:34Z</time></trkpt>
<trkpt lat="46.23381700" lon="6.99546600"><ele>414.574004988</ele><time>2008-11-01T13:12:35Z</time></trkpt>
<trkpt lat="46.23384500" lon="6.99543100"><ele>414.4240110792</ele><time>2008-11-01T13:12:36Z</time></trkpt>
<trkpt lat="46.23387200" lon="6.99539800"><ele>414.313995348</ele><time>2008-11-01T13:12:37Z</time></trkpt>
<trkpt lat="46.23389900" lon="6.99536600"><ele>414.1539918072</ele><time>2008-11-01T13:12:38Z</time></trkpt>
<trkpt lat="46.23392400" lon="6.99533400"><ele>414.0249940464</ele><time>2008-11-01T13:12:39Z</time></trkpt>
<trkpt lat="46.23394800" lon="6.99530300"><ele>413.8840027104</ele><time>2008-11-01T13:12:40Z</time></trkpt>
<trkpt lat="46.23397100" lon="6.99527200"><ele>413.7239991696</ele><time>2008-11-01T13:12:41Z</time></trkpt>
<trkpt lat="46.23399400" lon="6.99524000"><ele>413.5840148928</ele><time>2008-11-01T13:12:42Z</time></trkpt>
<trkpt lat="46.23401600" lon="6.99520900"><ele>413.4739991616</ele><time>2008-11-01T13:12:43Z</time></trkpt>
<trkpt lat="46.23404100" lon="6.99518500"><ele>413.2739869632</ele><time>2008-11-01T13:12:44Z</time></trkpt>
<trkpt lat="46.23407000" lon="6.99517400"><ele>413.194000128</ele><time>2008-11-01T13:12:45Z</time></trkpt>
<trkpt lat="46.23410100" lon="6.99517000"><ele>413.0440062192</ele><time>2008-11-01T13:12:46Z</time></trkpt>
<trkpt lat="46.23413100" lon="6.99517300"><ele>412.9039917672</ele><time>2008-11-01T13:12:47Z</time></trkpt>
<trkpt lat="46.23416100" lon="6.99518400"><ele>412.7139892008</ele><time>2008-11-01T13:12:48Z</time></trkpt>
<trkpt lat="46.23419000" lon="6.99520000"><ele>412.5840148608</ele><time>2008-11-01T13:12:49Z</time></trkpt>
<trkpt lat="46.23421900" lon="6.99521500"><ele>412.5039978504</ele><time>2008-11-01T13:12:50Z</time></trkpt>
<trkpt lat="46.23424900" lon="6.99522500"><ele>412.4049988104</ele><time>2008-11-01T13:12:51Z</time></trkpt>
<trkpt lat="46.23428000" lon="6.99523000"><ele>412.2739869312</ele><time>2008-11-01T13:12:52Z</time></trkpt>
<trkpt lat="46.23431100" lon="6.99523000"><ele>412.1440125912</ele><time>2008-11-01T13:12:53Z</time></trkpt>
<trkpt lat="46.23434300" lon="6.99522700"><ele>412.0339965552</ele><time>2008-11-01T13:12:54Z</time></trkpt>
<trkpt lat="46.23437400" lon="6.99522200"><ele>411.8540039256</ele><time>2008-11-01T13:12:55Z</time></trkpt>
<trkpt lat="46.23440400" lon="6.99521900"><ele>411.6940003848</ele><time>2008-11-01T13:12:56Z</time></trkpt>
<trkpt lat="46.23443000" lon="6.99522000"><ele>411.553985628</ele><time>2008-11-01T13:12:57Z</time></trkpt>
<trkpt lat="46.23445200" lon="6.99522600"><ele>411.4039917192</ele><time>2008-11-01T13:12:58Z</time></trkpt>
<trkpt lat="46.23447200" lon="6.99523200"><ele>411.30398562</ele><time>2008-11-01T13:12:59Z</time></trkpt>
<trkpt lat="46.23449000" lon="6.99523400"><ele>411.2250061488</ele><time>2008-11-01T13:13:00Z</time></trkpt>
<trkpt lat="46.23450600" lon="6.99523600"><ele>411.1250000496</ele><time>2008-11-01T13:13:01Z</time></trkpt>
<trkpt lat="46.23452100" lon="6.99523600"><ele>411.0249939504</ele><time>2008-11-01T13:13:02Z</time></trkpt>
<trkpt lat="46.23453700" lon="6.99523300"><ele>410.94500742</ele><time>2008-11-01T13:13:03Z</time></trkpt>
<trkpt lat="46.23455300" lon="6.99522800"><ele>410.8340148048</ele><time>2008-11-01T13:13:04Z</time></trkpt>
<trkpt lat="46.23456800" lon="6.99521700"><ele>410.7839965152</ele><time>2008-11-01T13:13:05Z</time></trkpt>
<trkpt lat="46.23458500" lon="6.99520400"><ele>410.683990416</ele><time>2008-11-01T13:13:06Z</time></trkpt>
<trkpt lat="46.23460100" lon="6.99519000"><ele>410.6040038856</ele><time>2008-11-01T13:13:07Z</time></trkpt>
<trkpt lat="46.23461500" lon="6.99518000"><ele>410.4639891288</ele><time>2008-11-01T13:13:08Z</time></trkpt>
<trkpt lat="46.23462800" lon="6.99517100"><ele>410.4140013192</ele><time>2008-11-01T13:13:09Z</time></trkpt>
<trkpt lat="46.23463900" lon="6.99516400"><ele>410.294006436</ele><time>2008-11-01T13:13:10Z</time></trkpt>
<trkpt lat="46.23464800" lon="6.99516500"><ele>410.2040099688</ele><time>2008-11-01T13:13:11Z</time></trkpt>
<trkpt lat="46.23465600" lon="6.99517000"><ele>410.164001616</ele><time>2008-11-01T13:13:12Z</time></trkpt>
<trkpt lat="46.23466400" lon="6.99517900"><ele>410.1749878272</ele><time>2008-11-01T13:13:13Z</time></trkpt>
<trkpt lat="46.23467100" lon="6.99519300"><ele>410.1449891064</ele><time>2008-11-01T13:13:14Z</time></trkpt>
<trkpt lat="46.23467900" lon="6.99520900"><ele>410.096008356</ele><time>2008-11-01T13:13:15Z</time></trkpt>
<trkpt lat="46.23471200" lon="6.99529900"><ele>409.7640076992</ele><time>2008-11-01T13:13:19Z</time></trkpt>
<trkpt lat="46.23472200" lon="6.99532500"><ele>409.6940003208</ele><time>2008-11-01T13:13:20Z</time></trkpt>
<trkpt lat="46.23473300" lon="6.99534800"><ele>409.6069945512</ele><time>2008-11-01T13:13:21Z</time></trkpt>
<trkpt lat="46.23474900" lon="6.99536800"><ele>409.4540099448</ele><time>2008-11-01T13:13:22Z</time></trkpt>
<trkpt lat="46.23476800" lon="6.99538900"><ele>409.3840025664</ele><time>2008-11-01T13:13:23Z</time></trkpt>
<trkpt lat="46.23479000" lon="6.99541100"><ele>409.2239990256</ele><time>2008-11-01T13:13:24Z</time></trkpt>
<trkpt lat="46.23481500" lon="6.99543600"><ele>409.1040038376</ele><time>2008-11-01T13:13:25Z</time></trkpt>
<trkpt lat="46.23484000" lon="6.99546600"><ele>408.914001576</ele><time>2008-11-01T13:13:26Z</time></trkpt>
<trkpt lat="46.23486700" lon="6.99549800"><ele>408.80398554</ele><time>2008-11-01T13:13:27Z</time></trkpt>
<trkpt lat="46.23489700" lon="6.99553100"><ele>408.6539916312</ele><time>2008-11-01T13:13:28Z</time></trkpt>
<trkpt lat="46.23492800" lon="6.99556200"><ele>408.361999632</ele><time>2008-11-01T13:13:29Z</time></trkpt>
<trkpt lat="46.23496200" lon="6.99559300"><ele>408.1520079768</ele><time>2008-11-01T13:13:30Z</time></trkpt>
<trkpt lat="46.23499800" lon="6.99562500"><ele>407.9519957784</ele><time>2008-11-01T13:13:31Z</time></trkpt>
<trkpt lat="46.23503500" lon="6.99566000"><ele>407.8330079544</ele><time>2008-11-01T13:13:32Z</time></trkpt>
<trkpt lat="46.23507300" lon="6.99569600"><ele>407.7130127664</ele><time>2008-11-01T13:13:33Z</time></trkpt>
<trkpt lat="46.23511100" lon="6.99573100"><ele>407.6130066672</ele><time>2008-11-01T13:13:34Z</time></trkpt>
<trkpt lat="46.23515200" lon="6.99576700"><ele>407.4119874096</ele><time>2008-11-01T13:13:35Z</time></trkpt>
<trkpt lat="46.23519200" lon="6.99580600"><ele>407.23199478</ele><time>2008-11-01T13:13:36Z</time></trkpt>
<trkpt lat="46.23523400" lon="6.99584600"><ele>407.0419922136</ele><time>2008-11-01T13:13:37Z</time></trkpt>
<trkpt lat="46.23527700" lon="6.99588800"><ele>406.8519896472</ele><time>2008-11-01T13:13:38Z</time></trkpt>
<trkpt lat="46.23532100" lon="6.99593100"><ele>406.6919861064</ele><time>2008-11-01T13:13:39Z</time></trkpt>
<trkpt lat="46.23536600" lon="6.99597400"><ele>406.50201402</ele><time>2008-11-01T13:13:40Z</time></trkpt>
<trkpt lat="46.23541100" lon="6.99601800"><ele>406.4030152848</ele><time>2008-11-01T13:13:41Z</time></trkpt>
<trkpt lat="46.23545700" lon="6.99605900"><ele>406.3030091856</ele><time>2008-11-01T13:13:42Z</time></trkpt>
<trkpt lat="46.23550100" lon="6.99610100"><ele>406.2739867392</ele><time>2008-11-01T13:13:43Z</time></trkpt>
<trkpt lat="46.23554300" lon="6.99614600"><ele>406.2340088664</ele><time>2008-11-01T13:13:44Z</time></trkpt>
<trkpt lat="46.23558100" lon="6.99618900"><ele>406.2149963568</ele><time>2008-11-01T13:13:45Z</time></trkpt>
<trkpt lat="46.23561800" lon="6.99621400"><ele>406.2250059888</ele><time>2008-11-01T13:13:46Z</time></trkpt>
<trkpt lat="46.23564900" lon="6.99621000"><ele>406.1749876992</ele><time>2008-11-01T13:13:47Z</time></trkpt>
<trkpt lat="46.23567400" lon="6.99618800"><ele>406.195007268</ele><time>2008-11-01T13:13:48Z</time></trkpt>
<trkpt lat="46.23569200" lon="6.99616000"><ele>406.2650146464</ele><time>2008-11-01T13:13:49Z</time></trkpt>
<trkpt lat="46.23570900" lon="6.99613100"><ele>406.3850098344</ele><time>2008-11-01T13:13:50Z</time></trkpt>
<trkpt lat="46.23572800" lon="6.99610100"><ele>406.4150085552</ele><time>2008-11-01T13:13:51Z</time></trkpt>
<trkpt lat="46.23575000" lon="6.99606700"><ele>406.4049989232</ele><time>2008-11-01T13:13:52Z</time></trkpt>
<trkpt lat="46.23577500" lon="6.99603000"><ele>406.3749998976</ele><time>2008-11-01T13:13:53Z</time></trkpt>
<trkpt lat="46.23580200" lon="6.99599000"><ele>406.2640075872</ele><time>2008-11-01T13:13:54Z</time></trkpt>
<trkpt lat="46.23582900" lon="6.99594600"><ele>406.2040101456</ele><time>2008-11-01T13:13:55Z</time></trkpt>
<trkpt lat="46.23585600" lon="6.99589700"><ele>406.1340027672</ele><time>2008-11-01T13:13:56Z</time></trkpt>
<trkpt lat="46.23588300" lon="6.99584600"><ele>406.2550050144</ele><time>2008-11-01T13:13:57Z</time></trkpt>
<trkpt lat="46.23591300" lon="6.99579600"><ele>406.2950133672</ele><time>2008-11-01T13:13:58Z</time></trkpt>
<trkpt lat="46.23594400" lon="6.99574800"><ele>406.325012088</ele><time>2008-11-01T13:13:59Z</time></trkpt>
<trkpt lat="46.23597500" lon="6.99570000"><ele>406.3349915448</ele><time>2008-11-01T13:14:00Z</time></trkpt>
<trkpt lat="46.23600800" lon="6.99565400"><ele>406.2539976504</ele><time>2008-11-01T13:14:01Z</time></trkpt>
<trkpt lat="46.23604300" lon="6.99561200"><ele>406.1440123992</ele><time>2008-11-01T13:14:02Z</time></trkpt>
<trkpt lat="46.23608000" lon="6.99557100"><ele>406.0740050208</ele><time>2008-11-01T13:14:03Z</time></trkpt>
<trkpt lat="46.23611600" lon="6.99553000"><ele>405.9739989216</ele><time>2008-11-01T13:14:04Z</time></trkpt>
<trkpt lat="46.23615400" lon="6.99549100"><ele>406.0050050064</ele><time>2008-11-01T13:14:05Z</time></trkpt>
<trkpt lat="46.23619200" lon="6.99545500"><ele>405.94500726</ele><time>2008-11-01T13:14:06Z</time></trkpt>
<trkpt lat="46.23623300" lon="6.99542200"><ele>405.8340149496</ele><time>2008-11-01T13:14:07Z</time></trkpt>
<trkpt lat="46.23627400" lon="6.99539300"><ele>405.6940001928</ele><time>2008-11-01T13:14:08Z</time></trkpt>
<trkpt lat="46.23631500" lon="6.99536500"><ele>405.5840149416</ele><time>2008-11-01T13:14:09Z</time></trkpt>
<trkpt lat="46.23635800" lon="6.99534100"><ele>405.4639892736</ele><time>2008-11-01T13:14:10Z</time></trkpt>
<trkpt lat="46.23640000" lon="6.99531900"><ele>405.3840027432</ele><time>2008-11-01T13:14:11Z</time></trkpt>
<trkpt lat="46.23644200" lon="6.99529700"><ele>405.2539979232</ele><time>2008-11-01T13:14:12Z</time></trkpt>
<trkpt lat="46.23648400" lon="6.99527600"><ele>405.2239988976</ele><time>2008-11-01T13:14:13Z</time></trkpt>
<trkpt lat="46.23652500" lon="6.99525700"><ele>405.2340088344</ele><time>2008-11-01T13:14:14Z</time></trkpt>
<trkpt lat="46.23656600" lon="6.99523700"><ele>405.304992792</ele><time>2008-11-01T13:14:15Z</time></trkpt>
<trkpt lat="46.23660700" lon="6.99521800"><ele>405.2340088344</ele><time>2008-11-01T13:14:16Z</time></trkpt>
<trkpt lat="46.23664700" lon="6.99520000"><ele>405.1709899104</ele><time>2008-11-01T13:14:17Z</time></trkpt>
<trkpt lat="46.23668700" lon="6.99518000"><ele>405.1239927984</ele><time>2008-11-01T13:14:18Z</time></trkpt>
<trkpt lat="46.23672700" lon="6.99515700"><ele>405.1140136464</ele><time>2008-11-01T13:14:19Z</time></trkpt>
<trkpt lat="46.23676700" lon="6.99513300"><ele>405.1239927984</ele><time>2008-11-01T13:14:20Z</time></trkpt>
<trkpt lat="46.23680600" lon="6.99511100"><ele>405.0939940776</ele><time>2008-11-01T13:14:21Z</time></trkpt>
<trkpt lat="46.23684400" lon="6.99509000"><ele>405.044006268</ele><time>2008-11-01T13:14:22Z</time></trkpt>
<trkpt lat="46.23688100" lon="6.99506700"><ele>404.9939879784</ele><time>2008-11-01T13:14:23Z</time></trkpt>
<trkpt lat="46.23691700" lon="6.99504500"><ele>404.9840088264</ele><time>2008-11-01T13:14:24Z</time></trkpt>
<trkpt lat="46.23695200" lon="6.99502400"><ele>405.0249937584</ele><time>2008-11-01T13:14:25Z</time></trkpt>
<trkpt lat="46.23698600" lon="6.99500800"><ele>404.9739988896</ele><time>2008-11-01T13:14:26Z</time></trkpt>
<trkpt lat="46.23701900" lon="6.99499500"><ele>404.8840027272</ele><time>2008-11-01T13:14:27Z</time></trkpt>
<trkpt lat="46.23705100" lon="6.99498100"><ele>404.8850097864</ele><time>2008-11-01T13:14:28Z</time></trkpt>
<trkpt lat="46.23708000" lon="6.99496700"><ele>404.8649902176</ele><time>2008-11-01T13:14:29Z</time></trkpt>
<trkpt lat="46.23710700" lon="6.99495600"><ele>404.815002408</ele><time>2008-11-01T13:14:30Z</time></trkpt>
<trkpt lat="46.23713100" lon="6.99494600"><ele>404.7539979072</ele><time>2008-11-01T13:14:31Z</time></trkpt>
<trkpt lat="46.23715400" lon="6.99493600"><ele>404.6740113768</ele><time>2008-11-01T13:14:32Z</time></trkpt>
<trkpt lat="46.23717600" lon="6.99492400"><ele>404.6839905288</ele><time>2008-11-01T13:14:33Z</time></trkpt>
<trkpt lat="46.23719800" lon="6.99491300"><ele>404.6140136304</ele><time>2008-11-01T13:14:34Z</time></trkpt>
<trkpt lat="46.23722000" lon="6.99490300"><ele>404.5840149096</ele><time>2008-11-01T13:14:35Z</time></trkpt>
<trkpt lat="46.23724200" lon="6.99489400"><ele>404.5539857088</ele><time>2008-11-01T13:14:36Z</time></trkpt>
<trkpt lat="46.23726400" lon="6.99488600"><ele>404.4939879624</ele><time>2008-11-01T13:14:37Z</time></trkpt>
<trkpt lat="46.23728600" lon="6.99487900"><ele>404.4440001528</ele><time>2008-11-01T13:14:38Z</time></trkpt>
<trkpt lat="46.23730900" lon="6.99487100"><ele>404.3540039904</ele><time>2008-11-01T13:14:39Z</time></trkpt>
<trkpt lat="46.23733500" lon="6.99486000"><ele>404.2640075232</ele><time>2008-11-01T13:14:40Z</time></trkpt>
<trkpt lat="46.23736400" lon="6.99484800"><ele>404.1040039824</ele><time>2008-11-01T13:14:41Z</time></trkpt>
<trkpt lat="46.23739600" lon="6.99483700"><ele>404.0239866672</ele><time>2008-11-01T13:14:42Z</time></trkpt>
<trkpt lat="46.23743100" lon="6.99482400"><ele>404.0840148936</ele><time>2008-11-01T13:14:43Z</time></trkpt>
<trkpt lat="46.23746600" lon="6.99481300"><ele>404.0740052616</ele><time>2008-11-01T13:14:44Z</time></trkpt>
<trkpt lat="46.23750200" lon="6.99480400"><ele>404.1449889144</ele><time>2008-11-01T13:14:45Z</time></trkpt>
<trkpt lat="46.23753900" lon="6.99479200"><ele>404.2650145824</ele><time>2008-11-01T13:14:46Z</time></trkpt>
<trkpt lat="46.23757400" lon="6.99477900"><ele>404.3659972608</ele><time>2008-11-01T13:14:47Z</time></trkpt>
<trkpt lat="46.23760900" lon="6.99476500"><ele>404.4159850704</ele><time>2008-11-01T13:14:48Z</time></trkpt>
<trkpt lat="46.23764400" lon="6.99475100"><ele>404.4249876432</ele><time>2008-11-01T13:14:49Z</time></trkpt>
<trkpt lat="46.23767800" lon="6.99473800"><ele>404.3649902016</ele><time>2008-11-01T13:14:50Z</time></trkpt>
<trkpt lat="46.23771300" lon="6.99472400"><ele>404.2439879544</ele><time>2008-11-01T13:14:51Z</time></trkpt>
<trkpt lat="46.23774700" lon="6.99470900"><ele>404.294006244</ele><time>2008-11-01T13:14:52Z</time></trkpt>
<trkpt lat="46.23778200" lon="6.99469500"><ele>404.2139892336</ele><time>2008-11-01T13:14:53Z</time></trkpt>
<trkpt lat="46.23781700" lon="6.99468100"><ele>404.1340027032</ele><time>2008-11-01T13:14:54Z</time></trkpt>
<trkpt lat="46.23785200" lon="6.99466900"><ele>404.0239866672</ele><time>2008-11-01T13:14:55Z</time></trkpt>
<trkpt lat="46.23788700" lon="6.99465700"><ele>403.9440001368</ele><time>2008-11-01T13:14:56Z</time></trkpt>
<trkpt lat="46.23792200" lon="6.99464700"><ele>403.8640136064</ele><time>2008-11-01T13:14:57Z</time></trkpt>
<trkpt lat="46.23795800" lon="6.99463600"><ele>403.794006228</ele><time>2008-11-01T13:14:58Z</time></trkpt>
<trkpt lat="46.23799500" lon="6.99462400"><ele>403.6940001288</ele><time>2008-11-01T13:14:59Z</time></trkpt>
<trkpt lat="46.23803200" lon="6.99461100"><ele>403.6839904968</ele><time>2008-11-01T13:15:00Z</time></trkpt>
<trkpt lat="46.23807000" lon="6.99459800"><ele>403.6440123192</ele><time>2008-11-01T13:15:01Z</time></trkpt>
<trkpt lat="46.23810800" lon="6.99458400"><ele>403.653991776</ele><time>2008-11-01T13:15:02Z</time></trkpt>
<trkpt lat="46.23814600" lon="6.99457000"><ele>403.6050110256</ele><time>2008-11-01T13:15:03Z</time></trkpt>
<trkpt lat="46.23818400" lon="6.99455700"><ele>403.523986956</ele><time>2008-11-01T13:15:04Z</time></trkpt>
<trkpt lat="46.23822300" lon="6.99454000"><ele>403.4339904888</ele><time>2008-11-01T13:15:05Z</time></trkpt>
<trkpt lat="46.23826200" lon="6.99452200"><ele>403.3739930472</ele><time>2008-11-01T13:15:06Z</time></trkpt>
<trkpt lat="46.23830100" lon="6.99450300"><ele>403.3240052376</ele><time>2008-11-01T13:15:07Z</time></trkpt>
<trkpt lat="46.23834000" lon="6.99448400"><ele>403.2539978592</ele><time>2008-11-01T13:15:08Z</time></trkpt>
<trkpt lat="46.23838000" lon="6.99446600"><ele>403.164001392</ele><time>2008-11-01T13:15:09Z</time></trkpt>
<trkpt lat="46.23842100" lon="6.99444900"><ele>403.1140135824</ele><time>2008-11-01T13:15:10Z</time></trkpt>
<trkpt lat="46.23846100" lon="6.99443100"><ele>403.044006204</ele><time>2008-11-01T13:15:11Z</time></trkpt>
<trkpt lat="46.23850200" lon="6.99441200"><ele>402.8840026632</ele><time>2008-11-01T13:15:12Z</time></trkpt>
<trkpt lat="46.23854200" lon="6.99439200"><ele>402.8039856528</ele><time>2008-11-01T13:15:13Z</time></trkpt>
<trkpt lat="46.23858100" lon="6.99437000"><ele>402.8649901536</ele><time>2008-11-01T13:15:14Z</time></trkpt>
<trkpt lat="46.23861900" lon="6.99434500"><ele>403.0350036312</ele><time>2008-11-01T13:15:15Z</time></trkpt>
<trkpt lat="46.23865600" lon="6.99432200"><ele>403.18499754</ele><time>2008-11-01T13:15:16Z</time></trkpt>
<trkpt lat="46.23869400" lon="6.99430100"><ele>403.3389892056</ele><time>2008-11-01T13:15:17Z</time></trkpt>
<trkpt lat="46.23873200" lon="6.99427600"><ele>403.5360107064</ele><time>2008-11-01T13:15:18Z</time></trkpt>
<trkpt lat="46.23876700" lon="6.99424700"><ele>403.7860107144</ele><time>2008-11-01T13:15:19Z</time></trkpt>
<trkpt lat="46.23880100" lon="6.99421500"><ele>404.0060120016</ele><time>2008-11-01T13:15:20Z</time></trkpt>
<trkpt lat="46.23883600" lon="6.99418400"><ele>404.0950011048</ele><time>2008-11-01T13:15:21Z</time></trkpt>
<trkpt lat="46.23887200" lon="6.99415600"><ele>404.195007204</ele><time>2008-11-01T13:15:22Z</time></trkpt>
<trkpt lat="46.23890900" lon="6.99412800"><ele>404.2749940392</ele><time>2008-11-01T13:15:23Z</time></trkpt>
<trkpt lat="46.23894500" lon="6.99409900"><ele>404.4249876432</ele><time>2008-11-01T13:15:24Z</time></trkpt>
<trkpt lat="46.23898300" lon="6.99407000"><ele>404.5150145904</ele><time>2008-11-01T13:15:25Z</time></trkpt>
<trkpt lat="46.23902000" lon="6.99404500"><ele>404.945007228</ele><time>2008-11-01T13:15:26Z</time></trkpt>
<trkpt lat="46.23905600" lon="6.99401900"><ele>405.4760133288</ele><time>2008-11-01T13:15:27Z</time></trkpt>
<trkpt lat="46.23909100" lon="6.99399200"><ele>406.0360107864</ele><time>2008-11-01T13:15:28Z</time></trkpt>
<trkpt lat="46.23912600" lon="6.99396600"><ele>406.486999572</ele><time>2008-11-01T13:15:29Z</time></trkpt>
<trkpt lat="46.23916000" lon="6.99393900"><ele>406.8859864296</ele><time>2008-11-01T13:15:30Z</time></trkpt>
<trkpt lat="46.23919400" lon="6.99391200"><ele>407.35598742</ele><time>2008-11-01T13:15:31Z</time></trkpt>
<trkpt lat="46.23922700" lon="6.99388500"><ele>407.846008284</ele><time>2008-11-01T13:15:32Z</time></trkpt>
<trkpt lat="46.23926000" lon="6.99385700"><ele>408.3569945112</ele><time>2008-11-01T13:15:33Z</time></trkpt>
<trkpt lat="46.23929500" lon="6.99383200"><ele>408.7070006184</ele><time>2008-11-01T13:15:34Z</time></trkpt>
<trkpt lat="46.23932800" lon="6.99380600"><ele>409.2170105712</ele><time>2008-11-01T13:15:35Z</time></trkpt>
<trkpt lat="46.23936200" lon="6.99378000"><ele>409.59600834</ele><time>2008-11-01T13:15:36Z</time></trkpt>
<trkpt lat="46.23939500" lon="6.99375500"><ele>410.0159913456</ele><time>2008-11-01T13:15:37Z</time></trkpt>
<trkpt lat="46.23942800" lon="6.99372900"><ele>410.4460144632</ele><time>2008-11-01T13:15:38Z</time></trkpt>
<trkpt lat="46.23946000" lon="6.99370300"><ele>410.9670106272</ele><time>2008-11-01T13:15:39Z</time></trkpt>
<trkpt lat="46.23949300" lon="6.99367700"><ele>411.4379881968</ele><time>2008-11-01T13:15:40Z</time></trkpt>
<trkpt lat="46.23952700" lon="6.99365100"><ele>411.8370055344</ele><time>2008-11-01T13:15:41Z</time></trkpt>
<trkpt lat="46.23956200" lon="6.99362500"><ele>412.1669920728</ele><time>2008-11-01T13:15:42Z</time></trkpt>
<trkpt lat="46.23959700" lon="6.99359900"><ele>412.4559936792</ele><time>2008-11-01T13:15:43Z</time></trkpt>
<trkpt lat="46.23963200" lon="6.99357200"><ele>412.7760010656</ele><time>2008-11-01T13:15:44Z</time></trkpt>
<trkpt lat="46.23966600" lon="6.99354200"><ele>413.5060120008</ele><time>2008-11-01T13:15:45Z</time></trkpt>
<trkpt lat="46.23970100" lon="6.99351400"><ele>413.6359863408</ele><time>2008-11-01T13:15:46Z</time></trkpt>
<trkpt lat="46.23973400" lon="6.99348200"><ele>413.99600208</ele><time>2008-11-01T13:15:47Z</time></trkpt>
<trkpt lat="46.23976700" lon="6.99344800"><ele>414.2070007944</ele><time>2008-11-01T13:15:48Z</time></trkpt>
<trkpt lat="46.23980000" lon="6.99341300"><ele>414.2160033672</ele><time>2008-11-01T13:15:49Z</time></trkpt>
<trkpt lat="46.23983400" lon="6.99337700"><ele>414.1849975872</ele><time>2008-11-01T13:15:50Z</time></trkpt>
<trkpt lat="46.23986700" lon="6.99334000"><ele>414.4049988744</ele><time>2008-11-01T13:15:51Z</time></trkpt>
<trkpt lat="46.23989900" lon="6.99330300"><ele>414.5350036944</ele><time>2008-11-01T13:15:52Z</time></trkpt>
<trkpt lat="46.23993100" lon="6.99326700"><ele>414.542999208</ele><time>2008-11-01T13:15:53Z</time></trkpt>
<trkpt lat="46.23996300" lon="6.99323000"><ele>414.7839966432</ele><time>2008-11-01T13:15:54Z</time></trkpt>
<trkpt lat="46.23999500" lon="6.99319400"><ele>414.8630065944</ele><time>2008-11-01T13:15:55Z</time></trkpt>
<trkpt lat="46.24002600" lon="6.99315800"><ele>415.0239867144</ele><time>2008-11-01T13:15:56Z</time></trkpt>
<trkpt lat="46.24005800" lon="6.99312300"><ele>415.0130005032</ele><time>2008-11-01T13:15:57Z</time></trkpt>
<trkpt lat="46.24008900" lon="6.99308800"><ele>415.2139892808</ele><time>2008-11-01T13:15:58Z</time></trkpt>
<trkpt lat="46.24011900" lon="6.99305200"><ele>415.5350037264</ele><time>2008-11-01T13:15:59Z</time></trkpt>
<trkpt lat="46.24015000" lon="6.99301900"><ele>415.6040040456</ele><time>2008-11-01T13:16:00Z</time></trkpt>
<trkpt lat="46.24018000" lon="6.99298600"><ele>415.7950133664</ele><time>2008-11-01T13:16:01Z</time></trkpt>
<trkpt lat="46.24021000" lon="6.99295400"><ele>415.996002144</ele><time>2008-11-01T13:16:02Z</time></trkpt>
<trkpt lat="46.24023900" lon="6.99292400"><ele>415.9949950848</ele><time>2008-11-01T13:16:03Z</time></trkpt>
<trkpt lat="46.24026800" lon="6.99289300"><ele>415.8949889856</ele><time>2008-11-01T13:16:04Z</time></trkpt>
<trkpt lat="46.24029700" lon="6.99286300"><ele>415.8640136856</ele><time>2008-11-01T13:16:05Z</time></trkpt>
<trkpt lat="46.24032600" lon="6.99283300"><ele>415.9349976432</ele><time>2008-11-01T13:16:06Z</time></trkpt>
<trkpt lat="46.24035400" lon="6.99280100"><ele>415.9939880256</ele><time>2008-11-01T13:16:07Z</time></trkpt>
<trkpt lat="46.24038200" lon="6.99276800"><ele>416.0840149728</ele><time>2008-11-01T13:16:08Z</time></trkpt>
<trkpt lat="46.24041000" lon="6.99273500"><ele>416.2239989448</ele><time>2008-11-01T13:16:09Z</time></trkpt>
<trkpt lat="46.24043900" lon="6.99270200"><ele>416.2439880336</ele><time>2008-11-01T13:16:10Z</time></trkpt>
<trkpt lat="46.24046900" lon="6.99267000"><ele>416.4240111432</ele><time>2008-11-01T13:16:11Z</time></trkpt>
<trkpt lat="46.24049900" lon="6.99263800"><ele>416.4930114624</ele><time>2008-11-01T13:16:12Z</time></trkpt>
<trkpt lat="46.24052800" lon="6.99260700"><ele>416.454009864</ele><time>2008-11-01T13:16:13Z</time></trkpt>
<trkpt lat="46.24055800" lon="6.99257400"><ele>416.574005052</ele><time>2008-11-01T13:16:14Z</time></trkpt>
<trkpt lat="46.24058800" lon="6.99254200"><ele>416.6350098576</ele><time>2008-11-01T13:16:15Z</time></trkpt>
<trkpt lat="46.24061800" lon="6.99251100"><ele>416.7049864512</ele><time>2008-11-01T13:16:16Z</time></trkpt>
<trkpt lat="46.24065000" lon="6.99247900"><ele>416.8380127536</ele><time>2008-11-01T13:16:17Z</time></trkpt>
<trkpt lat="46.24068200" lon="6.99244500"><ele>417.3049925664</ele><time>2008-11-01T13:16:18Z</time></trkpt>
<trkpt lat="46.24071500" lon="6.99240900"><ele>417.756011832</ele><time>2008-11-01T13:16:19Z</time></trkpt>
<trkpt lat="46.24074800" lon="6.99237300"><ele>417.9660034872</ele><time>2008-11-01T13:16:20Z</time></trkpt>
<trkpt lat="46.24078100" lon="6.99233600"><ele>418.1560057488</ele><time>2008-11-01T13:16:21Z</time></trkpt>
<trkpt lat="46.24081400" lon="6.99229900"><ele>418.4259948456</ele><time>2008-11-01T13:16:22Z</time></trkpt>
<trkpt lat="46.24084700" lon="6.99226200"><ele>418.7160035112</ele><time>2008-11-01T13:16:23Z</time></trkpt>
<trkpt lat="46.24088100" lon="6.99222300"><ele>418.9859923032</ele><time>2008-11-01T13:16:24Z</time></trkpt>
<trkpt lat="46.24091500" lon="6.99218800"><ele>419.0159913288</ele><time>2008-11-01T13:16:25Z</time></trkpt>
<trkpt lat="46.24095200" lon="6.99215200"><ele>419.28698718</ele><time>2008-11-01T13:16:26Z</time></trkpt>
<trkpt lat="46.24098900" lon="6.99211700"><ele>419.1560057808</ele><time>2008-11-01T13:16:27Z</time></trkpt>
<trkpt lat="46.24102500" lon="6.99208000"><ele>419.1449890896</ele><time>2008-11-01T13:16:28Z</time></trkpt>
<trkpt lat="46.24106200" lon="6.99204300"><ele>419.1440125104</ele><time>2008-11-01T13:16:29Z</time></trkpt>
<trkpt lat="46.24109800" lon="6.99200600"><ele>419.1250000008</ele><time>2008-11-01T13:16:30Z</time></trkpt>
<trkpt lat="46.24113400" lon="6.99196800"><ele>419.35501092</ele><time>2008-11-01T13:16:31Z</time></trkpt>
<trkpt lat="46.24117000" lon="6.99193100"><ele>419.5549926384</ele><time>2008-11-01T13:16:32Z</time></trkpt>
<trkpt lat="46.24120600" lon="6.99189200"><ele>419.7160035432</ele><time>2008-11-01T13:16:33Z</time></trkpt>
<trkpt lat="46.24124100" lon="6.99185400"><ele>419.7550048368</ele><time>2008-11-01T13:16:34Z</time></trkpt>
<trkpt lat="46.24127600" lon="6.99181800"><ele>419.8150025832</ele><time>2008-11-01T13:16:35Z</time></trkpt>
<trkpt lat="46.24131200" lon="6.99178300"><ele>419.9649961872</ele><time>2008-11-01T13:16:36Z</time></trkpt>
<trkpt lat="46.24134600" lon="6.99174700"><ele>420.2860106328</ele><time>2008-11-01T13:16:37Z</time></trkpt>
<trkpt lat="46.24138100" lon="6.99171200"><ele>420.50601192</ele><time>2008-11-01T13:16:38Z</time></trkpt>
<trkpt lat="46.24141700" lon="6.99168100"><ele>420.5849913912</ele><time>2008-11-01T13:16:39Z</time></trkpt>
<trkpt lat="46.24145200" lon="6.99165200"><ele>420.5639952432</ele><time>2008-11-01T13:16:40Z</time></trkpt>
<trkpt lat="46.24148700" lon="6.99162300"><ele>420.7650145008</ele><time>2008-11-01T13:16:41Z</time></trkpt>
<trkpt lat="46.24152000" lon="6.99159600"><ele>420.7439881776</ele><time>2008-11-01T13:16:42Z</time></trkpt>
<trkpt lat="46.24155400" lon="6.99157300"><ele>420.5329894632</ele><time>2008-11-01T13:16:43Z</time></trkpt>
<trkpt lat="46.24158600" lon="6.99154800"><ele>420.6340026216</ele><time>2008-11-01T13:16:44Z</time></trkpt>
<trkpt lat="46.24161500" lon="6.99152200"><ele>420.9649962192</ele><time>2008-11-01T13:16:45Z</time></trkpt>
<trkpt lat="46.24164400" lon="6.99149800"><ele>421.1759949336</ele><time>2008-11-01T13:16:46Z</time></trkpt>
<trkpt lat="46.24167400" lon="6.99147900"><ele>421.1759949336</ele><time>2008-11-01T13:16:47Z</time></trkpt>
<trkpt lat="46.24170600" lon="6.99146300"><ele>421.0360106568</ele><time>2008-11-01T13:16:48Z</time></trkpt>
<trkpt lat="46.24173700" lon="6.99144200"><ele>421.126007124</ele><time>2008-11-01T13:16:49Z</time></trkpt>
<trkpt lat="46.24176700" lon="6.99141400"><ele>421.225006164</ele><time>2008-11-01T13:16:50Z</time></trkpt>
<trkpt lat="46.24179600" lon="6.99138500"><ele>421.2059936544</ele><time>2008-11-01T13:16:51Z</time></trkpt>
<trkpt lat="46.24182500" lon="6.99135600"><ele>420.984985308</ele><time>2008-11-01T13:16:52Z</time></trkpt>
<trkpt lat="46.24185300" lon="6.99132600"><ele>420.8750000568</ele><time>2008-11-01T13:16:53Z</time></trkpt>
<trkpt lat="46.24188000" lon="6.99129300"><ele>420.975006156</ele><time>2008-11-01T13:16:54Z</time></trkpt>
<trkpt lat="46.24190600" lon="6.99126200"><ele>420.845001336</ele><time>2008-11-01T13:16:55Z</time></trkpt>
<trkpt lat="46.24193100" lon="6.99123100"><ele>420.4939881696</ele><time>2008-11-01T13:16:56Z</time></trkpt>
<trkpt lat="46.24195400" lon="6.99119600"><ele>420.2539977936</ele><time>2008-11-01T13:16:57Z</time></trkpt>
<trkpt lat="46.24197700" lon="6.99116000"><ele>420.1640013264</ele><time>2008-11-01T13:16:58Z</time></trkpt>
<trkpt lat="46.24200200" lon="6.99112800"><ele>419.8540038768</ele><time>2008-11-01T13:16:59Z</time></trkpt>
<trkpt lat="46.24202600" lon="6.99109800"><ele>419.6130064416</ele><time>2008-11-01T13:17:00Z</time></trkpt>
<trkpt lat="46.24205000" lon="6.99107200"><ele>419.4339903912</ele><time>2008-11-01T13:17:01Z</time></trkpt>
<trkpt lat="46.24207300" lon="6.99104800"><ele>419.1839903832</ele><time>2008-11-01T13:17:02Z</time></trkpt>
<trkpt lat="46.24209600" lon="6.99102400"><ele>419.0929871616</ele><time>2008-11-01T13:17:03Z</time></trkpt>
<trkpt lat="46.24211900" lon="6.99099800"><ele>419.042999352</ele><time>2008-11-01T13:17:04Z</time></trkpt>
<trkpt lat="46.24214200" lon="6.99096700"><ele>419.0130006312</ele><time>2008-11-01T13:17:05Z</time></trkpt>
<trkpt lat="46.24216700" lon="6.99093600"><ele>419.0130006312</ele><time>2008-11-01T13:17:06Z</time></trkpt>
<trkpt lat="46.24219200" lon="6.99090600"><ele>418.9830016056</ele><time>2008-11-01T13:17:07Z</time></trkpt>
<trkpt lat="46.24221700" lon="6.99087500"><ele>418.9429932528</ele><time>2008-11-01T13:17:08Z</time></trkpt>
<trkpt lat="46.24224100" lon="6.99084500"><ele>418.8640137816</ele><time>2008-11-01T13:17:09Z</time></trkpt>
<trkpt lat="46.24226600" lon="6.99081700"><ele>418.6029967776</ele><time>2008-11-01T13:17:10Z</time></trkpt>
<trkpt lat="46.24229000" lon="6.99078900"><ele>418.5539855472</ele><time>2008-11-01T13:17:11Z</time></trkpt>
<trkpt lat="46.24231400" lon="6.99076000"><ele>418.5140076744</ele><time>2008-11-01T13:17:12Z</time></trkpt>
<trkpt lat="46.24234000" lon="6.99072900"><ele>418.6849974264</ele><time>2008-11-01T13:17:13Z</time></trkpt>
<trkpt lat="46.24236500" lon="6.99069800"><ele>418.6950073632</ele><time>2008-11-01T13:17:14Z</time></trkpt>
<trkpt lat="46.24239200" lon="6.99066500"><ele>418.8259887624</ele><time>2008-11-01T13:17:15Z</time></trkpt>
<trkpt lat="46.24241900" lon="6.99063500"><ele>418.734985236</ele><time>2008-11-01T13:17:16Z</time></trkpt>
<trkpt lat="46.24244700" lon="6.99060500"><ele>418.6719970968</ele><time>2008-11-01T13:17:17Z</time></trkpt>
<trkpt lat="46.24247400" lon="6.99057500"><ele>418.5849913272</ele><time>2008-11-01T13:17:18Z</time></trkpt>
<trkpt lat="46.24250100" lon="6.99054500"><ele>418.5750121752</ele><time>2008-11-01T13:17:19Z</time></trkpt>
<trkpt lat="46.24252400" lon="6.99051800"><ele>418.5050047968</ele><time>2008-11-01T13:17:20Z</time></trkpt>
<trkpt lat="46.24254600" lon="6.99049000"><ele>418.5360108816</ele><time>2008-11-01T13:17:21Z</time></trkpt>
<trkpt lat="46.24256900" lon="6.99046100"><ele>418.657012824</ele><time>2008-11-01T13:17:22Z</time></trkpt>
<trkpt lat="46.24259300" lon="6.99043000"><ele>418.5969849024</ele><time>2008-11-01T13:17:23Z</time></trkpt>
<trkpt lat="46.24261600" lon="6.99039800"><ele>418.3649903448</ele><time>2008-11-01T13:17:24Z</time></trkpt>
<trkpt lat="46.24263900" lon="6.99036600"><ele>418.4859922872</ele><time>2008-11-01T13:17:25Z</time></trkpt>
<trkpt lat="46.24266200" lon="6.99033500"><ele>418.2550047888</ele><time>2008-11-01T13:17:26Z</time></trkpt>
<trkpt lat="46.24268300" lon="6.99030400"><ele>418.2850038144</ele><time>2008-11-01T13:17:27Z</time></trkpt>
<trkpt lat="46.24270200" lon="6.99027500"><ele>417.97500606</ele><time>2008-11-01T13:17:28Z</time></trkpt>
<trkpt lat="46.24271900" lon="6.99024500"><ele>417.7550047728</ele><time>2008-11-01T13:17:29Z</time></trkpt>
<trkpt lat="46.24273700" lon="6.99021500"><ele>417.3649903128</ele><time>2008-11-01T13:17:30Z</time></trkpt>
<trkpt lat="46.24275500" lon="6.99019100"><ele>416.975006028</ele><time>2008-11-01T13:17:31Z</time></trkpt>
<trkpt lat="46.24277500" lon="6.99017900"><ele>416.7059935104</ele><time>2008-11-01T13:17:32Z</time></trkpt>
<trkpt lat="46.24279400" lon="6.99018200"><ele>416.376006972</ele><time>2008-11-01T13:17:33Z</time></trkpt>
<trkpt lat="46.24280700" lon="6.99019600"><ele>416.0459899536</ele><time>2008-11-01T13:17:34Z</time></trkpt>
<trkpt lat="46.24281800" lon="6.99021600"><ele>415.735992504</ele><time>2008-11-01T13:17:35Z</time></trkpt>
<trkpt lat="46.24282900" lon="6.99024100"><ele>416.1189880296</ele><time>2008-11-01T13:17:36Z</time></trkpt>
<trkpt lat="46.24284200" lon="6.99027000"><ele>416.1380005392</ele><time>2008-11-01T13:17:37Z</time></trkpt>
<trkpt lat="46.24285700" lon="6.99029800"><ele>416.2380066384</ele><time>2008-11-01T13:17:38Z</time></trkpt>
<trkpt lat="46.24287500" lon="6.99032800"><ele>416.29800408</ele><time>2008-11-01T13:17:39Z</time></trkpt>
<trkpt lat="46.24289200" lon="6.99035700"><ele>416.2969970208</ele><time>2008-11-01T13:17:40Z</time></trkpt>
<trkpt lat="46.24290900" lon="6.99038600"><ele>416.3269957416</ele><time>2008-11-01T13:17:41Z</time></trkpt>
<trkpt lat="46.24292500" lon="6.99041500"><ele>416.39700312</ele><time>2008-11-01T13:17:42Z</time></trkpt>
<trkpt lat="46.24294000" lon="6.99044300"><ele>416.4169922088</ele><time>2008-11-01T13:17:43Z</time></trkpt>
<trkpt lat="46.24295500" lon="6.99047100"><ele>416.4270018408</ele><time>2008-11-01T13:17:44Z</time></trkpt>
<trkpt lat="46.24297100" lon="6.99049800"><ele>416.4159851496</ele><time>2008-11-01T13:17:45Z</time></trkpt>
<trkpt lat="46.24298800" lon="6.99052300"><ele>416.376006972</ele><time>2008-11-01T13:17:46Z</time></trkpt>
<trkpt lat="46.24300500" lon="6.99055000"><ele>416.3959960608</ele><time>2008-11-01T13:17:47Z</time></trkpt>
<trkpt lat="46.24302100" lon="6.99057800"><ele>416.36599734</ele><time>2008-11-01T13:17:48Z</time></trkpt>
<trkpt lat="46.24303700" lon="6.99060700"><ele>416.36599734</ele><time>2008-11-01T13:17:49Z</time></trkpt>
<trkpt lat="46.24305400" lon="6.99063600"><ele>416.3460082512</ele><time>2008-11-01T13:17:50Z</time></trkpt>
<trkpt lat="46.24307100" lon="6.99066500"><ele>416.3160095304</ele><time>2008-11-01T13:17:51Z</time></trkpt>
<trkpt lat="46.24308800" lon="6.99069400"><ele>416.2749938136</ele><time>2008-11-01T13:17:52Z</time></trkpt>
<trkpt lat="46.24310500" lon="6.99072300"><ele>416.2349854608</ele><time>2008-11-01T13:17:53Z</time></trkpt>
<trkpt lat="46.24312300" lon="6.99075500"><ele>416.1849976512</ele><time>2008-11-01T13:17:54Z</time></trkpt>
<trkpt lat="46.24314100" lon="6.99078700"><ele>416.1050111208</ele><time>2008-11-01T13:17:55Z</time></trkpt>
<trkpt lat="46.24316100" lon="6.99082100"><ele>415.9949950848</ele><time>2008-11-01T13:17:56Z</time></trkpt>
<trkpt lat="46.24318000" lon="6.99085400"><ele>415.8840027744</ele><time>2008-11-01T13:17:57Z</time></trkpt>
<trkpt lat="46.24319800" lon="6.99088600"><ele>415.8039854592</ele><time>2008-11-01T13:17:58Z</time></trkpt>
<trkpt lat="46.24321600" lon="6.99091900"><ele>415.7139892968</ele><time>2008-11-01T13:17:59Z</time></trkpt>
<trkpt lat="46.24323800" lon="6.99095500"><ele>415.6650085464</ele><time>2008-11-01T13:18:00Z</time></trkpt>
<trkpt lat="46.24326100" lon="6.99099200"><ele>415.563995388</ele><time>2008-11-01T13:18:01Z</time></trkpt>
<trkpt lat="46.24328800" lon="6.99102900"><ele>415.5039979464</ele><time>2008-11-01T13:18:02Z</time></trkpt>
<trkpt lat="46.24331500" lon="6.99106900"><ele>415.3840027584</ele><time>2008-11-01T13:18:03Z</time></trkpt>
<trkpt lat="46.24334200" lon="6.99111300"><ele>415.2630005112</ele><time>2008-11-01T13:18:04Z</time></trkpt>
<trkpt lat="46.24336900" lon="6.99115900"><ele>415.3439941008</ele><time>2008-11-01T13:18:05Z</time></trkpt>
<trkpt lat="46.24339400" lon="6.99120700"><ele>415.3749998808</ele><time>2008-11-01T13:18:06Z</time></trkpt>
<trkpt lat="46.24342000" lon="6.99125400"><ele>415.4049989064</ele><time>2008-11-01T13:18:07Z</time></trkpt>
<trkpt lat="46.24344500" lon="6.99130300"><ele>415.4760130392</ele><time>2008-11-01T13:18:08Z</time></trkpt>
<trkpt lat="46.24347000" lon="6.99135200"><ele>415.5150146376</ele><time>2008-11-01T13:18:09Z</time></trkpt>
<trkpt lat="46.24349500" lon="6.99140100"><ele>415.5450133584</ele><time>2008-11-01T13:18:10Z</time></trkpt>
<trkpt lat="46.24352200" lon="6.99145000"><ele>415.7059937832</ele><time>2008-11-01T13:18:11Z</time></trkpt>
<trkpt lat="46.24354800" lon="6.99149800"><ele>415.8259886664</ele><time>2008-11-01T13:18:12Z</time></trkpt>
<trkpt lat="46.24357600" lon="6.99154500"><ele>416.00698866</ele><time>2008-11-01T13:18:13Z</time></trkpt>
<trkpt lat="46.24360300" lon="6.99159000"><ele>416.1669922008</ele><time>2008-11-01T13:18:14Z</time></trkpt>
<trkpt lat="46.24363000" lon="6.99163600"><ele>416.3370056784</ele><time>2008-11-01T13:18:15Z</time></trkpt>
<trkpt lat="46.24365500" lon="6.99168200"><ele>416.4460143504</ele><time>2008-11-01T13:18:16Z</time></trkpt>
<trkpt lat="46.24368000" lon="6.99172700"><ele>416.5469970288</ele><time>2008-11-01T13:18:17Z</time></trkpt>
<trkpt lat="46.24370600" lon="6.99177000"><ele>416.6960143584</ele><time>2008-11-01T13:18:18Z</time></trkpt>
<trkpt lat="46.24373200" lon="6.99181400"><ele>416.7959899776</ele><time>2008-11-01T13:18:19Z</time></trkpt>
<trkpt lat="46.24375700" lon="6.99185700"><ele>416.834991576</ele><time>2008-11-01T13:18:20Z</time></trkpt>
<trkpt lat="46.24378100" lon="6.99189900"><ele>416.9460143664</ele><time>2008-11-01T13:18:21Z</time></trkpt>
<trkpt lat="46.24380500" lon="6.99194100"><ele>416.9549864592</ele><time>2008-11-01T13:18:22Z</time></trkpt>
<trkpt lat="46.24382900" lon="6.99198200"><ele>417.0159912648</ele><time>2008-11-01T13:18:23Z</time></trkpt>
<trkpt lat="46.24385300" lon="6.99202300"><ele>417.0960082752</ele><time>2008-11-01T13:18:24Z</time></trkpt>
<trkpt lat="46.24387700" lon="6.99206300"><ele>417.1960143744</ele><time>2008-11-01T13:18:25Z</time></trkpt>
<trkpt lat="46.24390200" lon="6.99210400"><ele>417.3059996256</ele><time>2008-11-01T13:18:26Z</time></trkpt>
<trkpt lat="46.24392600" lon="6.99214500"><ele>417.345001224</ele><time>2008-11-01T13:18:27Z</time></trkpt>
<trkpt lat="46.24395200" lon="6.99218500"><ele>417.48599256</ele><time>2008-11-01T13:18:28Z</time></trkpt>
<trkpt lat="46.24397700" lon="6.99222600"><ele>417.61599738</ele><time>2008-11-01T13:18:29Z</time></trkpt>
<trkpt lat="46.24400000" lon="6.99226800"><ele>417.7260131112</ele><time>2008-11-01T13:18:30Z</time></trkpt>
<trkpt lat="46.24402100" lon="6.99231200"><ele>417.87600702</ele><time>2008-11-01T13:18:31Z</time></trkpt>
<trkpt lat="46.24404000" lon="6.99235600"><ele>417.8559874512</ele><time>2008-11-01T13:18:32Z</time></trkpt>
<trkpt lat="46.24405800" lon="6.99240100"><ele>417.6969909696</ele><time>2008-11-01T13:18:33Z</time></trkpt>
<trkpt lat="46.24407600" lon="6.99244500"><ele>417.5159912808</ele><time>2008-11-01T13:18:34Z</time></trkpt>
<trkpt lat="46.24409200" lon="6.99248800"><ele>417.3160095624</ele><time>2008-11-01T13:18:35Z</time></trkpt>
<trkpt lat="46.24410700" lon="6.99253000"><ele>416.9349976752</ele><time>2008-11-01T13:18:36Z</time></trkpt>
<trkpt lat="46.24412000" lon="6.99257100"><ele>416.6849976672</ele><time>2008-11-01T13:18:37Z</time></trkpt>
<trkpt lat="46.24413400" lon="6.99261100"><ele>416.4049986336</ele><time>2008-11-01T13:18:38Z</time></trkpt>
<trkpt lat="46.24414800" lon="6.99265200"><ele>416.3859864288</ele><time>2008-11-01T13:18:39Z</time></trkpt>
<trkpt lat="46.24416100" lon="6.99269200"><ele>416.4469909296</ele><time>2008-11-01T13:18:40Z</time></trkpt>
<trkpt lat="46.24417300" lon="6.99273200"><ele>416.4370117776</ele><time>2008-11-01T13:18:41Z</time></trkpt>
<trkpt lat="46.24418300" lon="6.99277100"><ele>416.4869995872</ele><time>2008-11-01T13:18:42Z</time></trkpt>
<trkpt lat="46.24419300" lon="6.99280900"><ele>416.4769896504</ele><time>2008-11-01T13:18:43Z</time></trkpt>
<trkpt lat="46.24420300" lon="6.99284300"><ele>416.4580079256</ele><time>2008-11-01T13:18:44Z</time></trkpt>
<trkpt lat="46.24421100" lon="6.99287500"><ele>416.4979857984</ele><time>2008-11-01T13:18:45Z</time></trkpt>
<trkpt lat="46.24421800" lon="6.99290700"><ele>416.52700794</ele><time>2008-11-01T13:18:46Z</time></trkpt>
<trkpt lat="46.24422500" lon="6.99293900"><ele>416.516998308</ele><time>2008-11-01T13:18:47Z</time></trkpt>
<trkpt lat="46.24423400" lon="6.99297000"><ele>416.516998308</ele><time>2008-11-01T13:18:48Z</time></trkpt>
<trkpt lat="46.24424300" lon="6.99300000"><ele>416.6080018344</ele><time>2008-11-01T13:18:49Z</time></trkpt>
<trkpt lat="46.24425200" lon="6.99303100"><ele>416.678008908</ele><time>2008-11-01T13:18:50Z</time></trkpt>
<trkpt lat="46.24426200" lon="6.99306200"><ele>416.7479858064</ele><time>2008-11-01T13:18:51Z</time></trkpt>
<trkpt lat="46.24427200" lon="6.99309700"><ele>416.787994464</ele><time>2008-11-01T13:18:52Z</time></trkpt>
<trkpt lat="46.24428200" lon="6.99313500"><ele>416.777007948</ele><time>2008-11-01T13:18:53Z</time></trkpt>
<trkpt lat="46.24429200" lon="6.99317600"><ele>416.7369995952</ele><time>2008-11-01T13:18:54Z</time></trkpt>
<trkpt lat="46.24430100" lon="6.99321900"><ele>416.6279906184</ele><time>2008-11-01T13:18:55Z</time></trkpt>
<trkpt lat="46.24431000" lon="6.99326200"><ele>416.4670104984</ele><time>2008-11-01T13:18:56Z</time></trkpt>
<trkpt lat="46.24431900" lon="6.99330500"><ele>416.23599252</ele><time>2008-11-01T13:18:57Z</time></trkpt>
<trkpt lat="46.24432800" lon="6.99334900"><ele>416.126006964</ele><time>2008-11-01T13:18:58Z</time></trkpt>
<trkpt lat="46.24433500" lon="6.99339300"><ele>415.9559937912</ele><time>2008-11-01T13:18:59Z</time></trkpt>
<trkpt lat="46.24434400" lon="6.99343800"><ele>415.8460082352</ele><time>2008-11-01T13:19:00Z</time></trkpt>
<trkpt lat="46.24435200" lon="6.99348500"><ele>415.6459960368</ele><time>2008-11-01T13:19:01Z</time></trkpt>
<trkpt lat="46.24436300" lon="6.99353200"><ele>415.5060120648</ele><time>2008-11-01T13:19:02Z</time></trkpt>
<trkpt lat="46.24437400" lon="6.99357900"><ele>415.506988644</ele><time>2008-11-01T13:19:03Z</time></trkpt>
<trkpt lat="46.24438600" lon="6.99362500"><ele>415.4270018088</ele><time>2008-11-01T13:19:04Z</time></trkpt>
<trkpt lat="46.24439700" lon="6.99367200"><ele>415.2470091792</ele><time>2008-11-01T13:19:05Z</time></trkpt>
<trkpt lat="46.24440700" lon="6.99371800"><ele>415.0159912008</ele><time>2008-11-01T13:19:06Z</time></trkpt>
<trkpt lat="46.24441800" lon="6.99376500"><ele>414.8059998504</ele><time>2008-11-01T13:19:07Z</time></trkpt>
<trkpt lat="46.24443100" lon="6.99381100"><ele>414.62701428</ele><time>2008-11-01T13:19:08Z</time></trkpt>
<trkpt lat="46.24444500" lon="6.99385900"><ele>414.397003056</ele><time>2008-11-01T13:19:09Z</time></trkpt>
<trkpt lat="46.24445900" lon="6.99390600"><ele>414.2269898832</ele><time>2008-11-01T13:19:10Z</time></trkpt>
<trkpt lat="46.24447400" lon="6.99395300"><ele>414.1069946952</ele><time>2008-11-01T13:19:11Z</time></trkpt>
<trkpt lat="46.24449100" lon="6.99399800"><ele>413.8959959808</ele><time>2008-11-01T13:19:12Z</time></trkpt>
<trkpt lat="46.24450800" lon="6.99404200"><ele>413.6250001296</ele><time>2008-11-01T13:19:13Z</time></trkpt>
<trkpt lat="46.24452600" lon="6.99408700"><ele>413.5960081632</ele><time>2008-11-01T13:19:14Z</time></trkpt>
<trkpt lat="46.24454000" lon="6.99413400"><ele>413.5559998104</ele><time>2008-11-01T13:19:15Z</time></trkpt>
<trkpt lat="46.24455500" lon="6.99418200"><ele>413.5870055904</ele><time>2008-11-01T13:19:16Z</time></trkpt>
<trkpt lat="46.24457100" lon="6.99422900"><ele>413.6019898632</ele><time>2008-11-01T13:19:17Z</time></trkpt>
<trkpt lat="46.24458700" lon="6.99427500"><ele>413.6879882688</ele><time>2008-11-01T13:19:18Z</time></trkpt>
<trkpt lat="46.24460100" lon="6.99432100"><ele>413.9899902048</ele><time>2008-11-01T13:19:19Z</time></trkpt>
<trkpt lat="46.24461600" lon="6.99436600"><ele>414.1499937456</ele><time>2008-11-01T13:19:20Z</time></trkpt>
<trkpt lat="46.24462900" lon="6.99440900"><ele>414.371002092</ele><time>2008-11-01T13:19:21Z</time></trkpt>
<trkpt lat="46.24464400" lon="6.99445600"><ele>414.4400024112</ele><time>2008-11-01T13:19:22Z</time></trkpt>
<trkpt lat="46.24465800" lon="6.99449800"><ele>415.011993444</ele><time>2008-11-01T13:19:23Z</time></trkpt>
<trkpt lat="46.24467100" lon="6.99454100"><ele>415.4819947392</ele><time>2008-11-01T13:19:24Z</time></trkpt>
<trkpt lat="46.24468900" lon="6.99459000"><ele>415.7810059776</ele><time>2008-11-01T13:19:25Z</time></trkpt>
<trkpt lat="46.24469800" lon="6.99464600"><ele>415.730987688</ele><time>2008-11-01T13:19:26Z</time></trkpt>
<trkpt lat="46.24470800" lon="6.99469900"><ele>415.3999937856</ele><time>2008-11-01T13:19:27Z</time></trkpt>
<trkpt lat="46.24471900" lon="6.99475000"><ele>415.1080017864</ele><time>2008-11-01T13:19:28Z</time></trkpt>
<trkpt lat="46.24473000" lon="6.99479900"><ele>414.75698862</ele><time>2008-11-01T13:19:29Z</time></trkpt>
<trkpt lat="46.24473900" lon="6.99484900"><ele>414.4559937432</ele><time>2008-11-01T13:19:30Z</time></trkpt>
<trkpt lat="46.24474800" lon="6.99489900"><ele>414.0060120168</ele><time>2008-11-01T13:19:31Z</time></trkpt>
<trkpt lat="46.24475800" lon="6.99495100"><ele>413.6250001296</ele><time>2008-11-01T13:19:32Z</time></trkpt>
<trkpt lat="46.24477000" lon="6.99500400"><ele>413.4259949904</ele><time>2008-11-01T13:19:33Z</time></trkpt>
<trkpt lat="46.24478100" lon="6.99505600"><ele>413.397003024</ele><time>2008-11-01T13:19:34Z</time></trkpt>
<trkpt lat="46.24479200" lon="6.99510900"><ele>413.4169921128</ele><time>2008-11-01T13:19:35Z</time></trkpt>
<trkpt lat="46.24480200" lon="6.99516100"><ele>413.386993392</ele><time>2008-11-01T13:19:36Z</time></trkpt>
<trkpt lat="46.24481200" lon="6.99521400"><ele>413.3580017304</ele><time>2008-11-01T13:19:37Z</time></trkpt>
<trkpt lat="46.24482200" lon="6.99526700"><ele>413.24700942</ele><time>2008-11-01T13:19:38Z</time></trkpt>
<trkpt lat="46.24483200" lon="6.99532100"><ele>413.256988572</ele><time>2008-11-01T13:19:39Z</time></trkpt>
<trkpt lat="46.24484100" lon="6.99537500"><ele>413.127014232</ele><time>2008-11-01T13:19:40Z</time></trkpt>
<trkpt lat="46.24485300" lon="6.99542800"><ele>413.1669921048</ele><time>2008-11-01T13:19:41Z</time></trkpt>
<trkpt lat="46.24486600" lon="6.99548000"><ele>413.2479856944</ele><time>2008-11-01T13:19:42Z</time></trkpt>
<trkpt lat="46.24487700" lon="6.99553100"><ele>413.2980042888</ele><time>2008-11-01T13:19:43Z</time></trkpt>
<trkpt lat="46.24488800" lon="6.99558000"><ele>413.3779908192</ele><time>2008-11-01T13:19:44Z</time></trkpt>
<trkpt lat="46.24489900" lon="6.99562700"><ele>413.4779969184</ele><time>2008-11-01T13:19:45Z</time></trkpt>
<trkpt lat="46.24490900" lon="6.99567500"><ele>413.53799436</ele><time>2008-11-01T13:19:46Z</time></trkpt>
<trkpt lat="46.24492000" lon="6.99572300"><ele>413.5979918016</ele><time>2008-11-01T13:19:47Z</time></trkpt>
<trkpt lat="46.24493100" lon="6.99577200"><ele>413.6180113704</ele><time>2008-11-01T13:19:48Z</time></trkpt>
<trkpt lat="46.24494200" lon="6.99582100"><ele>413.6369934</ele><time>2008-11-01T13:19:49Z</time></trkpt>
<trkpt lat="46.24495400" lon="6.99587000"><ele>413.6669921208</ele><time>2008-11-01T13:19:50Z</time></trkpt>
<trkpt lat="46.24496600" lon="6.99592000"><ele>413.6669921208</ele><time>2008-11-01T13:19:51Z</time></trkpt>
<trkpt lat="46.24497800" lon="6.99597000"><ele>413.647003032</ele><time>2008-11-01T13:19:52Z</time></trkpt>
<trkpt lat="46.24498900" lon="6.99602200"><ele>413.647003032</ele><time>2008-11-01T13:19:53Z</time></trkpt>
<trkpt lat="46.24500100" lon="6.99607200"><ele>413.4670104024</ele><time>2008-11-01T13:19:54Z</time></trkpt>
<trkpt lat="46.24501300" lon="6.99612300"><ele>413.4769898592</ele><time>2008-11-01T13:19:55Z</time></trkpt>
<trkpt lat="46.24502400" lon="6.99617400"><ele>413.3269959504</ele><time>2008-11-01T13:19:56Z</time></trkpt>
<trkpt lat="46.24503700" lon="6.99622300"><ele>413.2869872928</ele><time>2008-11-01T13:19:57Z</time></trkpt>
<trkpt lat="46.24504700" lon="6.99627200"><ele>413.136993384</ele><time>2008-11-01T13:19:58Z</time></trkpt>
<trkpt lat="46.24505600" lon="6.99632100"><ele>412.9769898432</ele><time>2008-11-01T13:19:59Z</time></trkpt>
<trkpt lat="46.24506900" lon="6.99636600"><ele>412.9769898432</ele><time>2008-11-01T13:20:00Z</time></trkpt>
<trkpt lat="46.24508400" lon="6.99640800"><ele>412.9779969024</ele><time>2008-11-01T13:20:01Z</time></trkpt>
<trkpt lat="46.24509800" lon="6.99644500"><ele>412.8880004352</ele><time>2008-11-01T13:20:02Z</time></trkpt>
<trkpt lat="46.24511200" lon="6.99647900"><ele>412.8880004352</ele><time>2008-11-01T13:20:03Z</time></trkpt>
<trkpt lat="46.24512400" lon="6.99651500"><ele>412.8080139048</ele><time>2008-11-01T13:20:04Z</time></trkpt>
<trkpt lat="46.24513400" lon="6.99655000"><ele>412.778015184</ele><time>2008-11-01T13:20:05Z</time></trkpt>
<trkpt lat="46.24514400" lon="6.99658500"><ele>412.7279968944</ele><time>2008-11-01T13:20:06Z</time></trkpt>
<trkpt lat="46.24515500" lon="6.99661900"><ele>412.657989516</ele><time>2008-11-01T13:20:07Z</time></trkpt>
<trkpt lat="46.24516400" lon="6.99665300"><ele>412.657989516</ele><time>2008-11-01T13:20:08Z</time></trkpt>
<trkpt lat="46.24516900" lon="6.99668700"><ele>412.6380004272</ele><time>2008-11-01T13:20:09Z</time></trkpt>
<trkpt lat="46.24517200" lon="6.99672100"><ele>412.5369872688</ele><time>2008-11-01T13:20:10Z</time></trkpt>
<trkpt lat="46.24517300" lon="6.99675700"><ele>412.5570068376</ele><time>2008-11-01T13:20:11Z</time></trkpt>
<trkpt lat="46.24517300" lon="6.99679300"><ele>412.5369872688</ele><time>2008-11-01T13:20:12Z</time></trkpt>
<trkpt lat="46.24517100" lon="6.99682800"><ele>412.4559936792</ele><time>2008-11-01T13:20:13Z</time></trkpt>
<trkpt lat="46.24517000" lon="6.99686300"><ele>412.4259949584</ele><time>2008-11-01T13:20:14Z</time></trkpt>
<trkpt lat="46.24517600" lon="6.99689800"><ele>412.346008428</ele><time>2008-11-01T13:20:15Z</time></trkpt>
<trkpt lat="46.24518400" lon="6.99693100"><ele>412.4169920808</ele><time>2008-11-01T13:20:16Z</time></trkpt>
<trkpt lat="46.24519500" lon="6.99696100"><ele>412.5130004232</ele><time>2008-11-01T13:20:17Z</time></trkpt>
<trkpt lat="46.24520900" lon="6.99698600"><ele>412.5270081168</ele><time>2008-11-01T13:20:18Z</time></trkpt>
<trkpt lat="46.24522700" lon="6.99700900"><ele>412.5870055584</ele><time>2008-11-01T13:20:19Z</time></trkpt>
<trkpt lat="46.24524800" lon="6.99703400"><ele>412.6069946472</ele><time>2008-11-01T13:20:20Z</time></trkpt>
<trkpt lat="46.24527000" lon="6.99705500"><ele>412.5669859896</ele><time>2008-11-01T13:20:21Z</time></trkpt>
<trkpt lat="46.24529200" lon="6.99707700"><ele>412.5870055584</ele><time>2008-11-01T13:20:22Z</time></trkpt>
<trkpt lat="46.24531100" lon="6.99710400"><ele>412.6669920888</ele><time>2008-11-01T13:20:23Z</time></trkpt>
<trkpt lat="46.24532900" lon="6.99713500"><ele>412.7369994672</ele><time>2008-11-01T13:20:24Z</time></trkpt>
<trkpt lat="46.24534200" lon="6.99717100"><ele>412.7770081248</ele><time>2008-11-01T13:20:25Z</time></trkpt>
<trkpt lat="46.24535000" lon="6.99721100"><ele>412.8269959344</ele><time>2008-11-01T13:20:26Z</time></trkpt>
<trkpt lat="46.24535600" lon="6.99725100"><ele>412.877014224</ele><time>2008-11-01T13:20:27Z</time></trkpt>
<trkpt lat="46.24536100" lon="6.99729300"><ele>412.9169920968</ele><time>2008-11-01T13:20:28Z</time></trkpt>
<trkpt lat="46.24536400" lon="6.99733700"><ele>412.8970033128</ele><time>2008-11-01T13:20:29Z</time></trkpt>
<trkpt lat="46.24536700" lon="6.99738100"><ele>412.8970033128</ele><time>2008-11-01T13:20:30Z</time></trkpt>
<trkpt lat="46.24536600" lon="6.99742600"><ele>412.7959898496</ele><time>2008-11-01T13:20:31Z</time></trkpt>
<trkpt lat="46.24535900" lon="6.99747000"><ele>412.7770081248</ele><time>2008-11-01T13:20:32Z</time></trkpt>
<trkpt lat="46.24535200" lon="6.99751500"><ele>412.7770081248</ele><time>2008-11-01T13:20:33Z</time></trkpt>
<trkpt lat="46.24534600" lon="6.99756200"><ele>412.766998188</ele><time>2008-11-01T13:20:34Z</time></trkpt>
<trkpt lat="46.24534400" lon="6.99761100"><ele>412.7059936872</ele><time>2008-11-01T13:20:35Z</time></trkpt>
<trkpt lat="46.24534600" lon="6.99766100"><ele>412.6560058776</ele><time>2008-11-01T13:20:36Z</time></trkpt>
<trkpt lat="46.24535200" lon="6.99770900"><ele>412.7070007464</ele><time>2008-11-01T13:20:37Z</time></trkpt>
<trkpt lat="46.24536200" lon="6.99775800"><ele>412.8280029936</ele><time>2008-11-01T13:20:38Z</time></trkpt>
<trkpt lat="46.24537000" lon="6.99780600"><ele>412.8479920824</ele><time>2008-11-01T13:20:39Z</time></trkpt>
<trkpt lat="46.24537800" lon="6.99785400"><ele>412.9169920968</ele><time>2008-11-01T13:20:40Z</time></trkpt>
<trkpt lat="46.24538600" lon="6.99790000"><ele>413.0079956232</ele><time>2008-11-01T13:20:41Z</time></trkpt>
<trkpt lat="46.24539600" lon="6.99794600"><ele>413.0469972216</ele><time>2008-11-01T13:20:42Z</time></trkpt>
<trkpt lat="46.24540600" lon="6.99799300"><ele>413.1780091008</ele><time>2008-11-01T13:20:43Z</time></trkpt>
<trkpt lat="46.24541600" lon="6.99803900"><ele>413.1770020416</ele><time>2008-11-01T13:20:44Z</time></trkpt>
<trkpt lat="46.24542700" lon="6.99808600"><ele>413.266998204</ele><time>2008-11-01T13:20:45Z</time></trkpt>
<trkpt lat="46.24543800" lon="6.99813400"><ele>413.3070068616</ele><time>2008-11-01T13:20:46Z</time></trkpt>
<trkpt lat="46.24544900" lon="6.99818300"><ele>413.3880004512</ele><time>2008-11-01T13:20:47Z</time></trkpt>
<trkpt lat="46.24546100" lon="6.99823100"><ele>413.4169921128</ele><time>2008-11-01T13:20:48Z</time></trkpt>
<trkpt lat="46.24547100" lon="6.99827900"><ele>413.5079956392</ele><time>2008-11-01T13:20:49Z</time></trkpt>
<trkpt lat="46.24548100" lon="6.99832800"><ele>413.6279908272</ele><time>2008-11-01T13:20:50Z</time></trkpt>
<trkpt lat="46.24549100" lon="6.99837800"><ele>413.6879882688</ele><time>2008-11-01T13:20:51Z</time></trkpt>
<trkpt lat="46.24550200" lon="6.99842700"><ele>413.7279969264</ele><time>2008-11-01T13:20:52Z</time></trkpt>
<trkpt lat="46.24551200" lon="6.99847500"><ele>413.8179930888</ele><time>2008-11-01T13:20:53Z</time></trkpt>
<trkpt lat="46.24552400" lon="6.99852400"><ele>413.9379882768</ele><time>2008-11-01T13:20:54Z</time></trkpt>
<trkpt lat="46.24553500" lon="6.99857300"><ele>414.0989988768</ele><time>2008-11-01T13:20:55Z</time></trkpt>
<trkpt lat="46.24554600" lon="6.99862000"><ele>414.2690123544</ele><time>2008-11-01T13:20:56Z</time></trkpt>
<trkpt lat="46.24555600" lon="6.99866500"><ele>414.3580017624</ele><time>2008-11-01T13:20:57Z</time></trkpt>
<trkpt lat="46.24556500" lon="6.99870700"><ele>414.4580078616</ele><time>2008-11-01T13:20:58Z</time></trkpt>
<trkpt lat="46.24557400" lon="6.99874600"><ele>414.537994392</ele><time>2008-11-01T13:20:59Z</time></trkpt>
<trkpt lat="46.24558300" lon="6.99878300"><ele>414.667999212</ele><time>2008-11-01T13:21:00Z</time></trkpt>
<trkpt lat="46.24558900" lon="6.99881800"><ele>414.8080139688</ele><time>2008-11-01T13:21:01Z</time></trkpt>
<trkpt lat="46.24559400" lon="6.99885200"><ele>414.91799922</ele><time>2008-11-01T13:21:02Z</time></trkpt>
<trkpt lat="46.24560000" lon="6.99888600"><ele>415.037994408</ele><time>2008-11-01T13:21:03Z</time></trkpt>
<trkpt lat="46.24560800" lon="6.99891900"><ele>415.1879883168</ele><time>2008-11-01T13:21:04Z</time></trkpt>
<trkpt lat="46.24561500" lon="6.99895100"><ele>415.3080139848</ele><time>2008-11-01T13:21:05Z</time></trkpt>
<trkpt lat="46.24562700" lon="6.99898000"><ele>415.537994424</ele><time>2008-11-01T13:21:06Z</time></trkpt>
<trkpt lat="46.24564000" lon="6.99900700"><ele>415.6789854552</ele><time>2008-11-01T13:21:07Z</time></trkpt>
<trkpt lat="46.24565900" lon="6.99902400"><ele>415.7179870536</ele><time>2008-11-01T13:21:08Z</time></trkpt>
<trkpt lat="46.24567700" lon="6.99902000"><ele>415.636993464</ele><time>2008-11-01T13:21:09Z</time></trkpt>
<trkpt lat="46.24569200" lon="6.99900000"><ele>415.7080079016</ele><time>2008-11-01T13:21:10Z</time></trkpt>
<trkpt lat="46.24570400" lon="6.99897200"><ele>415.6879883328</ele><time>2008-11-01T13:21:11Z</time></trkpt>
<trkpt lat="46.24572200" lon="6.99894300"><ele>415.6069947432</ele><time>2008-11-01T13:21:12Z</time></trkpt>
<trkpt lat="46.24574600" lon="6.99891600"><ele>415.516998276</ele><time>2008-11-01T13:21:13Z</time></trkpt>
<trkpt lat="46.24577300" lon="6.99889500"><ele>415.4570008344</ele><time>2008-11-01T13:21:14Z</time></trkpt>
<trkpt lat="46.24580300" lon="6.99887900"><ele>415.4070130248</ele><time>2008-11-01T13:21:15Z</time></trkpt>
<trkpt lat="46.24583400" lon="6.99886300"><ele>415.5880127136</ele><time>2008-11-01T13:21:16Z</time></trkpt>
<trkpt lat="46.24586500" lon="6.99884600"><ele>415.7380066224</ele><time>2008-11-01T13:21:17Z</time></trkpt>
<trkpt lat="46.24589500" lon="6.99882800"><ele>415.8689880216</ele><time>2008-11-01T13:21:18Z</time></trkpt>
<trkpt lat="46.24592400" lon="6.99880900"><ele>415.9689941208</ele><time>2008-11-01T13:21:19Z</time></trkpt>
<trkpt lat="46.24595400" lon="6.99879100"><ele>416.0889893088</ele><time>2008-11-01T13:21:20Z</time></trkpt>
<trkpt lat="46.24598300" lon="6.99877200"><ele>416.2090149768</ele><time>2008-11-01T13:21:21Z</time></trkpt>
<trkpt lat="46.24601200" lon="6.99875400"><ele>416.1979979808</ele><time>2008-11-01T13:21:22Z</time></trkpt>
<trkpt lat="46.24604200" lon="6.99873500"><ele>416.1879883488</ele><time>2008-11-01T13:21:23Z</time></trkpt>
<trkpt lat="46.24607200" lon="6.99871400"><ele>416.29800408</ele><time>2008-11-01T13:21:24Z</time></trkpt>
<trkpt lat="46.24610200" lon="6.99869500"><ele>416.3479918896</ele><time>2008-11-01T13:21:25Z</time></trkpt>
<trkpt lat="46.24613300" lon="6.99867700"><ele>416.4190063272</ele><time>2008-11-01T13:21:26Z</time></trkpt>
<trkpt lat="46.24616300" lon="6.99865900"><ele>416.4880066464</ele><time>2008-11-01T13:21:27Z</time></trkpt>
<trkpt lat="46.24619400" lon="6.99864000"><ele>416.4890137056</ele><time>2008-11-01T13:21:28Z</time></trkpt>
<trkpt lat="46.24622500" lon="6.99862400"><ele>416.3380127376</ele><time>2008-11-01T13:21:29Z</time></trkpt>
<trkpt lat="46.24625700" lon="6.99860900"><ele>416.3169861096</ele><time>2008-11-01T13:21:30Z</time></trkpt>
<trkpt lat="46.24628800" lon="6.99859200"><ele>416.3770140312</ele><time>2008-11-01T13:21:31Z</time></trkpt>
<trkpt lat="46.24631900" lon="6.99857400"><ele>416.3670043992</ele><time>2008-11-01T13:21:32Z</time></trkpt>
<trkpt lat="46.24635000" lon="6.99855400"><ele>416.3770140312</ele><time>2008-11-01T13:21:33Z</time></trkpt>
<trkpt lat="46.24638000" lon="6.99853400"><ele>416.3770140312</ele><time>2008-11-01T13:21:34Z</time></trkpt>
<trkpt lat="46.24641200" lon="6.99851700"><ele>416.386993488</ele><time>2008-11-01T13:21:35Z</time></trkpt>
<trkpt lat="46.24644400" lon="6.99850000"><ele>416.4580079256</ele><time>2008-11-01T13:21:36Z</time></trkpt>
<trkpt lat="46.24647500" lon="6.99848200"><ele>416.6380005552</ele><time>2008-11-01T13:21:37Z</time></trkpt>
<trkpt lat="46.24650700" lon="6.99846300"><ele>416.7470092272</ele><time>2008-11-01T13:21:38Z</time></trkpt>
<trkpt lat="46.24653900" lon="6.99844700"><ele>416.9070130728</ele><time>2008-11-01T13:21:39Z</time></trkpt>
<trkpt lat="46.24657100" lon="6.99843200"><ele>417.0679931928</ele><time>2008-11-01T13:21:40Z</time></trkpt>
<trkpt lat="46.24660400" lon="6.99841700"><ele>417.0780028248</ele><time>2008-11-01T13:21:41Z</time></trkpt>
<trkpt lat="46.24663600" lon="6.99839900"><ele>417.1879883808</ele><time>2008-11-01T13:21:42Z</time></trkpt>
<trkpt lat="46.24666800" lon="6.99838000"><ele>417.3380127696</ele><time>2008-11-01T13:21:43Z</time></trkpt>
<trkpt lat="46.24669900" lon="6.99836000"><ele>417.4580079576</ele><time>2008-11-01T13:21:44Z</time></trkpt>
<trkpt lat="46.24673100" lon="6.99834200"><ele>417.7690124664</ele><time>2008-11-01T13:21:45Z</time></trkpt>
<trkpt lat="46.24676200" lon="6.99832300"><ele>418.0490111952</ele><time>2008-11-01T13:21:46Z</time></trkpt>
<trkpt lat="46.24679200" lon="6.99830100"><ele>418.4190063912</ele><time>2008-11-01T13:21:47Z</time></trkpt>
<trkpt lat="46.24682400" lon="6.99828000"><ele>418.5090025536</ele><time>2008-11-01T13:21:48Z</time></trkpt>
<trkpt lat="46.24685700" lon="6.99826100"><ele>418.6390076784</ele><time>2008-11-01T13:21:49Z</time></trkpt>
<trkpt lat="46.24689000" lon="6.99824400"><ele>418.709014752</ele><time>2008-11-01T13:21:50Z</time></trkpt>
<trkpt lat="46.24692300" lon="6.99822700"><ele>418.7690124984</ele><time>2008-11-01T13:21:51Z</time></trkpt>
<trkpt lat="46.24695700" lon="6.99821000"><ele>418.79800416</ele><time>2008-11-01T13:21:52Z</time></trkpt>
<trkpt lat="46.24699000" lon="6.99819300"><ele>418.808013792</ele><time>2008-11-01T13:21:53Z</time></trkpt>
<trkpt lat="46.24702300" lon="6.99817500"><ele>418.8380128176</ele><time>2008-11-01T13:21:54Z</time></trkpt>
<trkpt lat="46.24705500" lon="6.99815600"><ele>419.0490112272</ele><time>2008-11-01T13:21:55Z</time></trkpt>
<trkpt lat="46.24708800" lon="6.99813800"><ele>419.079009948</ele><time>2008-11-01T13:21:56Z</time></trkpt>
<trkpt lat="46.24712000" lon="6.99812000"><ele>419.2900086624</ele><time>2008-11-01T13:21:57Z</time></trkpt>
<trkpt lat="46.24715200" lon="6.99810200"><ele>419.2990112352</ele><time>2008-11-01T13:21:58Z</time></trkpt>
<trkpt lat="46.24718200" lon="6.99808500"><ele>419.329009956</ele><time>2008-11-01T13:21:59Z</time></trkpt>
<trkpt lat="46.24721000" lon="6.99806900"><ele>419.5289916744</ele><time>2008-11-01T13:22:00Z</time></trkpt>
<trkpt lat="46.24723600" lon="6.99805100"><ele>419.7900086784</ele><time>2008-11-01T13:22:01Z</time></trkpt>
<trkpt lat="46.24726300" lon="6.99803200"><ele>420.0400086864</ele><time>2008-11-01T13:22:02Z</time></trkpt>
<trkpt lat="46.24729100" lon="6.99801400"><ele>420.07900998</ele><time>2008-11-01T13:22:03Z</time></trkpt>
<trkpt lat="46.24732100" lon="6.99799700"><ele>420.1380003624</ele><time>2008-11-01T13:22:04Z</time></trkpt>
<trkpt lat="46.24735100" lon="6.99798100"><ele>420.1080016416</ele><time>2008-11-01T13:22:05Z</time></trkpt>
<trkpt lat="46.24738100" lon="6.99796300"><ele>420.0280151112</ele><time>2008-11-01T13:22:06Z</time></trkpt>
<trkpt lat="46.24741100" lon="6.99794600"><ele>419.9270019528</ele><time>2008-11-01T13:22:07Z</time></trkpt>
<trkpt lat="46.24744100" lon="6.99793100"><ele>419.777008044</ele><time>2008-11-01T13:22:08Z</time></trkpt>
<trkpt lat="46.24747000" lon="6.99791600"><ele>419.7470093232</ele><time>2008-11-01T13:22:09Z</time></trkpt>
<trkpt lat="46.24749900" lon="6.99790000"><ele>419.7780151032</ele><time>2008-11-01T13:22:10Z</time></trkpt>
<trkpt lat="46.24752700" lon="6.99788300"><ele>419.798004192</ele><time>2008-11-01T13:22:11Z</time></trkpt>
<trkpt lat="46.24755400" lon="6.99786800"><ele>419.7269897544</ele><time>2008-11-01T13:22:12Z</time></trkpt>
<trkpt lat="46.24758200" lon="6.99785300"><ele>419.7179871816</ele><time>2008-11-01T13:22:13Z</time></trkpt>
<trkpt lat="46.24761000" lon="6.99783800"><ele>419.687988156</ele><time>2008-11-01T13:22:14Z</time></trkpt>
<trkpt lat="46.24763700" lon="6.99782300"><ele>419.7080077248</ele><time>2008-11-01T13:22:15Z</time></trkpt>
<trkpt lat="46.24766500" lon="6.99780800"><ele>419.7279968136</ele><time>2008-11-01T13:22:16Z</time></trkpt>
<trkpt lat="46.24769300" lon="6.99779400"><ele>419.7839964984</ele><time>2008-11-01T13:22:17Z</time></trkpt>
<trkpt lat="46.24772200" lon="6.99777700"><ele>419.7879942552</ele><time>2008-11-01T13:22:18Z</time></trkpt>
<trkpt lat="46.24775100" lon="6.99776100"><ele>419.808013824</ele><time>2008-11-01T13:22:19Z</time></trkpt>
<trkpt lat="46.24778000" lon="6.99774400"><ele>419.8779907224</ele><time>2008-11-01T13:22:20Z</time></trkpt>
<trkpt lat="46.24781000" lon="6.99772800"><ele>419.8779907224</ele><time>2008-11-01T13:22:21Z</time></trkpt>
<trkpt lat="46.24783900" lon="6.99771300"><ele>419.8779907224</ele><time>2008-11-01T13:22:22Z</time></trkpt>
<trkpt lat="46.24786800" lon="6.99769900"><ele>419.8779907224</ele><time>2008-11-01T13:22:23Z</time></trkpt>
<trkpt lat="46.24789800" lon="6.99768400"><ele>419.8779907224</ele><time>2008-11-01T13:22:24Z</time></trkpt>
<trkpt lat="46.24792700" lon="6.99766900"><ele>419.9079894432</ele><time>2008-11-01T13:22:25Z</time></trkpt>
<trkpt lat="46.24795600" lon="6.99765200"><ele>419.928009012</ele><time>2008-11-01T13:22:26Z</time></trkpt>
<trkpt lat="46.24798600" lon="6.99763500"><ele>419.937988164</ele><time>2008-11-01T13:22:27Z</time></trkpt>
<trkpt lat="46.24801600" lon="6.99761800"><ele>419.9479981008</ele><time>2008-11-01T13:22:28Z</time></trkpt>
<trkpt lat="46.24804800" lon="6.99760200"><ele>419.9079894432</ele><time>2008-11-01T13:22:29Z</time></trkpt>
<trkpt lat="46.24808000" lon="6.99758400"><ele>419.8680115704</ele><time>2008-11-01T13:22:30Z</time></trkpt>
<trkpt lat="46.24811200" lon="6.99756600"><ele>419.7269897544</ele><time>2008-11-01T13:22:31Z</time></trkpt>
<trkpt lat="46.24814400" lon="6.99754900"><ele>419.6369932872</ele><time>2008-11-01T13:22:32Z</time></trkpt>
<trkpt lat="46.24817600" lon="6.99753300"><ele>419.657012856</ele><time>2008-11-01T13:22:33Z</time></trkpt>
<trkpt lat="46.24820800" lon="6.99751600"><ele>419.6870115768</ele><time>2008-11-01T13:22:34Z</time></trkpt>
<trkpt lat="46.24824000" lon="6.99750000"><ele>419.6770019448</ele><time>2008-11-01T13:22:35Z</time></trkpt>
<trkpt lat="46.24827100" lon="6.99748200"><ele>419.7579955344</ele><time>2008-11-01T13:22:36Z</time></trkpt>
<trkpt lat="46.24830000" lon="6.99746100"><ele>419.8479920016</ele><time>2008-11-01T13:22:37Z</time></trkpt>
<trkpt lat="46.24832800" lon="6.99744400"><ele>419.7179871816</ele><time>2008-11-01T13:22:38Z</time></trkpt>
<trkpt lat="46.24835400" lon="6.99742600"><ele>419.678009004</ele><time>2008-11-01T13:22:39Z</time></trkpt>
<trkpt lat="46.24836800" lon="6.99739800"><ele>419.5880128416</ele><time>2008-11-01T13:22:40Z</time></trkpt>
<trkpt lat="46.24836100" lon="6.99736700"><ele>419.5379942472</ele><time>2008-11-01T13:22:41Z</time></trkpt>
<trkpt lat="46.24834000" lon="6.99735700"><ele>419.5079955264</ele><time>2008-11-01T13:22:42Z</time></trkpt>
<trkpt lat="46.24832300" lon="6.99737500"><ele>419.4479980848</ele><time>2008-11-01T13:22:43Z</time></trkpt>
<trkpt lat="46.24832200" lon="6.99740400"><ele>419.437988148</ele><time>2008-11-01T13:22:44Z</time></trkpt>
<trkpt lat="46.24833800" lon="6.99741800"><ele>419.428008996</ele><time>2008-11-01T13:22:45Z</time></trkpt>
<trkpt lat="46.24836100" lon="6.99741700"><ele>419.3779907064</ele><time>2008-11-01T13:22:46Z</time></trkpt>
<trkpt lat="46.24838200" lon="6.99742100"><ele>419.2780150872</ele><time>2008-11-01T13:22:47Z</time></trkpt>
<trkpt lat="46.24840100" lon="6.99743700"><ele>419.3980102752</ele><time>2008-11-01T13:22:48Z</time></trkpt>
<trkpt lat="46.24842000" lon="6.99744600"><ele>419.4979858944</ele><time>2008-11-01T13:22:49Z</time></trkpt>
<trkpt lat="46.24843600" lon="6.99744100"><ele>419.4979858944</ele><time>2008-11-01T13:22:50Z</time></trkpt>
<trkpt lat="46.24844900" lon="6.99742900"><ele>419.6690064312</ele><time>2008-11-01T13:22:51Z</time></trkpt>
<trkpt lat="46.24845800" lon="6.99741300"><ele>419.8689881496</ele><time>2008-11-01T13:22:52Z</time></trkpt>
<trkpt lat="46.24846100" lon="6.99739100"><ele>420.1589965104</ele><time>2008-11-01T13:22:53Z</time></trkpt>
<trkpt lat="46.24846300" lon="6.99736700"><ele>420.2690125464</ele><time>2008-11-01T13:22:54Z</time></trkpt>
<trkpt lat="46.24845900" lon="6.99734600"><ele>420.730010964</ele><time>2008-11-01T13:22:55Z</time></trkpt>
<trkpt lat="46.24845000" lon="6.99732500"><ele>421.0490112912</ele><time>2008-11-01T13:22:56Z</time></trkpt>
<trkpt lat="46.24843700" lon="6.99731500"><ele>420.8880003864</ele><time>2008-11-01T13:22:57Z</time></trkpt>
<trkpt lat="46.24842100" lon="6.99731400"><ele>420.7179869088</ele><time>2008-11-01T13:22:58Z</time></trkpt>
<trkpt lat="46.24840400" lon="6.99731500"><ele>420.548004216</ele><time>2008-11-01T13:22:59Z</time></trkpt>
<trkpt lat="46.24839000" lon="6.99732400"><ele>420.4570006896</ele><time>2008-11-01T13:23:00Z</time></trkpt>
<trkpt lat="46.24838300" lon="6.99734400"><ele>420.3980103072</ele><time>2008-11-01T13:23:01Z</time></trkpt>
<trkpt lat="46.24838500" lon="6.99736700"><ele>420.3580016496</ele><time>2008-11-01T13:23:02Z</time></trkpt>
<trkpt lat="46.24840000" lon="6.99738200"><ele>420.3179932968</ele><time>2008-11-01T13:23:03Z</time></trkpt>
<trkpt lat="46.24842300" lon="6.99737900"><ele>420.3580016496</ele><time>2008-11-01T13:23:04Z</time></trkpt>
<trkpt lat="46.24845100" lon="6.99736500"><ele>420.4790038968</ele><time>2008-11-01T13:23:05Z</time></trkpt>
<trkpt lat="46.24848100" lon="6.99735000"><ele>420.7189942728</ele><time>2008-11-01T13:23:06Z</time></trkpt>
<trkpt lat="46.24851300" lon="6.99733500"><ele>420.7290039048</ele><time>2008-11-01T13:23:07Z</time></trkpt>
<trkpt lat="46.24854400" lon="6.99731900"><ele>420.7690125624</ele><time>2008-11-01T13:23:08Z</time></trkpt>
<trkpt lat="46.24857400" lon="6.99730300"><ele>421.0289917224</ele><time>2008-11-01T13:23:09Z</time></trkpt>
<trkpt lat="46.24860300" lon="6.99728700"><ele>421.2690125784</ele><time>2008-11-01T13:23:10Z</time></trkpt>
<trkpt lat="46.24863200" lon="6.99727100"><ele>421.2179869248</ele><time>2008-11-01T13:23:11Z</time></trkpt>
<trkpt lat="46.24866100" lon="6.99725600"><ele>421.1579894832</ele><time>2008-11-01T13:23:12Z</time></trkpt>
<trkpt lat="46.24869000" lon="6.99724300"><ele>421.1080016736</ele><time>2008-11-01T13:23:13Z</time></trkpt>
<trkpt lat="46.24871900" lon="6.99722900"><ele>421.048004232</ele><time>2008-11-01T13:23:14Z</time></trkpt>
<trkpt lat="46.24874700" lon="6.99721300"><ele>420.9570007056</ele><time>2008-11-01T13:23:15Z</time></trkpt>
<trkpt lat="46.24877500" lon="6.99719600"><ele>420.8269958856</ele><time>2008-11-01T13:23:16Z</time></trkpt>
<trkpt lat="46.24880400" lon="6.99718000"><ele>420.7969971648</ele><time>2008-11-01T13:23:17Z</time></trkpt>
<trkpt lat="46.24883300" lon="6.99716300"><ele>420.7080077568</ele><time>2008-11-01T13:23:18Z</time></trkpt>
<trkpt lat="46.24886200" lon="6.99714800"><ele>420.6080016576</ele><time>2008-11-01T13:23:19Z</time></trkpt>
<trkpt lat="46.24889200" lon="6.99713200"><ele>420.667999404</ele><time>2008-11-01T13:23:20Z</time></trkpt>
<trkpt lat="46.24892000" lon="6.99711300"><ele>420.9190064712</ele><time>2008-11-01T13:23:21Z</time></trkpt>
<trkpt lat="46.24894900" lon="6.99709500"><ele>420.9500122512</ele><time>2008-11-01T13:23:22Z</time></trkpt>
<trkpt lat="46.24897900" lon="6.99707700"><ele>420.8789978136</ele><time>2008-11-01T13:23:23Z</time></trkpt>
<trkpt lat="46.24901000" lon="6.99706100"><ele>420.7479859344</ele><time>2008-11-01T13:23:24Z</time></trkpt>
<trkpt lat="46.24904100" lon="6.99704400"><ele>420.687988188</ele><time>2008-11-01T13:23:25Z</time></trkpt>
<trkpt lat="46.24907100" lon="6.99702600"><ele>420.6289978056</ele><time>2008-11-01T13:23:26Z</time></trkpt>
<trkpt lat="46.24910100" lon="6.99700600"><ele>420.4979859264</ele><time>2008-11-01T13:23:27Z</time></trkpt>
<trkpt lat="46.24913100" lon="6.99698900"><ele>420.4079894592</ele><time>2008-11-01T13:23:28Z</time></trkpt>
<trkpt lat="46.24916100" lon="6.99697300"><ele>420.3179932968</ele><time>2008-11-01T13:23:29Z</time></trkpt>
<trkpt lat="46.24919200" lon="6.99695700"><ele>420.187988172</ele><time>2008-11-01T13:23:30Z</time></trkpt>
<trkpt lat="46.24922300" lon="6.99694300"><ele>419.7969971328</ele><time>2008-11-01T13:23:31Z</time></trkpt>
<trkpt lat="46.24925400" lon="6.99692800"><ele>419.4970093152</ele><time>2008-11-01T13:23:32Z</time></trkpt>
<trkpt lat="46.24928400" lon="6.99691000"><ele>419.4370115688</ele><time>2008-11-01T13:23:33Z</time></trkpt>
<trkpt lat="46.24931500" lon="6.99689400"><ele>419.3169862056</ele><time>2008-11-01T13:23:34Z</time></trkpt>
<trkpt lat="46.24934600" lon="6.99687900"><ele>419.1969910176</ele><time>2008-11-01T13:23:35Z</time></trkpt>
<trkpt lat="46.24937700" lon="6.99686400"><ele>419.1069945504</ele><time>2008-11-01T13:23:36Z</time></trkpt>
<trkpt lat="46.24940800" lon="6.99684700"><ele>419.0669861976</ele><time>2008-11-01T13:23:37Z</time></trkpt>
<trkpt lat="46.24944000" lon="6.99683000"><ele>419.1380006352</ele><time>2008-11-01T13:23:38Z</time></trkpt>
<trkpt lat="46.24947100" lon="6.99681400"><ele>419.18798814</ele><time>2008-11-01T13:23:39Z</time></trkpt>
<trkpt lat="46.24950300" lon="6.99679900"><ele>419.2080077088</ele><time>2008-11-01T13:23:40Z</time></trkpt>
<trkpt lat="46.24953600" lon="6.99678300"><ele>419.2080077088</ele><time>2008-11-01T13:23:41Z</time></trkpt>
<trkpt lat="46.24956800" lon="6.99676500"><ele>419.2680054552</ele><time>2008-11-01T13:23:42Z</time></trkpt>
<trkpt lat="46.24960100" lon="6.99674700"><ele>419.2680054552</ele><time>2008-11-01T13:23:43Z</time></trkpt>
<trkpt lat="46.24963200" lon="6.99673000"><ele>419.6480102832</ele><time>2008-11-01T13:23:44Z</time></trkpt>
<trkpt lat="46.24966400" lon="6.99671200"><ele>420.0280151112</ele><time>2008-11-01T13:23:45Z</time></trkpt>
<trkpt lat="46.24969600" lon="6.99669400"><ele>420.3880003704</ele><time>2008-11-01T13:23:46Z</time></trkpt>
<trkpt lat="46.24972700" lon="6.99667600"><ele>420.7479859344</ele><time>2008-11-01T13:23:47Z</time></trkpt>
<trkpt lat="46.24975800" lon="6.99665700"><ele>421.067993016</ele><time>2008-11-01T13:23:48Z</time></trkpt>
<trkpt lat="46.24978700" lon="6.99663800"><ele>421.1870116248</ele><time>2008-11-01T13:23:49Z</time></trkpt>
<trkpt lat="46.24981600" lon="6.99661900"><ele>421.2170106504</ele><time>2008-11-01T13:23:50Z</time></trkpt>
<trkpt lat="46.24984500" lon="6.99660400"><ele>421.3269959016</ele><time>2008-11-01T13:23:51Z</time></trkpt>
<trkpt lat="46.24987500" lon="6.99658800"><ele>421.277008092</ele><time>2008-11-01T13:23:52Z</time></trkpt>
<trkpt lat="46.24990400" lon="6.99657100"><ele>421.2569885232</ele><time>2008-11-01T13:23:53Z</time></trkpt>
<trkpt lat="46.24993200" lon="6.99655400"><ele>421.3370055336</ele><time>2008-11-01T13:23:54Z</time></trkpt>
<trkpt lat="46.24996000" lon="6.99653800"><ele>421.5069885312</ele><time>2008-11-01T13:23:55Z</time></trkpt>
<trkpt lat="46.24998900" lon="6.99652200"><ele>421.7479859664</ele><time>2008-11-01T13:23:56Z</time></trkpt>
<trkpt lat="46.25002000" lon="6.99650500"><ele>421.7479859664</ele><time>2008-11-01T13:23:57Z</time></trkpt>
<trkpt lat="46.25005000" lon="6.99648900"><ele>421.7680052304</ele><time>2008-11-01T13:23:58Z</time></trkpt>
<trkpt lat="46.25008100" lon="6.99647300"><ele>421.7290039368</ele><time>2008-11-01T13:23:59Z</time></trkpt>
<trkpt lat="46.25011100" lon="6.99645800"><ele>421.6579894992</ele><time>2008-11-01T13:24:00Z</time></trkpt>
<trkpt lat="46.25014200" lon="6.99644300"><ele>421.55801388</ele><time>2008-11-01T13:24:01Z</time></trkpt>
<trkpt lat="46.25017300" lon="6.99642800"><ele>421.437988212</ele><time>2008-11-01T13:24:02Z</time></trkpt>
<trkpt lat="46.25020500" lon="6.99641400"><ele>421.3070068128</ele><time>2008-11-01T13:24:03Z</time></trkpt>
<trkpt lat="46.25023700" lon="6.99639800"><ele>421.166992056</ele><time>2008-11-01T13:24:04Z</time></trkpt>
<trkpt lat="46.25027000" lon="6.99638100"><ele>421.036987236</ele><time>2008-11-01T13:24:05Z</time></trkpt>
<trkpt lat="46.25030200" lon="6.99636200"><ele>420.9370116168</ele><time>2008-11-01T13:24:06Z</time></trkpt>
<trkpt lat="46.25033300" lon="6.99634100"><ele>420.8469849744</ele><time>2008-11-01T13:24:07Z</time></trkpt>
<trkpt lat="46.25036400" lon="6.99632100"><ele>420.7569885072</ele><time>2008-11-01T13:24:08Z</time></trkpt>
<trkpt lat="46.25039500" lon="6.99630400"><ele>420.66699204</ele><time>2008-11-01T13:24:09Z</time></trkpt>
<trkpt lat="46.25042600" lon="6.99628800"><ele>420.5769958776</ele><time>2008-11-01T13:24:10Z</time></trkpt>
<trkpt lat="46.25045700" lon="6.99627300"><ele>420.4970093472</ele><time>2008-11-01T13:24:11Z</time></trkpt>
<trkpt lat="46.25048700" lon="6.99625800"><ele>420.4169923368</ele><time>2008-11-01T13:24:12Z</time></trkpt>
<trkpt lat="46.25051700" lon="6.99624000"><ele>420.3580016496</ele><time>2008-11-01T13:24:13Z</time></trkpt>
<trkpt lat="46.25054500" lon="6.99622400"><ele>420.286987212</ele><time>2008-11-01T13:24:14Z</time></trkpt>
<trkpt lat="46.25057400" lon="6.99620800"><ele>420.1069945824</ele><time>2008-11-01T13:24:15Z</time></trkpt>
<trkpt lat="46.25060300" lon="6.99619200"><ele>420.027008052</ele><time>2008-11-01T13:24:16Z</time></trkpt>
<trkpt lat="46.25063200" lon="6.99617800"><ele>419.937988164</ele><time>2008-11-01T13:24:17Z</time></trkpt>
<trkpt lat="46.25066200" lon="6.99616300"><ele>419.8670045112</ele><time>2008-11-01T13:24:18Z</time></trkpt>
<trkpt lat="46.25069200" lon="6.99614700"><ele>419.777008044</ele><time>2008-11-01T13:24:19Z</time></trkpt>
<trkpt lat="46.25072300" lon="6.99613100"><ele>419.6969910336</ele><time>2008-11-01T13:24:20Z</time></trkpt>
<trkpt lat="46.25075500" lon="6.99611500"><ele>419.6170045032</ele><time>2008-11-01T13:24:21Z</time></trkpt>
<trkpt lat="46.25078800" lon="6.99609900"><ele>419.4670105944</ele><time>2008-11-01T13:24:22Z</time></trkpt>
<trkpt lat="46.25082100" lon="6.99608300"><ele>419.277008028</ele><time>2008-11-01T13:24:23Z</time></trkpt>
<trkpt lat="46.25085400" lon="6.99606700"><ele>419.0669861976</ele><time>2008-11-01T13:24:24Z</time></trkpt>
<trkpt lat="46.25088700" lon="6.99605100"><ele>418.8670044792</ele><time>2008-11-01T13:24:25Z</time></trkpt>
<trkpt lat="46.25091900" lon="6.99603400"><ele>418.7470092912</ele><time>2008-11-01T13:24:26Z</time></trkpt>
<trkpt lat="46.25095200" lon="6.99601500"><ele>418.6270141032</ele><time>2008-11-01T13:24:27Z</time></trkpt>
<trkpt lat="46.25098400" lon="6.99599700"><ele>418.5880128096</ele><time>2008-11-01T13:24:28Z</time></trkpt>
<trkpt lat="46.25101700" lon="6.99598000"><ele>418.6080015936</ele><time>2008-11-01T13:24:29Z</time></trkpt>
<trkpt lat="46.25105000" lon="6.99596300"><ele>418.558013784</ele><time>2008-11-01T13:24:30Z</time></trkpt>
<trkpt lat="46.25108300" lon="6.99594600"><ele>418.548004152</ele><time>2008-11-01T13:24:31Z</time></trkpt>
<trkpt lat="46.25111600" lon="6.99592800"><ele>418.5280150632</ele><time>2008-11-01T13:24:32Z</time></trkpt>
<trkpt lat="46.25114800" lon="6.99591100"><ele>418.4379884208</ele><time>2008-11-01T13:24:33Z</time></trkpt>
<trkpt lat="46.25118000" lon="6.99589400"><ele>418.4079893952</ele><time>2008-11-01T13:24:34Z</time></trkpt>
<trkpt lat="46.25121200" lon="6.99587600"><ele>418.3680115224</ele><time>2008-11-01T13:24:35Z</time></trkpt>
<trkpt lat="46.25124300" lon="6.99585800"><ele>418.3779906744</ele><time>2008-11-01T13:24:36Z</time></trkpt>
<trkpt lat="46.25127400" lon="6.99583900"><ele>418.3779906744</ele><time>2008-11-01T13:24:37Z</time></trkpt>
<trkpt lat="46.25130500" lon="6.99582000"><ele>418.3580015856</ele><time>2008-11-01T13:24:38Z</time></trkpt>
<trkpt lat="46.25133600" lon="6.99580200"><ele>418.3479919536</ele><time>2008-11-01T13:24:39Z</time></trkpt>
<trkpt lat="46.25136700" lon="6.99578600"><ele>418.3179932328</ele><time>2008-11-01T13:24:40Z</time></trkpt>
<trkpt lat="46.25140000" lon="6.99577200"><ele>418.277007996</ele><time>2008-11-01T13:24:41Z</time></trkpt>
<trkpt lat="46.25143100" lon="6.99575700"><ele>418.2680054232</ele><time>2008-11-01T13:24:42Z</time></trkpt>
<trkpt lat="46.25146200" lon="6.99574100"><ele>418.2479858544</ele><time>2008-11-01T13:24:43Z</time></trkpt>
<trkpt lat="46.25149300" lon="6.99572500"><ele>418.2179871336</ele><time>2008-11-01T13:24:44Z</time></trkpt>
<trkpt lat="46.25152400" lon="6.99570800"><ele>418.178008956</ele><time>2008-11-01T13:24:45Z</time></trkpt>
<trkpt lat="46.25155400" lon="6.99568900"><ele>418.1380006032</ele><time>2008-11-01T13:24:46Z</time></trkpt>
<trkpt lat="46.25158600" lon="6.99567100"><ele>418.037994504</ele><time>2008-11-01T13:24:47Z</time></trkpt>
<trkpt lat="46.25162000" lon="6.99565000"><ele>418.0780028568</ele><time>2008-11-01T13:24:48Z</time></trkpt>
<trkpt lat="46.25165600" lon="6.99562700"><ele>418.1279906664</ele><time>2008-11-01T13:24:49Z</time></trkpt>
<trkpt lat="46.25169500" lon="6.99560500"><ele>418.1180115144</ele><time>2008-11-01T13:24:50Z</time></trkpt>
<trkpt lat="46.25173400" lon="6.99558500"><ele>418.0679932248</ele><time>2008-11-01T13:24:51Z</time></trkpt>
<trkpt lat="46.25177300" lon="6.99556600"><ele>418.0280150472</ele><time>2008-11-01T13:24:52Z</time></trkpt>
<trkpt lat="46.25181100" lon="6.99554600"><ele>418.0079954784</ele><time>2008-11-01T13:24:53Z</time></trkpt>
<trkpt lat="46.25184900" lon="6.99552300"><ele>417.9880066944</ele><time>2008-11-01T13:24:54Z</time></trkpt>
<trkpt lat="46.25188700" lon="6.99550300"><ele>417.9679871256</ele><time>2008-11-01T13:24:55Z</time></trkpt>
<trkpt lat="46.25192500" lon="6.99548400"><ele>417.9270018888</ele><time>2008-11-01T13:24:56Z</time></trkpt>
<trkpt lat="46.25196300" lon="6.99546500"><ele>417.8880005952</ele><time>2008-11-01T13:24:57Z</time></trkpt>
<trkpt lat="46.25200100" lon="6.99544300"><ele>417.8569945104</ele><time>2008-11-01T13:24:58Z</time></trkpt>
<trkpt lat="46.25203900" lon="6.99542200"><ele>417.8169861576</ele><time>2008-11-01T13:24:59Z</time></trkpt>
<trkpt lat="46.25207700" lon="6.99540200"><ele>417.798004128</ele><time>2008-11-01T13:25:00Z</time></trkpt>
<trkpt lat="46.25211400" lon="6.99538100"><ele>417.7680054072</ele><time>2008-11-01T13:25:01Z</time></trkpt>
<trkpt lat="46.25215100" lon="6.99536100"><ele>417.7380066864</ele><time>2008-11-01T13:25:02Z</time></trkpt>
<trkpt lat="46.25218700" lon="6.99534000"><ele>417.7170105384</ele><time>2008-11-01T13:25:03Z</time></trkpt>
<trkpt lat="46.25222200" lon="6.99532100"><ele>417.7080076608</ele><time>2008-11-01T13:25:04Z</time></trkpt>
<trkpt lat="46.25225700" lon="6.99530000"><ele>417.67800894</ele><time>2008-11-01T13:25:05Z</time></trkpt>
<trkpt lat="46.25229000" lon="6.99527900"><ele>417.67800894</ele><time>2008-11-01T13:25:06Z</time></trkpt>
<trkpt lat="46.25232400" lon="6.99525800"><ele>417.6669922488</ele><time>2008-11-01T13:25:07Z</time></trkpt>
<trkpt lat="46.25235700" lon="6.99523900"><ele>417.6770018808</ele><time>2008-11-01T13:25:08Z</time></trkpt>
<trkpt lat="46.25238900" lon="6.99522100"><ele>417.6770018808</ele><time>2008-11-01T13:25:09Z</time></trkpt>
<trkpt lat="46.25242100" lon="6.99520300"><ele>417.6480102192</ele><time>2008-11-01T13:25:10Z</time></trkpt>
<trkpt lat="46.25245400" lon="6.99518600"><ele>417.6279906504</ele><time>2008-11-01T13:25:11Z</time></trkpt>
<trkpt lat="46.25248700" lon="6.99517000"><ele>417.5780028408</ele><time>2008-11-01T13:25:12Z</time></trkpt>
<trkpt lat="46.25252000" lon="6.99515400"><ele>417.5280150312</ele><time>2008-11-01T13:25:13Z</time></trkpt>
<trkpt lat="46.25255400" lon="6.99513800"><ele>417.537994488</ele><time>2008-11-01T13:25:14Z</time></trkpt>
<trkpt lat="46.25258700" lon="6.99512000"><ele>417.5079954624</ele><time>2008-11-01T13:25:15Z</time></trkpt>
<trkpt lat="46.25261900" lon="6.99509900"><ele>417.4679871096</ele><time>2008-11-01T13:25:16Z</time></trkpt>
<trkpt lat="46.25265300" lon="6.99507900"><ele>417.3890076384</ele><time>2008-11-01T13:25:17Z</time></trkpt>
<trkpt lat="46.25268700" lon="6.99506100"><ele>417.3479919216</ele><time>2008-11-01T13:25:18Z</time></trkpt>
<trkpt lat="46.25272200" lon="6.99504500"><ele>417.266998332</ele><time>2008-11-01T13:25:19Z</time></trkpt>
<trkpt lat="46.25275600" lon="6.99502800"><ele>417.2269896744</ele><time>2008-11-01T13:25:20Z</time></trkpt>
<trkpt lat="46.25279000" lon="6.99501000"><ele>417.1870118016</ele><time>2008-11-01T13:25:21Z</time></trkpt>
<trkpt lat="46.25282400" lon="6.99499200"><ele>417.147003144</ele><time>2008-11-01T13:25:22Z</time></trkpt>
<trkpt lat="46.25285800" lon="6.99497300"><ele>417.0969848544</ele><time>2008-11-01T13:25:23Z</time></trkpt>
<trkpt lat="46.25289100" lon="6.99495500"><ele>417.0769957656</ele><time>2008-11-01T13:25:24Z</time></trkpt>
<trkpt lat="46.25292500" lon="6.99493600"><ele>417.0570069816</ele><time>2008-11-01T13:25:25Z</time></trkpt>
<trkpt lat="46.25295900" lon="6.99491700"><ele>417.027007956</ele><time>2008-11-01T13:25:26Z</time></trkpt>
<trkpt lat="46.25299200" lon="6.99489800"><ele>416.9970092352</ele><time>2008-11-01T13:25:27Z</time></trkpt>
<trkpt lat="46.25302600" lon="6.99487900"><ele>416.9670105144</ele><time>2008-11-01T13:25:28Z</time></trkpt>
<trkpt lat="46.25306000" lon="6.99486000"><ele>416.9370117936</ele><time>2008-11-01T13:25:29Z</time></trkpt>
<trkpt lat="46.25309300" lon="6.99484300"><ele>416.9679870936</ele><time>2008-11-01T13:25:30Z</time></trkpt>
<trkpt lat="46.25312600" lon="6.99482600"><ele>416.9779967256</ele><time>2008-11-01T13:25:31Z</time></trkpt>
<trkpt lat="46.25315900" lon="6.99480800"><ele>417.0280150152</ele><time>2008-11-01T13:25:32Z</time></trkpt>
<trkpt lat="46.25319200" lon="6.99478900"><ele>417.037994472</ele><time>2008-11-01T13:25:33Z</time></trkpt>
<trkpt lat="46.25322600" lon="6.99477100"><ele>417.037994472</ele><time>2008-11-01T13:25:34Z</time></trkpt>
<trkpt lat="46.25325900" lon="6.99475300"><ele>417.0580140408</ele><time>2008-11-01T13:25:35Z</time></trkpt>
<trkpt lat="46.25329200" lon="6.99473400"><ele>417.0679931928</ele><time>2008-11-01T13:25:36Z</time></trkpt>
<trkpt lat="46.25332400" lon="6.99471500"><ele>417.0880127616</ele><time>2008-11-01T13:25:37Z</time></trkpt>
<trkpt lat="46.25335800" lon="6.99469600"><ele>417.1080018504</ele><time>2008-11-01T13:25:38Z</time></trkpt>
<trkpt lat="46.25339100" lon="6.99467700"><ele>417.1180114824</ele><time>2008-11-01T13:25:39Z</time></trkpt>
<trkpt lat="46.25342400" lon="6.99465700"><ele>417.1080018504</ele><time>2008-11-01T13:25:40Z</time></trkpt>
<trkpt lat="46.25345800" lon="6.99463700"><ele>417.0780028248</ele><time>2008-11-01T13:25:41Z</time></trkpt>
<trkpt lat="46.25349200" lon="6.99461800"><ele>417.037994472</ele><time>2008-11-01T13:25:42Z</time></trkpt>
<trkpt lat="46.25352600" lon="6.99459900"><ele>417.0280150152</ele><time>2008-11-01T13:25:43Z</time></trkpt>
<trkpt lat="46.25356000" lon="6.99458100"><ele>417.0280150152</ele><time>2008-11-01T13:25:44Z</time></trkpt>
<trkpt lat="46.25359400" lon="6.99456300"><ele>417.037994472</ele><time>2008-11-01T13:25:45Z</time></trkpt>
<trkpt lat="46.25362800" lon="6.99454400"><ele>417.048004104</ele><time>2008-11-01T13:25:46Z</time></trkpt>
<trkpt lat="46.25366200" lon="6.99452500"><ele>417.0580140408</ele><time>2008-11-01T13:25:47Z</time></trkpt>
<trkpt lat="46.25369600" lon="6.99450600"><ele>417.0679931928</ele><time>2008-11-01T13:25:48Z</time></trkpt>
<trkpt lat="46.25372900" lon="6.99448800"><ele>417.1080018504</ele><time>2008-11-01T13:25:49Z</time></trkpt>
<trkpt lat="46.25376300" lon="6.99446900"><ele>417.1480102032</ele><time>2008-11-01T13:25:50Z</time></trkpt>
<trkpt lat="46.25379600" lon="6.99445000"><ele>417.1480102032</ele><time>2008-11-01T13:25:51Z</time></trkpt>
<trkpt lat="46.25383100" lon="6.99443000"><ele>417.0979919136</ele><time>2008-11-01T13:25:52Z</time></trkpt>
<trkpt lat="46.25386500" lon="6.99441100"><ele>417.0979919136</ele><time>2008-11-01T13:25:53Z</time></trkpt>
<trkpt lat="46.25389900" lon="6.99439100"><ele>417.1080018504</ele><time>2008-11-01T13:25:54Z</time></trkpt>
<trkpt lat="46.25393400" lon="6.99437300"><ele>417.1380005712</ele><time>2008-11-01T13:25:55Z</time></trkpt>
<trkpt lat="46.25396900" lon="6.99435600"><ele>417.1979980128</ele><time>2008-11-01T13:25:56Z</time></trkpt>
<trkpt lat="46.25400400" lon="6.99433700"><ele>417.1879883808</ele><time>2008-11-01T13:25:57Z</time></trkpt>
<trkpt lat="46.25403900" lon="6.99431800"><ele>417.1879883808</ele><time>2008-11-01T13:25:58Z</time></trkpt>
<trkpt lat="46.25407400" lon="6.99429900"><ele>417.2390137296</ele><time>2008-11-01T13:25:59Z</time></trkpt>
<trkpt lat="46.25410800" lon="6.99428300"><ele>417.2279967336</ele><time>2008-11-01T13:26:00Z</time></trkpt>
<trkpt lat="46.25414100" lon="6.99427100"><ele>417.167999292</ele><time>2008-11-01T13:26:01Z</time></trkpt>
<trkpt lat="46.25417400" lon="6.99426200"><ele>417.1380005712</ele><time>2008-11-01T13:26:02Z</time></trkpt>
<trkpt lat="46.25420500" lon="6.99425100"><ele>417.0979919136</ele><time>2008-11-01T13:26:03Z</time></trkpt>
<trkpt lat="46.25423800" lon="6.99424000"><ele>417.048004104</ele><time>2008-11-01T13:26:04Z</time></trkpt>
<trkpt lat="46.25427000" lon="6.99423000"><ele>416.9379883728</ele><time>2008-11-01T13:26:05Z</time></trkpt>
<trkpt lat="46.25430300" lon="6.99422500"><ele>416.8380127536</ele><time>2008-11-01T13:26:06Z</time></trkpt>
<trkpt lat="46.25433700" lon="6.99422600"><ele>416.7380066544</ele><time>2008-11-01T13:26:07Z</time></trkpt>
<trkpt lat="46.25437100" lon="6.99422900"><ele>416.657989644</ele><time>2008-11-01T13:26:08Z</time></trkpt>
<trkpt lat="46.25440500" lon="6.99423300"><ele>416.6480101872</ele><time>2008-11-01T13:26:09Z</time></trkpt>
<trkpt lat="46.25443900" lon="6.99424100"><ele>416.6180114664</ele><time>2008-11-01T13:26:10Z</time></trkpt>
<trkpt lat="46.25447200" lon="6.99425400"><ele>416.6189880456</ele><time>2008-11-01T13:26:11Z</time></trkpt>
<trkpt lat="46.25450400" lon="6.99427300"><ele>416.548004088</ele><time>2008-11-01T13:26:12Z</time></trkpt>
<trkpt lat="46.25453600" lon="6.99429700"><ele>416.537994456</ele><time>2008-11-01T13:26:13Z</time></trkpt>
<trkpt lat="46.25456600" lon="6.99432500"><ele>416.5490111472</ele><time>2008-11-01T13:26:14Z</time></trkpt>
<trkpt lat="46.25459400" lon="6.99435400"><ele>416.558990604</ele><time>2008-11-01T13:26:15Z</time></trkpt>
<trkpt lat="46.25462200" lon="6.99438600"><ele>416.569000236</ele><time>2008-11-01T13:26:16Z</time></trkpt>
<trkpt lat="46.25464700" lon="6.99442100"><ele>416.6140137096</ele><time>2008-11-01T13:26:17Z</time></trkpt>
<trkpt lat="46.25467100" lon="6.99445800"><ele>416.6789854872</ele><time>2008-11-01T13:26:18Z</time></trkpt>
<trkpt lat="46.25469500" lon="6.99449300"><ele>416.7489928656</ele><time>2008-11-01T13:26:19Z</time></trkpt>
<trkpt lat="46.25471800" lon="6.99452800"><ele>416.850006024</ele><time>2008-11-01T13:26:20Z</time></trkpt>
<trkpt lat="46.25474100" lon="6.99456300"><ele>416.9400024912</ele><time>2008-11-01T13:26:21Z</time></trkpt>
<trkpt lat="46.25476300" lon="6.99459900"><ele>417.0199890216</ele><time>2008-11-01T13:26:22Z</time></trkpt>
<trkpt lat="46.25478400" lon="6.99463600"><ele>417.1199951208</ele><time>2008-11-01T13:26:23Z</time></trkpt>
<trkpt lat="46.25480500" lon="6.99467500"><ele>417.209991588</ele><time>2008-11-01T13:26:24Z</time></trkpt>
<trkpt lat="46.25482500" lon="6.99471400"><ele>417.3099976872</ele><time>2008-11-01T13:26:25Z</time></trkpt>
<trkpt lat="46.25484500" lon="6.99475200"><ele>417.4200134184</ele><time>2008-11-01T13:26:26Z</time></trkpt>
<trkpt lat="46.25486400" lon="6.99479100"><ele>417.5199890376</ele><time>2008-11-01T13:26:27Z</time></trkpt>
<trkpt lat="46.25488400" lon="6.99482900"><ele>417.6199951368</ele><time>2008-11-01T13:26:28Z</time></trkpt>
<trkpt lat="46.25490500" lon="6.99486700"><ele>417.7399903248</ele><time>2008-11-01T13:26:29Z</time></trkpt>
<trkpt lat="46.25492700" lon="6.99490500"><ele>417.850006056</ele><time>2008-11-01T13:26:30Z</time></trkpt>
<trkpt lat="46.25494900" lon="6.99494300"><ele>417.9400025232</ele><time>2008-11-01T13:26:31Z</time></trkpt>
<trkpt lat="46.25497200" lon="6.99498100"><ele>418.0499877744</ele><time>2008-11-01T13:26:32Z</time></trkpt>
<trkpt lat="46.25499500" lon="6.99501800"><ele>418.1390076624</ele><time>2008-11-01T13:26:33Z</time></trkpt>
<trkpt lat="46.25501500" lon="6.99505600"><ele>418.2189941928</ele><time>2008-11-01T13:26:34Z</time></trkpt>
<trkpt lat="46.25503300" lon="6.99509600"><ele>418.2090150408</ele><time>2008-11-01T13:26:35Z</time></trkpt>
<trkpt lat="46.25505000" lon="6.99513400"><ele>418.2789916344</ele><time>2008-11-01T13:26:36Z</time></trkpt>
<trkpt lat="46.25506600" lon="6.99516900"><ele>418.359985224</ele><time>2008-11-01T13:26:37Z</time></trkpt>
<trkpt lat="46.25508000" lon="6.99520000"><ele>418.4599913232</ele><time>2008-11-01T13:26:38Z</time></trkpt>
<trkpt lat="46.25509300" lon="6.99522900"><ele>418.5499877904</ele><time>2008-11-01T13:26:39Z</time></trkpt>
<trkpt lat="46.25510300" lon="6.99525500"><ele>418.652008008</ele><time>2008-11-01T13:26:40Z</time></trkpt>
<trkpt lat="46.25511100" lon="6.99527700"><ele>418.7099913312</ele><time>2008-11-01T13:26:41Z</time></trkpt>
<trkpt lat="46.25511700" lon="6.99529600"><ele>418.7319945384</ele><time>2008-11-01T13:26:42Z</time></trkpt>
<trkpt lat="46.25512000" lon="6.99531400"><ele>418.7189942088</ele><time>2008-11-01T13:26:43Z</time></trkpt>
<trkpt lat="46.25512300" lon="6.99533000"><ele>418.7690124984</ele><time>2008-11-01T13:26:44Z</time></trkpt>
<trkpt lat="46.25513400" lon="6.99534600"><ele>419.230010916</ele><time>2008-11-01T13:26:45Z</time></trkpt>
<trkpt lat="46.25514600" lon="6.99536500"><ele>419.6409913488</ele><time>2008-11-01T13:26:46Z</time></trkpt>
<trkpt lat="46.25515700" lon="6.99538700"><ele>419.98001094</ele><time>2008-11-01T13:26:47Z</time></trkpt>
<trkpt lat="46.25516400" lon="6.99541200"><ele>420.1849974744</ele><time>2008-11-01T13:26:48Z</time></trkpt>
<trkpt lat="46.25517200" lon="6.99543800"><ele>420.4389952392</ele><time>2008-11-01T13:26:49Z</time></trkpt>
<trkpt lat="46.25517900" lon="6.99546400"><ele>420.699005184</ele><time>2008-11-01T13:26:50Z</time></trkpt>
<trkpt lat="46.25518300" lon="6.99549100"><ele>420.9890135448</ele><time>2008-11-01T13:26:51Z</time></trkpt>
<trkpt lat="46.25518200" lon="6.99551900"><ele>421.1189878848</ele><time>2008-11-01T13:26:52Z</time></trkpt>
<trkpt lat="46.25518200" lon="6.99554600"><ele>421.058013864</ele><time>2008-11-01T13:26:53Z</time></trkpt>
<trkpt lat="46.25518800" lon="6.99557300"><ele>420.9790039128</ele><time>2008-11-01T13:26:54Z</time></trkpt>
<trkpt lat="46.25519400" lon="6.99560100"><ele>420.9389952552</ele><time>2008-11-01T13:26:55Z</time></trkpt>
<trkpt lat="46.25519900" lon="6.99563000"><ele>420.959014824</ele><time>2008-11-01T13:26:56Z</time></trkpt>
<trkpt lat="46.25520600" lon="6.99566000"><ele>421.0700074392</ele><time>2008-11-01T13:26:57Z</time></trkpt>
<trkpt lat="46.25521100" lon="6.99569400"><ele>421.1300048808</ele><time>2008-11-01T13:26:58Z</time></trkpt>
<trkpt lat="46.25521500" lon="6.99573000"><ele>421.1900023224</ele><time>2008-11-01T13:26:59Z</time></trkpt>
<trkpt lat="46.25521700" lon="6.99576700"><ele>421.2500000688</ele><time>2008-11-01T13:27:00Z</time></trkpt>
<trkpt lat="46.25522000" lon="6.99580500"><ele>421.2590026416</ele><time>2008-11-01T13:27:01Z</time></trkpt>
<trkpt lat="46.25522300" lon="6.99584300"><ele>421.3089904512</ele><time>2008-11-01T13:27:02Z</time></trkpt>
<trkpt lat="46.25522600" lon="6.99588200"><ele>421.32901002</ele><time>2008-11-01T13:27:03Z</time></trkpt>
<trkpt lat="46.25522800" lon="6.99592000"><ele>421.2690125784</ele><time>2008-11-01T13:27:04Z</time></trkpt>
<trkpt lat="46.25522800" lon="6.99595800"><ele>421.3699952568</ele><time>2008-11-01T13:27:05Z</time></trkpt>
<trkpt lat="46.25523000" lon="6.99599700"><ele>421.32901002</ele><time>2008-11-01T13:27:06Z</time></trkpt>
<trkpt lat="46.25523400" lon="6.99603700"><ele>421.2699891576</ele><time>2008-11-01T13:27:07Z</time></trkpt>
<trkpt lat="46.25524100" lon="6.99607700"><ele>421.1589965424</ele><time>2008-11-01T13:27:08Z</time></trkpt>
<trkpt lat="46.25524600" lon="6.99611800"><ele>421.0589904432</ele><time>2008-11-01T13:27:09Z</time></trkpt>
<trkpt lat="46.25525000" lon="6.99616100"><ele>420.9790039128</ele><time>2008-11-01T13:27:10Z</time></trkpt>
<trkpt lat="46.25525300" lon="6.99620500"><ele>420.8380125768</ele><time>2008-11-01T13:27:11Z</time></trkpt>
<trkpt lat="46.25525700" lon="6.99624800"><ele>420.687988188</ele><time>2008-11-01T13:27:12Z</time></trkpt>
<trkpt lat="46.25526200" lon="6.99629100"><ele>420.6180115944</ele><time>2008-11-01T13:27:13Z</time></trkpt>
<trkpt lat="46.25526800" lon="6.99633300"><ele>420.558013848</ele><time>2008-11-01T13:27:14Z</time></trkpt>
<trkpt lat="46.25527300" lon="6.99637500"><ele>420.3880003704</ele><time>2008-11-01T13:27:15Z</time></trkpt>
<trkpt lat="46.25527700" lon="6.99641700"><ele>420.2279968296</ele><time>2008-11-01T13:27:16Z</time></trkpt>
<trkpt lat="46.25528000" lon="6.99646000"><ele>420.1369933032</ele><time>2008-11-01T13:27:17Z</time></trkpt>
<trkpt lat="46.25528100" lon="6.99650400"><ele>420.0780029208</ele><time>2008-11-01T13:27:18Z</time></trkpt>
<trkpt lat="46.25528400" lon="6.99654800"><ele>420.0490112592</ele><time>2008-11-01T13:27:19Z</time></trkpt>
<trkpt lat="46.25528800" lon="6.99659300"><ele>419.9580077328</ele><time>2008-11-01T13:27:20Z</time></trkpt>
<trkpt lat="46.25529300" lon="6.99663900"><ele>419.8980102912</ele><time>2008-11-01T13:27:21Z</time></trkpt>
<trkpt lat="46.25529700" lon="6.99668700"><ele>419.9079894432</ele><time>2008-11-01T13:27:22Z</time></trkpt>
<trkpt lat="46.25530300" lon="6.99673500"><ele>419.808013824</ele><time>2008-11-01T13:27:23Z</time></trkpt>
<trkpt lat="46.25531000" lon="6.99678300"><ele>419.7279968136</ele><time>2008-11-01T13:27:24Z</time></trkpt>
<trkpt lat="46.25531800" lon="6.99683000"><ele>419.5979919936</ele><time>2008-11-01T13:27:25Z</time></trkpt>
<trkpt lat="46.25532300" lon="6.99687800"><ele>419.4679871736</ele><time>2008-11-01T13:27:26Z</time></trkpt>
<trkpt lat="46.25532900" lon="6.99692500"><ele>419.3580016176</ele><time>2008-11-01T13:27:27Z</time></trkpt>
<trkpt lat="46.25533600" lon="6.99696800"><ele>419.438995512</ele><time>2008-11-01T13:27:28Z</time></trkpt>
<trkpt lat="46.25534300" lon="6.99700600"><ele>419.5979919936</ele><time>2008-11-01T13:27:29Z</time></trkpt>
<trkpt lat="46.25534900" lon="6.99703900"><ele>419.6690064312</ele><time>2008-11-01T13:27:30Z</time></trkpt>
<trkpt lat="46.25535300" lon="6.99706900"><ele>419.829009972</ele><time>2008-11-01T13:27:31Z</time></trkpt>
<trkpt lat="46.25535400" lon="6.99710000"><ele>419.8989868704</ele><time>2008-11-01T13:27:32Z</time></trkpt>
<trkpt lat="46.25535900" lon="6.99712800"><ele>419.9089965024</ele><time>2008-11-01T13:27:33Z</time></trkpt>
<trkpt lat="46.25536700" lon="6.99715700"><ele>420.0989990688</ele><time>2008-11-01T13:27:34Z</time></trkpt>
<trkpt lat="46.25537600" lon="6.99718800"><ele>420.3089904192</ele><time>2008-11-01T13:27:35Z</time></trkpt>
<trkpt lat="46.25538300" lon="6.99721700"><ele>420.5299987656</ele><time>2008-11-01T13:27:36Z</time></trkpt>
<trkpt lat="46.25539200" lon="6.99724300"><ele>420.6900023064</ele><time>2008-11-01T13:27:37Z</time></trkpt>
<trkpt lat="46.25540200" lon="6.99726900"><ele>420.8800048728</ele><time>2008-11-01T13:27:38Z</time></trkpt>
<trkpt lat="46.25541500" lon="6.99729800"><ele>421.0899962232</ele><time>2008-11-01T13:27:39Z</time></trkpt>
<trkpt lat="46.25543000" lon="6.99733100"><ele>421.4209901256</ele><time>2008-11-01T13:27:40Z</time></trkpt>
<trkpt lat="46.25544400" lon="6.99737000"><ele>421.8020020128</ele><time>2008-11-01T13:27:41Z</time></trkpt>
<trkpt lat="46.25545800" lon="6.99740800"><ele>422.2019959296</ele><time>2008-11-01T13:27:42Z</time></trkpt>
<trkpt lat="46.25547400" lon="6.99744400"><ele>422.5429991592</ele><time>2008-11-01T13:27:43Z</time></trkpt>
<trkpt lat="46.25548700" lon="6.99747300"><ele>422.8420103976</ele><time>2008-11-01T13:27:44Z</time></trkpt>
<trkpt lat="46.25549800" lon="6.99749200"><ele>422.9909972472</ele><time>2008-11-01T13:27:45Z</time></trkpt>
<trkpt lat="46.25550600" lon="6.99750800"><ele>423.282012972</ele><time>2008-11-01T13:27:46Z</time></trkpt>
<trkpt lat="46.25551400" lon="6.99752900"><ele>423.5820007896</ele><time>2008-11-01T13:27:47Z</time></trkpt>
<trkpt lat="46.25552100" lon="6.99755300"><ele>423.9630126768</ele><time>2008-11-01T13:27:48Z</time></trkpt>
<trkpt lat="46.25552900" lon="6.99757700"><ele>424.4339905512</ele><time>2008-11-01T13:27:49Z</time></trkpt>
<trkpt lat="46.25553900" lon="6.99760300"><ele>424.68301398</ele><time>2008-11-01T13:27:50Z</time></trkpt>
<trkpt lat="46.25555200" lon="6.99762700"><ele>425.1239928288</ele><time>2008-11-01T13:27:51Z</time></trkpt>
<trkpt lat="46.25556600" lon="6.99765300"><ele>425.5849915512</ele><time>2008-11-01T13:27:52Z</time></trkpt>
<trkpt lat="46.25557800" lon="6.99768100"><ele>425.6539915656</ele><time>2008-11-01T13:27:53Z</time></trkpt>
<trkpt lat="46.25559000" lon="6.99770900"><ele>425.812988352</ele><time>2008-11-01T13:27:54Z</time></trkpt>
<trkpt lat="46.25560300" lon="6.99773800"><ele>426.2049864504</ele><time>2008-11-01T13:27:55Z</time></trkpt>
<trkpt lat="46.25561500" lon="6.99776900"><ele>426.4830018456</ele><time>2008-11-01T13:27:56Z</time></trkpt>
<trkpt lat="46.25562800" lon="6.99780100"><ele>426.6019896696</ele><time>2008-11-01T13:27:57Z</time></trkpt>
<trkpt lat="46.25564200" lon="6.99783100"><ele>426.782013084</ele><time>2008-11-01T13:27:58Z</time></trkpt>
<trkpt lat="46.25565400" lon="6.99786100"><ele>426.7909851768</ele><time>2008-11-01T13:27:59Z</time></trkpt>
<trkpt lat="46.25566900" lon="6.99789000"><ele>427.0320127872</ele><time>2008-11-01T13:28:00Z</time></trkpt>
<trkpt lat="46.25568400" lon="6.99791900"><ele>427.3129884</ele><time>2008-11-01T13:28:01Z</time></trkpt>
<trkpt lat="46.25569700" lon="6.99794800"><ele>427.6130066976</ele><time>2008-11-01T13:28:02Z</time></trkpt>
<trkpt lat="46.25570800" lon="6.99797000"><ele>427.6520079912</ele><time>2008-11-01T13:28:03Z</time></trkpt>
<trkpt lat="46.25571800" lon="6.99798800"><ele>427.8120118368</ele><time>2008-11-01T13:28:04Z</time></trkpt>
<trkpt lat="46.25572500" lon="6.99800500"><ele>427.9909974072</ele><time>2008-11-01T13:28:05Z</time></trkpt>
<trkpt lat="46.25573000" lon="6.99801200"><ele>428.2000121784</ele><time>2008-11-01T13:28:06Z</time></trkpt>
<trkpt lat="46.25573100" lon="6.99801300"><ele>428.338989396</ele><time>2008-11-01T13:28:07Z</time></trkpt>
<trkpt lat="46.25575500" lon="6.99804500"><ele>427.8599852232</ele><time>2008-11-01T13:28:33Z</time></trkpt>
<trkpt lat="46.25576400" lon="6.99806400"><ele>427.859008644</ele><time>2008-11-01T13:28:34Z</time></trkpt>
<trkpt lat="46.25577000" lon="6.99808900"><ele>427.8890076696</ele><time>2008-11-01T13:28:35Z</time></trkpt>
<trkpt lat="46.25577800" lon="6.99811500"><ele>427.7890015704</ele><time>2008-11-01T13:28:36Z</time></trkpt>
<trkpt lat="46.25578900" lon="6.99814000"><ele>427.7690124816</ele><time>2008-11-01T13:28:37Z</time></trkpt>
<trkpt lat="46.25580100" lon="6.99816400"><ele>427.7690124816</ele><time>2008-11-01T13:28:38Z</time></trkpt>
<trkpt lat="46.25581200" lon="6.99819000"><ele>427.729003824</ele><time>2008-11-01T13:28:39Z</time></trkpt>
<trkpt lat="46.25582200" lon="6.99821600"><ele>427.718994192</ele><time>2008-11-01T13:28:40Z</time></trkpt>
<trkpt lat="46.25583400" lon="6.99824500"><ele>427.6809996528</ele><time>2008-11-01T13:28:41Z</time></trkpt>
<trkpt lat="46.25584600" lon="6.99827400"><ele>427.578002856</ele><time>2008-11-01T13:28:42Z</time></trkpt>
<trkpt lat="46.25585900" lon="6.99830500"><ele>427.5079954776</ele><time>2008-11-01T13:28:43Z</time></trkpt>
<trkpt lat="46.25587400" lon="6.99833500"><ele>427.5280150464</ele><time>2008-11-01T13:28:44Z</time></trkpt>
<trkpt lat="46.25588900" lon="6.99836500"><ele>427.458007668</ele><time>2008-11-01T13:28:45Z</time></trkpt>
<trkpt lat="46.25590500" lon="6.99839500"><ele>427.3880005944</ele><time>2008-11-01T13:28:46Z</time></trkpt>
<trkpt lat="46.25592100" lon="6.99842700"><ele>427.3380127848</ele><time>2008-11-01T13:28:47Z</time></trkpt>
<trkpt lat="46.25593800" lon="6.99845900"><ele>427.4079893784</ele><time>2008-11-01T13:28:48Z</time></trkpt>
<trkpt lat="46.25595500" lon="6.99849100"><ele>427.3980102264</ele><time>2008-11-01T13:28:49Z</time></trkpt>
<trkpt lat="46.25597200" lon="6.99852400"><ele>427.3680115056</ele><time>2008-11-01T13:28:50Z</time></trkpt>
<trkpt lat="46.25598800" lon="6.99855800"><ele>427.328002848</ele><time>2008-11-01T13:28:51Z</time></trkpt>
<trkpt lat="46.25600200" lon="6.99859300"><ele>427.2780150384</ele><time>2008-11-01T13:28:52Z</time></trkpt>
<trkpt lat="46.25601700" lon="6.99863000"><ele>427.1870118168</ele><time>2008-11-01T13:28:53Z</time></trkpt>
<trkpt lat="46.25603300" lon="6.99866800"><ele>427.1380005864</ele><time>2008-11-01T13:28:54Z</time></trkpt>
<trkpt lat="46.25604700" lon="6.99870900"><ele>427.0169983392</ele><time>2008-11-01T13:28:55Z</time></trkpt>
<trkpt lat="46.25606200" lon="6.99875300"><ele>426.927001872</ele><time>2008-11-01T13:28:56Z</time></trkpt>
<trkpt lat="46.25607700" lon="6.99879900"><ele>426.8380127688</ele><time>2008-11-01T13:28:57Z</time></trkpt>
<trkpt lat="46.25609500" lon="6.99884400"><ele>426.7470092424</ele><time>2008-11-01T13:28:58Z</time></trkpt>
<trkpt lat="46.25611500" lon="6.99888600"><ele>426.666992232</ele><time>2008-11-01T13:28:59Z</time></trkpt>
<trkpt lat="46.25613800" lon="6.99892700"><ele>426.6170044224</ele><time>2008-11-01T13:29:00Z</time></trkpt>
<trkpt lat="46.25615900" lon="6.99896800"><ele>426.6180114816</ele><time>2008-11-01T13:29:01Z</time></trkpt>
<trkpt lat="46.25617700" lon="6.99901200"><ele>426.5079957504</ele><time>2008-11-01T13:29:02Z</time></trkpt>
<trkpt lat="46.25619400" lon="6.99905500"><ele>426.4580079408</ele><time>2008-11-01T13:29:03Z</time></trkpt>
<trkpt lat="46.25621200" lon="6.99909700"><ele>426.4389954312</ele><time>2008-11-01T13:29:04Z</time></trkpt>
<trkpt lat="46.25622900" lon="6.99913800"><ele>426.4490050632</ele><time>2008-11-01T13:29:05Z</time></trkpt>
<trkpt lat="46.25624700" lon="6.99917700"><ele>426.5190124416</ele><time>2008-11-01T13:29:06Z</time></trkpt>
<trkpt lat="46.25626300" lon="6.99921500"><ele>426.58898934</ele><time>2008-11-01T13:29:07Z</time></trkpt>
<trkpt lat="46.25627800" lon="6.99925400"><ele>426.6289976928</ele><time>2008-11-01T13:29:08Z</time></trkpt>
<trkpt lat="46.25629400" lon="6.99929500"><ele>426.6589967184</ele><time>2008-11-01T13:29:09Z</time></trkpt>
<trkpt lat="46.25631100" lon="6.99933600"><ele>426.6579893544</ele><time>2008-11-01T13:29:10Z</time></trkpt>
<trkpt lat="46.25632700" lon="6.99937700"><ele>426.578002824</ele><time>2008-11-01T13:29:11Z</time></trkpt>
<trkpt lat="46.25634400" lon="6.99941800"><ele>426.6180114816</ele><time>2008-11-01T13:29:12Z</time></trkpt>
<trkpt lat="46.25636200" lon="6.99945800"><ele>426.6380005704</ele><time>2008-11-01T13:29:13Z</time></trkpt>
<trkpt lat="46.25638000" lon="6.99950000"><ele>426.6589967184</ele><time>2008-11-01T13:29:14Z</time></trkpt>
<trkpt lat="46.25639800" lon="6.99954100"><ele>426.6380005704</ele><time>2008-11-01T13:29:15Z</time></trkpt>
<trkpt lat="46.25641600" lon="6.99958200"><ele>426.5880127608</ele><time>2008-11-01T13:29:16Z</time></trkpt>
<trkpt lat="46.25643400" lon="6.99962400"><ele>426.5979919128</ele><time>2008-11-01T13:29:17Z</time></trkpt>
<trkpt lat="46.25645300" lon="6.99966500"><ele>426.6390076296</ele><time>2008-11-01T13:29:18Z</time></trkpt>
<trkpt lat="46.25647000" lon="6.99970500"><ele>426.6390076296</ele><time>2008-11-01T13:29:19Z</time></trkpt>
<trkpt lat="46.25648900" lon="6.99974500"><ele>426.6690063504</ele><time>2008-11-01T13:29:20Z</time></trkpt>
<trkpt lat="46.25650800" lon="6.99978400"><ele>426.6889954392</ele><time>2008-11-01T13:29:21Z</time></trkpt>
<trkpt lat="46.25652600" lon="6.99982400"><ele>426.6679992912</ele><time>2008-11-01T13:29:22Z</time></trkpt>
<trkpt lat="46.25654400" lon="6.99986300"><ele>426.7080079488</ele><time>2008-11-01T13:29:23Z</time></trkpt>
<trkpt lat="46.25656300" lon="6.99990000"><ele>426.7590028176</ele><time>2008-11-01T13:29:24Z</time></trkpt>
<trkpt lat="46.25658200" lon="6.99993700"><ele>426.8190002592</ele><time>2008-11-01T13:29:25Z</time></trkpt>
<trkpt lat="46.25660200" lon="6.99997200"><ele>426.8890076376</ele><time>2008-11-01T13:29:26Z</time></trkpt>
<trkpt lat="46.25662100" lon="7.00000900"><ele>426.9490050792</ele><time>2008-11-01T13:29:27Z</time></trkpt>
<trkpt lat="46.25664000" lon="7.00004600"><ele>427.0190124576</ele><time>2008-11-01T13:29:28Z</time></trkpt>
<trkpt lat="46.25665800" lon="7.00008300"><ele>427.0690002672</ele><time>2008-11-01T13:29:29Z</time></trkpt>
<trkpt lat="46.25666700" lon="7.00012100"><ele>426.8179932</ele><time>2008-11-01T13:29:30Z</time></trkpt>
<trkpt lat="46.25667600" lon="7.00015900"><ele>426.578002824</ele><time>2008-11-01T13:29:31Z</time></trkpt>
<trkpt lat="46.25668700" lon="7.00019800"><ele>426.4280089152</ele><time>2008-11-01T13:29:32Z</time></trkpt>
<trkpt lat="46.25669900" lon="7.00023700"><ele>426.338989332</ele><time>2008-11-01T13:29:33Z</time></trkpt>
<trkpt lat="46.25671200" lon="7.00027500"><ele>426.2579957424</ele><time>2008-11-01T13:29:34Z</time></trkpt>
<trkpt lat="46.25672700" lon="7.00031500"><ele>426.2489928648</ele><time>2008-11-01T13:29:35Z</time></trkpt>
<trkpt lat="46.25674200" lon="7.00035400"><ele>426.2690124336</ele><time>2008-11-01T13:29:36Z</time></trkpt>
<trkpt lat="46.25675800" lon="7.00039100"><ele>426.3089906112</ele><time>2008-11-01T13:29:37Z</time></trkpt>
<trkpt lat="46.25677500" lon="7.00042600"><ele>426.4490050632</ele><time>2008-11-01T13:29:38Z</time></trkpt>
<trkpt lat="46.25679200" lon="7.00045900"><ele>426.609985488</ele><time>2008-11-01T13:29:39Z</time></trkpt>
<trkpt lat="46.25681000" lon="7.00048800"><ele>426.7200012192</ele><time>2008-11-01T13:29:40Z</time></trkpt>
<trkpt lat="46.25682600" lon="7.00051600"><ele>426.7929992952</ele><time>2008-11-01T13:29:41Z</time></trkpt>
<trkpt lat="46.25683600" lon="7.00054500"><ele>426.7789916016</ele><time>2008-11-01T13:29:42Z</time></trkpt>
<trkpt lat="46.25684500" lon="7.00057600"><ele>426.7390137288</ele><time>2008-11-01T13:29:43Z</time></trkpt>
<trkpt lat="46.25685500" lon="7.00060700"><ele>426.71899416</ele><time>2008-11-01T13:29:44Z</time></trkpt>
<trkpt lat="46.25686800" lon="7.00063600"><ele>426.7890015384</ele><time>2008-11-01T13:29:45Z</time></trkpt>
<trkpt lat="46.25688200" lon="7.00066100"><ele>426.8689880688</ele><time>2008-11-01T13:29:46Z</time></trkpt>
<trkpt lat="46.25689500" lon="7.00068600"><ele>426.8989867896</ele><time>2008-11-01T13:29:47Z</time></trkpt>
<trkpt lat="46.25690200" lon="7.00071000"><ele>426.8190002592</ele><time>2008-11-01T13:29:48Z</time></trkpt>
<trkpt lat="46.25690800" lon="7.00073500"><ele>426.709015008</ele><time>2008-11-01T13:29:49Z</time></trkpt>
<trkpt lat="46.25691400" lon="7.00075900"><ele>426.6489867816</ele><time>2008-11-01T13:29:50Z</time></trkpt>
<trkpt lat="46.25692200" lon="7.00077900"><ele>426.6690063504</ele><time>2008-11-01T13:29:51Z</time></trkpt>
<trkpt lat="46.25693400" lon="7.00079700"><ele>426.7300108512</ele><time>2008-11-01T13:29:52Z</time></trkpt>
<trkpt lat="46.25694700" lon="7.00081500"><ele>426.8399964072</ele><time>2008-11-01T13:29:53Z</time></trkpt>
<trkpt lat="46.25696000" lon="7.00083500"><ele>426.9299925696</ele><time>2008-11-01T13:29:54Z</time></trkpt>
<trkpt lat="46.25697200" lon="7.00085700"><ele>427.0509948168</ele><time>2008-11-01T13:29:55Z</time></trkpt>
<trkpt lat="46.25698600" lon="7.00088000"><ele>427.1610108528</ele><time>2008-11-01T13:29:56Z</time></trkpt>
<trkpt lat="46.25700300" lon="7.00090700"><ele>427.2409973832</ele><time>2008-11-01T13:29:57Z</time></trkpt>
<trkpt lat="46.25702300" lon="7.00093300"><ele>427.3710022032</ele><time>2008-11-01T13:29:58Z</time></trkpt>
<trkpt lat="46.25704200" lon="7.00096200"><ele>427.4309996448</ele><time>2008-11-01T13:29:59Z</time></trkpt>
<trkpt lat="46.25706000" lon="7.00099500"><ele>427.4599913064</ele><time>2008-11-01T13:30:00Z</time></trkpt>
<trkpt lat="46.25707500" lon="7.00102900"><ele>427.4200134336</ele><time>2008-11-01T13:30:01Z</time></trkpt>
<trkpt lat="46.25709100" lon="7.00106600"><ele>427.4909973912</ele><time>2008-11-01T13:30:02Z</time></trkpt>
<trkpt lat="46.25710600" lon="7.00110300"><ele>427.5509948328</ele><time>2008-11-01T13:30:03Z</time></trkpt>
<trkpt lat="46.25712200" lon="7.00114100"><ele>427.6099852152</ele><time>2008-11-01T13:30:04Z</time></trkpt>
<trkpt lat="46.25713900" lon="7.00117900"><ele>427.6799925936</ele><time>2008-11-01T13:30:05Z</time></trkpt>
<trkpt lat="46.25715600" lon="7.00121700"><ele>427.7099913144</ele><time>2008-11-01T13:30:06Z</time></trkpt>
<trkpt lat="46.25717500" lon="7.00125500"><ele>427.7600099088</ele><time>2008-11-01T13:30:07Z</time></trkpt>
<trkpt lat="46.25719300" lon="7.00129400"><ele>427.7900086296</ele><time>2008-11-01T13:30:08Z</time></trkpt>
<trkpt lat="46.25721200" lon="7.00133400"><ele>427.8399964392</ele><time>2008-11-01T13:30:09Z</time></trkpt>
<trkpt lat="46.25723100" lon="7.00137400"><ele>427.8900147288</ele><time>2008-11-01T13:30:10Z</time></trkpt>
<trkpt lat="46.25724900" lon="7.00141400"><ele>427.9400025384</ele><time>2008-11-01T13:30:11Z</time></trkpt>
<trkpt lat="46.25726800" lon="7.00145300"><ele>427.99999998</ele><time>2008-11-01T13:30:12Z</time></trkpt>
<trkpt lat="46.25728600" lon="7.00149200"><ele>428.0499877896</ele><time>2008-11-01T13:30:13Z</time></trkpt>
<trkpt lat="46.25730500" lon="7.00153000"><ele>428.0700073584</ele><time>2008-11-01T13:30:14Z</time></trkpt>
<trkpt lat="46.25732300" lon="7.00156900"><ele>428.1000060792</ele><time>2008-11-01T13:30:15Z</time></trkpt>
<trkpt lat="46.25734000" lon="7.00160900"><ele>428.1600035208</ele><time>2008-11-01T13:30:16Z</time></trkpt>
<trkpt lat="46.25735700" lon="7.00164800"><ele>428.1900025464</ele><time>2008-11-01T13:30:17Z</time></trkpt>
<trkpt lat="46.25737400" lon="7.00168700"><ele>428.26000962</ele><time>2008-11-01T13:30:18Z</time></trkpt>
<trkpt lat="46.25739300" lon="7.00172200"><ele>428.380004808</ele><time>2008-11-01T13:30:19Z</time></trkpt>
<trkpt lat="46.25741100" lon="7.00175500"><ele>428.5010070552</ele><time>2008-11-01T13:30:20Z</time></trkpt>
<trkpt lat="46.25742900" lon="7.00178500"><ele>428.5809935856</ele><time>2008-11-01T13:30:21Z</time></trkpt>
<trkpt lat="46.25744500" lon="7.00181500"><ele>428.6910096216</ele><time>2008-11-01T13:30:22Z</time></trkpt>
<trkpt lat="46.25746000" lon="7.00184200"><ele>428.8410035304</ele><time>2008-11-01T13:30:23Z</time></trkpt>
<trkpt lat="46.25747300" lon="7.00186700"><ele>428.9909974392</ele><time>2008-11-01T13:30:24Z</time></trkpt>
<trkpt lat="46.25748200" lon="7.00188600"><ele>429.15100098</ele><time>2008-11-01T13:30:25Z</time></trkpt>
<trkpt lat="46.25748800" lon="7.00190100"><ele>429.25000002</ele><time>2008-11-01T13:30:26Z</time></trkpt>
<trkpt lat="46.25749300" lon="7.00191200"><ele>429.3500061192</ele><time>2008-11-01T13:30:27Z</time></trkpt>
<trkpt lat="46.25749800" lon="7.00191900"><ele>429.4490051592</ele><time>2008-11-01T13:30:28Z</time></trkpt>
<trkpt lat="46.25750500" lon="7.00192800"><ele>429.5809936176</ele><time>2008-11-01T13:30:29Z</time></trkpt>
<trkpt lat="46.25751600" lon="7.00193900"><ele>429.6709900848</ele><time>2008-11-01T13:30:30Z</time></trkpt>
<trkpt lat="46.25753000" lon="7.00194700"><ele>429.7609862472</ele><time>2008-11-01T13:30:31Z</time></trkpt>
<trkpt lat="46.25754800" lon="7.00194800"><ele>429.7799987568</ele><time>2008-11-01T13:30:32Z</time></trkpt>
<trkpt lat="46.25757100" lon="7.00193800"><ele>429.8299865664</ele><time>2008-11-01T13:30:33Z</time></trkpt>
<trkpt lat="46.25759300" lon="7.00191600"><ele>429.869995224</ele><time>2008-11-01T13:30:34Z</time></trkpt>
<trkpt lat="46.25761400" lon="7.00189000"><ele>429.8500061352</ele><time>2008-11-01T13:30:35Z</time></trkpt>
<trkpt lat="46.25763500" lon="7.00186100"><ele>429.8399961984</ele><time>2008-11-01T13:30:36Z</time></trkpt>
<trkpt lat="46.25765600" lon="7.00183200"><ele>429.9100035768</ele><time>2008-11-01T13:30:37Z</time></trkpt>
<trkpt lat="46.25767900" lon="7.00180300"><ele>429.9200135136</ele><time>2008-11-01T13:30:38Z</time></trkpt>
<trkpt lat="46.25770300" lon="7.00177500"><ele>429.8190003552</ele><time>2008-11-01T13:30:39Z</time></trkpt>
<trkpt lat="46.25772500" lon="7.00174500"><ele>429.8500061352</ele><time>2008-11-01T13:30:40Z</time></trkpt>
<trkpt lat="46.25774700" lon="7.00171400"><ele>429.915984972</ele><time>2008-11-01T13:30:41Z</time></trkpt>
<trkpt lat="46.25776900" lon="7.00168200"><ele>429.8900147928</ele><time>2008-11-01T13:30:42Z</time></trkpt>
<trkpt lat="46.25779100" lon="7.00164900"><ele>430.020996192</ele><time>2008-11-01T13:30:43Z</time></trkpt>
<trkpt lat="46.25781300" lon="7.00161600"><ele>430.2019958808</ele><time>2008-11-01T13:30:44Z</time></trkpt>
<trkpt lat="46.25783700" lon="7.00158400"><ele>430.1910096696</ele><time>2008-11-01T13:30:45Z</time></trkpt>
<trkpt lat="46.25786100" lon="7.00155100"><ele>430.1700135216</ele><time>2008-11-01T13:30:46Z</time></trkpt>
<trkpt lat="46.25788500" lon="7.00151800"><ele>430.098999084</ele><time>2008-11-01T13:30:47Z</time></trkpt>
<trkpt lat="46.25790900" lon="7.00148500"><ele>430.0889891472</ele><time>2008-11-01T13:30:48Z</time></trkpt>
<trkpt lat="46.25793400" lon="7.00145100"><ele>430.0390013376</ele><time>2008-11-01T13:30:49Z</time></trkpt>
<trkpt lat="46.25795900" lon="7.00141800"><ele>430.2000122424</ele><time>2008-11-01T13:30:50Z</time></trkpt>
<trkpt lat="46.25798200" lon="7.00138400"><ele>430.2099913944</ele><time>2008-11-01T13:30:51Z</time></trkpt>
<trkpt lat="46.25800500" lon="7.00135000"><ele>430.2300109632</ele><time>2008-11-01T13:30:52Z</time></trkpt>
<trkpt lat="46.25802900" lon="7.00131700"><ele>430.2300109632</ele><time>2008-11-01T13:30:53Z</time></trkpt>
<trkpt lat="46.25805300" lon="7.00128400"><ele>430.2900084048</ele><time>2008-11-01T13:30:54Z</time></trkpt>
<trkpt lat="46.25807900" lon="7.00125300"><ele>430.2900084048</ele><time>2008-11-01T13:30:55Z</time></trkpt>
<trkpt lat="46.25810300" lon="7.00121900"><ele>430.4400023136</ele><time>2008-11-01T13:30:56Z</time></trkpt>
<trkpt lat="46.25812600" lon="7.00118400"><ele>430.6010132184</ele><time>2008-11-01T13:30:57Z</time></trkpt>
<trkpt lat="46.25815000" lon="7.00115000"><ele>430.8110045688</ele><time>2008-11-01T13:30:58Z</time></trkpt>
<trkpt lat="46.25817500" lon="7.00111700"><ele>430.8810119472</ele><time>2008-11-01T13:30:59Z</time></trkpt>
<trkpt lat="46.25819800" lon="7.00108200"><ele>430.8609923784</ele><time>2008-11-01T13:31:00Z</time></trkpt>
<trkpt lat="46.25822300" lon="7.00104800"><ele>431.0020141944</ele><time>2008-11-01T13:31:01Z</time></trkpt>
<trkpt lat="46.25824800" lon="7.00101700"><ele>430.9309997568</ele><time>2008-11-01T13:31:02Z</time></trkpt>
<trkpt lat="46.25827500" lon="7.00098900"><ele>430.9209901248</ele><time>2008-11-01T13:31:03Z</time></trkpt>
<trkpt lat="46.25830400" lon="7.00096500"><ele>430.9609984776</ele><time>2008-11-01T13:31:04Z</time></trkpt>
<trkpt lat="46.25833500" lon="7.00095300"><ele>430.8599853192</ele><time>2008-11-01T13:31:05Z</time></trkpt>
<trkpt lat="46.25836800" lon="7.00095200"><ele>430.7999878776</ele><time>2008-11-01T13:31:06Z</time></trkpt>
<trkpt lat="46.25840000" lon="7.00095800"><ele>430.7600097</ele><time>2008-11-01T13:31:07Z</time></trkpt>
<trkpt lat="46.25843000" lon="7.00097200"><ele>430.7409971904</ele><time>2008-11-01T13:31:08Z</time></trkpt>
<trkpt lat="46.25845900" lon="7.00099100"><ele>430.770996216</ele><time>2008-11-01T13:31:09Z</time></trkpt>
<trkpt lat="46.25848700" lon="7.00100900"><ele>430.8110045688</ele><time>2008-11-01T13:31:10Z</time></trkpt>
<trkpt lat="46.25851500" lon="7.00102800"><ele>430.8519898056</ele><time>2008-11-01T13:31:11Z</time></trkpt>
<trkpt lat="46.25854200" lon="7.00104700"><ele>430.8919981584</ele><time>2008-11-01T13:31:12Z</time></trkpt>
<trkpt lat="46.25857000" lon="7.00106500"><ele>430.9620055368</ele><time>2008-11-01T13:31:13Z</time></trkpt>
<trkpt lat="46.25859800" lon="7.00108200"><ele>431.0429991264</ele><time>2008-11-01T13:31:14Z</time></trkpt>
<trkpt lat="46.25862600" lon="7.00109800"><ele>431.1929930352</ele><time>2008-11-01T13:31:15Z</time></trkpt>
<trkpt lat="46.25865300" lon="7.00111600"><ele>431.2720032912</ele><time>2008-11-01T13:31:16Z</time></trkpt>
<trkpt lat="46.25867900" lon="7.00113400"><ele>431.3320007328</ele><time>2008-11-01T13:31:17Z</time></trkpt>
<trkpt lat="46.25870600" lon="7.00115200"><ele>431.3720093904</ele><time>2008-11-01T13:31:18Z</time></trkpt>
<trkpt lat="46.25873300" lon="7.00116900"><ele>431.441985984</ele><time>2008-11-01T13:31:19Z</time></trkpt>
<trkpt lat="46.25876100" lon="7.00118500"><ele>431.5220032992</ele><time>2008-11-01T13:31:20Z</time></trkpt>
<trkpt lat="46.25878700" lon="7.00120000"><ele>431.5820007408</ele><time>2008-11-01T13:31:21Z</time></trkpt>
<trkpt lat="46.25881400" lon="7.00121500"><ele>431.6419981824</ele><time>2008-11-01T13:31:22Z</time></trkpt>
<trkpt lat="46.25884100" lon="7.00123000"><ele>431.7219847128</ele><time>2008-11-01T13:31:23Z</time></trkpt>
<trkpt lat="46.25886500" lon="7.00124800"><ele>431.7510071592</ele><time>2008-11-01T13:31:24Z</time></trkpt>
<trkpt lat="46.25888800" lon="7.00126800"><ele>431.78100588</ele><time>2008-11-01T13:31:25Z</time></trkpt>
<trkpt lat="46.25891100" lon="7.00128600"><ele>431.7300110112</ele><time>2008-11-01T13:31:26Z</time></trkpt>
<trkpt lat="46.25893400" lon="7.00129900"><ele>431.8009949688</ele><time>2008-11-01T13:31:27Z</time></trkpt>
<trkpt lat="46.25895800" lon="7.00131100"><ele>431.8609924104</ele><time>2008-11-01T13:31:28Z</time></trkpt>
<trkpt lat="46.25898200" lon="7.00131900"><ele>431.890014552</ele><time>2008-11-01T13:31:29Z</time></trkpt>
<trkpt lat="46.25900600" lon="7.00131300"><ele>431.9299927296</ele><time>2008-11-01T13:31:30Z</time></trkpt>
<trkpt lat="46.25903000" lon="7.00130600"><ele>431.8999940088</ele><time>2008-11-01T13:31:31Z</time></trkpt>
<trkpt lat="46.25905100" lon="7.00131500"><ele>431.9599914504</ele><time>2008-11-01T13:31:32Z</time></trkpt>
<trkpt lat="46.25906600" lon="7.00133600"><ele>432.04098504</ele><time>2008-11-01T13:31:33Z</time></trkpt>
<trkpt lat="46.25908000" lon="7.00135600"><ele>432.0700071816</ele><time>2008-11-01T13:31:34Z</time></trkpt>
<trkpt lat="46.25909700" lon="7.00137100"><ele>432.1210020504</ele><time>2008-11-01T13:31:35Z</time></trkpt>
<trkpt lat="46.25911800" lon="7.00138400"><ele>432.17098986</ele><time>2008-11-01T13:31:36Z</time></trkpt>
<trkpt lat="46.25914000" lon="7.00139900"><ele>432.1900023696</ele><time>2008-11-01T13:31:37Z</time></trkpt>
<trkpt lat="46.25916200" lon="7.00141700"><ele>432.260009748</ele><time>2008-11-01T13:31:38Z</time></trkpt>
<trkpt lat="46.25918600" lon="7.00143500"><ele>432.2799988368</ele><time>2008-11-01T13:31:39Z</time></trkpt>
<trkpt lat="46.25921000" lon="7.00145100"><ele>432.2399901792</ele><time>2008-11-01T13:31:40Z</time></trkpt>
<trkpt lat="46.25923400" lon="7.00146600"><ele>432.234008784</ele><time>2008-11-01T13:31:41Z</time></trkpt>
<trkpt lat="46.25925800" lon="7.00148000"><ele>432.1700132808</ele><time>2008-11-01T13:31:42Z</time></trkpt>
<trkpt lat="46.25928300" lon="7.00149500"><ele>432.1900023696</ele><time>2008-11-01T13:31:43Z</time></trkpt>
<trkpt lat="46.25930900" lon="7.00151100"><ele>432.1900023696</ele><time>2008-11-01T13:31:44Z</time></trkpt>
<trkpt lat="46.25933600" lon="7.00152600"><ele>432.1700132808</ele><time>2008-11-01T13:31:45Z</time></trkpt>
<trkpt lat="46.25936300" lon="7.00154200"><ele>432.1799927376</ele><time>2008-11-01T13:31:46Z</time></trkpt>
<trkpt lat="46.25939000" lon="7.00155900"><ele>432.1799927376</ele><time>2008-11-01T13:31:47Z</time></trkpt>
<trkpt lat="46.25941700" lon="7.00157600"><ele>432.1900023696</ele><time>2008-11-01T13:31:48Z</time></trkpt>
<trkpt lat="46.25944300" lon="7.00159300"><ele>432.1900023696</ele><time>2008-11-01T13:31:49Z</time></trkpt>
<trkpt lat="46.25946800" lon="7.00160800"><ele>432.2210081496</ele><time>2008-11-01T13:31:50Z</time></trkpt>
<trkpt lat="46.25949300" lon="7.00162500"><ele>432.2409972384</ele><time>2008-11-01T13:31:51Z</time></trkpt>
<trkpt lat="46.25951800" lon="7.00164300"><ele>432.2709959592</ele><time>2008-11-01T13:31:52Z</time></trkpt>
<trkpt lat="46.25954200" lon="7.00166100"><ele>432.3009949848</ele><time>2008-11-01T13:31:53Z</time></trkpt>
<trkpt lat="46.25956700" lon="7.00167700"><ele>432.2900084688</ele><time>2008-11-01T13:31:54Z</time></trkpt>
<trkpt lat="46.25959300" lon="7.00169300"><ele>432.3009949848</ele><time>2008-11-01T13:31:55Z</time></trkpt>
<trkpt lat="46.25961800" lon="7.00171000"><ele>432.3309937056</ele><time>2008-11-01T13:31:56Z</time></trkpt>
<trkpt lat="46.25964200" lon="7.00172800"><ele>432.3609924264</ele><time>2008-11-01T13:31:57Z</time></trkpt>
<trkpt lat="46.25966700" lon="7.00174400"><ele>432.4309998048</ele><time>2008-11-01T13:31:58Z</time></trkpt>
<trkpt lat="46.25969100" lon="7.00176200"><ele>432.5109863352</ele><time>2008-11-01T13:31:59Z</time></trkpt>
<trkpt lat="46.25971500" lon="7.00178300"><ele>432.5910033456</ele><time>2008-11-01T13:32:00Z</time></trkpt>
<trkpt lat="46.25974000" lon="7.00180200"><ele>432.6809998128</ele><time>2008-11-01T13:32:01Z</time></trkpt>
<trkpt lat="46.25976500" lon="7.00182000"><ele>432.7709959752</ele><time>2008-11-01T13:32:02Z</time></trkpt>
<trkpt lat="46.25979100" lon="7.00183800"><ele>432.8510132904</ele><time>2008-11-01T13:32:03Z</time></trkpt>
<trkpt lat="46.25981600" lon="7.00185700"><ele>432.9410094528</ele><time>2008-11-01T13:32:04Z</time></trkpt>
<trkpt lat="46.25984000" lon="7.00187400"><ele>433.0209959832</ele><time>2008-11-01T13:32:05Z</time></trkpt>
<trkpt lat="46.25986300" lon="7.00189200"><ele>433.040985072</ele><time>2008-11-01T13:32:06Z</time></trkpt>
<trkpt lat="46.25988600" lon="7.00190900"><ele>433.1310120192</ele><time>2008-11-01T13:32:07Z</time></trkpt>
<trkpt lat="46.25990900" lon="7.00192600"><ele>433.2009889176</ele><time>2008-11-01T13:32:08Z</time></trkpt>
<trkpt lat="46.25993300" lon="7.00194200"><ele>433.26000978</ele><time>2008-11-01T13:32:09Z</time></trkpt>
<trkpt lat="46.25995900" lon="7.00196100"><ele>433.3510133064</ele><time>2008-11-01T13:32:10Z</time></trkpt>
<trkpt lat="46.25998500" lon="7.00198100"><ele>433.4509886208</ele><time>2008-11-01T13:32:11Z</time></trkpt>
<trkpt lat="46.26001300" lon="7.00200000"><ele>433.5509950248</ele><time>2008-11-01T13:32:12Z</time></trkpt>
<trkpt lat="46.26004100" lon="7.00202000"><ele>433.661010756</ele><time>2008-11-01T13:32:13Z</time></trkpt>
<trkpt lat="46.26007000" lon="7.00203800"><ele>433.6600036968</ele><time>2008-11-01T13:32:14Z</time></trkpt>
<trkpt lat="46.26010100" lon="7.00205600"><ele>433.7099915064</ele><time>2008-11-01T13:32:15Z</time></trkpt>
<trkpt lat="46.26013300" lon="7.00207400"><ele>433.8210142968</ele><time>2008-11-01T13:32:16Z</time></trkpt>
<trkpt lat="46.26016500" lon="7.00209100"><ele>433.9509886368</ele><time>2008-11-01T13:32:17Z</time></trkpt>
<trkpt lat="46.26019600" lon="7.00210800"><ele>434.031005952</ele><time>2008-11-01T13:32:18Z</time></trkpt>
<trkpt lat="46.26022600" lon="7.00212400"><ele>434.1700133448</ele><time>2008-11-01T13:32:19Z</time></trkpt>
<trkpt lat="46.26025600" lon="7.00213700"><ele>434.2609863912</ele><time>2008-11-01T13:32:20Z</time></trkpt>
<trkpt lat="46.26028400" lon="7.00214900"><ele>434.3909912112</ele><time>2008-11-01T13:32:21Z</time></trkpt>
<trkpt lat="46.26031000" lon="7.00215900"><ele>434.41101078</ele><time>2008-11-01T13:32:22Z</time></trkpt>
<trkpt lat="46.26033600" lon="7.00217000"><ele>434.4609985896</ele><time>2008-11-01T13:32:23Z</time></trkpt>
<trkpt lat="46.26036300" lon="7.00218400"><ele>434.4710082216</ele><time>2008-11-01T13:32:24Z</time></trkpt>
<trkpt lat="46.26039000" lon="7.00220000"><ele>434.4809876784</ele><time>2008-11-01T13:32:25Z</time></trkpt>
<trkpt lat="46.26041800" lon="7.00221400"><ele>434.550994752</ele><time>2008-11-01T13:32:26Z</time></trkpt>
<trkpt lat="46.26044500" lon="7.00222700"><ele>434.6210021304</ele><time>2008-11-01T13:32:27Z</time></trkpt>
<trkpt lat="46.26047300" lon="7.00223500"><ele>434.781005976</ele><time>2008-11-01T13:32:28Z</time></trkpt>
<trkpt lat="46.26049700" lon="7.00224400"><ele>434.9410095168</ele><time>2008-11-01T13:32:29Z</time></trkpt>
<trkpt lat="46.26052100" lon="7.00225700"><ele>435.040985136</ele><time>2008-11-01T13:32:30Z</time></trkpt>
<trkpt lat="46.26054500" lon="7.00227200"><ele>435.1310120832</ele><time>2008-11-01T13:32:31Z</time></trkpt>
<trkpt lat="46.26057000" lon="7.00228400"><ele>435.2210082456</ele><time>2008-11-01T13:32:32Z</time></trkpt>
<trkpt lat="46.26059500" lon="7.00229600"><ele>435.2709960552</ele><time>2008-11-01T13:32:33Z</time></trkpt>
<trkpt lat="46.26061700" lon="7.00230700"><ele>435.3210143448</ele><time>2008-11-01T13:32:34Z</time></trkpt>
<trkpt lat="46.26063700" lon="7.00231900"><ele>435.3710021544</ele><time>2008-11-01T13:32:35Z</time></trkpt>
<trkpt lat="46.26065700" lon="7.00233000"><ele>435.3909912432</ele><time>2008-11-01T13:32:36Z</time></trkpt>
<trkpt lat="46.26067600" lon="7.00234100"><ele>435.4309999008</ele><time>2008-11-01T13:32:37Z</time></trkpt>
<trkpt lat="46.26069600" lon="7.00235200"><ele>435.4909973424</ele><time>2008-11-01T13:32:38Z</time></trkpt>
<trkpt lat="46.26071600" lon="7.00236400"><ele>435.5610047208</ele><time>2008-11-01T13:32:39Z</time></trkpt>
<trkpt lat="46.26073700" lon="7.00237500"><ele>435.6010130736</ele><time>2008-11-01T13:32:40Z</time></trkpt>
<trkpt lat="46.26075900" lon="7.00239000"><ele>435.6570130632</ele><time>2008-11-01T13:32:41Z</time></trkpt>
<trkpt lat="46.26078200" lon="7.00240400"><ele>435.680999604</ele><time>2008-11-01T13:32:42Z</time></trkpt>
<trkpt lat="46.26080600" lon="7.00241800"><ele>435.79098516</ele><time>2008-11-01T13:32:43Z</time></trkpt>
<trkpt lat="46.26082900" lon="7.00243200"><ele>435.8309935128</ele><time>2008-11-01T13:32:44Z</time></trkpt>
<trkpt lat="46.26085300" lon="7.00244400"><ele>435.92098998</ele><time>2008-11-01T13:32:45Z</time></trkpt>
<trkpt lat="46.26087500" lon="7.00245800"><ele>436.0010069904</ele><time>2008-11-01T13:32:46Z</time></trkpt>
<trkpt lat="46.26089800" lon="7.00247100"><ele>436.0910034576</ele><time>2008-11-01T13:32:47Z</time></trkpt>
<trkpt lat="46.26091800" lon="7.00247900"><ele>436.161010836</ele><time>2008-11-01T13:32:48Z</time></trkpt>
<trkpt lat="46.26093500" lon="7.00248600"><ele>436.2210082776</ele><time>2008-11-01T13:32:49Z</time></trkpt>
<trkpt lat="46.26094900" lon="7.00249400"><ele>436.2510069984</ele><time>2008-11-01T13:32:50Z</time></trkpt>
<trkpt lat="46.26096400" lon="7.00250400"><ele>436.300994808</ele><time>2008-11-01T13:32:51Z</time></trkpt>
<trkpt lat="46.26098100" lon="7.00251800"><ele>436.4010009072</ele><time>2008-11-01T13:32:52Z</time></trkpt>
<trkpt lat="46.26100200" lon="7.00253100"><ele>436.4509887168</ele><time>2008-11-01T13:32:53Z</time></trkpt>
<trkpt lat="46.26102500" lon="7.00254200"><ele>436.550994816</ele><time>2008-11-01T13:32:54Z</time></trkpt>
<trkpt lat="46.26104900" lon="7.00255600"><ele>436.6820066952</ele><time>2008-11-01T13:32:55Z</time></trkpt>
<trkpt lat="46.26107300" lon="7.00257100"><ele>436.7810057352</ele><time>2008-11-01T13:32:56Z</time></trkpt>
<trkpt lat="46.26109800" lon="7.00258500"><ele>436.8710022024</ele><time>2008-11-01T13:32:57Z</time></trkpt>
<trkpt lat="46.26112300" lon="7.00259800"><ele>436.9809874536</ele><time>2008-11-01T13:32:58Z</time></trkpt>
<trkpt lat="46.26114700" lon="7.00261100"><ele>437.0910034896</ele><time>2008-11-01T13:32:59Z</time></trkpt>
<trkpt lat="46.26116900" lon="7.00262200"><ele>437.2309874616</ele><time>2008-11-01T13:33:00Z</time></trkpt>
<trkpt lat="46.26119000" lon="7.00263300"><ele>437.4020079984</ele><time>2008-11-01T13:33:01Z</time></trkpt>
<trkpt lat="46.26120800" lon="7.00264500"><ele>437.5109861904</ele><time>2008-11-01T13:33:02Z</time></trkpt>
<trkpt lat="46.26122600" lon="7.00265700"><ele>437.6210022264</ele><time>2008-11-01T13:33:03Z</time></trkpt>
<trkpt lat="46.26124400" lon="7.00267200"><ele>437.7409974144</ele><time>2008-11-01T13:33:04Z</time></trkpt>
<trkpt lat="46.26126500" lon="7.00268700"><ele>437.8099974288</ele><time>2008-11-01T13:33:05Z</time></trkpt>
<trkpt lat="46.26128900" lon="7.00270000"><ele>437.9710083336</ele><time>2008-11-01T13:33:06Z</time></trkpt>
<trkpt lat="46.26131500" lon="7.00271500"><ele>438.1409913312</ele><time>2008-11-01T13:33:07Z</time></trkpt>
<trkpt lat="46.26134000" lon="7.00273300"><ele>438.311004504</ele><time>2008-11-01T13:33:08Z</time></trkpt>
<trkpt lat="46.26136600" lon="7.00275100"><ele>438.6520080384</ele><time>2008-11-01T13:33:09Z</time></trkpt>
<trkpt lat="46.26139100" lon="7.00277100"><ele>438.8619993888</ele><time>2008-11-01T13:33:10Z</time></trkpt>
<trkpt lat="46.26141700" lon="7.00279100"><ele>439.0620115872</ele><time>2008-11-01T13:33:11Z</time></trkpt>
<trkpt lat="46.26144300" lon="7.00281200"><ele>439.2319945848</ele><time>2008-11-01T13:33:12Z</time></trkpt>
<trkpt lat="46.26146900" lon="7.00283300"><ele>439.4920045296</ele><time>2008-11-01T13:33:13Z</time></trkpt>
<trkpt lat="46.26149300" lon="7.00285400"><ele>439.6919859432</ele><time>2008-11-01T13:33:14Z</time></trkpt>
<trkpt lat="46.26151800" lon="7.00287500"><ele>440.0429994144</ele><time>2008-11-01T13:33:15Z</time></trkpt>
<trkpt lat="46.26154200" lon="7.00289600"><ele>440.321991084</ele><time>2008-11-01T13:33:16Z</time></trkpt>
<trkpt lat="46.26156500" lon="7.00291700"><ele>440.571991092</ele><time>2008-11-01T13:33:17Z</time></trkpt>
<trkpt lat="46.26158800" lon="7.00293700"><ele>440.8120116432</ele><time>2008-11-01T13:33:18Z</time></trkpt>
<trkpt lat="46.26160900" lon="7.00295800"><ele>441.11300652</ele><time>2008-11-01T13:33:19Z</time></trkpt>
<trkpt lat="46.26162900" lon="7.00298000"><ele>441.332000748</ele><time>2008-11-01T13:33:20Z</time></trkpt>
<trkpt lat="46.26164900" lon="7.00300400"><ele>441.5320129464</ele><time>2008-11-01T13:33:21Z</time></trkpt>
<trkpt lat="46.26166800" lon="7.00302500"><ele>441.832000764</ele><time>2008-11-01T13:33:22Z</time></trkpt>
<trkpt lat="46.26168800" lon="7.00304400"><ele>442.1730042984</ele><time>2008-11-01T13:33:23Z</time></trkpt>
<trkpt lat="46.26170600" lon="7.00306200"><ele>442.5130004688</ele><time>2008-11-01T13:33:24Z</time></trkpt>
<trkpt lat="46.26172300" lon="7.00307900"><ele>442.8129882864</ele><time>2008-11-01T13:33:25Z</time></trkpt>
<trkpt lat="46.26174100" lon="7.00309400"><ele>443.1239927952</ele><time>2008-11-01T13:33:26Z</time></trkpt>
<trkpt lat="46.26175700" lon="7.00311100"><ele>443.3219908752</ele><time>2008-11-01T13:33:27Z</time></trkpt>
<trkpt lat="46.26177300" lon="7.00313000"><ele>443.5530091584</ele><time>2008-11-01T13:33:28Z</time></trkpt>
<trkpt lat="46.26178800" lon="7.00314900"><ele>443.8429870392</ele><time>2008-11-01T13:33:29Z</time></trkpt>
<trkpt lat="46.26180500" lon="7.00317000"><ele>444.113006616</ele><time>2008-11-01T13:33:30Z</time></trkpt>
<trkpt lat="46.26182400" lon="7.00319000"><ele>444.3330079032</ele><time>2008-11-01T13:33:31Z</time></trkpt>
<trkpt lat="46.26184300" lon="7.00320900"><ele>444.5130005328</ele><time>2008-11-01T13:33:32Z</time></trkpt>
<trkpt lat="46.26186200" lon="7.00322900"><ele>444.6929931624</ele><time>2008-11-01T13:33:33Z</time></trkpt>
<trkpt lat="46.26187900" lon="7.00324800"><ele>444.9330140184</ele><time>2008-11-01T13:33:34Z</time></trkpt>
<trkpt lat="46.26189800" lon="7.00326700"><ele>445.2139893264</ele><time>2008-11-01T13:33:35Z</time></trkpt>
<trkpt lat="46.26191500" lon="7.00328700"><ele>445.4230040976</ele><time>2008-11-01T13:33:36Z</time></trkpt>
<trkpt lat="46.26193100" lon="7.00330600"><ele>445.582000884</ele><time>2008-11-01T13:33:37Z</time></trkpt>
<trkpt lat="46.26194600" lon="7.00332600"><ele>445.6510008984</ele><time>2008-11-01T13:33:38Z</time></trkpt>
<trkpt lat="46.26196200" lon="7.00334400"><ele>445.830993528</ele><time>2008-11-01T13:33:39Z</time></trkpt>
<trkpt lat="46.26197700" lon="7.00336100"><ele>446.0220031536</ele><time>2008-11-01T13:33:40Z</time></trkpt>
<trkpt lat="46.26199200" lon="7.00338100"><ele>445.9599915936</ele><time>2008-11-01T13:33:41Z</time></trkpt>
<trkpt lat="46.26200700" lon="7.00340000"><ele>445.8810118176</ele><time>2008-11-01T13:33:42Z</time></trkpt>
<trkpt lat="46.26202300" lon="7.00341700"><ele>445.9920044328</ele><time>2008-11-01T13:33:43Z</time></trkpt>
<trkpt lat="46.26203800" lon="7.00343400"><ele>446.1520079736</ele><time>2008-11-01T13:33:44Z</time></trkpt>
<trkpt lat="46.26205200" lon="7.00345200"><ele>446.3219909712</ele><time>2008-11-01T13:33:45Z</time></trkpt>
<trkpt lat="46.26206600" lon="7.00347000"><ele>446.462005728</ele><time>2008-11-01T13:33:46Z</time></trkpt>
<trkpt lat="46.26208000" lon="7.00348900"><ele>446.592010548</ele><time>2008-11-01T13:33:47Z</time></trkpt>
<trkpt lat="46.26209400" lon="7.00350500"><ele>446.7420044568</ele><time>2008-11-01T13:33:48Z</time></trkpt>
<trkpt lat="46.26211000" lon="7.00352100"><ele>446.8619996448</ele><time>2008-11-01T13:33:49Z</time></trkpt>
<trkpt lat="46.26212600" lon="7.00353600"><ele>446.9920044648</ele><time>2008-11-01T13:33:50Z</time></trkpt>
<trkpt lat="46.26214200" lon="7.00355100"><ele>447.080993568</ele><time>2008-11-01T13:33:51Z</time></trkpt>
<trkpt lat="46.26215800" lon="7.00356600"><ele>447.1809996672</ele><time>2008-11-01T13:33:52Z</time></trkpt>
<trkpt lat="46.26217200" lon="7.00358300"><ele>447.351989724</ele><time>2008-11-01T13:33:53Z</time></trkpt>
<trkpt lat="46.26218700" lon="7.00359900"><ele>447.5320128336</ele><time>2008-11-01T13:33:54Z</time></trkpt>
<trkpt lat="46.26220400" lon="7.00361200"><ele>447.7030028904</ele><time>2008-11-01T13:33:55Z</time></trkpt>
<trkpt lat="46.26222000" lon="7.00362600"><ele>447.7609862136</ele><time>2008-11-01T13:33:56Z</time></trkpt>
<trkpt lat="46.26223600" lon="7.00364100"><ele>447.8909913384</ele><time>2008-11-01T13:33:57Z</time></trkpt>
<trkpt lat="46.26225200" lon="7.00365700"><ele>447.960998412</ele><time>2008-11-01T13:33:58Z</time></trkpt>
<trkpt lat="46.26226400" lon="7.00367700"><ele>447.8410035288</ele><time>2008-11-01T13:33:59Z</time></trkpt>
<trkpt lat="46.26227300" lon="7.00370000"><ele>447.6400147512</ele><time>2008-11-01T13:34:00Z</time></trkpt>
<trkpt lat="46.26228100" lon="7.00372200"><ele>447.5299987152</ele><time>2008-11-01T13:34:01Z</time></trkpt>
<trkpt lat="46.26227200" lon="7.00380500"><ele>446.398986804</ele><time>2008-11-01T13:34:05Z</time></trkpt>
<trkpt lat="46.26225800" lon="7.00381800"><ele>446.278991616</ele><time>2008-11-01T13:34:06Z</time></trkpt>
<trkpt lat="46.26224300" lon="7.00383300"><ele>446.0889893544</ele><time>2008-11-01T13:34:07Z</time></trkpt>
<trkpt lat="46.26222900" lon="7.00384800"><ele>445.8489989784</ele><time>2008-11-01T13:34:08Z</time></trkpt>
<trkpt lat="46.26221700" lon="7.00386100"><ele>445.7990111688</ele><time>2008-11-01T13:34:09Z</time></trkpt>
<trkpt lat="46.26220200" lon="7.00387200"><ele>445.5280150128</ele><time>2008-11-01T13:34:10Z</time></trkpt>
<trkpt lat="46.26218300" lon="7.00388200"><ele>445.1770018464</ele><time>2008-11-01T13:34:11Z</time></trkpt>
<trkpt lat="46.26215900" lon="7.00390000"><ele>444.9169922064</ele><time>2008-11-01T13:34:12Z</time></trkpt>
<trkpt lat="46.26213600" lon="7.00392500"><ele>444.4159851312</ele><time>2008-11-01T13:34:13Z</time></trkpt>
<trkpt lat="46.26210500" lon="7.00393300"><ele>444.2279966832</ele><time>2008-11-01T13:34:14Z</time></trkpt>
<trkpt lat="46.26206600" lon="7.00392100"><ele>444.0490111128</ele><time>2008-11-01T13:34:15Z</time></trkpt>
<trkpt lat="46.26202700" lon="7.00390000"><ele>443.8900146312</ele><time>2008-11-01T13:34:16Z</time></trkpt>
<trkpt lat="46.26199500" lon="7.00387000"><ele>443.9800110984</ele><time>2008-11-01T13:34:17Z</time></trkpt>
<trkpt lat="46.26196600" lon="7.00383600"><ele>444.0289918488</ele><time>2008-11-01T13:34:18Z</time></trkpt>
<trkpt lat="46.26193100" lon="7.00380000"><ele>443.8380127032</ele><time>2008-11-01T13:34:19Z</time></trkpt>
<trkpt lat="46.26189300" lon="7.00376700"><ele>444.0690002016</ele><time>2008-11-01T13:34:20Z</time></trkpt>
<trkpt lat="46.26186100" lon="7.00374800"><ele>444.0490111128</ele><time>2008-11-01T13:34:21Z</time></trkpt>
<trkpt lat="46.26183400" lon="7.00374200"><ele>443.6270142936</ele><time>2008-11-01T13:34:22Z</time></trkpt>
<trkpt lat="46.26180100" lon="7.00373500"><ele>443.8880005128</ele><time>2008-11-01T13:34:23Z</time></trkpt>
<trkpt lat="46.26176900" lon="7.00373500"><ele>443.9790040392</ele><time>2008-11-01T13:34:24Z</time></trkpt>
<trkpt lat="46.26175100" lon="7.00375000"><ele>443.9890136712</ele><time>2008-11-01T13:34:25Z</time></trkpt>
<trkpt lat="46.26174200" lon="7.00377300"><ele>443.9190062928</ele><time>2008-11-01T13:34:26Z</time></trkpt>
<trkpt lat="46.26174500" lon="7.00380000"><ele>444.1979979624</ele><time>2008-11-01T13:34:27Z</time></trkpt>
<trkpt lat="46.26175100" lon="7.00382600"><ele>444.680999892</ele><time>2008-11-01T13:34:28Z</time></trkpt>
<trkpt lat="46.26175600" lon="7.00385000"><ele>444.6189880272</ele><time>2008-11-01T13:34:29Z</time></trkpt>
<trkpt lat="46.26175700" lon="7.00388300"><ele>444.3080139984</ele><time>2008-11-01T13:34:30Z</time></trkpt>
<trkpt lat="46.26175500" lon="7.00392700"><ele>444.0780030792</ele><time>2008-11-01T13:34:31Z</time></trkpt>
<trkpt lat="46.26174900" lon="7.00396800"><ele>444.1679992416</ele><time>2008-11-01T13:34:32Z</time></trkpt>
<trkpt lat="46.26173400" lon="7.00400700"><ele>444.278991552</ele><time>2008-11-01T13:34:33Z</time></trkpt>
<trkpt lat="46.26171700" lon="7.00403700"><ele>444.420013368</ele><time>2008-11-01T13:34:34Z</time></trkpt>
<trkpt lat="46.26170600" lon="7.00406400"><ele>444.4899902664</ele><time>2008-11-01T13:34:35Z</time></trkpt>
<trkpt lat="46.26214600" lon="7.00363100"><ele>431.0429991264</ele><time>2008-11-01T14:15:24Z</time></trkpt>
<trkpt lat="46.26214500" lon="7.00362900"><ele>430.8399962304</ele><time>2008-11-01T14:15:25Z</time></trkpt>
<trkpt lat="46.26213800" lon="7.00358700"><ele>431.7590026728</ele><time>2008-11-01T14:15:28Z</time></trkpt>
<trkpt lat="46.26213000" lon="7.00355600"><ele>432.0140074968</ele><time>2008-11-01T14:15:29Z</time></trkpt>
<trkpt lat="46.26211600" lon="7.00352000"><ele>432.3190001304</ele><time>2008-11-01T14:15:30Z</time></trkpt>
<trkpt lat="46.26209300" lon="7.00348500"><ele>432.4389953184</ele><time>2008-11-01T14:15:31Z</time></trkpt>
<trkpt lat="46.26206700" lon="7.00345000"><ele>432.6170043096</ele><time>2008-11-01T14:15:32Z</time></trkpt>
<trkpt lat="46.26203500" lon="7.00341500"><ele>432.5379943584</ele><time>2008-11-01T14:15:33Z</time></trkpt>
<trkpt lat="46.26200000" lon="7.00337800"><ele>432.427002048</ele><time>2008-11-01T14:15:34Z</time></trkpt>
<trkpt lat="46.26196300" lon="7.00333600"><ele>432.3559876104</ele><time>2008-11-01T14:15:35Z</time></trkpt>
<trkpt lat="46.26192500" lon="7.00329100"><ele>432.3359985216</ele><time>2008-11-01T14:15:36Z</time></trkpt>
<trkpt lat="46.26188500" lon="7.00324400"><ele>432.3760071792</ele><time>2008-11-01T14:15:37Z</time></trkpt>
<trkpt lat="46.26184300" lon="7.00319400"><ele>432.3559876104</ele><time>2008-11-01T14:15:38Z</time></trkpt>
<trkpt lat="46.26180100" lon="7.00314100"><ele>432.4060059</ele><time>2008-11-01T14:15:39Z</time></trkpt>
<trkpt lat="46.26175400" lon="7.00308700"><ele>432.2669982024</ele><time>2008-11-01T14:15:40Z</time></trkpt>
<trkpt lat="46.26170700" lon="7.00303300"><ele>432.3080139192</ele><time>2008-11-01T14:15:41Z</time></trkpt>
<trkpt lat="46.26165900" lon="7.00297800"><ele>432.2569885704</ele><time>2008-11-01T14:15:42Z</time></trkpt>
<trkpt lat="46.26161400" lon="7.00292600"><ele>432.316986012</ele><time>2008-11-01T14:15:43Z</time></trkpt>
<trkpt lat="46.26157100" lon="7.00287700"><ele>432.609008796</ele><time>2008-11-01T14:15:44Z</time></trkpt>
<trkpt lat="46.26152700" lon="7.00282800"><ele>432.598999164</ele><time>2008-11-01T14:15:45Z</time></trkpt>
<trkpt lat="46.26148000" lon="7.00278000"><ele>432.598999164</ele><time>2008-11-01T14:15:46Z</time></trkpt>
<trkpt lat="46.26143100" lon="7.00273400"><ele>432.5589905064</ele><time>2008-11-01T14:15:47Z</time></trkpt>
<trkpt lat="46.26137700" lon="7.00269000"><ele>432.156005892</ele><time>2008-11-01T14:15:48Z</time></trkpt>
<trkpt lat="46.26132100" lon="7.00264800"><ele>431.8760071632</ele><time>2008-11-01T14:15:49Z</time></trkpt>
<trkpt lat="46.26126700" lon="7.00260800"><ele>431.8880004336</ele><time>2008-11-01T14:15:50Z</time></trkpt>
<trkpt lat="46.26121100" lon="7.00256900"><ele>431.6570129352</ele><time>2008-11-01T14:15:51Z</time></trkpt>
<trkpt lat="46.26115500" lon="7.00253700"><ele>431.5169981784</ele><time>2008-11-01T14:15:52Z</time></trkpt>
<trkpt lat="46.26110000" lon="7.00250700"><ele>431.3179930392</ele><time>2008-11-01T14:15:53Z</time></trkpt>
<trkpt lat="46.26104400" lon="7.00247700"><ele>431.208007788</ele><time>2008-11-01T14:15:54Z</time></trkpt>
<trkpt lat="46.26098700" lon="7.00244600"><ele>431.0979920568</ele><time>2008-11-01T14:15:55Z</time></trkpt>
<trkpt lat="46.26092900" lon="7.00241500"><ele>430.967986932</ele><time>2008-11-01T14:15:56Z</time></trkpt>
<trkpt lat="46.26086900" lon="7.00238500"><ele>430.7359923744</ele><time>2008-11-01T14:15:57Z</time></trkpt>
<trkpt lat="46.26080500" lon="7.00235100"><ele>430.2470093544</ele><time>2008-11-01T14:15:58Z</time></trkpt>
<trkpt lat="46.26074100" lon="7.00231500"><ele>429.80700678</ele><time>2008-11-01T14:15:59Z</time></trkpt>
<trkpt lat="46.26067500" lon="7.00228000"><ele>429.427001952</ele><time>2008-11-01T14:16:00Z</time></trkpt>
<trkpt lat="46.26060900" lon="7.00224600"><ele>429.0369871872</ele><time>2008-11-01T14:16:01Z</time></trkpt>
<trkpt lat="46.26054200" lon="7.00221000"><ele>428.7380067336</ele><time>2008-11-01T14:16:02Z</time></trkpt>
<trkpt lat="46.26047700" lon="7.00217600"><ele>428.4979858776</ele><time>2008-11-01T14:16:03Z</time></trkpt>
<trkpt lat="46.26041300" lon="7.00214400"><ele>428.2070006328</ele><time>2008-11-01T14:16:04Z</time></trkpt>
<trkpt lat="46.26034800" lon="7.00211200"><ele>427.916992272</ele><time>2008-11-01T14:16:05Z</time></trkpt>
<trkpt lat="46.26028300" lon="7.00207800"><ele>427.6369935432</ele><time>2008-11-01T14:16:06Z</time></trkpt>
<trkpt lat="46.26021600" lon="7.00204500"><ele>427.296997068</ele><time>2008-11-01T14:16:07Z</time></trkpt>
<trkpt lat="46.26014900" lon="7.00201300"><ele>427.0270079712</ele><time>2008-11-01T14:16:08Z</time></trkpt>
<trkpt lat="46.26008100" lon="7.00198000"><ele>426.7569883944</ele><time>2008-11-01T14:16:09Z</time></trkpt>
<trkpt lat="46.26001400" lon="7.00194300"><ele>426.5480041032</ele><time>2008-11-01T14:16:10Z</time></trkpt>
<trkpt lat="46.25995000" lon="7.00190300"><ele>426.3380127528</ele><time>2008-11-01T14:16:11Z</time></trkpt>
<trkpt lat="46.25988700" lon="7.00186200"><ele>426.1679992752</ele><time>2008-11-01T14:16:12Z</time></trkpt>
<trkpt lat="46.25982500" lon="7.00182200"><ele>426.0490111464</ele><time>2008-11-01T14:16:13Z</time></trkpt>
<trkpt lat="46.25976400" lon="7.00178000"><ele>425.8280028</ele><time>2008-11-01T14:16:14Z</time></trkpt>
<trkpt lat="46.25970600" lon="7.00173800"><ele>425.69799798</ele><time>2008-11-01T14:16:15Z</time></trkpt>
<trkpt lat="46.25965200" lon="7.00169600"><ele>425.6990050392</ele><time>2008-11-01T14:16:16Z</time></trkpt>
<trkpt lat="46.25959900" lon="7.00165300"><ele>425.5490111304</ele><time>2008-11-01T14:16:17Z</time></trkpt>
<trkpt lat="46.25954700" lon="7.00161000"><ele>425.3890075896</ele><time>2008-11-01T14:16:18Z</time></trkpt>
<trkpt lat="46.25949600" lon="7.00157200"><ele>425.2390136808</ele><time>2008-11-01T14:16:19Z</time></trkpt>
<trkpt lat="46.25944800" lon="7.00153700"><ele>425.1289979496</ele><time>2008-11-01T14:16:20Z</time></trkpt>
<trkpt lat="46.25940000" lon="7.00150400"><ele>425.0589905712</ele><time>2008-11-01T14:16:21Z</time></trkpt>
<trkpt lat="46.25935000" lon="7.00147300"><ele>424.9790040408</ele><time>2008-11-01T14:16:22Z</time></trkpt>
<trkpt lat="46.25930100" lon="7.00144400"><ele>424.8890075736</ele><time>2008-11-01T14:16:23Z</time></trkpt>
<trkpt lat="46.25925100" lon="7.00141600"><ele>424.796996988</ele><time>2008-11-01T14:16:24Z</time></trkpt>
<trkpt lat="46.25920100" lon="7.00138700"><ele>424.709014944</ele><time>2008-11-01T14:16:25Z</time></trkpt>
<trkpt lat="46.25915100" lon="7.00135800"><ele>424.5880126968</ele><time>2008-11-01T14:16:26Z</time></trkpt>
<trkpt lat="46.25910100" lon="7.00132700"><ele>424.44799794</ele><time>2008-11-01T14:16:27Z</time></trkpt>
<trkpt lat="46.25905100" lon="7.00129700"><ele>424.308013968</ele><time>2008-11-01T14:16:28Z</time></trkpt>
<trkpt lat="46.25900100" lon="7.00126700"><ele>424.178009148</ele><time>2008-11-01T14:16:29Z</time></trkpt>
<trkpt lat="46.25895000" lon="7.00123600"><ele>424.0280152392</ele><time>2008-11-01T14:16:30Z</time></trkpt>
<trkpt lat="46.25890000" lon="7.00120600"><ele>423.8580017616</ele><time>2008-11-01T14:16:31Z</time></trkpt>
<trkpt lat="46.25885100" lon="7.00117700"><ele>423.678009132</ele><time>2008-11-01T14:16:32Z</time></trkpt>
<trkpt lat="46.25880200" lon="7.00115000"><ele>423.4570007856</ele><time>2008-11-01T14:16:33Z</time></trkpt>
<trkpt lat="46.25875200" lon="7.00112100"><ele>423.2269898664</ele><time>2008-11-01T14:16:34Z</time></trkpt>
<trkpt lat="46.25870200" lon="7.00109200"><ele>422.9760132792</ele><time>2008-11-01T14:16:35Z</time></trkpt>
<trkpt lat="46.25865700" lon="7.00106600"><ele>422.796996924</ele><time>2008-11-01T14:16:36Z</time></trkpt>
<trkpt lat="46.25861600" lon="7.00104100"><ele>422.5759888824</ele><time>2008-11-01T14:16:37Z</time></trkpt>
<trkpt lat="46.25857400" lon="7.00101600"><ele>422.3670042864</ele><time>2008-11-01T14:16:38Z</time></trkpt>
<trkpt lat="46.25853200" lon="7.00099400"><ele>422.1560058768</ele><time>2008-11-01T14:16:39Z</time></trkpt>
<trkpt lat="46.25849700" lon="7.00097200"><ele>421.9869994584</ele><time>2008-11-01T14:16:40Z</time></trkpt>
<trkpt lat="46.25846700" lon="7.00095200"><ele>421.8380126088</ele><time>2008-11-01T14:16:41Z</time></trkpt>
<trkpt lat="46.25843900" lon="7.00093400"><ele>421.6979981568</ele><time>2008-11-01T14:16:42Z</time></trkpt>
<trkpt lat="46.25841400" lon="7.00091500"><ele>421.5979920576</ele><time>2008-11-01T14:16:43Z</time></trkpt>
<trkpt lat="46.25839300" lon="7.00089900"><ele>421.4979859584</ele><time>2008-11-01T14:16:44Z</time></trkpt>
<trkpt lat="46.25837400" lon="7.00088500"><ele>421.4190064872</ele><time>2008-11-01T14:16:45Z</time></trkpt>
<trkpt lat="46.25835900" lon="7.00087200"><ele>421.3489991088</ele><time>2008-11-01T14:16:46Z</time></trkpt>
<trkpt lat="46.25834600" lon="7.00086200"><ele>421.2990112992</ele><time>2008-11-01T14:16:47Z</time></trkpt>
<trkpt lat="46.25833300" lon="7.00085400"><ele>421.2290039208</ele><time>2008-11-01T14:16:48Z</time></trkpt>
<trkpt lat="46.25831500" lon="7.00085000"><ele>421.2789917304</ele><time>2008-11-01T14:16:49Z</time></trkpt>
<trkpt lat="46.25829400" lon="7.00085000"><ele>421.3900145208</ele><time>2008-11-01T14:16:50Z</time></trkpt>
<trkpt lat="46.25827100" lon="7.00085500"><ele>421.4599914192</ele><time>2008-11-01T14:16:51Z</time></trkpt>
<trkpt lat="46.25824500" lon="7.00086900"><ele>421.5599975184</ele><time>2008-11-01T14:16:52Z</time></trkpt>
<trkpt lat="46.25822000" lon="7.00089200"><ele>421.6400145288</ele><time>2008-11-01T14:16:53Z</time></trkpt>
<trkpt lat="46.25819600" lon="7.00092000"><ele>421.739990148</ele><time>2008-11-01T14:16:54Z</time></trkpt>
<trkpt lat="46.25817500" lon="7.00094900"><ele>421.8299866152</ele><time>2008-11-01T14:16:55Z</time></trkpt>
<trkpt lat="46.25815500" lon="7.00097700"><ele>421.8789978456</ele><time>2008-11-01T14:16:56Z</time></trkpt>
<trkpt lat="46.25813100" lon="7.00101100"><ele>421.9500122832</ele><time>2008-11-01T14:16:57Z</time></trkpt>
<trkpt lat="46.25810500" lon="7.00104800"><ele>421.9790039448</ele><time>2008-11-01T14:16:58Z</time></trkpt>
<trkpt lat="46.25807600" lon="7.00108800"><ele>422.0199888768</ele><time>2008-11-01T14:16:59Z</time></trkpt>
<trkpt lat="46.25804700" lon="7.00113100"><ele>422.088989196</ele><time>2008-11-01T14:17:00Z</time></trkpt>
<trkpt lat="46.25801700" lon="7.00117600"><ele>422.0589904752</ele><time>2008-11-01T14:17:01Z</time></trkpt>
<trkpt lat="46.25798600" lon="7.00122200"><ele>422.1499940016</ele><time>2008-11-01T14:17:02Z</time></trkpt>
<trkpt lat="46.25795400" lon="7.00126700"><ele>422.1889952952</ele><time>2008-11-01T14:17:03Z</time></trkpt>
<trkpt lat="46.25792100" lon="7.00131300"><ele>422.2390135848</ele><time>2008-11-01T14:17:04Z</time></trkpt>
<trkpt lat="46.25788900" lon="7.00136000"><ele>422.3190001152</ele><time>2008-11-01T14:17:05Z</time></trkpt>
<trkpt lat="46.25785700" lon="7.00140800"><ele>422.2789917624</ele><time>2008-11-01T14:17:06Z</time></trkpt>
<trkpt lat="46.25782500" lon="7.00145600"><ele>422.2000122912</ele><time>2008-11-01T14:17:07Z</time></trkpt>
<trkpt lat="46.25779400" lon="7.00150300"><ele>422.1289978536</ele><time>2008-11-01T14:17:08Z</time></trkpt>
<trkpt lat="46.25776300" lon="7.00154800"><ele>422.0490113232</ele><time>2008-11-01T14:17:09Z</time></trkpt>
<trkpt lat="46.25773000" lon="7.00159300"><ele>421.9389952872</ele><time>2008-11-01T14:17:10Z</time></trkpt>
<trkpt lat="46.25769700" lon="7.00163700"><ele>421.838989188</ele><time>2008-11-01T14:17:11Z</time></trkpt>
<trkpt lat="46.25766300" lon="7.00168200"><ele>421.7489930256</ele><time>2008-11-01T14:17:12Z</time></trkpt>
<trkpt lat="46.25762800" lon="7.00172800"><ele>421.7390135688</ele><time>2008-11-01T14:17:13Z</time></trkpt>
<trkpt lat="46.25759400" lon="7.00177500"><ele>421.7789917464</ele><time>2008-11-01T14:17:14Z</time></trkpt>
<trkpt lat="46.25756100" lon="7.00182200"><ele>421.7690125944</ele><time>2008-11-01T14:17:15Z</time></trkpt>
<trkpt lat="46.25752800" lon="7.00187100"><ele>421.7690125944</ele><time>2008-11-01T14:17:16Z</time></trkpt>
<trkpt lat="46.25749400" lon="7.00191900"><ele>421.7890013784</ele><time>2008-11-01T14:17:17Z</time></trkpt>
<trkpt lat="46.25745800" lon="7.00196600"><ele>421.7590026576</ele><time>2008-11-01T14:17:18Z</time></trkpt>
<trkpt lat="46.25742300" lon="7.00201300"><ele>421.6889952792</ele><time>2008-11-01T14:17:19Z</time></trkpt>
<trkpt lat="46.25738800" lon="7.00206100"><ele>421.5989991168</ele><time>2008-11-01T14:17:20Z</time></trkpt>
<trkpt lat="46.25735300" lon="7.00210900"><ele>421.5289917384</ele><time>2008-11-01T14:17:21Z</time></trkpt>
<trkpt lat="46.25731700" lon="7.00215700"><ele>421.4989930176</ele><time>2008-11-01T14:17:22Z</time></trkpt>
<trkpt lat="46.25728000" lon="7.00220600"><ele>421.579010028</ele><time>2008-11-01T14:17:23Z</time></trkpt>
<trkpt lat="46.25724200" lon="7.00225200"><ele>421.7309875752</ele><time>2008-11-01T14:17:24Z</time></trkpt>
<trkpt lat="46.25720500" lon="7.00229700"><ele>421.8190000992</ele><time>2008-11-01T14:17:25Z</time></trkpt>
<trkpt lat="46.25717100" lon="7.00234300"><ele>421.709014848</ele><time>2008-11-01T14:17:26Z</time></trkpt>
<trkpt lat="46.25713700" lon="7.00238800"><ele>421.8590087568</ele><time>2008-11-01T14:17:27Z</time></trkpt>
<trkpt lat="46.25710300" lon="7.00243600"><ele>421.8689879088</ele><time>2008-11-01T14:17:28Z</time></trkpt>
<trkpt lat="46.25706900" lon="7.00248500"><ele>421.8989869344</ele><time>2008-11-01T14:17:29Z</time></trkpt>
<trkpt lat="46.25703400" lon="7.00253500"><ele>421.968994008</ele><time>2008-11-01T14:17:30Z</time></trkpt>
<trkpt lat="46.25699800" lon="7.00258500"><ele>421.9989930336</ele><time>2008-11-01T14:17:31Z</time></trkpt>
<trkpt lat="46.25696200" lon="7.00263500"><ele>422.0390013864</ele><time>2008-11-01T14:17:32Z</time></trkpt>
<trkpt lat="46.25692700" lon="7.00268500"><ele>422.0989991328</ele><time>2008-11-01T14:17:33Z</time></trkpt>
<trkpt lat="46.25689300" lon="7.00273700"><ele>422.1189879168</ele><time>2008-11-01T14:17:34Z</time></trkpt>
<trkpt lat="46.25685800" lon="7.00279000"><ele>422.1189879168</ele><time>2008-11-01T14:17:35Z</time></trkpt>
<trkpt lat="46.25682300" lon="7.00284200"><ele>422.0989991328</ele><time>2008-11-01T14:17:36Z</time></trkpt>
<trkpt lat="46.25678700" lon="7.00289400"><ele>422.1489869424</ele><time>2008-11-01T14:17:37Z</time></trkpt>
<trkpt lat="46.25675100" lon="7.00294600"><ele>422.1789856632</ele><time>2008-11-01T14:17:38Z</time></trkpt>
<trkpt lat="46.25671400" lon="7.00299600"><ele>422.218994016</ele><time>2008-11-01T14:17:39Z</time></trkpt>
<trkpt lat="46.25667600" lon="7.00304700"><ele>422.2590026736</ele><time>2008-11-01T14:17:40Z</time></trkpt>
<trkpt lat="46.25664000" lon="7.00309900"><ele>422.2789917624</ele><time>2008-11-01T14:17:41Z</time></trkpt>
<trkpt lat="46.25660300" lon="7.00315100"><ele>422.3489991408</ele><time>2008-11-01T14:17:42Z</time></trkpt>
<trkpt lat="46.25656700" lon="7.00320400"><ele>422.2990113312</ele><time>2008-11-01T14:17:43Z</time></trkpt>
<trkpt lat="46.25653200" lon="7.00325400"><ele>422.2699888848</ele><time>2008-11-01T14:17:44Z</time></trkpt>
<trkpt lat="46.25649600" lon="7.00330400"><ele>422.218994016</ele><time>2008-11-01T14:17:45Z</time></trkpt>
<trkpt lat="46.25646200" lon="7.00335300"><ele>422.209014864</ele><time>2008-11-01T14:17:46Z</time></trkpt>
<trkpt lat="46.25642700" lon="7.00340300"><ele>422.2590026736</ele><time>2008-11-01T14:17:47Z</time></trkpt>
<trkpt lat="46.25639200" lon="7.00345200"><ele>422.2590026736</ele><time>2008-11-01T14:17:48Z</time></trkpt>
<trkpt lat="46.25635800" lon="7.00350100"><ele>422.2390135848</ele><time>2008-11-01T14:17:49Z</time></trkpt>
<trkpt lat="46.25632500" lon="7.00354600"><ele>422.1889952952</ele><time>2008-11-01T14:17:50Z</time></trkpt>
<trkpt lat="46.25629300" lon="7.00358600"><ele>422.1889952952</ele><time>2008-11-01T14:17:51Z</time></trkpt>
<trkpt lat="46.25626200" lon="7.00362500"><ele>422.1789856632</ele><time>2008-11-01T14:17:52Z</time></trkpt>
<trkpt lat="46.25623100" lon="7.00366700"><ele>422.1789856632</ele><time>2008-11-01T14:17:53Z</time></trkpt>
<trkpt lat="46.25620000" lon="7.00370900"><ele>422.1900023544</ele><time>2008-11-01T14:17:54Z</time></trkpt>
<trkpt lat="46.25616900" lon="7.00375100"><ele>422.1799927224</ele><time>2008-11-01T14:17:55Z</time></trkpt>
<trkpt lat="46.25613900" lon="7.00379500"><ele>422.1499940016</ele><time>2008-11-01T14:17:56Z</time></trkpt>
<trkpt lat="46.25610800" lon="7.00383700"><ele>422.1400145448</ele><time>2008-11-01T14:17:57Z</time></trkpt>
<trkpt lat="46.25607800" lon="7.00388000"><ele>422.1499940016</ele><time>2008-11-01T14:17:58Z</time></trkpt>
<trkpt lat="46.25604900" lon="7.00392200"><ele>422.109985344</ele><time>2008-11-01T14:17:59Z</time></trkpt>
<trkpt lat="46.25602000" lon="7.00396400"><ele>422.1300049128</ele><time>2008-11-01T14:18:00Z</time></trkpt>
<trkpt lat="46.25599100" lon="7.00400500"><ele>422.0190126024</ele><time>2008-11-01T14:18:01Z</time></trkpt>
<trkpt lat="46.25596100" lon="7.00404600"><ele>421.9779968856</ele><time>2008-11-01T14:18:02Z</time></trkpt>
<trkpt lat="46.25593200" lon="7.00408700"><ele>421.9179991392</ele><time>2008-11-01T14:18:03Z</time></trkpt>
<trkpt lat="46.25590200" lon="7.00412900"><ele>421.9179991392</ele><time>2008-11-01T14:18:04Z</time></trkpt>
<trkpt lat="46.25587200" lon="7.00417100"><ele>421.9190061984</ele><time>2008-11-01T14:18:05Z</time></trkpt>
<trkpt lat="46.25584100" lon="7.00421400"><ele>421.9389952872</ele><time>2008-11-01T14:18:06Z</time></trkpt>
<trkpt lat="46.25581000" lon="7.00425700"><ele>421.9790039448</ele><time>2008-11-01T14:18:07Z</time></trkpt>
<trkpt lat="46.25577900" lon="7.00430300"><ele>422.0199888768</ele><time>2008-11-01T14:18:08Z</time></trkpt>
<trkpt lat="46.25574700" lon="7.00434700"><ele>422.0400084456</ele><time>2008-11-01T14:18:09Z</time></trkpt>
<trkpt lat="46.25571400" lon="7.00439000"><ele>422.1809997816</ele><time>2008-11-01T14:18:10Z</time></trkpt>
<trkpt lat="46.25568400" lon="7.00443300"><ele>422.2000122912</ele><time>2008-11-01T14:18:11Z</time></trkpt>
<trkpt lat="46.25565300" lon="7.00447600"><ele>422.230011012</ele><time>2008-11-01T14:18:12Z</time></trkpt>
<trkpt lat="46.25562200" lon="7.00451800"><ele>422.2699888848</ele><time>2008-11-01T14:18:13Z</time></trkpt>
<trkpt lat="46.25559300" lon="7.00455900"><ele>422.3299866312</ele><time>2008-11-01T14:18:14Z</time></trkpt>
<trkpt lat="46.25556600" lon="7.00459800"><ele>422.4010010688</ele><time>2008-11-01T14:18:15Z</time></trkpt>
<trkpt lat="46.25553800" lon="7.00463500"><ele>422.4299927304</ele><time>2008-11-01T14:18:16Z</time></trkpt>
<trkpt lat="46.25551000" lon="7.00467300"><ele>422.51098632</ele><time>2008-11-01T14:18:17Z</time></trkpt>
<trkpt lat="46.25548300" lon="7.00471100"><ele>422.5509949776</ele><time>2008-11-01T14:18:18Z</time></trkpt>
<trkpt lat="46.25545700" lon="7.00475000"><ele>422.600006208</ele><time>2008-11-01T14:18:19Z</time></trkpt>
<trkpt lat="46.25542900" lon="7.00478800"><ele>422.7500001168</ele><time>2008-11-01T14:18:20Z</time></trkpt>
<trkpt lat="46.25540100" lon="7.00482800"><ele>422.6789856792</ele><time>2008-11-01T14:18:21Z</time></trkpt>
<trkpt lat="46.25537300" lon="7.00486900"><ele>422.7290039688</ele><time>2008-11-01T14:18:22Z</time></trkpt>
<trkpt lat="46.25534400" lon="7.00490900"><ele>422.7690123216</ele><time>2008-11-01T14:18:23Z</time></trkpt>
<trkpt lat="46.25531600" lon="7.00494900"><ele>422.791992108</ele><time>2008-11-01T14:18:24Z</time></trkpt>
<trkpt lat="46.25528900" lon="7.00499000"><ele>422.850006216</ele><time>2008-11-01T14:18:25Z</time></trkpt>
<trkpt lat="46.25526200" lon="7.00503300"><ele>422.8900145688</ele><time>2008-11-01T14:18:26Z</time></trkpt>
<trkpt lat="46.25523500" lon="7.00507500"><ele>422.9400023784</ele><time>2008-11-01T14:18:27Z</time></trkpt>
<trkpt lat="46.25520900" lon="7.00511600"><ele>422.9200132896</ele><time>2008-11-01T14:18:28Z</time></trkpt>
<trkpt lat="46.25518300" lon="7.00515900"><ele>423.001007184</ele><time>2008-11-01T14:18:29Z</time></trkpt>
<trkpt lat="46.25515600" lon="7.00520100"><ele>423.0799866552</ele><time>2008-11-01T14:18:30Z</time></trkpt>
<trkpt lat="46.25512900" lon="7.00524400"><ele>423.1809998136</ele><time>2008-11-01T14:18:31Z</time></trkpt>
<trkpt lat="46.25510200" lon="7.00528900"><ele>423.251007192</ele><time>2008-11-01T14:18:32Z</time></trkpt>
<trkpt lat="46.25507500" lon="7.00533300"><ele>423.3309937224</ele><time>2008-11-01T14:18:33Z</time></trkpt>
<trkpt lat="46.25504700" lon="7.00537600"><ele>423.381012012</ele><time>2008-11-01T14:18:34Z</time></trkpt>
<trkpt lat="46.25502200" lon="7.00542000"><ele>423.3999940416</ele><time>2008-11-01T14:18:35Z</time></trkpt>
<trkpt lat="46.25499900" lon="7.00546500"><ele>423.2990113632</ele><time>2008-11-01T14:18:36Z</time></trkpt>
<trkpt lat="46.25497400" lon="7.00550800"><ele>423.3299866632</ele><time>2008-11-01T14:18:37Z</time></trkpt>
<trkpt lat="46.25494900" lon="7.00555000"><ele>423.3399962952</ele><time>2008-11-01T14:18:38Z</time></trkpt>
<trkpt lat="46.25492400" lon="7.00559300"><ele>423.359985384</ele><time>2008-11-01T14:18:39Z</time></trkpt>
<trkpt lat="46.25490100" lon="7.00563700"><ele>423.350006232</ele><time>2008-11-01T14:18:40Z</time></trkpt>
<trkpt lat="46.25487700" lon="7.00568100"><ele>423.3200072064</ele><time>2008-11-01T14:18:41Z</time></trkpt>
<trkpt lat="46.25485200" lon="7.00572500"><ele>423.2390136168</ele><time>2008-11-01T14:18:42Z</time></trkpt>
<trkpt lat="46.25482700" lon="7.00576900"><ele>423.209014896</ele><time>2008-11-01T14:18:43Z</time></trkpt>
<trkpt lat="46.25480000" lon="7.00581300"><ele>423.1589966064</ele><time>2008-11-01T14:18:44Z</time></trkpt>
<trkpt lat="46.25477400" lon="7.00585600"><ele>423.1090087968</ele><time>2008-11-01T14:18:45Z</time></trkpt>
<trkpt lat="46.25474900" lon="7.00590100"><ele>423.0989991648</ele><time>2008-11-01T14:18:46Z</time></trkpt>
<trkpt lat="46.25472300" lon="7.00594400"><ele>423.1189879488</ele><time>2008-11-01T14:18:47Z</time></trkpt>
<trkpt lat="46.25469600" lon="7.00598500"><ele>423.088989228</ele><time>2008-11-01T14:18:48Z</time></trkpt>
<trkpt lat="46.25466900" lon="7.00602500"><ele>423.0589905072</ele><time>2008-11-01T14:18:49Z</time></trkpt>
<trkpt lat="46.25464300" lon="7.00606500"><ele>423.0390014184</ele><time>2008-11-01T14:18:50Z</time></trkpt>
<trkpt lat="46.25461600" lon="7.00610200"><ele>423.0190123296</ele><time>2008-11-01T14:18:51Z</time></trkpt>
<trkpt lat="46.25458900" lon="7.00613800"><ele>423.0299988456</ele><time>2008-11-01T14:18:52Z</time></trkpt>
<trkpt lat="46.25456200" lon="7.00617200"><ele>422.989990188</ele><time>2008-11-01T14:18:53Z</time></trkpt>
<trkpt lat="46.25453500" lon="7.00620500"><ele>423.0299988456</ele><time>2008-11-01T14:18:54Z</time></trkpt>
<trkpt lat="46.25450800" lon="7.00623800"><ele>423.0000001248</ele><time>2008-11-01T14:18:55Z</time></trkpt>
<trkpt lat="46.25448000" lon="7.00627200"><ele>423.0000001248</ele><time>2008-11-01T14:18:56Z</time></trkpt>
<trkpt lat="46.25445100" lon="7.00630300"><ele>423.0000001248</ele><time>2008-11-01T14:18:57Z</time></trkpt>
<trkpt lat="46.25442000" lon="7.00633200"><ele>423.0299988456</ele><time>2008-11-01T14:18:58Z</time></trkpt>
<trkpt lat="46.25438700" lon="7.00636200"><ele>423.1499940336</ele><time>2008-11-01T14:18:59Z</time></trkpt>
<trkpt lat="46.25435600" lon="7.00639200"><ele>423.2099914752</ele><time>2008-11-01T14:19:00Z</time></trkpt>
<trkpt lat="46.25432400" lon="7.00642000"><ele>423.2699889168</ele><time>2008-11-01T14:19:01Z</time></trkpt>
<trkpt lat="46.25429300" lon="7.00644600"><ele>423.2699889168</ele><time>2008-11-01T14:19:02Z</time></trkpt>
<trkpt lat="46.25426200" lon="7.00647300"><ele>423.3099975744</ele><time>2008-11-01T14:19:03Z</time></trkpt>
<trkpt lat="46.25423000" lon="7.00649900"><ele>423.3190001472</ele><time>2008-11-01T14:19:04Z</time></trkpt>
<trkpt lat="46.25419700" lon="7.00652400"><ele>423.329010084</ele><time>2008-11-01T14:19:05Z</time></trkpt>
<trkpt lat="46.25416300" lon="7.00654700"><ele>423.4299927624</ele><time>2008-11-01T14:19:06Z</time></trkpt>
<trkpt lat="46.25412900" lon="7.00656900"><ele>423.4400023944</ele><time>2008-11-01T14:19:07Z</time></trkpt>
<trkpt lat="46.25409600" lon="7.00659000"><ele>423.4200133056</ele><time>2008-11-01T14:19:08Z</time></trkpt>
<trkpt lat="46.25406300" lon="7.00661000"><ele>423.4400023944</ele><time>2008-11-01T14:19:09Z</time></trkpt>
<trkpt lat="46.25403100" lon="7.00663000"><ele>423.4200133056</ele><time>2008-11-01T14:19:10Z</time></trkpt>
<trkpt lat="46.25399900" lon="7.00664800"><ele>423.5509950096</ele><time>2008-11-01T14:19:11Z</time></trkpt>
<trkpt lat="46.25396800" lon="7.00666200"><ele>423.7219847616</ele><time>2008-11-01T14:19:12Z</time></trkpt>
<trkpt lat="46.25393900" lon="7.00667600"><ele>423.8120117088</ele><time>2008-11-01T14:19:13Z</time></trkpt>
<trkpt lat="46.25391200" lon="7.00669100"><ele>423.9609985584</ele><time>2008-11-01T14:19:14Z</time></trkpt>
<trkpt lat="46.25388700" lon="7.00670600"><ele>424.1019898944</ele><time>2008-11-01T14:19:15Z</time></trkpt>
<trkpt lat="46.25386300" lon="7.00672000"><ele>424.2520142832</ele><time>2008-11-01T14:19:16Z</time></trkpt>
<trkpt lat="46.25383800" lon="7.00673300"><ele>424.3120117248</ele><time>2008-11-01T14:19:17Z</time></trkpt>
<trkpt lat="46.25381100" lon="7.00674800"><ele>424.3410033864</ele><time>2008-11-01T14:19:18Z</time></trkpt>
<trkpt lat="46.25378300" lon="7.00676300"><ele>424.3309937544</ele><time>2008-11-01T14:19:19Z</time></trkpt>
<trkpt lat="46.25375400" lon="7.00677900"><ele>424.390991196</ele><time>2008-11-01T14:19:20Z</time></trkpt>
<trkpt lat="46.25372300" lon="7.00679700"><ele>424.5620117328</ele><time>2008-11-01T14:19:21Z</time></trkpt>
<trkpt lat="46.25369200" lon="7.00681400"><ele>424.7030030688</ele><time>2008-11-01T14:19:22Z</time></trkpt>
<trkpt lat="46.25366100" lon="7.00683000"><ele>424.8120117408</ele><time>2008-11-01T14:19:23Z</time></trkpt>
<trkpt lat="46.25362900" lon="7.00684500"><ele>424.9230040512</ele><time>2008-11-01T14:19:24Z</time></trkpt>
<trkpt lat="46.25359900" lon="7.00686400"><ele>425.1220091904</ele><time>2008-11-01T14:19:25Z</time></trkpt>
<trkpt lat="46.25357000" lon="7.00688400"><ele>425.3219909088</ele><time>2008-11-01T14:19:26Z</time></trkpt>
<trkpt lat="46.25354400" lon="7.00690500"><ele>425.541992196</ele><time>2008-11-01T14:19:27Z</time></trkpt>
<trkpt lat="46.25352000" lon="7.00692700"><ele>425.6419982952</ele><time>2008-11-01T14:19:28Z</time></trkpt>
<trkpt lat="46.25349600" lon="7.00694900"><ele>425.7430114536</ele><time>2008-11-01T14:19:29Z</time></trkpt>
<trkpt lat="46.25347200" lon="7.00697100"><ele>425.8619995824</ele><time>2008-11-01T14:19:30Z</time></trkpt>
<trkpt lat="46.25344800" lon="7.00699300"><ele>426.020996064</ele><time>2008-11-01T14:19:31Z</time></trkpt>
<trkpt lat="46.25342500" lon="7.00701300"><ele>426.1520079432</ele><time>2008-11-01T14:19:32Z</time></trkpt>
<trkpt lat="46.25340600" lon="7.00703300"><ele>426.2720031312</ele><time>2008-11-01T14:19:33Z</time></trkpt>
<trkpt lat="46.25339000" lon="7.00705100"><ele>426.4630127568</ele><time>2008-11-01T14:19:34Z</time></trkpt>
<trkpt lat="46.25337500" lon="7.00706800"><ele>426.671997048</ele><time>2008-11-01T14:19:35Z</time></trkpt>
<trkpt lat="46.25336200" lon="7.00708100"><ele>426.8320005888</ele><time>2008-11-01T14:19:36Z</time></trkpt>
<trkpt lat="46.25335000" lon="7.00709600"><ele>426.9419861448</ele><time>2008-11-01T14:19:37Z</time></trkpt>
<trkpt lat="46.25334000" lon="7.00710900"><ele>426.9509887176</ele><time>2008-11-01T14:19:38Z</time></trkpt>
<trkpt lat="46.25333000" lon="7.00711800"><ele>426.9809874384</ele><time>2008-11-01T14:19:39Z</time></trkpt>
<trkpt lat="46.25332100" lon="7.00712700"><ele>427.0809935376</ele><time>2008-11-01T14:19:40Z</time></trkpt>
<trkpt lat="46.25331300" lon="7.00713900"><ele>427.0799864784</ele><time>2008-11-01T14:19:41Z</time></trkpt>
<trkpt lat="46.25330200" lon="7.00715200"><ele>427.130004768</ele><time>2008-11-01T14:19:42Z</time></trkpt>
<trkpt lat="46.25328800" lon="7.00716400"><ele>427.1499938568</ele><time>2008-11-01T14:19:43Z</time></trkpt>
<trkpt lat="46.25326900" lon="7.00717700"><ele>427.098998988</ele><time>2008-11-01T14:19:44Z</time></trkpt>
<trkpt lat="46.25324600" lon="7.00719400"><ele>427.0289916096</ele><time>2008-11-01T14:19:45Z</time></trkpt>
<trkpt lat="46.25322100" lon="7.00721900"><ele>427.0090028256</ele><time>2008-11-01T14:19:46Z</time></trkpt>
<trkpt lat="46.25319700" lon="7.00725300"><ele>427.0190124576</ele><time>2008-11-01T14:19:47Z</time></trkpt>
<trkpt lat="46.25317800" lon="7.00729300"><ele>427.0289916096</ele><time>2008-11-01T14:19:48Z</time></trkpt>
<trkpt lat="46.25316000" lon="7.00733500"><ele>427.0599976944</ele><time>2008-11-01T14:19:49Z</time></trkpt>
<trkpt lat="46.25314400" lon="7.00737700"><ele>427.1799925776</ele><time>2008-11-01T14:19:50Z</time></trkpt>
<trkpt lat="46.25312700" lon="7.00742100"><ele>427.2909851928</ele><time>2008-11-01T14:19:51Z</time></trkpt>
<trkpt lat="46.25310800" lon="7.00746300"><ele>427.3410034824</ele><time>2008-11-01T14:19:52Z</time></trkpt>
<trkpt lat="46.25308900" lon="7.00750600"><ele>427.4509887336</ele><time>2008-11-01T14:19:53Z</time></trkpt>
<trkpt lat="46.25307000" lon="7.00754800"><ele>427.531005744</ele><time>2008-11-01T14:19:54Z</time></trkpt>
<trkpt lat="46.25305000" lon="7.00759000"><ele>427.6210022112</ele><time>2008-11-01T14:19:55Z</time></trkpt>
<trkpt lat="46.25303000" lon="7.00763200"><ele>427.6600038096</ele><time>2008-11-01T14:19:56Z</time></trkpt>
<trkpt lat="46.25301000" lon="7.00767400"><ele>427.6799925936</ele><time>2008-11-01T14:19:57Z</time></trkpt>
<trkpt lat="46.25299000" lon="7.00771700"><ele>427.718994192</ele><time>2008-11-01T14:19:58Z</time></trkpt>
<trkpt lat="46.25297000" lon="7.00775900"><ele>427.718994192</ele><time>2008-11-01T14:19:59Z</time></trkpt>
<trkpt lat="46.25294900" lon="7.00780200"><ele>427.6990051032</ele><time>2008-11-01T14:20:00Z</time></trkpt>
<trkpt lat="46.25293000" lon="7.00784600"><ele>427.6990051032</ele><time>2008-11-01T14:20:01Z</time></trkpt>
<trkpt lat="46.25290900" lon="7.00788800"><ele>427.7990112024</ele><time>2008-11-01T14:20:02Z</time></trkpt>
<trkpt lat="46.25288900" lon="7.00793000"><ele>427.9299926016</ele><time>2008-11-01T14:20:03Z</time></trkpt>
<trkpt lat="46.25287000" lon="7.00797100"><ele>428.03100576</ele><time>2008-11-01T14:20:04Z</time></trkpt>
<trkpt lat="46.25285200" lon="7.00801300"><ele>428.1099852312</ele><time>2008-11-01T14:20:05Z</time></trkpt>
<trkpt lat="46.25283300" lon="7.00805400"><ele>428.2300108992</ele><time>2008-11-01T14:20:06Z</time></trkpt>
<trkpt lat="46.25281400" lon="7.00809600"><ele>428.4020080152</ele><time>2008-11-01T14:20:07Z</time></trkpt>
<trkpt lat="46.25279500" lon="7.00813600"><ele>428.5109862072</ele><time>2008-11-01T14:20:08Z</time></trkpt>
<trkpt lat="46.25277500" lon="7.00817700"><ele>428.6700134736</ele><time>2008-11-01T14:20:09Z</time></trkpt>
<trkpt lat="46.25275500" lon="7.00821800"><ele>428.8210144416</ele><time>2008-11-01T14:20:10Z</time></trkpt>
<trkpt lat="46.25273600" lon="7.00825900"><ele>429.02099616</ele><time>2008-11-01T14:20:11Z</time></trkpt>
<trkpt lat="46.25271600" lon="7.00829900"><ele>429.2319945696</ele><time>2008-11-01T14:20:12Z</time></trkpt>
<trkpt lat="46.25269500" lon="7.00833800"><ele>429.3710022672</ele><time>2008-11-01T14:20:13Z</time></trkpt>
<trkpt lat="46.25267500" lon="7.00837800"><ele>429.5010070872</ele><time>2008-11-01T14:20:14Z</time></trkpt>
<trkpt lat="46.25265700" lon="7.00841800"><ele>429.5499878376</ele><time>2008-11-01T14:20:15Z</time></trkpt>
<trkpt lat="46.25263800" lon="7.00845500"><ele>429.598999068</ele><time>2008-11-01T14:20:16Z</time></trkpt>
<trkpt lat="46.25262000" lon="7.00849200"><ele>429.6489868776</ele><time>2008-11-01T14:20:17Z</time></trkpt>
<trkpt lat="46.25260200" lon="7.00853000"><ele>429.6589965096</ele><time>2008-11-01T14:20:18Z</time></trkpt>
<trkpt lat="46.25258600" lon="7.00856800"><ele>429.7590026088</ele><time>2008-11-01T14:20:19Z</time></trkpt>
<trkpt lat="46.25257000" lon="7.00860800"><ele>429.9809875344</ele><time>2008-11-01T14:20:20Z</time></trkpt>
<trkpt lat="46.25255500" lon="7.00864700"><ele>430.000000044</ele><time>2008-11-01T14:20:21Z</time></trkpt>
<trkpt lat="46.25253800" lon="7.00868600"><ele>430.1409910752</ele><time>2008-11-01T14:20:22Z</time></trkpt>
<trkpt lat="46.25252100" lon="7.00872500"><ele>430.3519897896</ele><time>2008-11-01T14:20:23Z</time></trkpt>
<trkpt lat="46.25250600" lon="7.00876400"><ele>430.4979859416</ele><time>2008-11-01T14:20:24Z</time></trkpt>
<trkpt lat="46.25249200" lon="7.00880100"><ele>430.6310119392</ele><time>2008-11-01T14:20:25Z</time></trkpt>
<trkpt lat="46.25247700" lon="7.00884100"><ele>430.9299926976</ele><time>2008-11-01T14:20:26Z</time></trkpt>
<trkpt lat="46.25246200" lon="7.00887700"><ele>430.9089965496</ele><time>2008-11-01T14:20:27Z</time></trkpt>
<trkpt lat="46.25244800" lon="7.00891400"><ele>431.0090026488</ele><time>2008-11-01T14:20:28Z</time></trkpt>
<trkpt lat="46.25243400" lon="7.00895000"><ele>431.0289917376</ele><time>2008-11-01T14:20:29Z</time></trkpt>
<trkpt lat="46.25242000" lon="7.00898800"><ele>431.0289917376</ele><time>2008-11-01T14:20:30Z</time></trkpt>
<trkpt lat="46.25240500" lon="7.00902400"><ele>430.98901356</ele><time>2008-11-01T14:20:31Z</time></trkpt>
<trkpt lat="46.25239000" lon="7.00906100"><ele>430.9490052072</ele><time>2008-11-01T14:20:32Z</time></trkpt>
<trkpt lat="46.25237700" lon="7.00909800"><ele>430.7980042392</ele><time>2008-11-01T14:20:33Z</time></trkpt>
<trkpt lat="46.25236300" lon="7.00913800"><ele>430.7780151504</ele><time>2008-11-01T14:20:34Z</time></trkpt>
<trkpt lat="46.25234900" lon="7.00917700"><ele>430.8179930232</ele><time>2008-11-01T14:20:35Z</time></trkpt>
<trkpt lat="46.25233500" lon="7.00921700"><ele>430.708007772</ele><time>2008-11-01T14:20:36Z</time></trkpt>
<trkpt lat="46.25232300" lon="7.00925900"><ele>430.5169981464</ele><time>2008-11-01T14:20:37Z</time></trkpt>
<trkpt lat="46.25231100" lon="7.00930100"><ele>430.3550109672</ele><time>2008-11-01T14:20:38Z</time></trkpt>
<trkpt lat="46.25229800" lon="7.00934500"><ele>430.2659910792</ele><time>2008-11-01T14:20:39Z</time></trkpt>
<trkpt lat="46.25228700" lon="7.00939000"><ele>430.4859923664</ele><time>2008-11-01T14:20:40Z</time></trkpt>
<trkpt lat="46.25227500" lon="7.00943500"><ele>430.3359984576</ele><time>2008-11-01T14:20:41Z</time></trkpt>
<trkpt lat="46.25226200" lon="7.00947700"><ele>430.0350035808</ele><time>2008-11-01T14:20:42Z</time></trkpt>
<trkpt lat="46.25224800" lon="7.00952000"><ele>430.0969849656</ele><time>2008-11-01T14:20:43Z</time></trkpt>
<trkpt lat="46.25223400" lon="7.00956400"><ele>430.1279907456</ele><time>2008-11-01T14:20:44Z</time></trkpt>
<trkpt lat="46.25222100" lon="7.00961000"><ele>430.1990051832</ele><time>2008-11-01T14:20:45Z</time></trkpt>
<trkpt lat="46.25220700" lon="7.00965500"><ele>430.2690125616</ele><time>2008-11-01T14:20:46Z</time></trkpt>
<trkpt lat="46.25219200" lon="7.00970000"><ele>430.380004872</ele><time>2008-11-01T14:20:47Z</time></trkpt>
<trkpt lat="46.25217800" lon="7.00974600"><ele>430.4400023136</ele><time>2008-11-01T14:20:48Z</time></trkpt>
<trkpt lat="46.25216300" lon="7.00979200"><ele>430.4700013392</ele><time>2008-11-01T14:20:49Z</time></trkpt>
<trkpt lat="46.25215000" lon="7.00984100"><ele>430.5289917216</ele><time>2008-11-01T14:20:50Z</time></trkpt>
<trkpt lat="46.25213600" lon="7.00989000"><ele>430.609008732</ele><time>2008-11-01T14:20:51Z</time></trkpt>
<trkpt lat="46.25212300" lon="7.00993900"><ele>430.6700135376</ele><time>2008-11-01T14:20:52Z</time></trkpt>
<trkpt lat="46.25211400" lon="7.00998700"><ele>430.6289978208</ele><time>2008-11-01T14:20:53Z</time></trkpt>
<trkpt lat="46.25210600" lon="7.01003400"><ele>430.6589965416</ele><time>2008-11-01T14:20:54Z</time></trkpt>
<trkpt lat="46.25209600" lon="7.01008200"><ele>430.7999878776</ele><time>2008-11-01T14:20:55Z</time></trkpt>
<trkpt lat="46.25208600" lon="7.01012900"><ele>430.9909971984</ele><time>2008-11-01T14:20:56Z</time></trkpt>
<trkpt lat="46.25207600" lon="7.01017700"><ele>431.0809936656</ele><time>2008-11-01T14:20:57Z</time></trkpt>
<trkpt lat="46.25206500" lon="7.01022200"><ele>431.119995264</ele><time>2008-11-01T14:20:58Z</time></trkpt>
<trkpt lat="46.25205300" lon="7.01026600"><ele>431.2510071432</ele><time>2008-11-01T14:20:59Z</time></trkpt>
<trkpt lat="46.25203900" lon="7.01031000"><ele>431.290985016</ele><time>2008-11-01T14:21:00Z</time></trkpt>
<trkpt lat="46.25202500" lon="7.01035200"><ele>431.290985016</ele><time>2008-11-01T14:21:01Z</time></trkpt>
<trkpt lat="46.25201200" lon="7.01039300"><ele>431.269988868</ele><time>2008-11-01T14:21:02Z</time></trkpt>
<trkpt lat="46.25199900" lon="7.01043600"><ele>431.401001052</ele><time>2008-11-01T14:21:03Z</time></trkpt>
<trkpt lat="46.25198600" lon="7.01048100"><ele>431.3699949672</ele><time>2008-11-01T14:21:04Z</time></trkpt>
<trkpt lat="46.25197300" lon="7.01052300"><ele>431.390014536</ele><time>2008-11-01T14:21:05Z</time></trkpt>
<trkpt lat="46.25196000" lon="7.01056800"><ele>431.4700013712</ele><time>2008-11-01T14:21:06Z</time></trkpt>
<trkpt lat="46.25194800" lon="7.01061300"><ele>431.7399901632</ele><time>2008-11-01T14:21:07Z</time></trkpt>
<trkpt lat="46.25193500" lon="7.01066000"><ele>431.9800110192</ele><time>2008-11-01T14:21:08Z</time></trkpt>
<trkpt lat="46.25192000" lon="7.01070900"><ele>432.2999879256</ele><time>2008-11-01T14:21:09Z</time></trkpt>
<trkpt lat="46.25190500" lon="7.01075700"><ele>432.3500062152</ele><time>2008-11-01T14:21:10Z</time></trkpt>
<trkpt lat="46.25189200" lon="7.01080600"><ele>432.6910094448</ele><time>2008-11-01T14:21:11Z</time></trkpt>
<trkpt lat="46.25187800" lon="7.01085200"><ele>432.7200011064</ele><time>2008-11-01T14:21:12Z</time></trkpt>
<trkpt lat="46.25186400" lon="7.01089700"><ele>432.8200072056</ele><time>2008-11-01T14:21:13Z</time></trkpt>
<trkpt lat="46.25185000" lon="7.01093900"><ele>432.748992768</ele><time>2008-11-01T14:21:14Z</time></trkpt>
<trkpt lat="46.25183600" lon="7.01098300"><ele>432.7990113624</ele><time>2008-11-01T14:21:15Z</time></trkpt>
<trkpt lat="46.25182200" lon="7.01102800"><ele>433.0509950088</ele><time>2008-11-01T14:21:16Z</time></trkpt>
<trkpt lat="46.25180800" lon="7.01107100"><ele>433.0809937296</ele><time>2008-11-01T14:21:17Z</time></trkpt>
<trkpt lat="46.25179600" lon="7.01111400"><ele>433.2709959912</ele><time>2008-11-01T14:21:18Z</time></trkpt>
<trkpt lat="46.25178300" lon="7.01115800"><ele>433.7619934344</ele><time>2008-11-01T14:21:19Z</time></trkpt>
<trkpt lat="46.25177100" lon="7.01119800"><ele>433.8810120432</ele><time>2008-11-01T14:21:20Z</time></trkpt>
<trkpt lat="46.25175900" lon="7.01123700"><ele>433.9599915144</ele><time>2008-11-01T14:21:21Z</time></trkpt>
<trkpt lat="46.25174800" lon="7.01127500"><ele>433.9700011464</ele><time>2008-11-01T14:21:22Z</time></trkpt>
<trkpt lat="46.25173800" lon="7.01131300"><ele>434.170989924</ele><time>2008-11-01T14:21:23Z</time></trkpt>
<trkpt lat="46.25173000" lon="7.01135200"><ele>434.5559998728</ele><time>2008-11-01T14:21:24Z</time></trkpt>
<trkpt lat="46.25172300" lon="7.01138900"><ele>434.8699950792</ele><time>2008-11-01T14:21:25Z</time></trkpt>
<trkpt lat="46.25171400" lon="7.01142500"><ele>434.878997652</ele><time>2008-11-01T14:21:26Z</time></trkpt>
<trkpt lat="46.25170400" lon="7.01146100"><ele>434.9689941192</ele><time>2008-11-01T14:21:27Z</time></trkpt>
<trkpt lat="46.25169100" lon="7.01149700"><ele>435.5289915768</ele><time>2008-11-01T14:21:28Z</time></trkpt>
<trkpt lat="46.25167200" lon="7.01153000"><ele>436.3510130976</ele><time>2008-11-01T14:21:29Z</time></trkpt>
<trkpt lat="46.25165900" lon="7.01157000"><ele>436.4710082856</ele><time>2008-11-01T14:21:30Z</time></trkpt>
<trkpt lat="46.25164200" lon="7.01160800"><ele>437.1319884216</ele><time>2008-11-01T14:21:31Z</time></trkpt>
<trkpt lat="46.25162500" lon="7.01164600"><ele>438.0429993504</ele><time>2008-11-01T14:21:32Z</time></trkpt>
<trkpt lat="46.25161000" lon="7.01168300"><ele>438.5130003408</ele><time>2008-11-01T14:21:33Z</time></trkpt>
<trkpt lat="46.25159700" lon="7.01171900"><ele>438.592987176</ele><time>2008-11-01T14:21:34Z</time></trkpt>
<trkpt lat="46.25158800" lon="7.01175400"><ele>438.3210144408</ele><time>2008-11-01T14:21:35Z</time></trkpt>
<trkpt lat="46.25158100" lon="7.01178700"><ele>438.2210083416</ele><time>2008-11-01T14:21:36Z</time></trkpt>
<trkpt lat="46.25157500" lon="7.01181900"><ele>438.1510009632</ele><time>2008-11-01T14:21:37Z</time></trkpt>
<trkpt lat="46.25156600" lon="7.01184900"><ele>437.9410096128</ele><time>2008-11-01T14:21:38Z</time></trkpt>
<trkpt lat="46.25155600" lon="7.01188100"><ele>438.2109984048</ele><time>2008-11-01T14:21:39Z</time></trkpt>
<trkpt lat="46.25154200" lon="7.01191100"><ele>438.769989108</ele><time>2008-11-01T14:21:40Z</time></trkpt>
<trkpt lat="46.25152900" lon="7.01194000"><ele>439.4419859352</ele><time>2008-11-01T14:21:41Z</time></trkpt>
<trkpt lat="46.25151800" lon="7.01196700"><ele>439.6530151296</ele><time>2008-11-01T14:21:42Z</time></trkpt>
<trkpt lat="46.25150600" lon="7.01199100"><ele>439.5530090304</ele><time>2008-11-01T14:21:43Z</time></trkpt>
<trkpt lat="46.25149500" lon="7.01201800"><ele>439.6940003664</ele><time>2008-11-01T14:21:44Z</time></trkpt>
<trkpt lat="46.25148400" lon="7.01204500"><ele>439.9039917168</ele><time>2008-11-01T14:21:45Z</time></trkpt>
<trkpt lat="46.25147200" lon="7.01206900"><ele>440.1040039152</ele><time>2008-11-01T14:21:46Z</time></trkpt>
<trkpt lat="46.25146200" lon="7.01209400"><ele>440.2839965448</ele><time>2008-11-01T14:21:47Z</time></trkpt>
<trkpt lat="46.25146000" lon="7.01212100"><ele>439.972992036</ele><time>2008-11-01T14:21:48Z</time></trkpt>
<trkpt lat="46.25146000" lon="7.01215100"><ele>439.7130125712</ele><time>2008-11-01T14:21:49Z</time></trkpt>
<trkpt lat="46.25145900" lon="7.01218100"><ele>439.5520019712</ele><time>2008-11-01T14:21:50Z</time></trkpt>
<trkpt lat="46.25145700" lon="7.01221300"><ele>439.4719849608</ele><time>2008-11-01T14:21:51Z</time></trkpt>
<trkpt lat="46.25145400" lon="7.01224600"><ele>439.3819884936</ele><time>2008-11-01T14:21:52Z</time></trkpt>
<trkpt lat="46.25145200" lon="7.01228000"><ele>439.300994904</ele><time>2008-11-01T14:21:53Z</time></trkpt>
<trkpt lat="46.25144300" lon="7.01231100"><ele>439.8609923616</ele><time>2008-11-01T14:21:54Z</time></trkpt>
<trkpt lat="46.25143700" lon="7.01234500"><ele>440.1610106592</ele><time>2008-11-01T14:21:55Z</time></trkpt>
<trkpt lat="46.25142900" lon="7.01238100"><ele>440.4819946248</ele><time>2008-11-01T14:21:56Z</time></trkpt>
<trkpt lat="46.25142000" lon="7.01241500"><ele>440.8540039392</ele><time>2008-11-01T14:21:57Z</time></trkpt>
<trkpt lat="46.25141200" lon="7.01245000"><ele>441.4630126272</ele><time>2008-11-01T14:21:58Z</time></trkpt>
<trkpt lat="46.25140400" lon="7.01248400"><ele>441.6520081344</ele><time>2008-11-01T14:21:59Z</time></trkpt>
<trkpt lat="46.25139800" lon="7.01251900"><ele>441.290008452</ele><time>2008-11-01T14:22:00Z</time></trkpt>
<trkpt lat="46.25139000" lon="7.01255400"><ele>441.3309936888</ele><time>2008-11-01T14:22:01Z</time></trkpt>
<trkpt lat="46.25138100" lon="7.01259000"><ele>441.2409972216</ele><time>2008-11-01T14:22:02Z</time></trkpt>
<trkpt lat="46.25137500" lon="7.01262600"><ele>441.4419859992</ele><time>2008-11-01T14:22:03Z</time></trkpt>
<trkpt lat="46.25136700" lon="7.01265900"><ele>441.6409911384</ele><time>2008-11-01T14:22:04Z</time></trkpt>
<trkpt lat="46.25135600" lon="7.01269000"><ele>442.1210020656</ele><time>2008-11-01T14:22:05Z</time></trkpt>
<trkpt lat="46.25134600" lon="7.01271800"><ele>442.0379943576</ele><time>2008-11-01T14:22:06Z</time></trkpt>
<trkpt lat="46.25134000" lon="7.01275100"><ele>442.0379943576</ele><time>2008-11-01T14:22:07Z</time></trkpt>
<trkpt lat="46.25133200" lon="7.01278800"><ele>442.2579956448</ele><time>2008-11-01T14:22:08Z</time></trkpt>
<trkpt lat="46.25132200" lon="7.01282800"><ele>442.5199889232</ele><time>2008-11-01T14:22:09Z</time></trkpt>
<trkpt lat="46.25131500" lon="7.01287300"><ele>442.8500062464</ele><time>2008-11-01T14:22:10Z</time></trkpt>
<trkpt lat="46.25130900" lon="7.01292000"><ele>443.1610107552</ele><time>2008-11-01T14:22:11Z</time></trkpt>
<trkpt lat="46.25130000" lon="7.01296800"><ele>443.2109985648</ele><time>2008-11-01T14:22:12Z</time></trkpt>
<trkpt lat="46.25129100" lon="7.01301400"><ele>442.9190062608</ele><time>2008-11-01T14:22:13Z</time></trkpt>
<trkpt lat="46.25128000" lon="7.01305900"><ele>442.8900145992</ele><time>2008-11-01T14:22:14Z</time></trkpt>
<trkpt lat="46.25127000" lon="7.01310200"><ele>442.7399902104</ele><time>2008-11-01T14:22:15Z</time></trkpt>
<trkpt lat="46.25126000" lon="7.01314400"><ele>442.811004648</ele><time>2008-11-01T14:22:16Z</time></trkpt>
<trkpt lat="46.25125100" lon="7.01318300"><ele>443.351989596</ele><time>2008-11-01T14:22:17Z</time></trkpt>
<trkpt lat="46.25125200" lon="7.01322300"><ele>443.8540040352</ele><time>2008-11-01T14:22:18Z</time></trkpt>
<trkpt lat="46.25126300" lon="7.01326200"><ele>444.2959899432</ele><time>2008-11-01T14:22:19Z</time></trkpt>
<trkpt lat="46.25127300" lon="7.01330300"><ele>444.6969909192</ele><time>2008-11-01T14:22:20Z</time></trkpt>
<trkpt lat="46.25127800" lon="7.01334100"><ele>445.8070069872</ele><time>2008-11-01T14:22:21Z</time></trkpt>
<trkpt lat="46.25128100" lon="7.01337900"><ele>446.674987776</ele><time>2008-11-01T14:22:22Z</time></trkpt>
<trkpt lat="46.25128400" lon="7.01341500"><ele>447.441009612</ele><time>2008-11-01T14:22:23Z</time></trkpt>
<trkpt lat="46.25129200" lon="7.01344900"><ele>447.9490051416</ele><time>2008-11-01T14:22:24Z</time></trkpt>
<trkpt lat="46.25129800" lon="7.01348300"><ele>448.5320128656</ele><time>2008-11-01T14:22:25Z</time></trkpt>
<trkpt lat="46.25130400" lon="7.01351600"><ele>449.502990756</ele><time>2008-11-01T14:22:26Z</time></trkpt>
<trkpt lat="46.25130800" lon="7.01354900"><ele>450.013000404</ele><time>2008-11-01T14:22:27Z</time></trkpt>
<trkpt lat="46.25130900" lon="7.01358300"><ele>450.5440062</ele><time>2008-11-01T14:22:28Z</time></trkpt>
<trkpt lat="46.25130700" lon="7.01361700"><ele>451.111999476</ele><time>2008-11-01T14:22:29Z</time></trkpt>
<trkpt lat="46.25130800" lon="7.01364900"><ele>451.6220094288</ele><time>2008-11-01T14:22:30Z</time></trkpt>
<trkpt lat="46.25130900" lon="7.01368500"><ele>451.8020020584</ele><time>2008-11-01T14:22:31Z</time></trkpt>
<trkpt lat="46.25130200" lon="7.01372200"><ele>451.841003352</ele><time>2008-11-01T14:22:32Z</time></trkpt>
<trkpt lat="46.25128900" lon="7.01375900"><ele>451.2390135984</ele><time>2008-11-01T14:22:33Z</time></trkpt>
<trkpt lat="46.25127500" lon="7.01379300"><ele>451.16900622</ele><time>2008-11-01T14:22:34Z</time></trkpt>
<trkpt lat="46.25126200" lon="7.01382400"><ele>451.5799866528</ele><time>2008-11-01T14:22:35Z</time></trkpt>
<trkpt lat="46.25124400" lon="7.01385800"><ele>451.4779969152</ele><time>2008-11-01T14:22:36Z</time></trkpt>
<trkpt lat="46.25122100" lon="7.01388700"><ele>451.1759949792</ele><time>2008-11-01T14:22:37Z</time></trkpt>
<trkpt lat="46.25119600" lon="7.01391600"><ele>451.7770081536</ele><time>2008-11-01T14:22:38Z</time></trkpt>
<trkpt lat="46.25117200" lon="7.01395000"><ele>453.049011096</ele><time>2008-11-01T14:22:39Z</time></trkpt>
<trkpt lat="46.25115100" lon="7.01398000"><ele>453.3580017912</ele><time>2008-11-01T14:22:40Z</time></trkpt>
<trkpt lat="46.25112800" lon="7.01401300"><ele>454.2590027832</ele><time>2008-11-01T14:22:41Z</time></trkpt>
<trkpt lat="46.25110600" lon="7.01404400"><ele>455.0880127584</ele><time>2008-11-01T14:22:42Z</time></trkpt>
<trkpt lat="46.25107600" lon="7.01407000"><ele>455.8590089304</ele><time>2008-11-01T14:22:43Z</time></trkpt>
<trkpt lat="46.25104800" lon="7.01409200"><ele>456.3900147264</ele><time>2008-11-01T14:22:44Z</time></trkpt>
<trkpt lat="46.25102400" lon="7.01411500"><ele>456.2059935552</ele><time>2008-11-01T14:22:45Z</time></trkpt>
<trkpt lat="46.25100400" lon="7.01414100"><ele>455.6440124592</ele><time>2008-11-01T14:22:46Z</time></trkpt>
<trkpt lat="46.25098500" lon="7.01417200"><ele>455.2929992928</ele><time>2008-11-01T14:22:47Z</time></trkpt>
<trkpt lat="46.25096800" lon="7.01419900"><ele>454.4309998992</ele><time>2008-11-01T14:22:48Z</time></trkpt>
<trkpt lat="46.25095200" lon="7.01422600"><ele>454.0610047032</ele><time>2008-11-01T14:22:49Z</time></trkpt>
<trkpt lat="46.25093600" lon="7.01424600"><ele>452.9689940856</ele><time>2008-11-01T14:22:50Z</time></trkpt>
<trkpt lat="46.25092000" lon="7.01427000"><ele>452.2479857232</ele><time>2008-11-01T14:22:51Z</time></trkpt>
<trkpt lat="46.25090400" lon="7.01430000"><ele>451.8280030224</ele><time>2008-11-01T14:22:52Z</time></trkpt>
<trkpt lat="46.25088700" lon="7.01432300"><ele>450.6860045952</ele><time>2008-11-01T14:22:53Z</time></trkpt>
<trkpt lat="46.25087000" lon="7.01434900"><ele>449.835998472</ele><time>2008-11-01T14:22:54Z</time></trkpt>
<trkpt lat="46.25085500" lon="7.01437900"><ele>448.9360045392</ele><time>2008-11-01T14:22:55Z</time></trkpt>
<trkpt lat="46.25083800" lon="7.01441100"><ele>448.566009648</ele><time>2008-11-01T14:22:56Z</time></trkpt>
<trkpt lat="46.25082100" lon="7.01444300"><ele>448.0669862112</ele><time>2008-11-01T14:22:57Z</time></trkpt>
<trkpt lat="46.25080400" lon="7.01447700"><ele>447.48699936</ele><time>2008-11-01T14:22:58Z</time></trkpt>
<trkpt lat="46.25079000" lon="7.01450500"><ele>446.8169861712</ele><time>2008-11-01T14:22:59Z</time></trkpt>
<trkpt lat="46.25077600" lon="7.01452100"><ele>446.1059874408</ele><time>2008-11-01T14:23:00Z</time></trkpt>
<trkpt lat="46.25075600" lon="7.01452300"><ele>445.705993524</ele><time>2008-11-01T14:23:01Z</time></trkpt>
<trkpt lat="46.25073500" lon="7.01451600"><ele>445.6149903024</ele><time>2008-11-01T14:23:02Z</time></trkpt>
<trkpt lat="46.25071500" lon="7.01450300"><ele>446.1969909672</ele><time>2008-11-01T14:23:03Z</time></trkpt>
<trkpt lat="46.25070100" lon="7.01448800"><ele>446.6579893848</ele><time>2008-11-01T14:23:04Z</time></trkpt>
<trkpt lat="46.25068500" lon="7.01447300"><ele>446.7869874504</ele><time>2008-11-01T14:23:05Z</time></trkpt>
<trkpt lat="46.25066400" lon="7.01444800"><ele>446.5750121568</ele><time>2008-11-01T14:23:06Z</time></trkpt>
<trkpt lat="46.25064400" lon="7.01441400"><ele>446.14401246</ele><time>2008-11-01T14:23:07Z</time></trkpt>
<trkpt lat="46.25062700" lon="7.01437700"><ele>446.0339967288</ele><time>2008-11-01T14:23:08Z</time></trkpt>
<trkpt lat="46.25060500" lon="7.01434700"><ele>445.7439880632</ele><time>2008-11-01T14:23:09Z</time></trkpt>
<trkpt lat="46.25058200" lon="7.01431200"><ele>445.0620117792</ele><time>2008-11-01T14:23:10Z</time></trkpt>
<trkpt lat="46.25056800" lon="7.01427800"><ele>444.8009947752</ele><time>2008-11-01T14:23:11Z</time></trkpt>
<trkpt lat="46.25055000" lon="7.01425400"><ele>444.2600098272</ele><time>2008-11-01T14:23:12Z</time></trkpt>
<trkpt lat="46.25052100" lon="7.01424200"><ele>443.6000059656</ele><time>2008-11-01T14:23:13Z</time></trkpt>
<trkpt lat="46.25049700" lon="7.01423400"><ele>443.2409972856</ele><time>2008-11-01T14:23:14Z</time></trkpt>
<trkpt lat="46.25047700" lon="7.01422700"><ele>442.852996944</ele><time>2008-11-01T14:23:15Z</time></trkpt>
<trkpt lat="46.25045300" lon="7.01422100"><ele>442.3829956488</ele><time>2008-11-01T14:23:16Z</time></trkpt>
<trkpt lat="46.25042900" lon="7.01420800"><ele>441.4429930584</ele><time>2008-11-01T14:23:17Z</time></trkpt>
<trkpt lat="46.25040800" lon="7.01418500"><ele>440.4219971832</ele><time>2008-11-01T14:23:18Z</time></trkpt>
<trkpt lat="46.25039400" lon="7.01415500"><ele>439.904998776</ele><time>2008-11-01T14:23:19Z</time></trkpt>
<trkpt lat="46.25037900" lon="7.01411500"><ele>439.7560119264</ele><time>2008-11-01T14:23:20Z</time></trkpt>
<trkpt lat="46.25036800" lon="7.01407700"><ele>439.3980103056</ele><time>2008-11-01T14:23:21Z</time></trkpt>
<trkpt lat="46.25036100" lon="7.01404100"><ele>438.8869932936</ele><time>2008-11-01T14:23:22Z</time></trkpt>
<trkpt lat="46.25035000" lon="7.01400400"><ele>439.0690003464</ele><time>2008-11-01T14:23:23Z</time></trkpt>
<trkpt lat="46.25034200" lon="7.01397500"><ele>439.1900025936</ele><time>2008-11-01T14:23:24Z</time></trkpt>
<trkpt lat="46.25033700" lon="7.01395500"><ele>439.2200013144</ele><time>2008-11-01T14:23:25Z</time></trkpt>
<trkpt lat="46.25033400" lon="7.01394100"><ele>439.0899961896</ele><time>2008-11-01T14:23:26Z</time></trkpt>
<trkpt lat="46.25033600" lon="7.01392500"><ele>438.9800109384</ele><time>2008-11-01T14:23:27Z</time></trkpt>
<trkpt lat="46.25034200" lon="7.01391000"><ele>438.8299865496</ele><time>2008-11-01T14:23:28Z</time></trkpt>
<trkpt lat="46.25034500" lon="7.01390000"><ele>439.1419984224</ele><time>2008-11-01T14:23:29Z</time></trkpt>
<trkpt lat="46.25034800" lon="7.01390100"><ele>439.3510131936</ele><time>2008-11-01T14:23:30Z</time></trkpt>
<trkpt lat="46.25035000" lon="7.01390900"><ele>439.509002616</ele><time>2008-11-01T14:23:31Z</time></trkpt>
<trkpt lat="46.25029900" lon="7.01419500"><ele>453.3890075712</ele><time>2008-11-01T14:27:57Z</time></trkpt>
<trkpt lat="46.25028100" lon="7.01419000"><ele>453.2290040304</ele><time>2008-11-01T14:27:58Z</time></trkpt>
<trkpt lat="46.25026300" lon="7.01418200"><ele>452.7999876672</ele><time>2008-11-01T14:27:59Z</time></trkpt>
<trkpt lat="46.25024500" lon="7.01417400"><ele>452.3959959936</ele><time>2008-11-01T14:28:00Z</time></trkpt>
<trkpt lat="46.25022700" lon="7.01417100"><ele>452.1260072016</ele><time>2008-11-01T14:28:01Z</time></trkpt>
<trkpt lat="46.25021100" lon="7.01417300"><ele>451.8450011088</ele><time>2008-11-01T14:28:02Z</time></trkpt>
<trkpt lat="46.25019600" lon="7.01417600"><ele>451.804992756</ele><time>2008-11-01T14:28:03Z</time></trkpt>
<trkpt lat="46.25018800" lon="7.01417600"><ele>451.4020081416</ele><time>2008-11-01T14:28:04Z</time></trkpt>
<trkpt lat="46.25018100" lon="7.01417400"><ele>451.4909972448</ele><time>2008-11-01T14:28:05Z</time></trkpt>
<trkpt lat="46.25017300" lon="7.01417500"><ele>451.674987936</ele><time>2008-11-01T14:28:06Z</time></trkpt>
<trkpt lat="46.25017200" lon="7.01416600"><ele>451.4580078264</ele><time>2008-11-01T14:28:07Z</time></trkpt>
<trkpt lat="46.25017300" lon="7.01415600"><ele>451.1879882496</ele><time>2008-11-01T14:28:08Z</time></trkpt>
<trkpt lat="46.25017000" lon="7.01415800"><ele>452.1990052776</ele><time>2008-11-01T14:28:09Z</time></trkpt>
<trkpt lat="46.25012200" lon="7.01415700"><ele>451.8450011088</ele><time>2008-11-01T14:28:12Z</time></trkpt>
<trkpt lat="46.25009900" lon="7.01414700"><ele>451.1969908224</ele><time>2008-11-01T14:28:13Z</time></trkpt>
<trkpt lat="46.25008000" lon="7.01413900"><ele>450.7470094008</ele><time>2008-11-01T14:28:14Z</time></trkpt>
<trkpt lat="46.25006300" lon="7.01412400"><ele>449.8510132248</ele><time>2008-11-01T14:28:15Z</time></trkpt>
<trkpt lat="46.25005300" lon="7.01410700"><ele>449.0669859384</ele><time>2008-11-01T14:28:16Z</time></trkpt>
<trkpt lat="46.25004500" lon="7.01408800"><ele>447.7659913344</ele><time>2008-11-01T14:28:17Z</time></trkpt>
<trkpt lat="46.25003300" lon="7.01408400"><ele>447.2980041576</ele><time>2008-11-01T14:28:18Z</time></trkpt>
<trkpt lat="46.25002900" lon="7.01396100"><ele>435.6910095408</ele><time>2008-11-01T14:28:33Z</time></trkpt>
<trkpt lat="46.25003700" lon="7.01394900"><ele>433.821990876</ele><time>2008-11-01T14:28:34Z</time></trkpt>
<trkpt lat="46.25004600" lon="7.01393300"><ele>431.7799988208</ele><time>2008-11-01T14:28:35Z</time></trkpt>
<trkpt lat="46.25005400" lon="7.01392000"><ele>429.8980103064</ele><time>2008-11-01T14:28:36Z</time></trkpt>
<trkpt lat="46.25005600" lon="7.01391600"><ele>429.2619932904</ele><time>2008-11-01T14:28:37Z</time></trkpt>
<trkpt lat="46.25005600" lon="7.01391500"><ele>428.9230041792</ele><time>2008-11-01T14:28:38Z</time></trkpt>
<trkpt lat="46.25005300" lon="7.01391700"><ele>429.1289977728</ele><time>2008-11-01T14:28:39Z</time></trkpt>
<trkpt lat="46.25005100" lon="7.01391800"><ele>429.3770141424</ele><time>2008-11-01T14:28:40Z</time></trkpt>
<trkpt lat="46.24998800" lon="7.01394400"><ele>435.609008892</ele><time>2008-11-01T14:28:51Z</time></trkpt>
<trkpt lat="46.24997700" lon="7.01394100"><ele>436.0090028088</ele><time>2008-11-01T14:28:52Z</time></trkpt>
<trkpt lat="46.24996900" lon="7.01393900"><ele>436.3890076368</ele><time>2008-11-01T14:28:53Z</time></trkpt>
<trkpt lat="46.24996300" lon="7.01393800"><ele>436.5790098984</ele><time>2008-11-01T14:28:54Z</time></trkpt>
<trkpt lat="46.24994500" lon="7.01388600"><ele>436.739013744</ele><time>2008-11-01T14:28:58Z</time></trkpt>
<trkpt lat="46.24993700" lon="7.01386000"><ele>436.8099977016</ele><time>2008-11-01T14:28:59Z</time></trkpt>
<trkpt lat="46.24992800" lon="7.01383300"><ele>436.4930114928</ele><time>2008-11-01T14:29:00Z</time></trkpt>
<trkpt lat="46.24992200" lon="7.01380500"><ele>436.0690002504</ele><time>2008-11-01T14:29:01Z</time></trkpt>
<trkpt lat="46.24991600" lon="7.01377400"><ele>435.4389954144</ele><time>2008-11-01T14:29:02Z</time></trkpt>
<trkpt lat="46.24990700" lon="7.01373800"><ele>435.149993808</ele><time>2008-11-01T14:29:03Z</time></trkpt>
<trkpt lat="46.24989400" lon="7.01370000"><ele>434.9809876944</ele><time>2008-11-01T14:29:04Z</time></trkpt>
<trkpt lat="46.24987900" lon="7.01366000"><ele>434.9020079184</ele><time>2008-11-01T14:29:05Z</time></trkpt>
<trkpt lat="46.24986200" lon="7.01361900"><ele>434.8320008448</ele><time>2008-11-01T14:29:06Z</time></trkpt>
<trkpt lat="46.24984400" lon="7.01357700"><ele>434.812011756</ele><time>2008-11-01T14:29:07Z</time></trkpt>
<trkpt lat="46.24982600" lon="7.01353500"><ele>434.6910095088</ele><time>2008-11-01T14:29:08Z</time></trkpt>
<trkpt lat="46.24980400" lon="7.01349100"><ele>434.3320008288</ele><time>2008-11-01T14:29:09Z</time></trkpt>
<trkpt lat="46.24978500" lon="7.01344800"><ele>434.1210021144</ele><time>2008-11-01T14:29:10Z</time></trkpt>
<trkpt lat="46.24976700" lon="7.01340500"><ele>434.0419921632</ele><time>2008-11-01T14:29:11Z</time></trkpt>
<trkpt lat="46.24974700" lon="7.01336300"><ele>433.6619873352</ele><time>2008-11-01T14:29:12Z</time></trkpt>
<trkpt lat="46.24972600" lon="7.01332000"><ele>433.6000062552</ele><time>2008-11-01T14:29:13Z</time></trkpt>
<trkpt lat="46.24970500" lon="7.01327500"><ele>433.3489988832</ele><time>2008-11-01T14:29:14Z</time></trkpt>
<trkpt lat="46.24968500" lon="7.01322600"><ele>433.0690001544</ele><time>2008-11-01T14:29:15Z</time></trkpt>
<trkpt lat="46.24966700" lon="7.01317600"><ele>432.9609985416</ele><time>2008-11-01T14:29:16Z</time></trkpt>
<trkpt lat="46.24965200" lon="7.01312500"><ele>432.911010732</ele><time>2008-11-01T14:29:17Z</time></trkpt>
<trkpt lat="46.24963900" lon="7.01307300"><ele>432.781005912</ele><time>2008-11-01T14:29:18Z</time></trkpt>
<trkpt lat="46.24962800" lon="7.01302000"><ele>432.651001092</ele><time>2008-11-01T14:29:19Z</time></trkpt>
<trkpt lat="46.24961600" lon="7.01296500"><ele>432.3789978768</ele><time>2008-11-01T14:29:20Z</time></trkpt>
<trkpt lat="46.24960500" lon="7.01290800"><ele>432.0589904904</ele><time>2008-11-01T14:29:21Z</time></trkpt>
<trkpt lat="46.24959900" lon="7.01285100"><ele>431.88000492</ele><time>2008-11-01T14:29:22Z</time></trkpt>
<trkpt lat="46.24959500" lon="7.01279600"><ele>431.7300110112</ele><time>2008-11-01T14:29:23Z</time></trkpt>
<trkpt lat="46.24959400" lon="7.01274400"><ele>431.7609863112</ele><time>2008-11-01T14:29:24Z</time></trkpt>
<trkpt lat="46.24959500" lon="7.01269400"><ele>431.4599914344</ele><time>2008-11-01T14:29:25Z</time></trkpt>
<trkpt lat="46.24960000" lon="7.01264400"><ele>431.1900023376</ele><time>2008-11-01T14:29:26Z</time></trkpt>
<trkpt lat="46.24960800" lon="7.01259400"><ele>430.9700013552</ele><time>2008-11-01T14:29:27Z</time></trkpt>
<trkpt lat="46.24962000" lon="7.01254900"><ele>430.6600036008</ele><time>2008-11-01T14:29:28Z</time></trkpt>
<trkpt lat="46.24963100" lon="7.01251200"><ele>430.380004872</ele><time>2008-11-01T14:29:29Z</time></trkpt>
<trkpt lat="46.24964200" lon="7.01248500"><ele>430.0289917056</ele><time>2008-11-01T14:29:30Z</time></trkpt>
<trkpt lat="46.24965200" lon="7.01246600"><ele>429.7890013296</ele><time>2008-11-01T14:29:31Z</time></trkpt>
<trkpt lat="46.24966000" lon="7.01245600"><ele>429.6189881568</ele><time>2008-11-01T14:29:32Z</time></trkpt>
<trkpt lat="46.24966500" lon="7.01244900"><ele>429.5400086856</ele><time>2008-11-01T14:29:33Z</time></trkpt>
<trkpt lat="46.24967000" lon="7.01244400"><ele>429.4590147912</ele><time>2008-11-01T14:29:34Z</time></trkpt>
<trkpt lat="46.24967700" lon="7.01243700"><ele>429.3999939288</ele><time>2008-11-01T14:29:35Z</time></trkpt>
<trkpt lat="46.24968300" lon="7.01242600"><ele>429.2990112504</ele><time>2008-11-01T14:29:36Z</time></trkpt>
<trkpt lat="46.24969100" lon="7.01241400"><ele>429.1789855824</ele><time>2008-11-01T14:29:37Z</time></trkpt>
<trkpt lat="46.24970400" lon="7.01240000"><ele>429.2200012992</ele><time>2008-11-01T14:29:38Z</time></trkpt>
<trkpt lat="46.24972000" lon="7.01238200"><ele>429.2699891088</ele><time>2008-11-01T14:29:39Z</time></trkpt>
<trkpt lat="46.24973600" lon="7.01235700"><ele>429.3309936096</ele><time>2008-11-01T14:29:40Z</time></trkpt>
<trkpt lat="46.24975100" lon="7.01232700"><ele>429.6419984232</ele><time>2008-11-01T14:29:41Z</time></trkpt>
<trkpt lat="46.24976000" lon="7.01229600"><ele>429.9639891432</ele><time>2008-11-01T14:29:42Z</time></trkpt>
<trkpt lat="46.24976400" lon="7.01226200"><ele>429.9729920208</ele><time>2008-11-01T14:29:43Z</time></trkpt>
<trkpt lat="46.24975700" lon="7.01222200"><ele>429.8619994056</ele><time>2008-11-01T14:29:44Z</time></trkpt>
<trkpt lat="46.24974500" lon="7.01218300"><ele>429.7409974632</ele><time>2008-11-01T14:29:45Z</time></trkpt>
<trkpt lat="46.24972700" lon="7.01214300"><ele>429.770996184</ele><time>2008-11-01T14:29:46Z</time></trkpt>
<trkpt lat="46.24970800" lon="7.01210200"><ele>429.770996184</ele><time>2008-11-01T14:29:47Z</time></trkpt>
<trkpt lat="46.24969100" lon="7.01205600"><ele>429.7200013152</ele><time>2008-11-01T14:29:48Z</time></trkpt>
<trkpt lat="46.24967700" lon="7.01200600"><ele>429.6900022896</ele><time>2008-11-01T14:29:49Z</time></trkpt>
<trkpt lat="46.24966400" lon="7.01195600"><ele>429.6499939368</ele><time>2008-11-01T14:29:50Z</time></trkpt>
<trkpt lat="46.24964900" lon="7.01190600"><ele>429.6589965096</ele><time>2008-11-01T14:29:51Z</time></trkpt>
<trkpt lat="46.24963200" lon="7.01185500"><ele>429.7099913784</ele><time>2008-11-01T14:29:52Z</time></trkpt>
<trkpt lat="46.24961500" lon="7.01180200"><ele>429.790984968</ele><time>2008-11-01T14:29:53Z</time></trkpt>
<trkpt lat="46.24959800" lon="7.01174900"><ele>429.8219910528</ele><time>2008-11-01T14:29:54Z</time></trkpt>
<trkpt lat="46.24958100" lon="7.01169700"><ele>429.7309875264</ele><time>2008-11-01T14:29:55Z</time></trkpt>
<trkpt lat="46.24956300" lon="7.01164400"><ele>429.7009888056</ele><time>2008-11-01T14:29:56Z</time></trkpt>
<trkpt lat="46.24954600" lon="7.01159300"><ele>429.5199891168</ele><time>2008-11-01T14:29:57Z</time></trkpt>
<trkpt lat="46.24952800" lon="7.01154200"><ele>429.4400025864</ele><time>2008-11-01T14:29:58Z</time></trkpt>
<trkpt lat="46.24951100" lon="7.01149100"><ele>429.3399964872</ele><time>2008-11-01T14:29:59Z</time></trkpt>
<trkpt lat="46.24949500" lon="7.01144000"><ele>429.1789855824</ele><time>2008-11-01T14:30:00Z</time></trkpt>
<trkpt lat="46.24947800" lon="7.01138800"><ele>428.9989929528</ele><time>2008-11-01T14:30:01Z</time></trkpt>
<trkpt lat="46.24946200" lon="7.01133600"><ele>428.859008676</ele><time>2008-11-01T14:30:02Z</time></trkpt>
<trkpt lat="46.24944600" lon="7.01128400"><ele>428.880004824</ele><time>2008-11-01T14:30:03Z</time></trkpt>
<trkpt lat="46.24943000" lon="7.01123400"><ele>428.8110045048</ele><time>2008-11-01T14:30:04Z</time></trkpt>
<trkpt lat="46.24941400" lon="7.01118300"><ele>428.6189881248</ele><time>2008-11-01T14:30:05Z</time></trkpt>
<trkpt lat="46.24939700" lon="7.01113200"><ele>428.5690003152</ele><time>2008-11-01T14:30:06Z</time></trkpt>
<trkpt lat="46.24938000" lon="7.01108000"><ele>428.5799865264</ele><time>2008-11-01T14:30:07Z</time></trkpt>
<trkpt lat="46.24936500" lon="7.01102900"><ele>428.6210022432</ele><time>2008-11-01T14:30:08Z</time></trkpt>
<trkpt lat="46.24934700" lon="7.01097800"><ele>429.0130003416</ele><time>2008-11-01T14:30:09Z</time></trkpt>
<trkpt lat="46.24932900" lon="7.01092700"><ele>429.3829955376</ele><time>2008-11-01T14:30:10Z</time></trkpt>
<trkpt lat="46.24930900" lon="7.01087300"><ele>429.4020080472</ele><time>2008-11-01T14:30:11Z</time></trkpt>
<trkpt lat="46.24928900" lon="7.01081800"><ele>429.5759888016</ele><time>2008-11-01T14:30:12Z</time></trkpt>
<trkpt lat="46.24926800" lon="7.01076900"><ele>429.7040099832</ele><time>2008-11-01T14:30:13Z</time></trkpt>
<trkpt lat="46.24925700" lon="7.01070900"><ele>429.4410096456</ele><time>2008-11-01T14:30:14Z</time></trkpt>
<trkpt lat="46.24924900" lon="7.01065300"><ele>429.31201158</ele><time>2008-11-01T14:30:15Z</time></trkpt>
<trkpt lat="46.24924100" lon="7.01060100"><ele>429.1809997008</ele><time>2008-11-01T14:30:16Z</time></trkpt>
<trkpt lat="46.24923300" lon="7.01054800"><ele>428.9599913544</ele><time>2008-11-01T14:30:17Z</time></trkpt>
<trkpt lat="46.24922700" lon="7.01049300"><ele>428.739990372</ele><time>2008-11-01T14:30:18Z</time></trkpt>
<trkpt lat="46.24922000" lon="7.01043700"><ele>428.7099913464</ele><time>2008-11-01T14:30:19Z</time></trkpt>
<trkpt lat="46.24921400" lon="7.01038000"><ele>428.6809996848</ele><time>2008-11-01T14:30:20Z</time></trkpt>
<trkpt lat="46.24921000" lon="7.01032100"><ele>428.6700134736</ele><time>2008-11-01T14:30:21Z</time></trkpt>
<trkpt lat="46.24920600" lon="7.01026100"><ele>428.7019958328</ele><time>2008-11-01T14:30:22Z</time></trkpt>
<trkpt lat="46.24920200" lon="7.01020100"><ele>428.7210083424</ele><time>2008-11-01T14:30:23Z</time></trkpt>
<trkpt lat="46.24920000" lon="7.01014300"><ele>428.6499939048</ele><time>2008-11-01T14:30:24Z</time></trkpt>
<trkpt lat="46.24919500" lon="7.01008500"><ele>428.5700073744</ele><time>2008-11-01T14:30:25Z</time></trkpt>
<trkpt lat="46.24918700" lon="7.01002700"><ele>428.489990364</ele><time>2008-11-01T14:30:26Z</time></trkpt>
<trkpt lat="46.24917800" lon="7.00997000"><ele>428.3999938968</ele><time>2008-11-01T14:30:27Z</time></trkpt>
<trkpt lat="46.24916800" lon="7.00991200"><ele>428.3299865184</ele><time>2008-11-01T14:30:28Z</time></trkpt>
<trkpt lat="46.24915700" lon="7.00985500"><ele>428.218994208</ele><time>2008-11-01T14:30:29Z</time></trkpt>
<trkpt lat="46.24914500" lon="7.00979800"><ele>428.1900025464</ele><time>2008-11-01T14:30:30Z</time></trkpt>
<trkpt lat="46.24913100" lon="7.00974100"><ele>427.9989929208</ele><time>2008-11-01T14:30:31Z</time></trkpt>
<trkpt lat="46.24911600" lon="7.00968400"><ele>427.859008644</ele><time>2008-11-01T14:30:32Z</time></trkpt>
<trkpt lat="46.24909800" lon="7.00962700"><ele>427.729003824</ele><time>2008-11-01T14:30:33Z</time></trkpt>
<trkpt lat="46.24907900" lon="7.00957000"><ele>427.6289977248</ele><time>2008-11-01T14:30:34Z</time></trkpt>
<trkpt lat="46.24905800" lon="7.00951300"><ele>427.5090025368</ele><time>2008-11-01T14:30:35Z</time></trkpt>
<trkpt lat="46.24903400" lon="7.00945700"><ele>427.3380127848</ele><time>2008-11-01T14:30:36Z</time></trkpt>
<trkpt lat="46.24900700" lon="7.00940100"><ele>427.2279967488</ele><time>2008-11-01T14:30:37Z</time></trkpt>
<trkpt lat="46.24897900" lon="7.00934500"><ele>427.1690063664</ele><time>2008-11-01T14:30:38Z</time></trkpt>
<trkpt lat="46.24895100" lon="7.00928800"><ele>427.1499938568</ele><time>2008-11-01T14:30:39Z</time></trkpt>
<trkpt lat="46.24892300" lon="7.00923200"><ele>427.0899964152</ele><time>2008-11-01T14:30:40Z</time></trkpt>
<trkpt lat="46.24889400" lon="7.00917600"><ele>427.1109925632</ele><time>2008-11-01T14:30:41Z</time></trkpt>
<trkpt lat="46.24886600" lon="7.00912000"><ele>427.0610047536</ele><time>2008-11-01T14:30:42Z</time></trkpt>
<trkpt lat="46.24883700" lon="7.00906500"><ele>427.031005728</ele><time>2008-11-01T14:30:43Z</time></trkpt>
<trkpt lat="46.24881000" lon="7.00901000"><ele>426.9309996288</ele><time>2008-11-01T14:30:44Z</time></trkpt>
<trkpt lat="46.24878100" lon="7.00895700"><ele>426.9710082864</ele><time>2008-11-01T14:30:45Z</time></trkpt>
<trkpt lat="46.24875300" lon="7.00890500"><ele>426.9920044344</ele><time>2008-11-01T14:30:46Z</time></trkpt>
<trkpt lat="46.24872700" lon="7.00885500"><ele>426.8500060392</ele><time>2008-11-01T14:30:47Z</time></trkpt>
<trkpt lat="46.24870200" lon="7.00880600"><ele>426.8009948088</ele><time>2008-11-01T14:30:48Z</time></trkpt>
<trkpt lat="46.24867600" lon="7.00875800"><ele>426.8210143776</ele><time>2008-11-01T14:30:49Z</time></trkpt>
<trkpt lat="46.24864900" lon="7.00870800"><ele>426.770996088</ele><time>2008-11-01T14:30:50Z</time></trkpt>
<trkpt lat="46.24862000" lon="7.00865600"><ele>426.6499938408</ele><time>2008-11-01T14:30:51Z</time></trkpt>
<trkpt lat="46.24859200" lon="7.00860100"><ele>426.3089906112</ele><time>2008-11-01T14:30:52Z</time></trkpt>
<trkpt lat="46.24856300" lon="7.00854400"><ele>426.0190124256</ele><time>2008-11-01T14:30:53Z</time></trkpt>
<trkpt lat="46.24853200" lon="7.00848900"><ele>425.7590027856</ele><time>2008-11-01T14:30:54Z</time></trkpt>
<trkpt lat="46.24850100" lon="7.00843400"><ele>425.5480040712</ele><time>2008-11-01T14:30:55Z</time></trkpt>
<trkpt lat="46.24846900" lon="7.00837800"><ele>425.3389893</ele><time>2008-11-01T14:30:56Z</time></trkpt>
<trkpt lat="46.24843700" lon="7.00832200"><ele>425.0979918648</ele><time>2008-11-01T14:30:57Z</time></trkpt>
<trkpt lat="46.24840500" lon="7.00826800"><ele>424.9389953832</ele><time>2008-11-01T14:30:58Z</time></trkpt>
<trkpt lat="46.24837500" lon="7.00821800"><ele>424.7489928168</ele><time>2008-11-01T14:30:59Z</time></trkpt>
<trkpt lat="46.24834600" lon="7.00816900"><ele>424.6489867176</ele><time>2008-11-01T14:31:00Z</time></trkpt>
<trkpt lat="46.24831700" lon="7.00811800"><ele>424.5589905552</ele><time>2008-11-01T14:31:01Z</time></trkpt>
<trkpt lat="46.24828800" lon="7.00806600"><ele>424.4790040248</ele><time>2008-11-01T14:31:02Z</time></trkpt>
<trkpt lat="46.24825700" lon="7.00801200"><ele>424.3689879888</ele><time>2008-11-01T14:31:03Z</time></trkpt>
<trkpt lat="46.24822500" lon="7.00795900"><ele>424.2489928008</ele><time>2008-11-01T14:31:04Z</time></trkpt>
<trkpt lat="46.24819400" lon="7.00790500"><ele>424.1180114016</ele><time>2008-11-01T14:31:05Z</time></trkpt>
<trkpt lat="46.24816200" lon="7.00785100"><ele>424.05801396</ele><time>2008-11-01T14:31:06Z</time></trkpt>
<trkpt lat="46.24813000" lon="7.00779700"><ele>423.8880004824</ele><time>2008-11-01T14:31:07Z</time></trkpt>
<trkpt lat="46.24809900" lon="7.00774100"><ele>423.6470030472</ele><time>2008-11-01T14:31:08Z</time></trkpt>
<trkpt lat="46.24807000" lon="7.00768300"><ele>423.4880065656</ele><time>2008-11-01T14:31:09Z</time></trkpt>
<trkpt lat="46.24804200" lon="7.00762500"><ele>423.3269959656</ele><time>2008-11-01T14:31:10Z</time></trkpt>
<trkpt lat="46.24801700" lon="7.00756500"><ele>423.1170043104</ele><time>2008-11-01T14:31:11Z</time></trkpt>
<trkpt lat="46.24799500" lon="7.00750500"><ele>422.9159850528</ele><time>2008-11-01T14:31:12Z</time></trkpt>
<trkpt lat="46.24797400" lon="7.00744300"><ele>422.7279969096</ele><time>2008-11-01T14:31:13Z</time></trkpt>
<trkpt lat="46.24795400" lon="7.00738000"><ele>422.5379943432</ele><time>2008-11-01T14:31:14Z</time></trkpt>
<trkpt lat="46.24793600" lon="7.00731500"><ele>422.3980103712</ele><time>2008-11-01T14:31:15Z</time></trkpt>
<trkpt lat="46.24792100" lon="7.00725000"><ele>422.317993056</ele><time>2008-11-01T14:31:16Z</time></trkpt>
<trkpt lat="46.24790600" lon="7.00718400"><ele>422.187988236</ele><time>2008-11-01T14:31:17Z</time></trkpt>
<trkpt lat="46.24789000" lon="7.00711800"><ele>422.058013896</ele><time>2008-11-01T14:31:18Z</time></trkpt>
<trkpt lat="46.24787400" lon="7.00705100"><ele>421.9580077968</ele><time>2008-11-01T14:31:19Z</time></trkpt>
<trkpt lat="46.24785800" lon="7.00698500"><ele>421.9790039448</ele><time>2008-11-01T14:31:20Z</time></trkpt>
<trkpt lat="46.24784100" lon="7.00692000"><ele>421.9890135768</ele><time>2008-11-01T14:31:21Z</time></trkpt>
<trkpt lat="46.24782600" lon="7.00685700"><ele>422.0199888768</ele><time>2008-11-01T14:31:22Z</time></trkpt>
<trkpt lat="46.24781000" lon="7.00679500"><ele>421.9989930336</ele><time>2008-11-01T14:31:23Z</time></trkpt>
<trkpt lat="46.24779700" lon="7.00673600"><ele>421.9989930336</ele><time>2008-11-01T14:31:24Z</time></trkpt>
<trkpt lat="46.24778500" lon="7.00668000"><ele>422.0299988136</ele><time>2008-11-01T14:31:25Z</time></trkpt>
<trkpt lat="46.24777200" lon="7.00662400"><ele>422.0700074712</ele><time>2008-11-01T14:31:26Z</time></trkpt>
<trkpt lat="46.24775900" lon="7.00656400"><ele>422.0899962552</ele><time>2008-11-01T14:31:27Z</time></trkpt>
<trkpt lat="46.24774700" lon="7.00650200"><ele>421.9190061984</ele><time>2008-11-01T14:31:28Z</time></trkpt>
<trkpt lat="46.24773500" lon="7.00643800"><ele>421.8890074776</ele><time>2008-11-01T14:31:29Z</time></trkpt>
<trkpt lat="46.24772500" lon="7.00637800"><ele>421.850006184</ele><time>2008-11-01T14:31:30Z</time></trkpt>
<trkpt lat="46.24771500" lon="7.00631900"><ele>421.9110106848</ele><time>2008-11-01T14:31:31Z</time></trkpt>
<trkpt lat="46.24770700" lon="7.00626000"><ele>421.8089904672</ele><time>2008-11-01T14:31:32Z</time></trkpt>
<trkpt lat="46.24770400" lon="7.00620100"><ele>421.859985336</ele><time>2008-11-01T14:31:33Z</time></trkpt>
<trkpt lat="46.24770900" lon="7.00614200"><ele>421.829010036</ele><time>2008-11-01T14:31:34Z</time></trkpt>
<trkpt lat="46.24772100" lon="7.00608600"><ele>421.859985336</ele><time>2008-11-01T14:31:35Z</time></trkpt>
<trkpt lat="46.24773700" lon="7.00603700"><ele>421.9609984944</ele><time>2008-11-01T14:31:36Z</time></trkpt>
<trkpt lat="46.24775400" lon="7.00599600"><ele>422.041992084</ele><time>2008-11-01T14:31:37Z</time></trkpt>
<trkpt lat="46.24776800" lon="7.00595900"><ele>422.1430052424</ele><time>2008-11-01T14:31:38Z</time></trkpt>
<trkpt lat="46.24777700" lon="7.00592400"><ele>422.1130065216</ele><time>2008-11-01T14:31:39Z</time></trkpt>
<trkpt lat="46.24778300" lon="7.00589000"><ele>422.0520020208</ele><time>2008-11-01T14:31:40Z</time></trkpt>
<trkpt lat="46.24778700" lon="7.00585800"><ele>422.2120055616</ele><time>2008-11-01T14:31:41Z</time></trkpt>
<trkpt lat="46.24778700" lon="7.00582900"><ele>422.2420042824</ele><time>2008-11-01T14:31:42Z</time></trkpt>
<trkpt lat="46.24777800" lon="7.00580200"><ele>422.1390074856</ele><time>2008-11-01T14:31:43Z</time></trkpt>
<trkpt lat="46.24776000" lon="7.00577800"><ele>422.0589904752</ele><time>2008-11-01T14:31:44Z</time></trkpt>
<trkpt lat="46.24773900" lon="7.00575500"><ele>421.968994008</ele><time>2008-11-01T14:31:45Z</time></trkpt>
<trkpt lat="46.24772300" lon="7.00573300"><ele>421.9500122832</ele><time>2008-11-01T14:31:46Z</time></trkpt>
<trkpt lat="46.24771300" lon="7.00570900"><ele>422.0400084456</ele><time>2008-11-01T14:31:47Z</time></trkpt>
<trkpt lat="46.24770700" lon="7.00568500"><ele>421.9890135768</ele><time>2008-11-01T14:31:48Z</time></trkpt>
<trkpt lat="46.24770200" lon="7.00566400"><ele>421.9790039448</ele><time>2008-11-01T14:31:49Z</time></trkpt>
<trkpt lat="46.24769800" lon="7.00565300"><ele>421.7579955984</ele><time>2008-11-01T14:31:50Z</time></trkpt>
<trkpt lat="46.24769500" lon="7.00564700"><ele>421.2269898024</ele><time>2008-11-01T14:31:51Z</time></trkpt>
<trkpt lat="46.24769100" lon="7.00564700"><ele>421.048004232</ele><time>2008-11-01T14:31:52Z</time></trkpt>
<trkpt lat="46.24762700" lon="7.00671700"><ele>420.5299987656</ele><time>2008-11-01T14:36:01Z</time></trkpt>
<trkpt lat="46.24760600" lon="7.00674400"><ele>420.4989929856</ele><time>2008-11-01T14:36:02Z</time></trkpt>
<trkpt lat="46.24758300" lon="7.00677500"><ele>420.5299987656</ele><time>2008-11-01T14:36:03Z</time></trkpt>
<trkpt lat="46.24756200" lon="7.00680800"><ele>420.5499878544</ele><time>2008-11-01T14:36:04Z</time></trkpt>
<trkpt lat="46.24754200" lon="7.00684100"><ele>420.5599974864</ele><time>2008-11-01T14:36:05Z</time></trkpt>
<trkpt lat="46.24752300" lon="7.00687400"><ele>420.4989929856</ele><time>2008-11-01T14:36:06Z</time></trkpt>
<trkpt lat="46.24750400" lon="7.00690600"><ele>420.5490112752</ele><time>2008-11-01T14:36:07Z</time></trkpt>
<trkpt lat="46.24748500" lon="7.00693700"><ele>420.5289917064</ele><time>2008-11-01T14:36:08Z</time></trkpt>
<trkpt lat="46.24746400" lon="7.00696600"><ele>420.6390074376</ele><time>2008-11-01T14:36:09Z</time></trkpt>
<trkpt lat="46.24744200" lon="7.00699200"><ele>420.5679933048</ele><time>2008-11-01T14:36:10Z</time></trkpt>
<trkpt lat="46.24742100" lon="7.00701600"><ele>420.6279907464</ele><time>2008-11-01T14:36:11Z</time></trkpt>
<trkpt lat="46.24740100" lon="7.00704100"><ele>420.6380003784</ele><time>2008-11-01T14:36:12Z</time></trkpt>
<trkpt lat="46.24738000" lon="7.00706600"><ele>420.678009036</ele><time>2008-11-01T14:36:13Z</time></trkpt>
<trkpt lat="46.24735800" lon="7.00708900"><ele>420.8489990928</ele><time>2008-11-01T14:36:14Z</time></trkpt>
<trkpt lat="46.24733600" lon="7.00711200"><ele>421.0400084136</ele><time>2008-11-01T14:36:15Z</time></trkpt>
<trkpt lat="46.24731400" lon="7.00713300"><ele>421.26098628</ele><time>2008-11-01T14:36:16Z</time></trkpt>
<trkpt lat="46.24729200" lon="7.00715300"><ele>421.6419981672</ele><time>2008-11-01T14:36:17Z</time></trkpt>
<trkpt lat="46.24727000" lon="7.00717000"><ele>422.1329956104</ele><time>2008-11-01T14:36:18Z</time></trkpt>
<trkpt lat="46.24724700" lon="7.00718800"><ele>422.3330078088</ele><time>2008-11-01T14:36:19Z</time></trkpt>
<trkpt lat="46.24722300" lon="7.00720900"><ele>422.3309936904</ele><time>2008-11-01T14:36:20Z</time></trkpt>
<trkpt lat="46.24719900" lon="7.00723000"><ele>422.4410094216</ele><time>2008-11-01T14:36:21Z</time></trkpt>
<trkpt lat="46.24717400" lon="7.00725100"><ele>422.459014872</ele><time>2008-11-01T14:36:22Z</time></trkpt>
<trkpt lat="46.24714700" lon="7.00727100"><ele>422.5390014024</ele><time>2008-11-01T14:36:23Z</time></trkpt>
<trkpt lat="46.24712000" lon="7.00729200"><ele>422.5289917704</ele><time>2008-11-01T14:36:24Z</time></trkpt>
<trkpt lat="46.24709300" lon="7.00731400"><ele>422.6189879328</ele><time>2008-11-01T14:36:25Z</time></trkpt>
<trkpt lat="46.24706400" lon="7.00733500"><ele>422.5979920896</ele><time>2008-11-01T14:36:26Z</time></trkpt>
<trkpt lat="46.24703400" lon="7.00735600"><ele>422.5280151912</ele><time>2008-11-01T14:36:27Z</time></trkpt>
<trkpt lat="46.24700500" lon="7.00737900"><ele>422.4970094112</ele><time>2008-11-01T14:36:28Z</time></trkpt>
<trkpt lat="46.24697400" lon="7.00740200"><ele>422.407012944</ele><time>2008-11-01T14:36:29Z</time></trkpt>
<trkpt lat="46.24694300" lon="7.00742600"><ele>422.3269959336</ele><time>2008-11-01T14:36:30Z</time></trkpt>
<trkpt lat="46.24691200" lon="7.00745000"><ele>422.298004272</ele><time>2008-11-01T14:36:31Z</time></trkpt>
<trkpt lat="46.24688200" lon="7.00747500"><ele>422.3880004344</ele><time>2008-11-01T14:36:32Z</time></trkpt>
<trkpt lat="46.24685200" lon="7.00749600"><ele>422.3779908024</ele><time>2008-11-01T14:36:33Z</time></trkpt>
<trkpt lat="46.24682200" lon="7.00751500"><ele>422.3169859968</ele><time>2008-11-01T14:36:34Z</time></trkpt>
<trkpt lat="46.24679100" lon="7.00753500"><ele>422.0859984984</ele><time>2008-11-01T14:36:35Z</time></trkpt>
<trkpt lat="46.24676100" lon="7.00755700"><ele>421.9469911056</ele><time>2008-11-01T14:36:36Z</time></trkpt>
<trkpt lat="46.24673100" lon="7.00758000"><ele>421.7369994504</ele><time>2008-11-01T14:36:37Z</time></trkpt>
<trkpt lat="46.24670000" lon="7.00760300"><ele>421.4970093792</ele><time>2008-11-01T14:36:38Z</time></trkpt>
<trkpt lat="46.24667100" lon="7.00762800"><ele>421.4570007216</ele><time>2008-11-01T14:36:39Z</time></trkpt>
<trkpt lat="46.24664400" lon="7.00765800"><ele>421.6180116264</ele><time>2008-11-01T14:36:40Z</time></trkpt>
<trkpt lat="46.24661800" lon="7.00768900"><ele>421.6979981568</ele><time>2008-11-01T14:36:41Z</time></trkpt>
<trkpt lat="46.24659200" lon="7.00772000"><ele>421.7080077888</ele><time>2008-11-01T14:36:42Z</time></trkpt>
<trkpt lat="46.24656700" lon="7.00774700"><ele>421.5570068208</ele><time>2008-11-01T14:36:43Z</time></trkpt>
<trkpt lat="46.24654300" lon="7.00777600"><ele>421.4979859584</ele><time>2008-11-01T14:36:44Z</time></trkpt>
<trkpt lat="46.24652100" lon="7.00780600"><ele>421.5910032984</ele><time>2008-11-01T14:36:45Z</time></trkpt>
<trkpt lat="46.24650100" lon="7.00783600"><ele>421.6889952792</ele><time>2008-11-01T14:36:46Z</time></trkpt>
<trkpt lat="46.24648200" lon="7.00786900"><ele>421.8299866152</ele><time>2008-11-01T14:36:47Z</time></trkpt>
<trkpt lat="46.24646300" lon="7.00790300"><ele>421.869994968</ele><time>2008-11-01T14:36:48Z</time></trkpt>
<trkpt lat="46.24644300" lon="7.00793700"><ele>422.131011972</ele><time>2008-11-01T14:36:49Z</time></trkpt>
<trkpt lat="46.24642300" lon="7.00797000"><ele>422.390991132</ele><time>2008-11-01T14:36:50Z</time></trkpt>
<trkpt lat="46.24640500" lon="7.00800300"><ele>422.7109985184</ele><time>2008-11-01T14:36:51Z</time></trkpt>
<trkpt lat="46.24638800" lon="7.00803700"><ele>422.9620055856</ele><time>2008-11-01T14:36:52Z</time></trkpt>
<trkpt lat="46.24637100" lon="7.00807200"><ele>423.183013932</ele><time>2008-11-01T14:36:53Z</time></trkpt>
<trkpt lat="46.24635400" lon="7.00810700"><ele>423.4630126608</ele><time>2008-11-01T14:36:54Z</time></trkpt>
<trkpt lat="46.24633600" lon="7.00814400"><ele>423.7070007936</ele><time>2008-11-01T14:36:55Z</time></trkpt>
<trkpt lat="46.24631800" lon="7.00818200"><ele>424.0230101184</ele><time>2008-11-01T14:36:56Z</time></trkpt>
<trkpt lat="46.24630100" lon="7.00821700"><ele>424.3169860608</ele><time>2008-11-01T14:36:57Z</time></trkpt>
<trkpt lat="46.24628400" lon="7.00825200"><ele>424.5950011512</ele><time>2008-11-01T14:36:58Z</time></trkpt>
<trkpt lat="46.24626800" lon="7.00828700"><ele>424.8930053304</ele><time>2008-11-01T14:36:59Z</time></trkpt>
<trkpt lat="46.24625300" lon="7.00832400"><ele>425.213989296</ele><time>2008-11-01T14:37:00Z</time></trkpt>
<trkpt lat="46.24623800" lon="7.00836000"><ele>425.5230101664</ele><time>2008-11-01T14:37:01Z</time></trkpt>
<trkpt lat="46.24622200" lon="7.00839500"><ele>425.8330079208</ele><time>2008-11-01T14:37:02Z</time></trkpt>
<trkpt lat="46.24620900" lon="7.00843000"><ele>426.1749877296</ele><time>2008-11-01T14:37:03Z</time></trkpt>
<trkpt lat="46.24619700" lon="7.00846300"><ele>426.4230040992</ele><time>2008-11-01T14:37:04Z</time></trkpt>
<trkpt lat="46.24618500" lon="7.00849600"><ele>426.6119996064</ele><time>2008-11-01T14:37:05Z</time></trkpt>
<trkpt lat="46.24617500" lon="7.00853200"><ele>426.7300108512</ele><time>2008-11-01T14:37:06Z</time></trkpt>
<trkpt lat="46.24616600" lon="7.00856700"><ele>426.8099976864</ele><time>2008-11-01T14:37:07Z</time></trkpt>
<trkpt lat="46.24615500" lon="7.00860300"><ele>426.9400025064</ele><time>2008-11-01T14:37:08Z</time></trkpt>
<trkpt lat="46.24614300" lon="7.00864000"><ele>427.0509948168</ele><time>2008-11-01T14:37:09Z</time></trkpt>
<trkpt lat="46.24612900" lon="7.00867500"><ele>427.1499938568</ele><time>2008-11-01T14:37:10Z</time></trkpt>
<trkpt lat="46.24611300" lon="7.00870800"><ele>427.1900025144</ele><time>2008-11-01T14:37:11Z</time></trkpt>
<trkpt lat="46.24609500" lon="7.00874000"><ele>427.2900086136</ele><time>2008-11-01T14:37:12Z</time></trkpt>
<trkpt lat="46.24607900" lon="7.00877000"><ele>427.3999938648</ele><time>2008-11-01T14:37:13Z</time></trkpt>
<trkpt lat="46.24606500" lon="7.00879700"><ele>427.4500121544</ele><time>2008-11-01T14:37:14Z</time></trkpt>
<trkpt lat="46.24605200" lon="7.00881700"><ele>427.4299925856</ele><time>2008-11-01T14:37:15Z</time></trkpt>
<trkpt lat="46.24603800" lon="7.00883500"><ele>427.4190063744</ele><time>2008-11-01T14:37:16Z</time></trkpt>
<trkpt lat="46.24602300" lon="7.00885600"><ele>427.468994184</ele><time>2008-11-01T14:37:17Z</time></trkpt>
<trkpt lat="46.24600900" lon="7.00888100"><ele>427.5400086216</ele><time>2008-11-01T14:37:18Z</time></trkpt>
<trkpt lat="46.24599400" lon="7.00891000"><ele>427.5490111944</ele><time>2008-11-01T14:37:19Z</time></trkpt>
<trkpt lat="46.24598100" lon="7.00894000"><ele>427.4979858456</ele><time>2008-11-01T14:37:20Z</time></trkpt>
<trkpt lat="46.24596900" lon="7.00897000"><ele>427.5480041352</ele><time>2008-11-01T14:37:21Z</time></trkpt>
<trkpt lat="46.24595900" lon="7.00900100"><ele>427.567993224</ele><time>2008-11-01T14:37:22Z</time></trkpt>
<trkpt lat="46.24595300" lon="7.00903500"><ele>427.6380006024</ele><time>2008-11-01T14:37:23Z</time></trkpt>
<trkpt lat="46.24594800" lon="7.00906800"><ele>427.6679993232</ele><time>2008-11-01T14:37:24Z</time></trkpt>
<trkpt lat="46.24594400" lon="7.00910000"><ele>427.7990112024</ele><time>2008-11-01T14:37:25Z</time></trkpt>
<trkpt lat="46.24594700" lon="7.00913000"><ele>427.8089903544</ele><time>2008-11-01T14:37:26Z</time></trkpt>
<trkpt lat="46.24595600" lon="7.00915500"><ele>427.7980041432</ele><time>2008-11-01T14:37:27Z</time></trkpt>
<trkpt lat="46.24596600" lon="7.00917500"><ele>427.7579954856</ele><time>2008-11-01T14:37:28Z</time></trkpt>
<trkpt lat="46.24597200" lon="7.00919400"><ele>427.7590025448</ele><time>2008-11-01T14:37:29Z</time></trkpt>
<trkpt lat="46.24597600" lon="7.00921200"><ele>427.7590025448</ele><time>2008-11-01T14:37:30Z</time></trkpt>
<trkpt lat="46.24598500" lon="7.00922700"><ele>427.7390137608</ele><time>2008-11-01T14:37:31Z</time></trkpt>
<trkpt lat="46.24599500" lon="7.00924300"><ele>427.708007676</ele><time>2008-11-01T14:37:32Z</time></trkpt>
<trkpt lat="46.24600400" lon="7.00926100"><ele>427.6990051032</ele><time>2008-11-01T14:37:33Z</time></trkpt>
<trkpt lat="46.24601200" lon="7.00928100"><ele>427.6889954712</ele><time>2008-11-01T14:37:34Z</time></trkpt>
<trkpt lat="46.24602000" lon="7.00929800"><ele>427.6690063824</ele><time>2008-11-01T14:37:35Z</time></trkpt>
<trkpt lat="46.24602800" lon="7.00931100"><ele>427.6690063824</ele><time>2008-11-01T14:37:36Z</time></trkpt>
<trkpt lat="46.24603100" lon="7.00931600"><ele>427.6380006024</ele><time>2008-11-01T14:37:37Z</time></trkpt>
<trkpt lat="46.24605100" lon="7.00935400"><ele>426.9389954472</ele><time>2008-11-01T14:38:01Z</time></trkpt>
<trkpt lat="46.24606100" lon="7.00937800"><ele>426.968994168</ele><time>2008-11-01T14:38:02Z</time></trkpt>
<trkpt lat="46.24607100" lon="7.00940300"><ele>426.989990316</ele><time>2008-11-01T14:38:03Z</time></trkpt>
<trkpt lat="46.24608100" lon="7.00942700"><ele>427.119995136</ele><time>2008-11-01T14:38:04Z</time></trkpt>
<trkpt lat="46.24609200" lon="7.00945100"><ele>427.1390076456</ele><time>2008-11-01T14:38:05Z</time></trkpt>
<trkpt lat="46.24610200" lon="7.00948100"><ele>427.1889954552</ele><time>2008-11-01T14:38:06Z</time></trkpt>
<trkpt lat="46.24611200" lon="7.00951400"><ele>427.218994176</ele><time>2008-11-01T14:38:07Z</time></trkpt>
<trkpt lat="46.24612300" lon="7.00955000"><ele>427.3299864864</ele><time>2008-11-01T14:38:08Z</time></trkpt>
<trkpt lat="46.24613200" lon="7.00958800"><ele>427.3500060552</ele><time>2008-11-01T14:38:09Z</time></trkpt>
<trkpt lat="46.24614200" lon="7.00962300"><ele>427.4100038016</ele><time>2008-11-01T14:38:10Z</time></trkpt>
<trkpt lat="46.24615300" lon="7.00965800"><ele>427.5090025368</ele><time>2008-11-01T14:38:11Z</time></trkpt>
<trkpt lat="46.24616400" lon="7.00969300"><ele>427.619995152</ele><time>2008-11-01T14:38:12Z</time></trkpt>
<trkpt lat="46.24617400" lon="7.00972900"><ele>427.7099913144</ele><time>2008-11-01T14:38:13Z</time></trkpt>
<trkpt lat="46.24618600" lon="7.00976400"><ele>427.729003824</ele><time>2008-11-01T14:38:14Z</time></trkpt>
<trkpt lat="46.24619900" lon="7.00979800"><ele>427.7690124816</ele><time>2008-11-01T14:38:15Z</time></trkpt>
<trkpt lat="46.24621200" lon="7.00983500"><ele>427.86999516</ele><time>2008-11-01T14:38:16Z</time></trkpt>
<trkpt lat="46.24622500" lon="7.00987500"><ele>427.9800108912</ele><time>2008-11-01T14:38:17Z</time></trkpt>
<trkpt lat="46.24624000" lon="7.00991700"><ele>428.1099852312</ele><time>2008-11-01T14:38:18Z</time></trkpt>
<trkpt lat="46.24625600" lon="7.00996200"><ele>428.2109983896</ele><time>2008-11-01T14:38:19Z</time></trkpt>
<trkpt lat="46.24627000" lon="7.01001400"><ele>428.3099974296</ele><time>2008-11-01T14:38:20Z</time></trkpt>
<trkpt lat="46.24628100" lon="7.01007000"><ele>428.4200134656</ele><time>2008-11-01T14:38:21Z</time></trkpt>
<trkpt lat="46.24629200" lon="7.01012600"><ele>428.5299987168</ele><time>2008-11-01T14:38:22Z</time></trkpt>
<trkpt lat="46.24630200" lon="7.01018300"><ele>428.6400147528</ele><time>2008-11-01T14:38:23Z</time></trkpt>
<trkpt lat="46.24631100" lon="7.01024000"><ele>428.7300109152</ele><time>2008-11-01T14:38:24Z</time></trkpt>
<trkpt lat="46.24632100" lon="7.01029400"><ele>428.8399964712</ele><time>2008-11-01T14:38:25Z</time></trkpt>
<trkpt lat="46.24633200" lon="7.01034800"><ele>428.9700012912</ele><time>2008-11-01T14:38:26Z</time></trkpt>
<trkpt lat="46.24634100" lon="7.01040200"><ele>429.1499939208</ele><time>2008-11-01T14:38:27Z</time></trkpt>
<trkpt lat="46.24634800" lon="7.01045500"><ele>429.4519958568</ele><time>2008-11-01T14:38:28Z</time></trkpt>
<trkpt lat="46.24635700" lon="7.01050900"><ele>429.7319945856</ele><time>2008-11-01T14:38:29Z</time></trkpt>
<trkpt lat="46.24636700" lon="7.01056300"><ele>429.9119872152</ele><time>2008-11-01T14:38:30Z</time></trkpt>
<trkpt lat="46.24637700" lon="7.01061700"><ele>430.1310119232</ele><time>2008-11-01T14:38:31Z</time></trkpt>
<trkpt lat="46.24638700" lon="7.01067200"><ele>430.098999084</ele><time>2008-11-01T14:38:32Z</time></trkpt>
<trkpt lat="46.24639800" lon="7.01072700"><ele>430.1990051832</ele><time>2008-11-01T14:38:33Z</time></trkpt>
<trkpt lat="46.24640600" lon="7.01078200"><ele>430.2090148152</ele><time>2008-11-01T14:38:34Z</time></trkpt>
<trkpt lat="46.24641400" lon="7.01083600"><ele>430.2279968448</ele><time>2008-11-01T14:38:35Z</time></trkpt>
<trkpt lat="46.24642300" lon="7.01089000"><ele>430.3089904344</ele><time>2008-11-01T14:38:36Z</time></trkpt>
<trkpt lat="46.24642900" lon="7.01094300"><ele>430.3080138552</ele><time>2008-11-01T14:38:37Z</time></trkpt>
<trkpt lat="46.24643400" lon="7.01099700"><ele>430.3680116016</ele><time>2008-11-01T14:38:38Z</time></trkpt>
<trkpt lat="46.24643900" lon="7.01105200"><ele>430.3479920328</ele><time>2008-11-01T14:38:39Z</time></trkpt>
<trkpt lat="46.24645100" lon="7.01110600"><ele>430.6189881888</ele><time>2008-11-01T14:38:40Z</time></trkpt>
<trkpt lat="46.24646000" lon="7.01116100"><ele>430.6990051992</ele><time>2008-11-01T14:38:41Z</time></trkpt>
<trkpt lat="46.24646600" lon="7.01121700"><ele>430.8190003872</ele><time>2008-11-01T14:38:42Z</time></trkpt>
<trkpt lat="46.24646900" lon="7.01127500"><ele>430.8989869176</ele><time>2008-11-01T14:38:43Z</time></trkpt>
<trkpt lat="46.24647500" lon="7.01133300"><ele>430.967986932</ele><time>2008-11-01T14:38:44Z</time></trkpt>
<trkpt lat="46.24648400" lon="7.01139100"><ele>430.9169920632</ele><time>2008-11-01T14:38:45Z</time></trkpt>
<trkpt lat="46.24649200" lon="7.01144800"><ele>431.0280151584</ele><time>2008-11-01T14:38:46Z</time></trkpt>
<trkpt lat="46.24649900" lon="7.01150600"><ele>430.6960145016</ele><time>2008-11-01T14:38:47Z</time></trkpt>
<trkpt lat="46.24650600" lon="7.01156500"><ele>430.807006812</ele><time>2008-11-01T14:38:48Z</time></trkpt>
<trkpt lat="46.24651100" lon="7.01162400"><ele>430.9079894904</ele><time>2008-11-01T14:38:49Z</time></trkpt>
<trkpt lat="46.24651600" lon="7.01168500"><ele>430.9379882112</ele><time>2008-11-01T14:38:50Z</time></trkpt>
<trkpt lat="46.24652700" lon="7.01174800"><ele>431.7680052456</ele><time>2008-11-01T14:38:51Z</time></trkpt>
<trkpt lat="46.24652500" lon="7.01181000"><ele>432.0280151904</ele><time>2008-11-01T14:38:52Z</time></trkpt>
<trkpt lat="46.24650200" lon="7.01186600"><ele>431.8290100512</ele><time>2008-11-01T14:38:53Z</time></trkpt>
<trkpt lat="46.24646700" lon="7.01190700"><ele>432.0220033152</ele><time>2008-11-01T14:38:54Z</time></trkpt>
<trkpt lat="46.24643000" lon="7.01193900"><ele>432.1029969048</ele><time>2008-11-01T14:38:55Z</time></trkpt>
<trkpt lat="46.24639600" lon="7.01197200"><ele>432.1730042832</ele><time>2008-11-01T14:38:56Z</time></trkpt>
<trkpt lat="46.24636400" lon="7.01200800"><ele>432.1539917736</ele><time>2008-11-01T14:38:57Z</time></trkpt>
<trkpt lat="46.24633200" lon="7.01204400"><ele>432.2720033232</ele><time>2008-11-01T14:38:58Z</time></trkpt>
<trkpt lat="46.24629900" lon="7.01207900"><ele>432.5729978952</ele><time>2008-11-01T14:38:59Z</time></trkpt>
<trkpt lat="46.24626900" lon="7.01211200"><ele>432.7420043136</ele><time>2008-11-01T14:39:00Z</time></trkpt>
<trkpt lat="46.24624200" lon="7.01214700"><ele>432.821990844</ele><time>2008-11-01T14:39:01Z</time></trkpt>
<trkpt lat="46.24621500" lon="7.01218200"><ele>432.9719847528</ele><time>2008-11-01T14:39:02Z</time></trkpt>
<trkpt lat="46.24619100" lon="7.01222000"><ele>433.2940062576</ele><time>2008-11-01T14:39:03Z</time></trkpt>
<trkpt lat="46.24616800" lon="7.01225800"><ele>433.6530152424</ele><time>2008-11-01T14:39:04Z</time></trkpt>
<trkpt lat="46.24614800" lon="7.01229900"><ele>433.833007872</ele><time>2008-11-01T14:39:05Z</time></trkpt>
<trkpt lat="46.24613200" lon="7.01234000"><ele>434.0109863832</ele><time>2008-11-01T14:39:06Z</time></trkpt>
<trkpt lat="46.24611900" lon="7.01237800"><ele>434.2709960232</ele><time>2008-11-01T14:39:07Z</time></trkpt>
<trkpt lat="46.24610700" lon="7.01241400"><ele>434.5220030904</ele><time>2008-11-01T14:39:08Z</time></trkpt>
<trkpt lat="46.24609900" lon="7.01245000"><ele>434.833007904</ele><time>2008-11-01T14:39:09Z</time></trkpt>
<trkpt lat="46.24609800" lon="7.01248500"><ele>434.951995728</ele><time>2008-11-01T14:39:10Z</time></trkpt>
<trkpt lat="46.24610300" lon="7.01251500"><ele>435.1220092056</ele><time>2008-11-01T14:39:11Z</time></trkpt>
<trkpt lat="46.24611300" lon="7.01254000"><ele>435.2319947616</ele><time>2008-11-01T14:39:12Z</time></trkpt>
<trkpt lat="46.24612400" lon="7.01256100"><ele>435.411010812</ele><time>2008-11-01T14:39:13Z</time></trkpt>
<trkpt lat="46.24613900" lon="7.01258000"><ele>435.4700011944</ele><time>2008-11-01T14:39:14Z</time></trkpt>
<trkpt lat="46.24615400" lon="7.01259900"><ele>435.3179931672</ele><time>2008-11-01T14:39:15Z</time></trkpt>
<trkpt lat="46.24616500" lon="7.01261900"><ele>435.378997668</ele><time>2008-11-01T14:39:16Z</time></trkpt>
<trkpt lat="46.24617900" lon="7.01263700"><ele>434.9859925104</ele><time>2008-11-01T14:39:17Z</time></trkpt>
<trkpt lat="46.24619500" lon="7.01263500"><ele>434.6740111176</ele><time>2008-11-01T14:39:18Z</time></trkpt>
<trkpt lat="46.24621000" lon="7.01263000"><ele>434.28100596</ele><time>2008-11-01T14:39:19Z</time></trkpt>
<trkpt lat="46.24621700" lon="7.01263200"><ele>434.2260133344</ele><time>2008-11-01T14:39:20Z</time></trkpt>
<trkpt lat="46.24621600" lon="7.01262800"><ele>434.0769957</ele><time>2008-11-01T14:39:21Z</time></trkpt>
</trkseg></trk></gpx>